<?xml version="1.0" encoding="UTF-8" standalone="no" ?>
<gpx xmlns="http://www.topografix.com/GPX/1/1" xmlns:xsi="http://www.w3.org/2001/XMLSchema-instance" xsi:schemaLocation="http://www.topografix.com/GPX/1/1 http://www.topografix.com/GPX/1/1/gpx.xsd" version="1.1" creator="VisuGPX - https://www.visugpx.com">
  <metadata>
    <name>Pornichet 16/01/2022</name>
    <desc><![CDATA[Sortie vtt dimanche 16 janvier 2022]]></desc>
  </metadata>
  <trk>
    <name><![CDATA[Pornichet Cyclisme]]></name>
    <trkseg>
      <trkpt lat="47.26395" lon="-2.31548">
        <ele>9.5</ele>
        <time>2022-01-16T08:00:18.000Z</time>
      </trkpt>
      <trkpt lat="47.26395" lon="-2.31562">
        <ele>9.2</ele>
        <time>2022-01-16T08:00:21.000Z</time>
      </trkpt>
      <trkpt lat="47.26395" lon="-2.31567">
        <ele>2</ele>
        <time>2022-01-16T08:00:22.000Z</time>
      </trkpt>
      <trkpt lat="47.26395" lon="-2.31571">
        <ele>3.7999999523163</ele>
        <time>2022-01-16T08:00:23.000Z</time>
      </trkpt>
      <trkpt lat="47.26395" lon="-2.31577">
        <ele>5.8000001907349</ele>
        <time>2022-01-16T08:00:24.000Z</time>
      </trkpt>
      <trkpt lat="47.26395" lon="-2.31582">
        <ele>7.8000001907349</ele>
        <time>2022-01-16T08:00:25.000Z</time>
      </trkpt>
      <trkpt lat="47.26395" lon="-2.31619">
        <ele>7.8000001907349</ele>
        <time>2022-01-16T08:00:32.000Z</time>
      </trkpt>
      <trkpt lat="47.26402" lon="-2.31657">
        <ele>7.8000001907349</ele>
        <time>2022-01-16T08:00:37.000Z</time>
      </trkpt>
      <trkpt lat="47.2639" lon="-2.31666">
        <ele>7.8000001907349</ele>
        <time>2022-01-16T08:00:41.000Z</time>
      </trkpt>
      <trkpt lat="47.26386" lon="-2.31668">
        <ele>7.8000001907349</ele>
        <time>2022-01-16T08:00:42.000Z</time>
      </trkpt>
      <trkpt lat="47.26373" lon="-2.31677">
        <ele>7.8000001907349</ele>
        <time>2022-01-16T08:00:45.000Z</time>
      </trkpt>
      <trkpt lat="47.26364" lon="-2.31682">
        <ele>7.8000001907349</ele>
        <time>2022-01-16T08:00:47.000Z</time>
      </trkpt>
      <trkpt lat="47.2635" lon="-2.31691">
        <ele>5.8000001907349</ele>
        <time>2022-01-16T08:00:50.000Z</time>
      </trkpt>
      <trkpt lat="47.26345" lon="-2.31694">
        <ele>3.7999999523163</ele>
        <time>2022-01-16T08:00:51.000Z</time>
      </trkpt>
      <trkpt lat="47.26341" lon="-2.31697">
        <ele>1.7999999523163</ele>
        <time>2022-01-16T08:00:52.000Z</time>
      </trkpt>
      <trkpt lat="47.26336" lon="-2.31699">
        <ele>-0.20000000298023</ele>
        <time>2022-01-16T08:00:53.000Z</time>
      </trkpt>
      <trkpt lat="47.2633" lon="-2.31702">
        <ele>-2.2000000476837</ele>
        <time>2022-01-16T08:00:54.000Z</time>
      </trkpt>
      <trkpt lat="47.26307" lon="-2.31715">
        <ele>-2.2000000476837</ele>
        <time>2022-01-16T08:00:59.000Z</time>
      </trkpt>
      <trkpt lat="47.26304" lon="-2.31719">
        <ele>-2.5999999046326</ele>
        <time>2022-01-16T08:01:00.000Z</time>
      </trkpt>
      <trkpt lat="47.26301" lon="-2.31723">
        <ele>-3</ele>
        <time>2022-01-16T08:01:01.000Z</time>
      </trkpt>
      <trkpt lat="47.263" lon="-2.31728">
        <ele>-3.4000000953674</ele>
        <time>2022-01-16T08:01:02.000Z</time>
      </trkpt>
      <trkpt lat="47.26301" lon="-2.31734">
        <ele>-4</ele>
        <time>2022-01-16T08:01:03.000Z</time>
      </trkpt>
      <trkpt lat="47.26302" lon="-2.31739">
        <ele>-4.4000000953674</ele>
        <time>2022-01-16T08:01:04.000Z</time>
      </trkpt>
      <trkpt lat="47.26304" lon="-2.3175">
        <ele>-4.4000000953674</ele>
        <time>2022-01-16T08:01:05.000Z</time>
      </trkpt>
      <trkpt lat="47.26306" lon="-2.31766">
        <ele>-4.4000000953674</ele>
        <time>2022-01-16T08:01:09.000Z</time>
      </trkpt>
      <trkpt lat="47.26309" lon="-2.31792">
        <ele>-4.4000000953674</ele>
        <time>2022-01-16T08:01:14.000Z</time>
      </trkpt>
      <trkpt lat="47.26309" lon="-2.31799">
        <ele>-4.4000000953674</ele>
        <time>2022-01-16T08:01:15.000Z</time>
      </trkpt>
      <trkpt lat="47.26307" lon="-2.3183">
        <ele>-4.4000000953674</ele>
        <time>2022-01-16T08:01:20.000Z</time>
      </trkpt>
      <trkpt lat="47.26305" lon="-2.31858">
        <ele>-4.4000000953674</ele>
        <time>2022-01-16T08:01:25.000Z</time>
      </trkpt>
      <trkpt lat="47.26303" lon="-2.31877">
        <ele>-4.4000000953674</ele>
        <time>2022-01-16T08:01:29.000Z</time>
      </trkpt>
      <trkpt lat="47.26288" lon="-2.31893">
        <ele>-4.4000000953674</ele>
        <time>2022-01-16T08:01:34.000Z</time>
      </trkpt>
      <trkpt lat="47.26274" lon="-2.31912">
        <ele>-4.4000000953674</ele>
        <time>2022-01-16T08:01:39.000Z</time>
      </trkpt>
      <trkpt lat="47.26269" lon="-2.31921">
        <ele>-4.8000001907349</ele>
        <time>2022-01-16T08:01:41.000Z</time>
      </trkpt>
      <trkpt lat="47.26266" lon="-2.31925">
        <ele>-5.1999998092651</ele>
        <time>2022-01-16T08:01:42.000Z</time>
      </trkpt>
      <trkpt lat="47.26263" lon="-2.31928">
        <ele>-5.5999999046326</ele>
        <time>2022-01-16T08:01:43.000Z</time>
      </trkpt>
      <trkpt lat="47.26261" lon="-2.31932">
        <ele>-6</ele>
        <time>2022-01-16T08:01:44.000Z</time>
      </trkpt>
      <trkpt lat="47.26259" lon="-2.31936">
        <ele>-6.4000000953674</ele>
        <time>2022-01-16T08:01:45.000Z</time>
      </trkpt>
      <trkpt lat="47.26241" lon="-2.31957">
        <ele>-6.4000000953674</ele>
        <time>2022-01-16T08:01:51.000Z</time>
      </trkpt>
      <trkpt lat="47.26227" lon="-2.31971">
        <ele>-6.4000000953674</ele>
        <time>2022-01-16T08:01:57.000Z</time>
      </trkpt>
      <trkpt lat="47.26217" lon="-2.31984">
        <ele>-6.4000000953674</ele>
        <time>2022-01-16T08:02:01.000Z</time>
      </trkpt>
      <trkpt lat="47.26213" lon="-2.31989">
        <ele>-6.4000000953674</ele>
        <time>2022-01-16T08:02:03.000Z</time>
      </trkpt>
      <trkpt lat="47.26207" lon="-2.31997">
        <ele>-6.4000000953674</ele>
        <time>2022-01-16T08:02:06.000Z</time>
      </trkpt>
      <trkpt lat="47.26207" lon="-2.32">
        <ele>-6.4000000953674</ele>
        <time>2022-01-16T08:02:07.000Z</time>
      </trkpt>
      <trkpt lat="47.26204" lon="-2.32011">
        <ele>-6.4000000953674</ele>
        <time>2022-01-16T08:02:11.000Z</time>
      </trkpt>
      <trkpt lat="47.26202" lon="-2.32012">
        <ele>-6.4000000953674</ele>
        <time>2022-01-16T08:02:13.000Z</time>
      </trkpt>
      <trkpt lat="47.262" lon="-2.32012">
        <ele>-6.4000000953674</ele>
        <time>2022-01-16T08:02:14.000Z</time>
      </trkpt>
      <trkpt lat="47.26189" lon="-2.32016">
        <ele>-6.4000000953674</ele>
        <time>2022-01-16T08:02:18.000Z</time>
      </trkpt>
      <trkpt lat="47.2617" lon="-2.32031">
        <ele>-6.4000000953674</ele>
        <time>2022-01-16T08:02:23.000Z</time>
      </trkpt>
      <trkpt lat="47.26159" lon="-2.32053">
        <ele>-6.4000000953674</ele>
        <time>2022-01-16T08:02:27.000Z</time>
      </trkpt>
      <trkpt lat="47.26157" lon="-2.32059">
        <ele>-6.4000000953674</ele>
        <time>2022-01-16T08:02:28.000Z</time>
      </trkpt>
      <trkpt lat="47.26147" lon="-2.3209">
        <ele>-6.4000000953674</ele>
        <time>2022-01-16T08:02:33.000Z</time>
      </trkpt>
      <trkpt lat="47.26136" lon="-2.3212">
        <ele>-6.4000000953674</ele>
        <time>2022-01-16T08:02:38.000Z</time>
      </trkpt>
      <trkpt lat="47.26135" lon="-2.32126">
        <ele>-6.4000000953674</ele>
        <time>2022-01-16T08:02:39.000Z</time>
      </trkpt>
      <trkpt lat="47.26119" lon="-2.32166">
        <ele>-6.4000000953674</ele>
        <time>2022-01-16T08:02:46.000Z</time>
      </trkpt>
      <trkpt lat="47.26103" lon="-2.32202">
        <ele>-6.4000000953674</ele>
        <time>2022-01-16T08:02:52.000Z</time>
      </trkpt>
      <trkpt lat="47.26099" lon="-2.32208">
        <ele>-6.4000000953674</ele>
        <time>2022-01-16T08:02:53.000Z</time>
      </trkpt>
      <trkpt lat="47.26086" lon="-2.32227">
        <ele>-6.4000000953674</ele>
        <time>2022-01-16T08:02:57.000Z</time>
      </trkpt>
      <trkpt lat="47.26079" lon="-2.32236">
        <ele>-6.4000000953674</ele>
        <time>2022-01-16T08:02:59.000Z</time>
      </trkpt>
      <trkpt lat="47.26064" lon="-2.32253">
        <ele>-6.4000000953674</ele>
        <time>2022-01-16T08:03:03.000Z</time>
      </trkpt>
      <trkpt lat="47.26041" lon="-2.32281">
        <ele>-6.4000000953674</ele>
        <time>2022-01-16T08:03:09.000Z</time>
      </trkpt>
      <trkpt lat="47.26005" lon="-2.32321">
        <ele>-6.4000000953674</ele>
        <time>2022-01-16T08:03:18.000Z</time>
      </trkpt>
      <trkpt lat="47.25976" lon="-2.3236">
        <ele>-6.4000000953674</ele>
        <time>2022-01-16T08:03:26.000Z</time>
      </trkpt>
      <trkpt lat="47.25948" lon="-2.32396">
        <ele>-6.4000000953674</ele>
        <time>2022-01-16T08:03:34.000Z</time>
      </trkpt>
      <trkpt lat="47.25923" lon="-2.32429">
        <ele>-6.4000000953674</ele>
        <time>2022-01-16T08:03:41.000Z</time>
      </trkpt>
      <trkpt lat="47.25897" lon="-2.32461">
        <ele>-6.4000000953674</ele>
        <time>2022-01-16T08:03:49.000Z</time>
      </trkpt>
      <trkpt lat="47.2589" lon="-2.32467">
        <ele>-6.4000000953674</ele>
        <time>2022-01-16T08:03:51.000Z</time>
      </trkpt>
      <trkpt lat="47.25878" lon="-2.32472">
        <ele>-6.4000000953674</ele>
        <time>2022-01-16T08:03:54.000Z</time>
      </trkpt>
      <trkpt lat="47.25873" lon="-2.32474">
        <ele>-6.4000000953674</ele>
        <time>2022-01-16T08:03:55.000Z</time>
      </trkpt>
      <trkpt lat="47.25861" lon="-2.32475">
        <ele>-6.4000000953674</ele>
        <time>2022-01-16T08:03:58.000Z</time>
      </trkpt>
      <trkpt lat="47.25852" lon="-2.32475">
        <ele>-6.4000000953674</ele>
        <time>2022-01-16T08:04:00.000Z</time>
      </trkpt>
      <trkpt lat="47.25847" lon="-2.32474">
        <ele>-6.4000000953674</ele>
        <time>2022-01-16T08:04:01.000Z</time>
      </trkpt>
      <trkpt lat="47.25829" lon="-2.3247">
        <ele>-6.4000000953674</ele>
        <time>2022-01-16T08:04:05.000Z</time>
      </trkpt>
      <trkpt lat="47.25825" lon="-2.32467">
        <ele>-6.4000000953674</ele>
        <time>2022-01-16T08:04:06.000Z</time>
      </trkpt>
      <trkpt lat="47.258" lon="-2.32457">
        <ele>-6.4000000953674</ele>
        <time>2022-01-16T08:04:12.000Z</time>
      </trkpt>
      <trkpt lat="47.25796" lon="-2.32457">
        <ele>-6.4000000953674</ele>
        <time>2022-01-16T08:04:13.000Z</time>
      </trkpt>
      <trkpt lat="47.25788" lon="-2.32458">
        <ele>-6.4000000953674</ele>
        <time>2022-01-16T08:04:15.000Z</time>
      </trkpt>
      <trkpt lat="47.2578" lon="-2.32454">
        <ele>-6.4000000953674</ele>
        <time>2022-01-16T08:04:17.000Z</time>
      </trkpt>
      <trkpt lat="47.25771" lon="-2.3244">
        <ele>-6.4000000953674</ele>
        <time>2022-01-16T08:04:20.000Z</time>
      </trkpt>
      <trkpt lat="47.25765" lon="-2.32431">
        <ele>-6.4000000953674</ele>
        <time>2022-01-16T08:04:22.000Z</time>
      </trkpt>
      <trkpt lat="47.25752" lon="-2.32426">
        <ele>-6.4000000953674</ele>
        <time>2022-01-16T08:04:25.000Z</time>
      </trkpt>
      <trkpt lat="47.25748" lon="-2.32425">
        <ele>-6.4000000953674</ele>
        <time>2022-01-16T08:04:26.000Z</time>
      </trkpt>
      <trkpt lat="47.25717" lon="-2.32424">
        <ele>-6.4000000953674</ele>
        <time>2022-01-16T08:04:32.000Z</time>
      </trkpt>
      <trkpt lat="47.25689" lon="-2.32423">
        <ele>-6.4000000953674</ele>
        <time>2022-01-16T08:04:38.000Z</time>
      </trkpt>
      <trkpt lat="47.25668" lon="-2.32422">
        <ele>-6.4000000953674</ele>
        <time>2022-01-16T08:04:43.000Z</time>
      </trkpt>
      <trkpt lat="47.25664" lon="-2.32424">
        <ele>-6.4000000953674</ele>
        <time>2022-01-16T08:04:44.000Z</time>
      </trkpt>
      <trkpt lat="47.25659" lon="-2.3244">
        <ele>-6.4000000953674</ele>
        <time>2022-01-16T08:04:47.000Z</time>
      </trkpt>
      <trkpt lat="47.25663" lon="-2.32459">
        <ele>-6.4000000953674</ele>
        <time>2022-01-16T08:04:50.000Z</time>
      </trkpt>
      <trkpt lat="47.25665" lon="-2.32465">
        <ele>-6.4000000953674</ele>
        <time>2022-01-16T08:04:51.000Z</time>
      </trkpt>
      <trkpt lat="47.2568" lon="-2.3251">
        <ele>-6.4000000953674</ele>
        <time>2022-01-16T08:04:59.000Z</time>
      </trkpt>
      <trkpt lat="47.25681" lon="-2.32515">
        <ele>-6</ele>
        <time>2022-01-16T08:05:00.000Z</time>
      </trkpt>
      <trkpt lat="47.25683" lon="-2.3252">
        <ele>-5.4000000953674</ele>
        <time>2022-01-16T08:05:01.000Z</time>
      </trkpt>
      <trkpt lat="47.25685" lon="-2.32526">
        <ele>-5</ele>
        <time>2022-01-16T08:05:02.000Z</time>
      </trkpt>
      <trkpt lat="47.25687" lon="-2.32532">
        <ele>-4.5999999046326</ele>
        <time>2022-01-16T08:05:03.000Z</time>
      </trkpt>
      <trkpt lat="47.25688" lon="-2.32537">
        <ele>-4.1999998092651</ele>
        <time>2022-01-16T08:05:04.000Z</time>
      </trkpt>
      <trkpt lat="47.25692" lon="-2.32547">
        <ele>-4.1999998092651</ele>
        <time>2022-01-16T08:05:06.000Z</time>
      </trkpt>
      <trkpt lat="47.25707" lon="-2.32591">
        <ele>-4.1999998092651</ele>
        <time>2022-01-16T08:05:14.000Z</time>
      </trkpt>
      <trkpt lat="47.25708" lon="-2.32597">
        <ele>-3.7999999523163</ele>
        <time>2022-01-16T08:05:15.000Z</time>
      </trkpt>
      <trkpt lat="47.25709" lon="-2.32603">
        <ele>-3.4000000953674</ele>
        <time>2022-01-16T08:05:16.000Z</time>
      </trkpt>
      <trkpt lat="47.2571" lon="-2.32609">
        <ele>-3</ele>
        <time>2022-01-16T08:05:17.000Z</time>
      </trkpt>
      <trkpt lat="47.25709" lon="-2.32615">
        <ele>-2.5999999046326</ele>
        <time>2022-01-16T08:05:18.000Z</time>
      </trkpt>
      <trkpt lat="47.25707" lon="-2.3262">
        <ele>-2.2000000476837</ele>
        <time>2022-01-16T08:05:19.000Z</time>
      </trkpt>
      <trkpt lat="47.25695" lon="-2.32627">
        <ele>-2.2000000476837</ele>
        <time>2022-01-16T08:05:22.000Z</time>
      </trkpt>
      <trkpt lat="47.25691" lon="-2.32629">
        <ele>-2.2000000476837</ele>
        <time>2022-01-16T08:05:23.000Z</time>
      </trkpt>
      <trkpt lat="47.25683" lon="-2.32633">
        <ele>-2.2000000476837</ele>
        <time>2022-01-16T08:05:25.000Z</time>
      </trkpt>
      <trkpt lat="47.25668" lon="-2.32641">
        <ele>-1.7999999523163</ele>
        <time>2022-01-16T08:05:29.000Z</time>
      </trkpt>
      <trkpt lat="47.25665" lon="-2.32643">
        <ele>-1.3999999761581</ele>
        <time>2022-01-16T08:05:30.000Z</time>
      </trkpt>
      <trkpt lat="47.25661" lon="-2.32645">
        <ele>-1</ele>
        <time>2022-01-16T08:05:31.000Z</time>
      </trkpt>
      <trkpt lat="47.25657" lon="-2.32647">
        <ele>-0.60000002384186</ele>
        <time>2022-01-16T08:05:32.000Z</time>
      </trkpt>
      <trkpt lat="47.25653" lon="-2.32649">
        <ele>-0.20000000298023</ele>
        <time>2022-01-16T08:05:33.000Z</time>
      </trkpt>
      <trkpt lat="47.25637" lon="-2.32654">
        <ele>-0.20000000298023</ele>
        <time>2022-01-16T08:05:37.000Z</time>
      </trkpt>
      <trkpt lat="47.25605" lon="-2.32667">
        <ele>0.20000000298023</ele>
        <time>2022-01-16T08:05:45.000Z</time>
      </trkpt>
      <trkpt lat="47.25601" lon="-2.32669">
        <ele>0.60000002384186</ele>
        <time>2022-01-16T08:05:46.000Z</time>
      </trkpt>
      <trkpt lat="47.25597" lon="-2.32671">
        <ele>1</ele>
        <time>2022-01-16T08:05:47.000Z</time>
      </trkpt>
      <trkpt lat="47.25593" lon="-2.32673">
        <ele>1.3999999761581</ele>
        <time>2022-01-16T08:05:48.000Z</time>
      </trkpt>
      <trkpt lat="47.25589" lon="-2.32675">
        <ele>2</ele>
        <time>2022-01-16T08:05:49.000Z</time>
      </trkpt>
      <trkpt lat="47.25568" lon="-2.32683">
        <ele>2</ele>
        <time>2022-01-16T08:05:54.000Z</time>
      </trkpt>
      <trkpt lat="47.25534" lon="-2.32696">
        <ele>2</ele>
        <time>2022-01-16T08:06:02.000Z</time>
      </trkpt>
      <trkpt lat="47.25507" lon="-2.32702">
        <ele>2</ele>
        <time>2022-01-16T08:06:08.000Z</time>
      </trkpt>
      <trkpt lat="47.25499" lon="-2.32703">
        <ele>2</ele>
        <time>2022-01-16T08:06:10.000Z</time>
      </trkpt>
      <trkpt lat="47.25481" lon="-2.32708">
        <ele>2</ele>
        <time>2022-01-16T08:06:14.000Z</time>
      </trkpt>
      <trkpt lat="47.2547" lon="-2.32717">
        <ele>2</ele>
        <time>2022-01-16T08:06:17.000Z</time>
      </trkpt>
      <trkpt lat="47.25467" lon="-2.32721">
        <ele>2</ele>
        <time>2022-01-16T08:06:18.000Z</time>
      </trkpt>
      <trkpt lat="47.25463" lon="-2.32726">
        <ele>2</ele>
        <time>2022-01-16T08:06:19.000Z</time>
      </trkpt>
      <trkpt lat="47.25451" lon="-2.32745">
        <ele>2</ele>
        <time>2022-01-16T08:06:23.000Z</time>
      </trkpt>
      <trkpt lat="47.25442" lon="-2.3276">
        <ele>2</ele>
        <time>2022-01-16T08:06:26.000Z</time>
      </trkpt>
      <trkpt lat="47.25436" lon="-2.32769">
        <ele>2</ele>
        <time>2022-01-16T08:06:28.000Z</time>
      </trkpt>
      <trkpt lat="47.25434" lon="-2.32774">
        <ele>1.3999999761581</ele>
        <time>2022-01-16T08:06:29.000Z</time>
      </trkpt>
      <trkpt lat="47.25433" lon="-2.3278">
        <ele>1</ele>
        <time>2022-01-16T08:06:30.000Z</time>
      </trkpt>
      <trkpt lat="47.2543" lon="-2.32784">
        <ele>0.60000002384186</ele>
        <time>2022-01-16T08:06:31.000Z</time>
      </trkpt>
      <trkpt lat="47.25427" lon="-2.32789">
        <ele>0.20000000298023</ele>
        <time>2022-01-16T08:06:32.000Z</time>
      </trkpt>
      <trkpt lat="47.25424" lon="-2.32794">
        <ele>-0.20000000298023</ele>
        <time>2022-01-16T08:06:33.000Z</time>
      </trkpt>
      <trkpt lat="47.2542" lon="-2.32799">
        <ele>-0.20000000298023</ele>
        <time>2022-01-16T08:06:34.000Z</time>
      </trkpt>
      <trkpt lat="47.25393" lon="-2.32835">
        <ele>-0.20000000298023</ele>
        <time>2022-01-16T08:06:41.000Z</time>
      </trkpt>
      <trkpt lat="47.2537" lon="-2.32861">
        <ele>-0.20000000298023</ele>
        <time>2022-01-16T08:06:47.000Z</time>
      </trkpt>
      <trkpt lat="47.25335" lon="-2.32897">
        <ele>-0.20000000298023</ele>
        <time>2022-01-16T08:06:56.000Z</time>
      </trkpt>
      <trkpt lat="47.25312" lon="-2.3292">
        <ele>-0.20000000298023</ele>
        <time>2022-01-16T08:07:02.000Z</time>
      </trkpt>
      <trkpt lat="47.25309" lon="-2.32926">
        <ele>-0.20000000298023</ele>
        <time>2022-01-16T08:07:03.000Z</time>
      </trkpt>
      <trkpt lat="47.25306" lon="-2.32945">
        <ele>-0.20000000298023</ele>
        <time>2022-01-16T08:07:06.000Z</time>
      </trkpt>
      <trkpt lat="47.25307" lon="-2.32951">
        <ele>-0.60000002384186</ele>
        <time>2022-01-16T08:07:07.000Z</time>
      </trkpt>
      <trkpt lat="47.25308" lon="-2.32957">
        <ele>-1</ele>
        <time>2022-01-16T08:07:08.000Z</time>
      </trkpt>
      <trkpt lat="47.2531" lon="-2.32963">
        <ele>-1.3999999761581</ele>
        <time>2022-01-16T08:07:09.000Z</time>
      </trkpt>
      <trkpt lat="47.25313" lon="-2.32969">
        <ele>-1.7999999523163</ele>
        <time>2022-01-16T08:07:10.000Z</time>
      </trkpt>
      <trkpt lat="47.25316" lon="-2.32975">
        <ele>-2.2000000476837</ele>
        <time>2022-01-16T08:07:11.000Z</time>
      </trkpt>
      <trkpt lat="47.25328" lon="-2.33006">
        <ele>-2.2000000476837</ele>
        <time>2022-01-16T08:07:16.000Z</time>
      </trkpt>
      <trkpt lat="47.25346" lon="-2.33055">
        <ele>-2.2000000476837</ele>
        <time>2022-01-16T08:07:24.000Z</time>
      </trkpt>
      <trkpt lat="47.25361" lon="-2.3309">
        <ele>-2.2000000476837</ele>
        <time>2022-01-16T08:07:31.000Z</time>
      </trkpt>
      <trkpt lat="47.25364" lon="-2.33098">
        <ele>-2.2000000476837</ele>
        <time>2022-01-16T08:07:36.000Z</time>
      </trkpt>
      <trkpt lat="47.25375" lon="-2.33109">
        <ele>-2.2000000476837</ele>
        <time>2022-01-16T08:12:47.000Z</time>
      </trkpt>
      <trkpt lat="47.25377" lon="-2.33115">
        <ele>-2.2000000476837</ele>
        <time>2022-01-16T08:12:49.000Z</time>
      </trkpt>
      <trkpt lat="47.25386" lon="-2.3314">
        <ele>-2.2000000476837</ele>
        <time>2022-01-16T08:12:56.000Z</time>
      </trkpt>
      <trkpt lat="47.254" lon="-2.33165">
        <ele>-2.2000000476837</ele>
        <time>2022-01-16T08:13:02.000Z</time>
      </trkpt>
      <trkpt lat="47.25406" lon="-2.33179">
        <ele>-2.2000000476837</ele>
        <time>2022-01-16T08:13:05.000Z</time>
      </trkpt>
      <trkpt lat="47.25411" lon="-2.3319">
        <ele>-2.2000000476837</ele>
        <time>2022-01-16T08:13:07.000Z</time>
      </trkpt>
      <trkpt lat="47.25426" lon="-2.3323">
        <ele>-2.2000000476837</ele>
        <time>2022-01-16T08:13:15.000Z</time>
      </trkpt>
      <trkpt lat="47.25441" lon="-2.33266">
        <ele>-2.2000000476837</ele>
        <time>2022-01-16T08:13:22.000Z</time>
      </trkpt>
      <trkpt lat="47.25452" lon="-2.3329">
        <ele>-2.2000000476837</ele>
        <time>2022-01-16T08:13:27.000Z</time>
      </trkpt>
      <trkpt lat="47.25453" lon="-2.33296">
        <ele>-2.2000000476837</ele>
        <time>2022-01-16T08:13:28.000Z</time>
      </trkpt>
      <trkpt lat="47.25448" lon="-2.33313">
        <ele>-2.2000000476837</ele>
        <time>2022-01-16T08:13:31.000Z</time>
      </trkpt>
      <trkpt lat="47.25444" lon="-2.33324">
        <ele>-2.2000000476837</ele>
        <time>2022-01-16T08:13:33.000Z</time>
      </trkpt>
      <trkpt lat="47.25435" lon="-2.33344">
        <ele>-2.2000000476837</ele>
        <time>2022-01-16T08:13:37.000Z</time>
      </trkpt>
      <trkpt lat="47.25433" lon="-2.33375">
        <ele>-2.2000000476837</ele>
        <time>2022-01-16T08:13:42.000Z</time>
      </trkpt>
      <trkpt lat="47.25433" lon="-2.33418">
        <ele>-2.2000000476837</ele>
        <time>2022-01-16T08:13:49.000Z</time>
      </trkpt>
      <trkpt lat="47.25433" lon="-2.33468">
        <ele>-2.2000000476837</ele>
        <time>2022-01-16T08:13:57.000Z</time>
      </trkpt>
      <trkpt lat="47.25442" lon="-2.33498">
        <ele>-2.2000000476837</ele>
        <time>2022-01-16T08:14:03.000Z</time>
      </trkpt>
      <trkpt lat="47.25451" lon="-2.33532">
        <ele>-2.2000000476837</ele>
        <time>2022-01-16T08:14:09.000Z</time>
      </trkpt>
      <trkpt lat="47.25458" lon="-2.33566">
        <ele>-2.5999999046326</ele>
        <time>2022-01-16T08:14:15.000Z</time>
      </trkpt>
      <trkpt lat="47.25459" lon="-2.33571">
        <ele>-3.4000000953674</ele>
        <time>2022-01-16T08:14:16.000Z</time>
      </trkpt>
      <trkpt lat="47.25459" lon="-2.33576">
        <ele>-3.7999999523163</ele>
        <time>2022-01-16T08:14:17.000Z</time>
      </trkpt>
      <trkpt lat="47.25458" lon="-2.33579">
        <ele>-4.1999998092651</ele>
        <time>2022-01-16T08:14:18.000Z</time>
      </trkpt>
      <trkpt lat="47.25455" lon="-2.3358">
        <ele>-4.1999998092651</ele>
        <time>2022-01-16T08:14:19.000Z</time>
      </trkpt>
      <trkpt lat="47.25442" lon="-2.3359">
        <ele>-4.1999998092651</ele>
        <time>2022-01-16T08:14:23.000Z</time>
      </trkpt>
      <trkpt lat="47.25442" lon="-2.33595">
        <ele>-4.1999998092651</ele>
        <time>2022-01-16T08:14:24.000Z</time>
      </trkpt>
      <trkpt lat="47.25442" lon="-2.33629">
        <ele>-4.1999998092651</ele>
        <time>2022-01-16T08:14:30.000Z</time>
      </trkpt>
      <trkpt lat="47.25448" lon="-2.3367">
        <ele>-4.1999998092651</ele>
        <time>2022-01-16T08:14:37.000Z</time>
      </trkpt>
      <trkpt lat="47.25454" lon="-2.33726">
        <ele>-4.1999998092651</ele>
        <time>2022-01-16T08:14:46.000Z</time>
      </trkpt>
      <trkpt lat="47.25456" lon="-2.33733">
        <ele>-4.1999998092651</ele>
        <time>2022-01-16T08:14:47.000Z</time>
      </trkpt>
      <trkpt lat="47.25463" lon="-2.33747">
        <ele>-4.1999998092651</ele>
        <time>2022-01-16T08:14:50.000Z</time>
      </trkpt>
      <trkpt lat="47.25476" lon="-2.33754">
        <ele>-4.1999998092651</ele>
        <time>2022-01-16T08:14:53.000Z</time>
      </trkpt>
      <trkpt lat="47.25481" lon="-2.33755">
        <ele>-4.1999998092651</ele>
        <time>2022-01-16T08:14:54.000Z</time>
      </trkpt>
      <trkpt lat="47.25485" lon="-2.33756">
        <ele>-4.1999998092651</ele>
        <time>2022-01-16T08:14:55.000Z</time>
      </trkpt>
      <trkpt lat="47.25505" lon="-2.33755">
        <ele>-4.1999998092651</ele>
        <time>2022-01-16T08:14:59.000Z</time>
      </trkpt>
      <trkpt lat="47.25537" lon="-2.33757">
        <ele>-4.1999998092651</ele>
        <time>2022-01-16T08:15:06.000Z</time>
      </trkpt>
      <trkpt lat="47.25564" lon="-2.33756">
        <ele>-4.1999998092651</ele>
        <time>2022-01-16T08:15:12.000Z</time>
      </trkpt>
      <trkpt lat="47.25596" lon="-2.33754">
        <ele>-4.1999998092651</ele>
        <time>2022-01-16T08:15:19.000Z</time>
      </trkpt>
      <trkpt lat="47.2563" lon="-2.33766">
        <ele>-4.1999998092651</ele>
        <time>2022-01-16T08:15:26.000Z</time>
      </trkpt>
      <trkpt lat="47.25667" lon="-2.33783">
        <ele>-4.1999998092651</ele>
        <time>2022-01-16T08:15:32.000Z</time>
      </trkpt>
      <trkpt lat="47.25707" lon="-2.33798">
        <ele>-4.1999998092651</ele>
        <time>2022-01-16T08:15:38.000Z</time>
      </trkpt>
      <trkpt lat="47.25752" lon="-2.33818">
        <ele>-4.1999998092651</ele>
        <time>2022-01-16T08:15:45.000Z</time>
      </trkpt>
      <trkpt lat="47.25759" lon="-2.33821">
        <ele>-4.5999999046326</ele>
        <time>2022-01-16T08:15:46.000Z</time>
      </trkpt>
      <trkpt lat="47.25765" lon="-2.33824">
        <ele>-5</ele>
        <time>2022-01-16T08:15:47.000Z</time>
      </trkpt>
      <trkpt lat="47.25771" lon="-2.33827">
        <ele>-5.4000000953674</ele>
        <time>2022-01-16T08:15:48.000Z</time>
      </trkpt>
      <trkpt lat="47.25777" lon="-2.33829">
        <ele>-6</ele>
        <time>2022-01-16T08:15:49.000Z</time>
      </trkpt>
      <trkpt lat="47.25784" lon="-2.33832">
        <ele>-6.4000000953674</ele>
        <time>2022-01-16T08:15:50.000Z</time>
      </trkpt>
      <trkpt lat="47.25796" lon="-2.33838">
        <ele>-6.4000000953674</ele>
        <time>2022-01-16T08:15:52.000Z</time>
      </trkpt>
      <trkpt lat="47.25842" lon="-2.33857">
        <ele>-6.4000000953674</ele>
        <time>2022-01-16T08:15:59.000Z</time>
      </trkpt>
      <trkpt lat="47.25893" lon="-2.33878">
        <ele>-6.4000000953674</ele>
        <time>2022-01-16T08:16:07.000Z</time>
      </trkpt>
      <trkpt lat="47.25924" lon="-2.33893">
        <ele>-6.4000000953674</ele>
        <time>2022-01-16T08:16:12.000Z</time>
      </trkpt>
      <trkpt lat="47.25944" lon="-2.33905">
        <ele>-6.4000000953674</ele>
        <time>2022-01-16T08:16:17.000Z</time>
      </trkpt>
      <trkpt lat="47.25956" lon="-2.339">
        <ele>-6.4000000953674</ele>
        <time>2022-01-16T08:16:21.000Z</time>
      </trkpt>
      <trkpt lat="47.25972" lon="-2.33896">
        <ele>-6.4000000953674</ele>
        <time>2022-01-16T08:16:26.000Z</time>
      </trkpt>
      <trkpt lat="47.25979" lon="-2.3388">
        <ele>-6.4000000953674</ele>
        <time>2022-01-16T08:16:30.000Z</time>
      </trkpt>
      <trkpt lat="47.2598" lon="-2.33875">
        <ele>-6.4000000953674</ele>
        <time>2022-01-16T08:16:31.000Z</time>
      </trkpt>
      <trkpt lat="47.25991" lon="-2.33854">
        <ele>-6.4000000953674</ele>
        <time>2022-01-16T08:16:36.000Z</time>
      </trkpt>
      <trkpt lat="47.25995" lon="-2.33853">
        <ele>-6.4000000953674</ele>
        <time>2022-01-16T08:16:37.000Z</time>
      </trkpt>
      <trkpt lat="47.26008" lon="-2.33863">
        <ele>-6.4000000953674</ele>
        <time>2022-01-16T08:16:41.000Z</time>
      </trkpt>
      <trkpt lat="47.26011" lon="-2.33866">
        <ele>-6.4000000953674</ele>
        <time>2022-01-16T08:16:42.000Z</time>
      </trkpt>
      <trkpt lat="47.26019" lon="-2.33872">
        <ele>-6.4000000953674</ele>
        <time>2022-01-16T08:16:44.000Z</time>
      </trkpt>
      <trkpt lat="47.26028" lon="-2.33873">
        <ele>-6.4000000953674</ele>
        <time>2022-01-16T08:16:46.000Z</time>
      </trkpt>
      <trkpt lat="47.26047" lon="-2.33868">
        <ele>-6.4000000953674</ele>
        <time>2022-01-16T08:16:51.000Z</time>
      </trkpt>
      <trkpt lat="47.26054" lon="-2.3387">
        <ele>-6.4000000953674</ele>
        <time>2022-01-16T08:16:53.000Z</time>
      </trkpt>
      <trkpt lat="47.26057" lon="-2.33873">
        <ele>-6.4000000953674</ele>
        <time>2022-01-16T08:16:54.000Z</time>
      </trkpt>
      <trkpt lat="47.26071" lon="-2.33879">
        <ele>-6.8000001907349</ele>
        <time>2022-01-16T08:16:58.000Z</time>
      </trkpt>
      <trkpt lat="47.26074" lon="-2.33883">
        <ele>-7.1999998092651</ele>
        <time>2022-01-16T08:16:59.000Z</time>
      </trkpt>
      <trkpt lat="47.26076" lon="-2.33887">
        <ele>-7.5999999046326</ele>
        <time>2022-01-16T08:17:00.000Z</time>
      </trkpt>
      <trkpt lat="47.26076" lon="-2.33892">
        <ele>-8</ele>
        <time>2022-01-16T08:17:01.000Z</time>
      </trkpt>
      <trkpt lat="47.26076" lon="-2.33897">
        <ele>-8.3999996185303</ele>
        <time>2022-01-16T08:17:02.000Z</time>
      </trkpt>
      <trkpt lat="47.26076" lon="-2.33903">
        <ele>-8.3999996185303</ele>
        <time>2022-01-16T08:17:03.000Z</time>
      </trkpt>
      <trkpt lat="47.26075" lon="-2.33909">
        <ele>-8.3999996185303</ele>
        <time>2022-01-16T08:17:04.000Z</time>
      </trkpt>
      <trkpt lat="47.26073" lon="-2.33922">
        <ele>-8.3999996185303</ele>
        <time>2022-01-16T08:17:06.000Z</time>
      </trkpt>
      <trkpt lat="47.26079" lon="-2.33947">
        <ele>-8.3999996185303</ele>
        <time>2022-01-16T08:17:11.000Z</time>
      </trkpt>
      <trkpt lat="47.26093" lon="-2.33949">
        <ele>-8.3999996185303</ele>
        <time>2022-01-16T08:17:14.000Z</time>
      </trkpt>
      <trkpt lat="47.26131" lon="-2.33957">
        <ele>-8.3999996185303</ele>
        <time>2022-01-16T08:17:21.000Z</time>
      </trkpt>
      <trkpt lat="47.26164" lon="-2.33964">
        <ele>-8.3999996185303</ele>
        <time>2022-01-16T08:17:27.000Z</time>
      </trkpt>
      <trkpt lat="47.26207" lon="-2.33972">
        <ele>-8.3999996185303</ele>
        <time>2022-01-16T08:17:35.000Z</time>
      </trkpt>
      <trkpt lat="47.26245" lon="-2.3398">
        <ele>-8.3999996185303</ele>
        <time>2022-01-16T08:17:42.000Z</time>
      </trkpt>
      <trkpt lat="47.26251" lon="-2.33982">
        <ele>-8</ele>
        <time>2022-01-16T08:17:43.000Z</time>
      </trkpt>
      <trkpt lat="47.26256" lon="-2.33983">
        <ele>-7.5999999046326</ele>
        <time>2022-01-16T08:17:44.000Z</time>
      </trkpt>
      <trkpt lat="47.26261" lon="-2.33984">
        <ele>-7.1999998092651</ele>
        <time>2022-01-16T08:17:45.000Z</time>
      </trkpt>
      <trkpt lat="47.26267" lon="-2.33985">
        <ele>-6.8000001907349</ele>
        <time>2022-01-16T08:17:46.000Z</time>
      </trkpt>
      <trkpt lat="47.26272" lon="-2.33987">
        <ele>-6.4000000953674</ele>
        <time>2022-01-16T08:17:47.000Z</time>
      </trkpt>
      <trkpt lat="47.26276" lon="-2.33988">
        <ele>-6.4000000953674</ele>
        <time>2022-01-16T08:17:48.000Z</time>
      </trkpt>
      <trkpt lat="47.26291" lon="-2.33993">
        <ele>-6</ele>
        <time>2022-01-16T08:17:51.000Z</time>
      </trkpt>
      <trkpt lat="47.26296" lon="-2.33994">
        <ele>-5.5999999046326</ele>
        <time>2022-01-16T08:17:52.000Z</time>
      </trkpt>
      <trkpt lat="47.263" lon="-2.33995">
        <ele>-5.1999998092651</ele>
        <time>2022-01-16T08:17:53.000Z</time>
      </trkpt>
      <trkpt lat="47.26305" lon="-2.33996">
        <ele>-4.8000001907349</ele>
        <time>2022-01-16T08:17:54.000Z</time>
      </trkpt>
      <trkpt lat="47.2631" lon="-2.33997">
        <ele>-4.4000000953674</ele>
        <time>2022-01-16T08:17:55.000Z</time>
      </trkpt>
      <trkpt lat="47.2632" lon="-2.33998">
        <ele>-4.4000000953674</ele>
        <time>2022-01-16T08:17:57.000Z</time>
      </trkpt>
      <trkpt lat="47.26336" lon="-2.34002">
        <ele>-4.4000000953674</ele>
        <time>2022-01-16T08:18:00.000Z</time>
      </trkpt>
      <trkpt lat="47.26377" lon="-2.34011">
        <ele>-4.4000000953674</ele>
        <time>2022-01-16T08:18:08.000Z</time>
      </trkpt>
      <trkpt lat="47.26387" lon="-2.34015">
        <ele>-4</ele>
        <time>2022-01-16T08:18:10.000Z</time>
      </trkpt>
      <trkpt lat="47.26393" lon="-2.34016">
        <ele>-3.5999999046326</ele>
        <time>2022-01-16T08:18:11.000Z</time>
      </trkpt>
      <trkpt lat="47.26398" lon="-2.34017">
        <ele>-3.2000000476837</ele>
        <time>2022-01-16T08:18:12.000Z</time>
      </trkpt>
      <trkpt lat="47.26404" lon="-2.34018">
        <ele>-2.7999999523163</ele>
        <time>2022-01-16T08:18:13.000Z</time>
      </trkpt>
      <trkpt lat="47.26409" lon="-2.34019">
        <ele>-2.2000000476837</ele>
        <time>2022-01-16T08:18:14.000Z</time>
      </trkpt>
      <trkpt lat="47.2642" lon="-2.3402">
        <ele>-2.2000000476837</ele>
        <time>2022-01-16T08:18:16.000Z</time>
      </trkpt>
      <trkpt lat="47.26442" lon="-2.34025">
        <ele>-2.2000000476837</ele>
        <time>2022-01-16T08:18:20.000Z</time>
      </trkpt>
      <trkpt lat="47.2648" lon="-2.34032">
        <ele>-2.2000000476837</ele>
        <time>2022-01-16T08:18:27.000Z</time>
      </trkpt>
      <trkpt lat="47.2652" lon="-2.3404">
        <ele>-2.2000000476837</ele>
        <time>2022-01-16T08:18:35.000Z</time>
      </trkpt>
      <trkpt lat="47.26543" lon="-2.34045">
        <ele>-2.2000000476837</ele>
        <time>2022-01-16T08:18:41.000Z</time>
      </trkpt>
      <trkpt lat="47.26561" lon="-2.34049">
        <ele>-2.2000000476837</ele>
        <time>2022-01-16T08:18:47.000Z</time>
      </trkpt>
      <trkpt lat="47.26568" lon="-2.3405">
        <ele>-2.2000000476837</ele>
        <time>2022-01-16T08:18:50.000Z</time>
      </trkpt>
      <trkpt lat="47.26568" lon="-2.34052">
        <ele>-2.2000000476837</ele>
        <time>2022-01-16T08:18:51.000Z</time>
      </trkpt>
      <trkpt lat="47.26567" lon="-2.34057">
        <ele>-2.2000000476837</ele>
        <time>2022-01-16T08:18:54.000Z</time>
      </trkpt>
      <trkpt lat="47.26565" lon="-2.34056">
        <ele>-2.2000000476837</ele>
        <time>2022-01-16T08:18:55.000Z</time>
      </trkpt>
      <trkpt lat="47.2655" lon="-2.34052">
        <ele>-2.2000000476837</ele>
        <time>2022-01-16T08:19:00.000Z</time>
      </trkpt>
      <trkpt lat="47.26532" lon="-2.34047">
        <ele>-2.2000000476837</ele>
        <time>2022-01-16T08:19:06.000Z</time>
      </trkpt>
      <trkpt lat="47.26519" lon="-2.34047">
        <ele>-2.2000000476837</ele>
        <time>2022-01-16T08:19:14.000Z</time>
      </trkpt>
      <trkpt lat="47.26514" lon="-2.34046">
        <ele>-2.2000000476837</ele>
        <time>2022-01-16T08:19:17.000Z</time>
      </trkpt>
      <trkpt lat="47.26512" lon="-2.34041">
        <ele>-2.2000000476837</ele>
        <time>2022-01-16T08:19:20.000Z</time>
      </trkpt>
      <trkpt lat="47.26511" lon="-2.34037">
        <ele>-2.2000000476837</ele>
        <time>2022-01-16T08:19:22.000Z</time>
      </trkpt>
      <trkpt lat="47.26514" lon="-2.34036">
        <ele>-2.2000000476837</ele>
        <time>2022-01-16T08:19:24.000Z</time>
      </trkpt>
      <trkpt lat="47.26521" lon="-2.34038">
        <ele>-2.2000000476837</ele>
        <time>2022-01-16T08:19:27.000Z</time>
      </trkpt>
      <trkpt lat="47.26524" lon="-2.34039">
        <ele>-2.2000000476837</ele>
        <time>2022-01-16T08:19:28.000Z</time>
      </trkpt>
      <trkpt lat="47.26542" lon="-2.34044">
        <ele>-2.2000000476837</ele>
        <time>2022-01-16T08:19:34.000Z</time>
      </trkpt>
      <trkpt lat="47.26558" lon="-2.34052">
        <ele>-2.2000000476837</ele>
        <time>2022-01-16T08:19:40.000Z</time>
      </trkpt>
      <trkpt lat="47.26563" lon="-2.34052">
        <ele>-2.2000000476837</ele>
        <time>2022-01-16T08:19:42.000Z</time>
      </trkpt>
      <trkpt lat="47.26567" lon="-2.34047">
        <ele>-2.2000000476837</ele>
        <time>2022-01-16T08:19:44.000Z</time>
      </trkpt>
      <trkpt lat="47.2657" lon="-2.34031">
        <ele>-2.2000000476837</ele>
        <time>2022-01-16T08:19:47.000Z</time>
      </trkpt>
      <trkpt lat="47.26571" lon="-2.34025">
        <ele>-2.2000000476837</ele>
        <time>2022-01-16T08:19:48.000Z</time>
      </trkpt>
      <trkpt lat="47.2658" lon="-2.3398">
        <ele>-2.2000000476837</ele>
        <time>2022-01-16T08:19:56.000Z</time>
      </trkpt>
      <trkpt lat="47.26581" lon="-2.33968">
        <ele>-1.7999999523163</ele>
        <time>2022-01-16T08:19:58.000Z</time>
      </trkpt>
      <trkpt lat="47.26582" lon="-2.33963">
        <ele>-1.3999999761581</ele>
        <time>2022-01-16T08:19:59.000Z</time>
      </trkpt>
      <trkpt lat="47.26582" lon="-2.33957">
        <ele>-1</ele>
        <time>2022-01-16T08:20:00.000Z</time>
      </trkpt>
      <trkpt lat="47.26583" lon="-2.3395">
        <ele>-0.60000002384186</ele>
        <time>2022-01-16T08:20:01.000Z</time>
      </trkpt>
      <trkpt lat="47.26584" lon="-2.33945">
        <ele>-0.20000000298023</ele>
        <time>2022-01-16T08:20:02.000Z</time>
      </trkpt>
      <trkpt lat="47.26585" lon="-2.33937">
        <ele>-0.20000000298023</ele>
        <time>2022-01-16T08:20:03.000Z</time>
      </trkpt>
      <trkpt lat="47.26589" lon="-2.33889">
        <ele>-0.20000000298023</ele>
        <time>2022-01-16T08:20:10.000Z</time>
      </trkpt>
      <trkpt lat="47.26593" lon="-2.33842">
        <ele>-0.20000000298023</ele>
        <time>2022-01-16T08:20:17.000Z</time>
      </trkpt>
      <trkpt lat="47.26599" lon="-2.33799">
        <ele>-0.20000000298023</ele>
        <time>2022-01-16T08:20:23.000Z</time>
      </trkpt>
      <trkpt lat="47.26603" lon="-2.33745">
        <ele>-0.20000000298023</ele>
        <time>2022-01-16T08:20:30.000Z</time>
      </trkpt>
      <trkpt lat="47.26606" lon="-2.33721">
        <ele>-0.80000001192093</ele>
        <time>2022-01-16T08:20:33.000Z</time>
      </trkpt>
      <trkpt lat="47.26606" lon="-2.33714">
        <ele>-1.2000000476837</ele>
        <time>2022-01-16T08:20:34.000Z</time>
      </trkpt>
      <trkpt lat="47.26606" lon="-2.33709">
        <ele>-1.6000000238419</ele>
        <time>2022-01-16T08:20:35.000Z</time>
      </trkpt>
      <trkpt lat="47.26604" lon="-2.33704">
        <ele>-2.2000000476837</ele>
        <time>2022-01-16T08:20:36.000Z</time>
      </trkpt>
      <trkpt lat="47.26602" lon="-2.337">
        <ele>-2.5999999046326</ele>
        <time>2022-01-16T08:20:37.000Z</time>
      </trkpt>
      <trkpt lat="47.26592" lon="-2.33693">
        <ele>-2.5999999046326</ele>
        <time>2022-01-16T08:20:40.000Z</time>
      </trkpt>
      <trkpt lat="47.26579" lon="-2.33687">
        <ele>-2.5999999046326</ele>
        <time>2022-01-16T08:20:43.000Z</time>
      </trkpt>
      <trkpt lat="47.26574" lon="-2.33677">
        <ele>-2.5999999046326</ele>
        <time>2022-01-16T08:20:45.000Z</time>
      </trkpt>
      <trkpt lat="47.26575" lon="-2.33656">
        <ele>-2.5999999046326</ele>
        <time>2022-01-16T08:20:48.000Z</time>
      </trkpt>
      <trkpt lat="47.26574" lon="-2.33639">
        <ele>-2.5999999046326</ele>
        <time>2022-01-16T08:20:50.000Z</time>
      </trkpt>
      <trkpt lat="47.26573" lon="-2.33631">
        <ele>-2.5999999046326</ele>
        <time>2022-01-16T08:20:51.000Z</time>
      </trkpt>
      <trkpt lat="47.2657" lon="-2.33613">
        <ele>-3</ele>
        <time>2022-01-16T08:20:53.000Z</time>
      </trkpt>
      <trkpt lat="47.26569" lon="-2.33604">
        <ele>-3.4000000953674</ele>
        <time>2022-01-16T08:20:54.000Z</time>
      </trkpt>
      <trkpt lat="47.26568" lon="-2.33594">
        <ele>-3.7999999523163</ele>
        <time>2022-01-16T08:20:55.000Z</time>
      </trkpt>
      <trkpt lat="47.26567" lon="-2.33585">
        <ele>-4.1999998092651</ele>
        <time>2022-01-16T08:20:56.000Z</time>
      </trkpt>
      <trkpt lat="47.26565" lon="-2.33575">
        <ele>-4.5999999046326</ele>
        <time>2022-01-16T08:20:57.000Z</time>
      </trkpt>
      <trkpt lat="47.26561" lon="-2.33549">
        <ele>-4.5999999046326</ele>
        <time>2022-01-16T08:21:00.000Z</time>
      </trkpt>
      <trkpt lat="47.26553" lon="-2.33495">
        <ele>-5</ele>
        <time>2022-01-16T08:21:06.000Z</time>
      </trkpt>
      <trkpt lat="47.26552" lon="-2.33486">
        <ele>-5.4000000953674</ele>
        <time>2022-01-16T08:21:07.000Z</time>
      </trkpt>
      <trkpt lat="47.26551" lon="-2.33477">
        <ele>-5.8000001907349</ele>
        <time>2022-01-16T08:21:08.000Z</time>
      </trkpt>
      <trkpt lat="47.26549" lon="-2.33468">
        <ele>-6.1999998092651</ele>
        <time>2022-01-16T08:21:09.000Z</time>
      </trkpt>
      <trkpt lat="47.26548" lon="-2.33458">
        <ele>-6.8000001907349</ele>
        <time>2022-01-16T08:21:10.000Z</time>
      </trkpt>
      <trkpt lat="47.2654" lon="-2.33415">
        <ele>-6.8000001907349</ele>
        <time>2022-01-16T08:21:15.000Z</time>
      </trkpt>
      <trkpt lat="47.26527" lon="-2.33364">
        <ele>-6.8000001907349</ele>
        <time>2022-01-16T08:21:22.000Z</time>
      </trkpt>
      <trkpt lat="47.26519" lon="-2.33347">
        <ele>-6.8000001907349</ele>
        <time>2022-01-16T08:21:25.000Z</time>
      </trkpt>
      <trkpt lat="47.26511" lon="-2.33339">
        <ele>-6.8000001907349</ele>
        <time>2022-01-16T08:21:27.000Z</time>
      </trkpt>
      <trkpt lat="47.26504" lon="-2.33333">
        <ele>-6.8000001907349</ele>
        <time>2022-01-16T08:21:29.000Z</time>
      </trkpt>
      <trkpt lat="47.26501" lon="-2.33329">
        <ele>-6.8000001907349</ele>
        <time>2022-01-16T08:21:30.000Z</time>
      </trkpt>
      <trkpt lat="47.26496" lon="-2.33317">
        <ele>-6.8000001907349</ele>
        <time>2022-01-16T08:21:32.000Z</time>
      </trkpt>
      <trkpt lat="47.26495" lon="-2.33297">
        <ele>-6.8000001907349</ele>
        <time>2022-01-16T08:21:35.000Z</time>
      </trkpt>
      <trkpt lat="47.26495" lon="-2.3329">
        <ele>-6.8000001907349</ele>
        <time>2022-01-16T08:21:36.000Z</time>
      </trkpt>
      <trkpt lat="47.26498" lon="-2.33256">
        <ele>-6.8000001907349</ele>
        <time>2022-01-16T08:21:41.000Z</time>
      </trkpt>
      <trkpt lat="47.265" lon="-2.33249">
        <ele>-6.8000001907349</ele>
        <time>2022-01-16T08:21:42.000Z</time>
      </trkpt>
      <trkpt lat="47.26515" lon="-2.33231">
        <ele>-6.8000001907349</ele>
        <time>2022-01-16T08:21:46.000Z</time>
      </trkpt>
      <trkpt lat="47.26529" lon="-2.33222">
        <ele>-6.8000001907349</ele>
        <time>2022-01-16T08:21:49.000Z</time>
      </trkpt>
      <trkpt lat="47.26543" lon="-2.33213">
        <ele>-6.8000001907349</ele>
        <time>2022-01-16T08:21:52.000Z</time>
      </trkpt>
      <trkpt lat="47.26576" lon="-2.33192">
        <ele>-6.8000001907349</ele>
        <time>2022-01-16T08:21:59.000Z</time>
      </trkpt>
      <trkpt lat="47.2659" lon="-2.33169">
        <ele>-6.8000001907349</ele>
        <time>2022-01-16T08:22:03.000Z</time>
      </trkpt>
      <trkpt lat="47.266" lon="-2.33148">
        <ele>-6.8000001907349</ele>
        <time>2022-01-16T08:22:07.000Z</time>
      </trkpt>
      <trkpt lat="47.26615" lon="-2.33149">
        <ele>-6.8000001907349</ele>
        <time>2022-01-16T08:22:10.000Z</time>
      </trkpt>
      <trkpt lat="47.26625" lon="-2.33152">
        <ele>-6.8000001907349</ele>
        <time>2022-01-16T08:22:12.000Z</time>
      </trkpt>
      <trkpt lat="47.2663" lon="-2.33152">
        <ele>-6.8000001907349</ele>
        <time>2022-01-16T08:22:13.000Z</time>
      </trkpt>
      <trkpt lat="47.2664" lon="-2.33148">
        <ele>-6.8000001907349</ele>
        <time>2022-01-16T08:22:15.000Z</time>
      </trkpt>
      <trkpt lat="47.2666" lon="-2.33132">
        <ele>-6.8000001907349</ele>
        <time>2022-01-16T08:22:19.000Z</time>
      </trkpt>
      <trkpt lat="47.26664" lon="-2.33128">
        <ele>-6.8000001907349</ele>
        <time>2022-01-16T08:22:20.000Z</time>
      </trkpt>
      <trkpt lat="47.26691" lon="-2.33106">
        <ele>-6.8000001907349</ele>
        <time>2022-01-16T08:22:26.000Z</time>
      </trkpt>
      <trkpt lat="47.26714" lon="-2.33082">
        <ele>-6.8000001907349</ele>
        <time>2022-01-16T08:22:32.000Z</time>
      </trkpt>
      <trkpt lat="47.26716" lon="-2.33076">
        <ele>-6.8000001907349</ele>
        <time>2022-01-16T08:22:33.000Z</time>
      </trkpt>
      <trkpt lat="47.26733" lon="-2.33057">
        <ele>-6.8000001907349</ele>
        <time>2022-01-16T08:22:39.000Z</time>
      </trkpt>
      <trkpt lat="47.26743" lon="-2.33067">
        <ele>-6.8000001907349</ele>
        <time>2022-01-16T08:22:43.000Z</time>
      </trkpt>
      <trkpt lat="47.26749" lon="-2.33065">
        <ele>-6.8000001907349</ele>
        <time>2022-01-16T08:22:45.000Z</time>
      </trkpt>
      <trkpt lat="47.26754" lon="-2.33059">
        <ele>-6.8000001907349</ele>
        <time>2022-01-16T08:22:47.000Z</time>
      </trkpt>
      <trkpt lat="47.2677" lon="-2.33043">
        <ele>-6.8000001907349</ele>
        <time>2022-01-16T08:22:52.000Z</time>
      </trkpt>
      <trkpt lat="47.26795" lon="-2.33019">
        <ele>-6.8000001907349</ele>
        <time>2022-01-16T08:22:59.000Z</time>
      </trkpt>
      <trkpt lat="47.26821" lon="-2.32993">
        <ele>-6.8000001907349</ele>
        <time>2022-01-16T08:23:06.000Z</time>
      </trkpt>
      <trkpt lat="47.26845" lon="-2.32969">
        <ele>-6.8000001907349</ele>
        <time>2022-01-16T08:23:12.000Z</time>
      </trkpt>
      <trkpt lat="47.26879" lon="-2.32939">
        <ele>-6.8000001907349</ele>
        <time>2022-01-16T08:23:20.000Z</time>
      </trkpt>
      <trkpt lat="47.26908" lon="-2.32911">
        <ele>-6.8000001907349</ele>
        <time>2022-01-16T08:23:27.000Z</time>
      </trkpt>
      <trkpt lat="47.26932" lon="-2.32889">
        <ele>-6.4000000953674</ele>
        <time>2022-01-16T08:23:33.000Z</time>
      </trkpt>
      <trkpt lat="47.26937" lon="-2.32885">
        <ele>-5.8000001907349</ele>
        <time>2022-01-16T08:23:34.000Z</time>
      </trkpt>
      <trkpt lat="47.26941" lon="-2.32881">
        <ele>-5.4000000953674</ele>
        <time>2022-01-16T08:23:35.000Z</time>
      </trkpt>
      <trkpt lat="47.26945" lon="-2.32877">
        <ele>-5</ele>
        <time>2022-01-16T08:23:36.000Z</time>
      </trkpt>
      <trkpt lat="47.2695" lon="-2.32872">
        <ele>-4.5999999046326</ele>
        <time>2022-01-16T08:23:37.000Z</time>
      </trkpt>
      <trkpt lat="47.26963" lon="-2.32859">
        <ele>-4.5999999046326</ele>
        <time>2022-01-16T08:23:40.000Z</time>
      </trkpt>
      <trkpt lat="47.26973" lon="-2.32851">
        <ele>-4.5999999046326</ele>
        <time>2022-01-16T08:23:42.000Z</time>
      </trkpt>
      <trkpt lat="47.27008" lon="-2.32819">
        <ele>-4.5999999046326</ele>
        <time>2022-01-16T08:23:50.000Z</time>
      </trkpt>
      <trkpt lat="47.2704" lon="-2.3279">
        <ele>-4.5999999046326</ele>
        <time>2022-01-16T08:23:57.000Z</time>
      </trkpt>
      <trkpt lat="47.27076" lon="-2.32756">
        <ele>-4.5999999046326</ele>
        <time>2022-01-16T08:24:05.000Z</time>
      </trkpt>
      <trkpt lat="47.27115" lon="-2.32721">
        <ele>-4.5999999046326</ele>
        <time>2022-01-16T08:24:14.000Z</time>
      </trkpt>
      <trkpt lat="47.27131" lon="-2.32706">
        <ele>-4.5999999046326</ele>
        <time>2022-01-16T08:24:18.000Z</time>
      </trkpt>
      <trkpt lat="47.27137" lon="-2.32694">
        <ele>-4.5999999046326</ele>
        <time>2022-01-16T08:24:20.000Z</time>
      </trkpt>
      <trkpt lat="47.2714" lon="-2.3269">
        <ele>-4.5999999046326</ele>
        <time>2022-01-16T08:24:21.000Z</time>
      </trkpt>
      <trkpt lat="47.27147" lon="-2.32684">
        <ele>-4.5999999046326</ele>
        <time>2022-01-16T08:24:23.000Z</time>
      </trkpt>
      <trkpt lat="47.27166" lon="-2.32664">
        <ele>-3.7999999523163</ele>
        <time>2022-01-16T08:24:28.000Z</time>
      </trkpt>
      <trkpt lat="47.2717" lon="-2.32661">
        <ele>-3.4000000953674</ele>
        <time>2022-01-16T08:24:29.000Z</time>
      </trkpt>
      <trkpt lat="47.27174" lon="-2.32657">
        <ele>-3</ele>
        <time>2022-01-16T08:24:30.000Z</time>
      </trkpt>
      <trkpt lat="47.27178" lon="-2.32653">
        <ele>-2.5999999046326</ele>
        <time>2022-01-16T08:24:31.000Z</time>
      </trkpt>
      <trkpt lat="47.27187" lon="-2.32644">
        <ele>-2.5999999046326</ele>
        <time>2022-01-16T08:24:33.000Z</time>
      </trkpt>
      <trkpt lat="47.272" lon="-2.32632">
        <ele>-2.5999999046326</ele>
        <time>2022-01-16T08:24:36.000Z</time>
      </trkpt>
      <trkpt lat="47.27231" lon="-2.326">
        <ele>-2.5999999046326</ele>
        <time>2022-01-16T08:24:43.000Z</time>
      </trkpt>
      <trkpt lat="47.27235" lon="-2.32596">
        <ele>-2.5999999046326</ele>
        <time>2022-01-16T08:24:44.000Z</time>
      </trkpt>
      <trkpt lat="47.27261" lon="-2.3257">
        <ele>-2.5999999046326</ele>
        <time>2022-01-16T08:24:50.000Z</time>
      </trkpt>
      <trkpt lat="47.27285" lon="-2.32539">
        <ele>-2.5999999046326</ele>
        <time>2022-01-16T08:24:56.000Z</time>
      </trkpt>
      <trkpt lat="47.27308" lon="-2.32506">
        <ele>-2.5999999046326</ele>
        <time>2022-01-16T08:25:02.000Z</time>
      </trkpt>
      <trkpt lat="47.27331" lon="-2.32466">
        <ele>-2.5999999046326</ele>
        <time>2022-01-16T08:25:08.000Z</time>
      </trkpt>
      <trkpt lat="47.27344" lon="-2.32434">
        <ele>-2.5999999046326</ele>
        <time>2022-01-16T08:25:12.000Z</time>
      </trkpt>
      <trkpt lat="47.27349" lon="-2.32418">
        <ele>-2.5999999046326</ele>
        <time>2022-01-16T08:25:14.000Z</time>
      </trkpt>
      <trkpt lat="47.27352" lon="-2.3241">
        <ele>-2.5999999046326</ele>
        <time>2022-01-16T08:25:15.000Z</time>
      </trkpt>
      <trkpt lat="47.27354" lon="-2.32402">
        <ele>-3</ele>
        <time>2022-01-16T08:25:16.000Z</time>
      </trkpt>
      <trkpt lat="47.27356" lon="-2.32394">
        <ele>-3.7999999523163</ele>
        <time>2022-01-16T08:25:17.000Z</time>
      </trkpt>
      <trkpt lat="47.27358" lon="-2.32385">
        <ele>-4.1999998092651</ele>
        <time>2022-01-16T08:25:18.000Z</time>
      </trkpt>
      <trkpt lat="47.2736" lon="-2.32377">
        <ele>-4.5999999046326</ele>
        <time>2022-01-16T08:25:19.000Z</time>
      </trkpt>
      <trkpt lat="47.27362" lon="-2.32369">
        <ele>-4.5999999046326</ele>
        <time>2022-01-16T08:25:20.000Z</time>
      </trkpt>
      <trkpt lat="47.27367" lon="-2.32345">
        <ele>-4.5999999046326</ele>
        <time>2022-01-16T08:25:24.000Z</time>
      </trkpt>
      <trkpt lat="47.27368" lon="-2.32338">
        <ele>-4.1999998092651</ele>
        <time>2022-01-16T08:25:25.000Z</time>
      </trkpt>
      <trkpt lat="47.2737" lon="-2.32331">
        <ele>-3.7999999523163</ele>
        <time>2022-01-16T08:25:26.000Z</time>
      </trkpt>
      <trkpt lat="47.27371" lon="-2.32325">
        <ele>-3.4000000953674</ele>
        <time>2022-01-16T08:25:27.000Z</time>
      </trkpt>
      <trkpt lat="47.27373" lon="-2.32318">
        <ele>-3</ele>
        <time>2022-01-16T08:25:28.000Z</time>
      </trkpt>
      <trkpt lat="47.27374" lon="-2.3231">
        <ele>-2.5999999046326</ele>
        <time>2022-01-16T08:25:29.000Z</time>
      </trkpt>
      <trkpt lat="47.27376" lon="-2.32295">
        <ele>-2.5999999046326</ele>
        <time>2022-01-16T08:25:31.000Z</time>
      </trkpt>
      <trkpt lat="47.27386" lon="-2.32258">
        <ele>-2.5999999046326</ele>
        <time>2022-01-16T08:25:36.000Z</time>
      </trkpt>
      <trkpt lat="47.27391" lon="-2.32241">
        <ele>-2.5999999046326</ele>
        <time>2022-01-16T08:25:38.000Z</time>
      </trkpt>
      <trkpt lat="47.27395" lon="-2.32222">
        <ele>-2.5999999046326</ele>
        <time>2022-01-16T08:25:40.000Z</time>
      </trkpt>
      <trkpt lat="47.27402" lon="-2.32164">
        <ele>-2.5999999046326</ele>
        <time>2022-01-16T08:25:46.000Z</time>
      </trkpt>
      <trkpt lat="47.27404" lon="-2.32155">
        <ele>-2.5999999046326</ele>
        <time>2022-01-16T08:25:47.000Z</time>
      </trkpt>
      <trkpt lat="47.27409" lon="-2.3213">
        <ele>-2.5999999046326</ele>
        <time>2022-01-16T08:25:50.000Z</time>
      </trkpt>
      <trkpt lat="47.27411" lon="-2.32122">
        <ele>-3</ele>
        <time>2022-01-16T08:25:51.000Z</time>
      </trkpt>
      <trkpt lat="47.27413" lon="-2.32114">
        <ele>-3.4000000953674</ele>
        <time>2022-01-16T08:25:52.000Z</time>
      </trkpt>
      <trkpt lat="47.27414" lon="-2.32106">
        <ele>-3.7999999523163</ele>
        <time>2022-01-16T08:25:53.000Z</time>
      </trkpt>
      <trkpt lat="47.27414" lon="-2.32098">
        <ele>-4.1999998092651</ele>
        <time>2022-01-16T08:25:54.000Z</time>
      </trkpt>
      <trkpt lat="47.27413" lon="-2.3209">
        <ele>-4.5999999046326</ele>
        <time>2022-01-16T08:25:55.000Z</time>
      </trkpt>
      <trkpt lat="47.27404" lon="-2.32069">
        <ele>-4.5999999046326</ele>
        <time>2022-01-16T08:25:58.000Z</time>
      </trkpt>
      <trkpt lat="47.274" lon="-2.32064">
        <ele>-4.5999999046326</ele>
        <time>2022-01-16T08:25:59.000Z</time>
      </trkpt>
      <trkpt lat="47.27385" lon="-2.32045">
        <ele>-4.5999999046326</ele>
        <time>2022-01-16T08:26:03.000Z</time>
      </trkpt>
      <trkpt lat="47.27365" lon="-2.3202">
        <ele>-4.5999999046326</ele>
        <time>2022-01-16T08:26:08.000Z</time>
      </trkpt>
      <trkpt lat="47.27361" lon="-2.32015">
        <ele>-4.5999999046326</ele>
        <time>2022-01-16T08:26:09.000Z</time>
      </trkpt>
      <trkpt lat="47.27355" lon="-2.32">
        <ele>-4.5999999046326</ele>
        <time>2022-01-16T08:26:12.000Z</time>
      </trkpt>
      <trkpt lat="47.27353" lon="-2.31997">
        <ele>-4.5999999046326</ele>
        <time>2022-01-16T08:26:13.000Z</time>
      </trkpt>
      <trkpt lat="47.27353" lon="-2.31993">
        <ele>-4.5999999046326</ele>
        <time>2022-01-16T08:26:14.000Z</time>
      </trkpt>
      <trkpt lat="47.27355" lon="-2.3199">
        <ele>-4.5999999046326</ele>
        <time>2022-01-16T08:26:16.000Z</time>
      </trkpt>
      <trkpt lat="47.27359" lon="-2.31992">
        <ele>-4.5999999046326</ele>
        <time>2022-01-16T08:26:21.000Z</time>
      </trkpt>
      <trkpt lat="47.2736" lon="-2.31993">
        <ele>-4.5999999046326</ele>
        <time>2022-01-16T08:26:55.000Z</time>
      </trkpt>
      <trkpt lat="47.27365" lon="-2.31997">
        <ele>-4.5999999046326</ele>
        <time>2022-01-16T08:26:58.000Z</time>
      </trkpt>
      <trkpt lat="47.27382" lon="-2.32013">
        <ele>-4.5999999046326</ele>
        <time>2022-01-16T08:27:04.000Z</time>
      </trkpt>
      <trkpt lat="47.27404" lon="-2.32032">
        <ele>-4.5999999046326</ele>
        <time>2022-01-16T08:27:10.000Z</time>
      </trkpt>
      <trkpt lat="47.27413" lon="-2.32039">
        <ele>-4.5999999046326</ele>
        <time>2022-01-16T08:27:12.000Z</time>
      </trkpt>
      <trkpt lat="47.27427" lon="-2.3204">
        <ele>-4.5999999046326</ele>
        <time>2022-01-16T08:27:15.000Z</time>
      </trkpt>
      <trkpt lat="47.27445" lon="-2.32024">
        <ele>-4.5999999046326</ele>
        <time>2022-01-16T08:27:19.000Z</time>
      </trkpt>
      <trkpt lat="47.27454" lon="-2.32002">
        <ele>-4.5999999046326</ele>
        <time>2022-01-16T08:27:22.000Z</time>
      </trkpt>
      <trkpt lat="47.27459" lon="-2.31987">
        <ele>-4.5999999046326</ele>
        <time>2022-01-16T08:27:24.000Z</time>
      </trkpt>
      <trkpt lat="47.27484" lon="-2.31923">
        <ele>-4.5999999046326</ele>
        <time>2022-01-16T08:27:33.000Z</time>
      </trkpt>
      <trkpt lat="47.27499" lon="-2.31878">
        <ele>-4.5999999046326</ele>
        <time>2022-01-16T08:27:39.000Z</time>
      </trkpt>
      <trkpt lat="47.27514" lon="-2.31834">
        <ele>-4.5999999046326</ele>
        <time>2022-01-16T08:27:45.000Z</time>
      </trkpt>
      <trkpt lat="47.27527" lon="-2.31786">
        <ele>-4.5999999046326</ele>
        <time>2022-01-16T08:27:51.000Z</time>
      </trkpt>
      <trkpt lat="47.27529" lon="-2.31778">
        <ele>-4.5999999046326</ele>
        <time>2022-01-16T08:27:52.000Z</time>
      </trkpt>
      <trkpt lat="47.2754" lon="-2.31725">
        <ele>-4.1999998092651</ele>
        <time>2022-01-16T08:27:59.000Z</time>
      </trkpt>
      <trkpt lat="47.27542" lon="-2.31718">
        <ele>-3.7999999523163</ele>
        <time>2022-01-16T08:28:00.000Z</time>
      </trkpt>
      <trkpt lat="47.27543" lon="-2.31711">
        <ele>-3.4000000953674</ele>
        <time>2022-01-16T08:28:01.000Z</time>
      </trkpt>
      <trkpt lat="47.27544" lon="-2.31704">
        <ele>-3</ele>
        <time>2022-01-16T08:28:02.000Z</time>
      </trkpt>
      <trkpt lat="47.27546" lon="-2.31698">
        <ele>-2.5999999046326</ele>
        <time>2022-01-16T08:28:03.000Z</time>
      </trkpt>
      <trkpt lat="47.27552" lon="-2.31673">
        <ele>-2.5999999046326</ele>
        <time>2022-01-16T08:28:07.000Z</time>
      </trkpt>
      <trkpt lat="47.27555" lon="-2.31661">
        <ele>-2.2000000476837</ele>
        <time>2022-01-16T08:28:09.000Z</time>
      </trkpt>
      <trkpt lat="47.27556" lon="-2.31656">
        <ele>-1.6000000238419</ele>
        <time>2022-01-16T08:28:10.000Z</time>
      </trkpt>
      <trkpt lat="47.27557" lon="-2.31651">
        <ele>-1.2000000476837</ele>
        <time>2022-01-16T08:28:11.000Z</time>
      </trkpt>
      <trkpt lat="47.27558" lon="-2.31646">
        <ele>-0.80000001192093</ele>
        <time>2022-01-16T08:28:12.000Z</time>
      </trkpt>
      <trkpt lat="47.2756" lon="-2.3164">
        <ele>-0.40000000596046</ele>
        <time>2022-01-16T08:28:13.000Z</time>
      </trkpt>
      <trkpt lat="47.27572" lon="-2.316">
        <ele>-0.40000000596046</ele>
        <time>2022-01-16T08:28:19.000Z</time>
      </trkpt>
      <trkpt lat="47.27591" lon="-2.31548">
        <ele>-0.40000000596046</ele>
        <time>2022-01-16T08:28:26.000Z</time>
      </trkpt>
      <trkpt lat="47.27606" lon="-2.31492">
        <ele>-0.40000000596046</ele>
        <time>2022-01-16T08:28:33.000Z</time>
      </trkpt>
      <trkpt lat="47.27617" lon="-2.31451">
        <ele>-0.40000000596046</ele>
        <time>2022-01-16T08:28:38.000Z</time>
      </trkpt>
      <trkpt lat="47.27624" lon="-2.3142">
        <ele>-0.40000000596046</ele>
        <time>2022-01-16T08:28:42.000Z</time>
      </trkpt>
      <trkpt lat="47.27627" lon="-2.31406">
        <ele>-0.40000000596046</ele>
        <time>2022-01-16T08:28:44.000Z</time>
      </trkpt>
      <trkpt lat="47.27632" lon="-2.31387">
        <ele>13.5</ele>
        <time>2022-01-16T08:28:47.000Z</time>
      </trkpt>
      <trkpt lat="47.27633" lon="-2.31381">
        <ele>0.40000000596046</ele>
        <time>2022-01-16T08:28:48.000Z</time>
      </trkpt>
      <trkpt lat="47.27635" lon="-2.31374">
        <ele>1</ele>
        <time>2022-01-16T08:28:49.000Z</time>
      </trkpt>
      <trkpt lat="47.27636" lon="-2.31367">
        <ele>1.3999999761581</ele>
        <time>2022-01-16T08:28:50.000Z</time>
      </trkpt>
      <trkpt lat="47.27638" lon="-2.31361">
        <ele>1.7999999523163</ele>
        <time>2022-01-16T08:28:51.000Z</time>
      </trkpt>
      <trkpt lat="47.27649" lon="-2.31329">
        <ele>1.7999999523163</ele>
        <time>2022-01-16T08:28:56.000Z</time>
      </trkpt>
      <trkpt lat="47.27651" lon="-2.31323">
        <ele>2.2000000476837</ele>
        <time>2022-01-16T08:28:57.000Z</time>
      </trkpt>
      <trkpt lat="47.27653" lon="-2.31316">
        <ele>2.5999999046326</ele>
        <time>2022-01-16T08:28:58.000Z</time>
      </trkpt>
      <trkpt lat="47.27655" lon="-2.31309">
        <ele>3.2000000476837</ele>
        <time>2022-01-16T08:28:59.000Z</time>
      </trkpt>
      <trkpt lat="47.27656" lon="-2.31303">
        <ele>3.5999999046326</ele>
        <time>2022-01-16T08:29:00.000Z</time>
      </trkpt>
      <trkpt lat="47.27658" lon="-2.31296">
        <ele>4</ele>
        <time>2022-01-16T08:29:01.000Z</time>
      </trkpt>
      <trkpt lat="47.27662" lon="-2.31283">
        <ele>4</ele>
        <time>2022-01-16T08:29:03.000Z</time>
      </trkpt>
      <trkpt lat="47.27667" lon="-2.31264">
        <ele>4</ele>
        <time>2022-01-16T08:29:06.000Z</time>
      </trkpt>
      <trkpt lat="47.27669" lon="-2.31252">
        <ele>4</ele>
        <time>2022-01-16T08:29:08.000Z</time>
      </trkpt>
      <trkpt lat="47.27678" lon="-2.31216">
        <ele>4</ele>
        <time>2022-01-16T08:29:14.000Z</time>
      </trkpt>
      <trkpt lat="47.27679" lon="-2.31209">
        <ele>4</ele>
        <time>2022-01-16T08:29:15.000Z</time>
      </trkpt>
      <trkpt lat="47.27685" lon="-2.31186">
        <ele>4.4000000953674</ele>
        <time>2022-01-16T08:29:19.000Z</time>
      </trkpt>
      <trkpt lat="47.27686" lon="-2.3118">
        <ele>4.8000001907349</ele>
        <time>2022-01-16T08:29:20.000Z</time>
      </trkpt>
      <trkpt lat="47.27686" lon="-2.31174">
        <ele>5.1999998092651</ele>
        <time>2022-01-16T08:29:21.000Z</time>
      </trkpt>
      <trkpt lat="47.27687" lon="-2.31169">
        <ele>5.5999999046326</ele>
        <time>2022-01-16T08:29:22.000Z</time>
      </trkpt>
      <trkpt lat="47.27688" lon="-2.31163">
        <ele>6.1999998092651</ele>
        <time>2022-01-16T08:29:23.000Z</time>
      </trkpt>
      <trkpt lat="47.27696" lon="-2.31137">
        <ele>6.1999998092651</ele>
        <time>2022-01-16T08:29:28.000Z</time>
      </trkpt>
      <trkpt lat="47.27704" lon="-2.31107">
        <ele>6.1999998092651</ele>
        <time>2022-01-16T08:29:34.000Z</time>
      </trkpt>
      <trkpt lat="47.27708" lon="-2.31096">
        <ele>6.1999998092651</ele>
        <time>2022-01-16T08:29:36.000Z</time>
      </trkpt>
      <trkpt lat="47.27711" lon="-2.31077">
        <ele>6.1999998092651</ele>
        <time>2022-01-16T08:29:39.000Z</time>
      </trkpt>
      <trkpt lat="47.27707" lon="-2.31063">
        <ele>6.1999998092651</ele>
        <time>2022-01-16T08:29:42.000Z</time>
      </trkpt>
      <trkpt lat="47.27702" lon="-2.31051">
        <ele>6.1999998092651</ele>
        <time>2022-01-16T08:29:44.000Z</time>
      </trkpt>
      <trkpt lat="47.27696" lon="-2.31027">
        <ele>6.1999998092651</ele>
        <time>2022-01-16T08:29:48.000Z</time>
      </trkpt>
      <trkpt lat="47.27684" lon="-2.30993">
        <ele>6.1999998092651</ele>
        <time>2022-01-16T08:29:54.000Z</time>
      </trkpt>
      <trkpt lat="47.27672" lon="-2.30957">
        <ele>6.5999999046326</ele>
        <time>2022-01-16T08:30:00.000Z</time>
      </trkpt>
      <trkpt lat="47.2767" lon="-2.30951">
        <ele>7</ele>
        <time>2022-01-16T08:30:01.000Z</time>
      </trkpt>
      <trkpt lat="47.27667" lon="-2.30945">
        <ele>7.4000000953674</ele>
        <time>2022-01-16T08:30:02.000Z</time>
      </trkpt>
      <trkpt lat="47.27665" lon="-2.3094">
        <ele>7.8000001907349</ele>
        <time>2022-01-16T08:30:03.000Z</time>
      </trkpt>
      <trkpt lat="47.27662" lon="-2.30934">
        <ele>8.1999998092651</ele>
        <time>2022-01-16T08:30:04.000Z</time>
      </trkpt>
      <trkpt lat="47.27654" lon="-2.30914">
        <ele>8.1999998092651</ele>
        <time>2022-01-16T08:30:07.000Z</time>
      </trkpt>
      <trkpt lat="47.27638" lon="-2.30878">
        <ele>8.1999998092651</ele>
        <time>2022-01-16T08:30:13.000Z</time>
      </trkpt>
      <trkpt lat="47.27623" lon="-2.30843">
        <ele>8.1999998092651</ele>
        <time>2022-01-16T08:30:19.000Z</time>
      </trkpt>
      <trkpt lat="47.2762" lon="-2.30837">
        <ele>8.1999998092651</ele>
        <time>2022-01-16T08:30:20.000Z</time>
      </trkpt>
      <trkpt lat="47.27612" lon="-2.3082">
        <ele>8.1999998092651</ele>
        <time>2022-01-16T08:30:23.000Z</time>
      </trkpt>
      <trkpt lat="47.27607" lon="-2.30808">
        <ele>8.1999998092651</ele>
        <time>2022-01-16T08:30:25.000Z</time>
      </trkpt>
      <trkpt lat="47.27604" lon="-2.30802">
        <ele>8.1999998092651</ele>
        <time>2022-01-16T08:30:26.000Z</time>
      </trkpt>
      <trkpt lat="47.27591" lon="-2.3077">
        <ele>8.1999998092651</ele>
        <time>2022-01-16T08:30:31.000Z</time>
      </trkpt>
      <trkpt lat="47.27576" lon="-2.30719">
        <ele>8.1999998092651</ele>
        <time>2022-01-16T08:30:38.000Z</time>
      </trkpt>
      <trkpt lat="47.27565" lon="-2.30673">
        <ele>8.1999998092651</ele>
        <time>2022-01-16T08:30:44.000Z</time>
      </trkpt>
      <trkpt lat="47.27556" lon="-2.3063">
        <ele>8.1999998092651</ele>
        <time>2022-01-16T08:30:50.000Z</time>
      </trkpt>
      <trkpt lat="47.27549" lon="-2.30606">
        <ele>7.8000001907349</ele>
        <time>2022-01-16T08:30:55.000Z</time>
      </trkpt>
      <trkpt lat="47.27548" lon="-2.306">
        <ele>7.4000000953674</ele>
        <time>2022-01-16T08:30:56.000Z</time>
      </trkpt>
      <trkpt lat="47.27546" lon="-2.30594">
        <ele>6.4000000953674</ele>
        <time>2022-01-16T08:30:57.000Z</time>
      </trkpt>
      <trkpt lat="47.27545" lon="-2.30587">
        <ele>6</ele>
        <time>2022-01-16T08:30:58.000Z</time>
      </trkpt>
      <trkpt lat="47.27541" lon="-2.30572">
        <ele>6</ele>
        <time>2022-01-16T08:31:00.000Z</time>
      </trkpt>
      <trkpt lat="47.27527" lon="-2.30527">
        <ele>6</ele>
        <time>2022-01-16T08:31:06.000Z</time>
      </trkpt>
      <trkpt lat="47.27518" lon="-2.3049">
        <ele>6</ele>
        <time>2022-01-16T08:31:11.000Z</time>
      </trkpt>
      <trkpt lat="47.27506" lon="-2.30439">
        <ele>6</ele>
        <time>2022-01-16T08:31:18.000Z</time>
      </trkpt>
      <trkpt lat="47.27497" lon="-2.30385">
        <ele>6.4000000953674</ele>
        <time>2022-01-16T08:31:25.000Z</time>
      </trkpt>
      <trkpt lat="47.27495" lon="-2.30377">
        <ele>6.8000001907349</ele>
        <time>2022-01-16T08:31:26.000Z</time>
      </trkpt>
      <trkpt lat="47.27494" lon="-2.3037">
        <ele>7.1999998092651</ele>
        <time>2022-01-16T08:31:27.000Z</time>
      </trkpt>
      <trkpt lat="47.27493" lon="-2.30362">
        <ele>7.5999999046326</ele>
        <time>2022-01-16T08:31:28.000Z</time>
      </trkpt>
      <trkpt lat="47.2749" lon="-2.30355">
        <ele>8</ele>
        <time>2022-01-16T08:31:29.000Z</time>
      </trkpt>
      <trkpt lat="47.27485" lon="-2.30335">
        <ele>8</ele>
        <time>2022-01-16T08:31:32.000Z</time>
      </trkpt>
      <trkpt lat="47.27483" lon="-2.30323">
        <ele>8</ele>
        <time>2022-01-16T08:31:34.000Z</time>
      </trkpt>
      <trkpt lat="47.27481" lon="-2.30309">
        <ele>8.6000003814697</ele>
        <time>2022-01-16T08:31:36.000Z</time>
      </trkpt>
      <trkpt lat="47.2748" lon="-2.30303">
        <ele>9</ele>
        <time>2022-01-16T08:31:37.000Z</time>
      </trkpt>
      <trkpt lat="47.27479" lon="-2.30297">
        <ele>9.3999996185303</ele>
        <time>2022-01-16T08:31:38.000Z</time>
      </trkpt>
      <trkpt lat="47.27478" lon="-2.30291">
        <ele>9.8000001907349</ele>
        <time>2022-01-16T08:31:39.000Z</time>
      </trkpt>
      <trkpt lat="47.27477" lon="-2.30285">
        <ele>10.39999961853</ele>
        <time>2022-01-16T08:31:40.000Z</time>
      </trkpt>
      <trkpt lat="47.27472" lon="-2.30264">
        <ele>10.39999961853</ele>
        <time>2022-01-16T08:31:44.000Z</time>
      </trkpt>
      <trkpt lat="47.27467" lon="-2.30242">
        <ele>10.800000190735</ele>
        <time>2022-01-16T08:31:48.000Z</time>
      </trkpt>
      <trkpt lat="47.27466" lon="-2.30238">
        <ele>11.199999809265</ele>
        <time>2022-01-16T08:31:49.000Z</time>
      </trkpt>
      <trkpt lat="47.27465" lon="-2.30234">
        <ele>11.60000038147</ele>
        <time>2022-01-16T08:31:50.000Z</time>
      </trkpt>
      <trkpt lat="47.27464" lon="-2.30229">
        <ele>12</ele>
        <time>2022-01-16T08:31:51.000Z</time>
      </trkpt>
      <trkpt lat="47.27464" lon="-2.30226">
        <ele>12.39999961853</ele>
        <time>2022-01-16T08:31:52.000Z</time>
      </trkpt>
      <trkpt lat="47.27464" lon="-2.30222">
        <ele>12.39999961853</ele>
        <time>2022-01-16T08:31:53.000Z</time>
      </trkpt>
      <trkpt lat="47.27467" lon="-2.30216">
        <ele>12.39999961853</ele>
        <time>2022-01-16T08:31:55.000Z</time>
      </trkpt>
      <trkpt lat="47.27473" lon="-2.3021">
        <ele>12.39999961853</ele>
        <time>2022-01-16T08:31:58.000Z</time>
      </trkpt>
      <trkpt lat="47.27483" lon="-2.30205">
        <ele>12.39999961853</ele>
        <time>2022-01-16T08:32:01.000Z</time>
      </trkpt>
      <trkpt lat="47.27504" lon="-2.30193">
        <ele>12.39999961853</ele>
        <time>2022-01-16T08:32:07.000Z</time>
      </trkpt>
      <trkpt lat="47.27513" lon="-2.30182">
        <ele>12.39999961853</ele>
        <time>2022-01-16T08:32:11.000Z</time>
      </trkpt>
      <trkpt lat="47.27528" lon="-2.30169">
        <ele>12.39999961853</ele>
        <time>2022-01-16T08:32:17.000Z</time>
      </trkpt>
      <trkpt lat="47.27552" lon="-2.30154">
        <ele>12.39999961853</ele>
        <time>2022-01-16T08:32:24.000Z</time>
      </trkpt>
      <trkpt lat="47.27575" lon="-2.30141">
        <ele>12.39999961853</ele>
        <time>2022-01-16T08:32:30.000Z</time>
      </trkpt>
      <trkpt lat="47.2759" lon="-2.30135">
        <ele>12.39999961853</ele>
        <time>2022-01-16T08:32:34.000Z</time>
      </trkpt>
      <trkpt lat="47.2761" lon="-2.30121">
        <ele>12.39999961853</ele>
        <time>2022-01-16T08:32:41.000Z</time>
      </trkpt>
      <trkpt lat="47.27625" lon="-2.30121">
        <ele>12.39999961853</ele>
        <time>2022-01-16T08:32:44.000Z</time>
      </trkpt>
      <trkpt lat="47.27647" lon="-2.3014">
        <ele>12.39999961853</ele>
        <time>2022-01-16T08:32:49.000Z</time>
      </trkpt>
      <trkpt lat="47.2765" lon="-2.30144">
        <ele>12.39999961853</ele>
        <time>2022-01-16T08:32:50.000Z</time>
      </trkpt>
      <trkpt lat="47.27663" lon="-2.3015">
        <ele>12.39999961853</ele>
        <time>2022-01-16T08:32:53.000Z</time>
      </trkpt>
      <trkpt lat="47.27676" lon="-2.30148">
        <ele>12.39999961853</ele>
        <time>2022-01-16T08:32:56.000Z</time>
      </trkpt>
      <trkpt lat="47.27681" lon="-2.30147">
        <ele>12.39999961853</ele>
        <time>2022-01-16T08:32:57.000Z</time>
      </trkpt>
      <trkpt lat="47.27691" lon="-2.30143">
        <ele>12.39999961853</ele>
        <time>2022-01-16T08:32:59.000Z</time>
      </trkpt>
      <trkpt lat="47.27705" lon="-2.3014">
        <ele>12.39999961853</ele>
        <time>2022-01-16T08:33:02.000Z</time>
      </trkpt>
      <trkpt lat="47.27713" lon="-2.30141">
        <ele>12.39999961853</ele>
        <time>2022-01-16T08:33:04.000Z</time>
      </trkpt>
      <trkpt lat="47.27726" lon="-2.30137">
        <ele>12.800000190735</ele>
        <time>2022-01-16T08:33:07.000Z</time>
      </trkpt>
      <trkpt lat="47.2773" lon="-2.30136">
        <ele>13.199999809265</ele>
        <time>2022-01-16T08:33:08.000Z</time>
      </trkpt>
      <trkpt lat="47.27735" lon="-2.30134">
        <ele>13.60000038147</ele>
        <time>2022-01-16T08:33:09.000Z</time>
      </trkpt>
      <trkpt lat="47.27739" lon="-2.30133">
        <ele>14</ele>
        <time>2022-01-16T08:33:10.000Z</time>
      </trkpt>
      <trkpt lat="47.27744" lon="-2.30131">
        <ele>14.39999961853</ele>
        <time>2022-01-16T08:33:11.000Z</time>
      </trkpt>
      <trkpt lat="47.27772" lon="-2.30117">
        <ele>14.39999961853</ele>
        <time>2022-01-16T08:33:17.000Z</time>
      </trkpt>
      <trkpt lat="47.27805" lon="-2.30099">
        <ele>14.39999961853</ele>
        <time>2022-01-16T08:33:24.000Z</time>
      </trkpt>
      <trkpt lat="47.27842" lon="-2.30072">
        <ele>14.39999961853</ele>
        <time>2022-01-16T08:33:33.000Z</time>
      </trkpt>
      <trkpt lat="47.27856" lon="-2.30061">
        <ele>14.800000190735</ele>
        <time>2022-01-16T08:33:37.000Z</time>
      </trkpt>
      <trkpt lat="47.2786" lon="-2.30058">
        <ele>15.199999809265</ele>
        <time>2022-01-16T08:33:38.000Z</time>
      </trkpt>
      <trkpt lat="47.27864" lon="-2.30055">
        <ele>15.60000038147</ele>
        <time>2022-01-16T08:33:39.000Z</time>
      </trkpt>
      <trkpt lat="47.27868" lon="-2.30052">
        <ele>16</ele>
        <time>2022-01-16T08:33:40.000Z</time>
      </trkpt>
      <trkpt lat="47.27871" lon="-2.30048">
        <ele>16.39999961853</ele>
        <time>2022-01-16T08:33:41.000Z</time>
      </trkpt>
      <trkpt lat="47.27885" lon="-2.3003">
        <ele>16.39999961853</ele>
        <time>2022-01-16T08:33:45.000Z</time>
      </trkpt>
      <trkpt lat="47.2789" lon="-2.30001">
        <ele>16.39999961853</ele>
        <time>2022-01-16T08:33:50.000Z</time>
      </trkpt>
      <trkpt lat="47.2789" lon="-2.29987">
        <ele>16.39999961853</ele>
        <time>2022-01-16T08:33:52.000Z</time>
      </trkpt>
      <trkpt lat="47.27889" lon="-2.29951">
        <ele>16.39999961853</ele>
        <time>2022-01-16T08:33:57.000Z</time>
      </trkpt>
      <trkpt lat="47.27888" lon="-2.29928">
        <ele>16.799999237061</ele>
        <time>2022-01-16T08:34:00.000Z</time>
      </trkpt>
      <trkpt lat="47.27888" lon="-2.2992">
        <ele>17.200000762939</ele>
        <time>2022-01-16T08:34:01.000Z</time>
      </trkpt>
      <trkpt lat="47.27887" lon="-2.29912">
        <ele>17.60000038147</ele>
        <time>2022-01-16T08:34:02.000Z</time>
      </trkpt>
      <trkpt lat="47.27886" lon="-2.29904">
        <ele>18</ele>
        <time>2022-01-16T08:34:03.000Z</time>
      </trkpt>
      <trkpt lat="47.27886" lon="-2.29896">
        <ele>18.39999961853</ele>
        <time>2022-01-16T08:34:04.000Z</time>
      </trkpt>
      <trkpt lat="47.27883" lon="-2.29837">
        <ele>18.39999961853</ele>
        <time>2022-01-16T08:34:12.000Z</time>
      </trkpt>
      <trkpt lat="47.27879" lon="-2.29794">
        <ele>18.39999961853</ele>
        <time>2022-01-16T08:34:18.000Z</time>
      </trkpt>
      <trkpt lat="47.27874" lon="-2.2975">
        <ele>18.799999237061</ele>
        <time>2022-01-16T08:34:24.000Z</time>
      </trkpt>
      <trkpt lat="47.27873" lon="-2.29743">
        <ele>19.200000762939</ele>
        <time>2022-01-16T08:34:25.000Z</time>
      </trkpt>
      <trkpt lat="47.27872" lon="-2.29735">
        <ele>19.60000038147</ele>
        <time>2022-01-16T08:34:26.000Z</time>
      </trkpt>
      <trkpt lat="47.27871" lon="-2.29728">
        <ele>20.200000762939</ele>
        <time>2022-01-16T08:34:27.000Z</time>
      </trkpt>
      <trkpt lat="47.2787" lon="-2.2972">
        <ele>20.60000038147</ele>
        <time>2022-01-16T08:34:28.000Z</time>
      </trkpt>
      <trkpt lat="47.27864" lon="-2.29665">
        <ele>20.60000038147</ele>
        <time>2022-01-16T08:34:35.000Z</time>
      </trkpt>
      <trkpt lat="47.27854" lon="-2.29612">
        <ele>20.60000038147</ele>
        <time>2022-01-16T08:34:42.000Z</time>
      </trkpt>
      <trkpt lat="47.27861" lon="-2.29594">
        <ele>20.60000038147</ele>
        <time>2022-01-16T08:34:45.000Z</time>
      </trkpt>
      <trkpt lat="47.27877" lon="-2.29592">
        <ele>20.60000038147</ele>
        <time>2022-01-16T08:34:48.000Z</time>
      </trkpt>
      <trkpt lat="47.27883" lon="-2.29593">
        <ele>20.60000038147</ele>
        <time>2022-01-16T08:34:49.000Z</time>
      </trkpt>
      <trkpt lat="47.27915" lon="-2.29595">
        <ele>20.60000038147</ele>
        <time>2022-01-16T08:34:55.000Z</time>
      </trkpt>
      <trkpt lat="47.27949" lon="-2.29595">
        <ele>20.60000038147</ele>
        <time>2022-01-16T08:35:01.000Z</time>
      </trkpt>
      <trkpt lat="47.27995" lon="-2.29585">
        <ele>20.60000038147</ele>
        <time>2022-01-16T08:35:09.000Z</time>
      </trkpt>
      <trkpt lat="47.28033" lon="-2.2957">
        <ele>20.60000038147</ele>
        <time>2022-01-16T08:35:16.000Z</time>
      </trkpt>
      <trkpt lat="47.28069" lon="-2.29554">
        <ele>20.60000038147</ele>
        <time>2022-01-16T08:35:23.000Z</time>
      </trkpt>
      <trkpt lat="47.28091" lon="-2.29545">
        <ele>20.60000038147</ele>
        <time>2022-01-16T08:35:27.000Z</time>
      </trkpt>
      <trkpt lat="47.28096" lon="-2.29542">
        <ele>20.60000038147</ele>
        <time>2022-01-16T08:35:28.000Z</time>
      </trkpt>
      <trkpt lat="47.28134" lon="-2.29526">
        <ele>20.60000038147</ele>
        <time>2022-01-16T08:35:36.000Z</time>
      </trkpt>
      <trkpt lat="47.28173" lon="-2.2951">
        <ele>20.60000038147</ele>
        <time>2022-01-16T08:35:44.000Z</time>
      </trkpt>
      <trkpt lat="47.28198" lon="-2.29499">
        <ele>20.60000038147</ele>
        <time>2022-01-16T08:35:49.000Z</time>
      </trkpt>
      <trkpt lat="47.28203" lon="-2.29497">
        <ele>20</ele>
        <time>2022-01-16T08:35:50.000Z</time>
      </trkpt>
      <trkpt lat="47.28209" lon="-2.29494">
        <ele>19.60000038147</ele>
        <time>2022-01-16T08:35:51.000Z</time>
      </trkpt>
      <trkpt lat="47.28214" lon="-2.2949">
        <ele>19.200000762939</ele>
        <time>2022-01-16T08:35:52.000Z</time>
      </trkpt>
      <trkpt lat="47.2822" lon="-2.29487">
        <ele>18.799999237061</ele>
        <time>2022-01-16T08:35:53.000Z</time>
      </trkpt>
      <trkpt lat="47.28226" lon="-2.29484">
        <ele>18.39999961853</ele>
        <time>2022-01-16T08:35:54.000Z</time>
      </trkpt>
      <trkpt lat="47.28245" lon="-2.29474">
        <ele>18.39999961853</ele>
        <time>2022-01-16T08:35:57.000Z</time>
      </trkpt>
      <trkpt lat="47.28257" lon="-2.29467">
        <ele>18</ele>
        <time>2022-01-16T08:35:59.000Z</time>
      </trkpt>
      <trkpt lat="47.28263" lon="-2.29462">
        <ele>17.60000038147</ele>
        <time>2022-01-16T08:36:00.000Z</time>
      </trkpt>
      <trkpt lat="47.2827" lon="-2.29458">
        <ele>17.200000762939</ele>
        <time>2022-01-16T08:36:01.000Z</time>
      </trkpt>
      <trkpt lat="47.28276" lon="-2.29454">
        <ele>16.799999237061</ele>
        <time>2022-01-16T08:36:02.000Z</time>
      </trkpt>
      <trkpt lat="47.28282" lon="-2.2945">
        <ele>16.39999961853</ele>
        <time>2022-01-16T08:36:03.000Z</time>
      </trkpt>
      <trkpt lat="47.283" lon="-2.29436">
        <ele>16.39999961853</ele>
        <time>2022-01-16T08:36:06.000Z</time>
      </trkpt>
      <trkpt lat="47.28337" lon="-2.29396">
        <ele>16.39999961853</ele>
        <time>2022-01-16T08:36:13.000Z</time>
      </trkpt>
      <trkpt lat="47.2836" lon="-2.29373">
        <ele>16.39999961853</ele>
        <time>2022-01-16T08:36:18.000Z</time>
      </trkpt>
      <trkpt lat="47.2839" lon="-2.29352">
        <ele>16.39999961853</ele>
        <time>2022-01-16T08:36:25.000Z</time>
      </trkpt>
      <trkpt lat="47.28427" lon="-2.29333">
        <ele>16.39999961853</ele>
        <time>2022-01-16T08:36:33.000Z</time>
      </trkpt>
      <trkpt lat="47.28467" lon="-2.29318">
        <ele>15.800000190735</ele>
        <time>2022-01-16T08:36:40.000Z</time>
      </trkpt>
      <trkpt lat="47.28473" lon="-2.29315">
        <ele>15.39999961853</ele>
        <time>2022-01-16T08:36:41.000Z</time>
      </trkpt>
      <trkpt lat="47.28479" lon="-2.29312">
        <ele>15</ele>
        <time>2022-01-16T08:36:42.000Z</time>
      </trkpt>
      <trkpt lat="47.28485" lon="-2.29309">
        <ele>14.199999809265</ele>
        <time>2022-01-16T08:36:43.000Z</time>
      </trkpt>
      <trkpt lat="47.28498" lon="-2.29302">
        <ele>13.800000190735</ele>
        <time>2022-01-16T08:36:45.000Z</time>
      </trkpt>
      <trkpt lat="47.28504" lon="-2.29298">
        <ele>13.39999961853</ele>
        <time>2022-01-16T08:36:46.000Z</time>
      </trkpt>
      <trkpt lat="47.28511" lon="-2.29295">
        <ele>13</ele>
        <time>2022-01-16T08:36:47.000Z</time>
      </trkpt>
      <trkpt lat="47.28517" lon="-2.29292">
        <ele>12.60000038147</ele>
        <time>2022-01-16T08:36:48.000Z</time>
      </trkpt>
      <trkpt lat="47.28521" lon="-2.29289">
        <ele>12.199999809265</ele>
        <time>2022-01-16T08:36:49.000Z</time>
      </trkpt>
      <trkpt lat="47.28523" lon="-2.29284">
        <ele>12.199999809265</ele>
        <time>2022-01-16T08:36:50.000Z</time>
      </trkpt>
      <trkpt lat="47.28524" lon="-2.29277">
        <ele>12.199999809265</ele>
        <time>2022-01-16T08:36:51.000Z</time>
      </trkpt>
      <trkpt lat="47.28523" lon="-2.29256">
        <ele>12.199999809265</ele>
        <time>2022-01-16T08:36:54.000Z</time>
      </trkpt>
      <trkpt lat="47.28523" lon="-2.29248">
        <ele>12.199999809265</ele>
        <time>2022-01-16T08:36:55.000Z</time>
      </trkpt>
      <trkpt lat="47.28523" lon="-2.2921">
        <ele>12.199999809265</ele>
        <time>2022-01-16T08:37:00.000Z</time>
      </trkpt>
      <trkpt lat="47.28525" lon="-2.29205">
        <ele>12.199999809265</ele>
        <time>2022-01-16T08:37:01.000Z</time>
      </trkpt>
      <trkpt lat="47.28535" lon="-2.29195">
        <ele>12.199999809265</ele>
        <time>2022-01-16T08:37:04.000Z</time>
      </trkpt>
      <trkpt lat="47.2854" lon="-2.29191">
        <ele>11.800000190735</ele>
        <time>2022-01-16T08:37:05.000Z</time>
      </trkpt>
      <trkpt lat="47.28544" lon="-2.29187">
        <ele>11.39999961853</ele>
        <time>2022-01-16T08:37:06.000Z</time>
      </trkpt>
      <trkpt lat="47.28549" lon="-2.29184">
        <ele>11</ele>
        <time>2022-01-16T08:37:07.000Z</time>
      </trkpt>
      <trkpt lat="47.28553" lon="-2.2918">
        <ele>10.199999809265</ele>
        <time>2022-01-16T08:37:08.000Z</time>
      </trkpt>
      <trkpt lat="47.28568" lon="-2.29167">
        <ele>10.199999809265</ele>
        <time>2022-01-16T08:37:11.000Z</time>
      </trkpt>
      <trkpt lat="47.28584" lon="-2.29142">
        <ele>10.199999809265</ele>
        <time>2022-01-16T08:37:15.000Z</time>
      </trkpt>
      <trkpt lat="47.28601" lon="-2.29105">
        <ele>10.199999809265</ele>
        <time>2022-01-16T08:37:20.000Z</time>
      </trkpt>
      <trkpt lat="47.28603" lon="-2.29097">
        <ele>10.199999809265</ele>
        <time>2022-01-16T08:37:21.000Z</time>
      </trkpt>
      <trkpt lat="47.2861" lon="-2.29063">
        <ele>10.199999809265</ele>
        <time>2022-01-16T08:37:26.000Z</time>
      </trkpt>
      <trkpt lat="47.28604" lon="-2.29047">
        <ele>10.199999809265</ele>
        <time>2022-01-16T08:37:30.000Z</time>
      </trkpt>
      <trkpt lat="47.28594" lon="-2.29042">
        <ele>10.199999809265</ele>
        <time>2022-01-16T08:37:34.000Z</time>
      </trkpt>
      <trkpt lat="47.28576" lon="-2.29043">
        <ele>10.199999809265</ele>
        <time>2022-01-16T08:37:39.000Z</time>
      </trkpt>
      <trkpt lat="47.28554" lon="-2.29043">
        <ele>10.199999809265</ele>
        <time>2022-01-16T08:37:45.000Z</time>
      </trkpt>
      <trkpt lat="47.28536" lon="-2.29037">
        <ele>10.199999809265</ele>
        <time>2022-01-16T08:37:51.000Z</time>
      </trkpt>
      <trkpt lat="47.28521" lon="-2.29026">
        <ele>10.199999809265</ele>
        <time>2022-01-16T08:37:57.000Z</time>
      </trkpt>
      <trkpt lat="47.28506" lon="-2.29019">
        <ele>10.60000038147</ele>
        <time>2022-01-16T08:38:02.000Z</time>
      </trkpt>
      <trkpt lat="47.28503" lon="-2.29018">
        <ele>11</ele>
        <time>2022-01-16T08:38:03.000Z</time>
      </trkpt>
      <trkpt lat="47.285" lon="-2.29017">
        <ele>11.39999961853</ele>
        <time>2022-01-16T08:38:04.000Z</time>
      </trkpt>
      <trkpt lat="47.28498" lon="-2.29016">
        <ele>11.800000190735</ele>
        <time>2022-01-16T08:38:05.000Z</time>
      </trkpt>
      <trkpt lat="47.28494" lon="-2.29015">
        <ele>12.199999809265</ele>
        <time>2022-01-16T08:38:06.000Z</time>
      </trkpt>
      <trkpt lat="47.2848" lon="-2.29011">
        <ele>12.199999809265</ele>
        <time>2022-01-16T08:38:10.000Z</time>
      </trkpt>
      <trkpt lat="47.28461" lon="-2.29006">
        <ele>12.199999809265</ele>
        <time>2022-01-16T08:38:16.000Z</time>
      </trkpt>
      <trkpt lat="47.28445" lon="-2.29006">
        <ele>12.60000038147</ele>
        <time>2022-01-16T08:38:20.000Z</time>
      </trkpt>
      <trkpt lat="47.28442" lon="-2.29006">
        <ele>13</ele>
        <time>2022-01-16T08:38:21.000Z</time>
      </trkpt>
      <trkpt lat="47.28439" lon="-2.29005">
        <ele>13.800000190735</ele>
        <time>2022-01-16T08:38:22.000Z</time>
      </trkpt>
      <trkpt lat="47.28436" lon="-2.29004">
        <ele>14.199999809265</ele>
        <time>2022-01-16T08:38:23.000Z</time>
      </trkpt>
      <trkpt lat="47.28416" lon="-2.28997">
        <ele>14.199999809265</ele>
        <time>2022-01-16T08:38:28.000Z</time>
      </trkpt>
      <trkpt lat="47.28406" lon="-2.2899">
        <ele>14.60000038147</ele>
        <time>2022-01-16T08:38:31.000Z</time>
      </trkpt>
      <trkpt lat="47.28402" lon="-2.2899">
        <ele>15</ele>
        <time>2022-01-16T08:38:32.000Z</time>
      </trkpt>
      <trkpt lat="47.284" lon="-2.28987">
        <ele>15.39999961853</ele>
        <time>2022-01-16T08:38:33.000Z</time>
      </trkpt>
      <trkpt lat="47.284" lon="-2.28985">
        <ele>15.800000190735</ele>
        <time>2022-01-16T08:38:34.000Z</time>
      </trkpt>
      <trkpt lat="47.284" lon="-2.28983">
        <ele>16.200000762939</ele>
        <time>2022-01-16T08:38:35.000Z</time>
      </trkpt>
      <trkpt lat="47.28399" lon="-2.28979">
        <ele>16.200000762939</ele>
        <time>2022-01-16T08:38:37.000Z</time>
      </trkpt>
      <trkpt lat="47.28398" lon="-2.28978">
        <ele>16.200000762939</ele>
        <time>2022-01-16T08:38:39.000Z</time>
      </trkpt>
      <trkpt lat="47.28398" lon="-2.28974">
        <ele>16.200000762939</ele>
        <time>2022-01-16T08:39:18.000Z</time>
      </trkpt>
      <trkpt lat="47.28397" lon="-2.28971">
        <ele>16.200000762939</ele>
        <time>2022-01-16T08:39:19.000Z</time>
      </trkpt>
      <trkpt lat="47.28396" lon="-2.28946">
        <ele>16.200000762939</ele>
        <time>2022-01-16T08:39:24.000Z</time>
      </trkpt>
      <trkpt lat="47.28393" lon="-2.28902">
        <ele>16.200000762939</ele>
        <time>2022-01-16T08:39:30.000Z</time>
      </trkpt>
      <trkpt lat="47.28392" lon="-2.28876">
        <ele>16.200000762939</ele>
        <time>2022-01-16T08:39:33.000Z</time>
      </trkpt>
      <trkpt lat="47.28392" lon="-2.2886">
        <ele>16.200000762939</ele>
        <time>2022-01-16T08:39:35.000Z</time>
      </trkpt>
      <trkpt lat="47.2839" lon="-2.28816">
        <ele>16.200000762939</ele>
        <time>2022-01-16T08:39:41.000Z</time>
      </trkpt>
      <trkpt lat="47.28389" lon="-2.28779">
        <ele>16.200000762939</ele>
        <time>2022-01-16T08:39:46.000Z</time>
      </trkpt>
      <trkpt lat="47.28389" lon="-2.28764">
        <ele>16.200000762939</ele>
        <time>2022-01-16T08:39:48.000Z</time>
      </trkpt>
      <trkpt lat="47.28388" lon="-2.28757">
        <ele>16.200000762939</ele>
        <time>2022-01-16T08:39:49.000Z</time>
      </trkpt>
      <trkpt lat="47.28387" lon="-2.28734">
        <ele>16.200000762939</ele>
        <time>2022-01-16T08:39:52.000Z</time>
      </trkpt>
      <trkpt lat="47.28386" lon="-2.28726">
        <ele>16.200000762939</ele>
        <time>2022-01-16T08:39:53.000Z</time>
      </trkpt>
      <trkpt lat="47.28386" lon="-2.28711">
        <ele>16.60000038147</ele>
        <time>2022-01-16T08:39:55.000Z</time>
      </trkpt>
      <trkpt lat="47.28385" lon="-2.28704">
        <ele>17</ele>
        <time>2022-01-16T08:39:56.000Z</time>
      </trkpt>
      <trkpt lat="47.28385" lon="-2.28697">
        <ele>17.39999961853</ele>
        <time>2022-01-16T08:39:57.000Z</time>
      </trkpt>
      <trkpt lat="47.28385" lon="-2.28689">
        <ele>17.799999237061</ele>
        <time>2022-01-16T08:39:58.000Z</time>
      </trkpt>
      <trkpt lat="47.28385" lon="-2.28681">
        <ele>18.200000762939</ele>
        <time>2022-01-16T08:39:59.000Z</time>
      </trkpt>
      <trkpt lat="47.28383" lon="-2.28635">
        <ele>18.200000762939</ele>
        <time>2022-01-16T08:40:05.000Z</time>
      </trkpt>
      <trkpt lat="47.2838" lon="-2.28569">
        <ele>18.200000762939</ele>
        <time>2022-01-16T08:40:13.000Z</time>
      </trkpt>
      <trkpt lat="47.28377" lon="-2.28507">
        <ele>18.200000762939</ele>
        <time>2022-01-16T08:40:21.000Z</time>
      </trkpt>
      <trkpt lat="47.28376" lon="-2.28463">
        <ele>18.200000762939</ele>
        <time>2022-01-16T08:40:27.000Z</time>
      </trkpt>
      <trkpt lat="47.28374" lon="-2.28421">
        <ele>18.200000762939</ele>
        <time>2022-01-16T08:40:33.000Z</time>
      </trkpt>
      <trkpt lat="47.28371" lon="-2.28378">
        <ele>18.200000762939</ele>
        <time>2022-01-16T08:40:39.000Z</time>
      </trkpt>
      <trkpt lat="47.2837" lon="-2.28335">
        <ele>18.200000762939</ele>
        <time>2022-01-16T08:40:45.000Z</time>
      </trkpt>
      <trkpt lat="47.28369" lon="-2.2829">
        <ele>18.200000762939</ele>
        <time>2022-01-16T08:40:51.000Z</time>
      </trkpt>
      <trkpt lat="47.28368" lon="-2.2825">
        <ele>18.200000762939</ele>
        <time>2022-01-16T08:40:56.000Z</time>
      </trkpt>
      <trkpt lat="47.28368" lon="-2.28225">
        <ele>17.799999237061</ele>
        <time>2022-01-16T08:40:59.000Z</time>
      </trkpt>
      <trkpt lat="47.28368" lon="-2.28216">
        <ele>17.39999961853</ele>
        <time>2022-01-16T08:41:00.000Z</time>
      </trkpt>
      <trkpt lat="47.28368" lon="-2.28208">
        <ele>17</ele>
        <time>2022-01-16T08:41:01.000Z</time>
      </trkpt>
      <trkpt lat="47.28367" lon="-2.28199">
        <ele>16.60000038147</ele>
        <time>2022-01-16T08:41:02.000Z</time>
      </trkpt>
      <trkpt lat="47.28367" lon="-2.28189">
        <ele>16.200000762939</ele>
        <time>2022-01-16T08:41:03.000Z</time>
      </trkpt>
      <trkpt lat="47.28367" lon="-2.28158">
        <ele>15.800000190735</ele>
        <time>2022-01-16T08:41:06.000Z</time>
      </trkpt>
      <trkpt lat="47.28367" lon="-2.28149">
        <ele>15.199999809265</ele>
        <time>2022-01-16T08:41:07.000Z</time>
      </trkpt>
      <trkpt lat="47.28367" lon="-2.2814">
        <ele>14.800000190735</ele>
        <time>2022-01-16T08:41:08.000Z</time>
      </trkpt>
      <trkpt lat="47.28366" lon="-2.28133">
        <ele>14.39999961853</ele>
        <time>2022-01-16T08:41:09.000Z</time>
      </trkpt>
      <trkpt lat="47.28366" lon="-2.28124">
        <ele>13.800000190735</ele>
        <time>2022-01-16T08:41:10.000Z</time>
      </trkpt>
      <trkpt lat="47.28365" lon="-2.28116">
        <ele>13.199999809265</ele>
        <time>2022-01-16T08:41:11.000Z</time>
      </trkpt>
      <trkpt lat="47.28365" lon="-2.28108">
        <ele>12.60000038147</ele>
        <time>2022-01-16T08:41:12.000Z</time>
      </trkpt>
      <trkpt lat="47.28364" lon="-2.28102">
        <ele>12.199999809265</ele>
        <time>2022-01-16T08:41:13.000Z</time>
      </trkpt>
      <trkpt lat="47.28363" lon="-2.28098">
        <ele>11</ele>
        <time>2022-01-16T08:41:14.000Z</time>
      </trkpt>
      <trkpt lat="47.28361" lon="-2.28095">
        <ele>10.39999961853</ele>
        <time>2022-01-16T08:41:15.000Z</time>
      </trkpt>
      <trkpt lat="47.28359" lon="-2.28093">
        <ele>10</ele>
        <time>2022-01-16T08:41:16.000Z</time>
      </trkpt>
      <trkpt lat="47.28356" lon="-2.28092">
        <ele>9.3999996185303</ele>
        <time>2022-01-16T08:41:17.000Z</time>
      </trkpt>
      <trkpt lat="47.2835" lon="-2.28089">
        <ele>9.3999996185303</ele>
        <time>2022-01-16T08:41:20.000Z</time>
      </trkpt>
      <trkpt lat="47.28335" lon="-2.28081">
        <ele>9.3999996185303</ele>
        <time>2022-01-16T08:41:27.000Z</time>
      </trkpt>
      <trkpt lat="47.28333" lon="-2.28074">
        <ele>9.3999996185303</ele>
        <time>2022-01-16T08:41:30.000Z</time>
      </trkpt>
      <trkpt lat="47.28331" lon="-2.28052">
        <ele>9.3999996185303</ele>
        <time>2022-01-16T08:41:35.000Z</time>
      </trkpt>
      <trkpt lat="47.28329" lon="-2.28038">
        <ele>9.8000001907349</ele>
        <time>2022-01-16T08:41:38.000Z</time>
      </trkpt>
      <trkpt lat="47.28329" lon="-2.28034">
        <ele>10.199999809265</ele>
        <time>2022-01-16T08:41:39.000Z</time>
      </trkpt>
      <trkpt lat="47.28328" lon="-2.28031">
        <ele>10.800000190735</ele>
        <time>2022-01-16T08:41:40.000Z</time>
      </trkpt>
      <trkpt lat="47.28328" lon="-2.28027">
        <ele>11.199999809265</ele>
        <time>2022-01-16T08:41:41.000Z</time>
      </trkpt>
      <trkpt lat="47.28327" lon="-2.28023">
        <ele>11.60000038147</ele>
        <time>2022-01-16T08:41:42.000Z</time>
      </trkpt>
      <trkpt lat="47.28328" lon="-2.28011">
        <ele>12</ele>
        <time>2022-01-16T08:41:45.000Z</time>
      </trkpt>
      <trkpt lat="47.28327" lon="-2.28007">
        <ele>12.39999961853</ele>
        <time>2022-01-16T08:41:46.000Z</time>
      </trkpt>
      <trkpt lat="47.28326" lon="-2.28004">
        <ele>12.800000190735</ele>
        <time>2022-01-16T08:41:47.000Z</time>
      </trkpt>
      <trkpt lat="47.28326" lon="-2.28">
        <ele>13.39999961853</ele>
        <time>2022-01-16T08:41:48.000Z</time>
      </trkpt>
      <trkpt lat="47.28324" lon="-2.27997">
        <ele>13.800000190735</ele>
        <time>2022-01-16T08:41:49.000Z</time>
      </trkpt>
      <trkpt lat="47.28321" lon="-2.27983">
        <ele>13.800000190735</ele>
        <time>2022-01-16T08:41:53.000Z</time>
      </trkpt>
      <trkpt lat="47.28322" lon="-2.27981">
        <ele>14.199999809265</ele>
        <time>2022-01-16T08:41:54.000Z</time>
      </trkpt>
      <trkpt lat="47.28322" lon="-2.27978">
        <ele>14.60000038147</ele>
        <time>2022-01-16T08:41:55.000Z</time>
      </trkpt>
      <trkpt lat="47.28323" lon="-2.27975">
        <ele>15</ele>
        <time>2022-01-16T08:41:56.000Z</time>
      </trkpt>
      <trkpt lat="47.28324" lon="-2.27971">
        <ele>15.39999961853</ele>
        <time>2022-01-16T08:41:57.000Z</time>
      </trkpt>
      <trkpt lat="47.28324" lon="-2.27967">
        <ele>15.800000190735</ele>
        <time>2022-01-16T08:41:58.000Z</time>
      </trkpt>
      <trkpt lat="47.28324" lon="-2.27963">
        <ele>15.800000190735</ele>
        <time>2022-01-16T08:41:59.000Z</time>
      </trkpt>
      <trkpt lat="47.28324" lon="-2.27949">
        <ele>15.800000190735</ele>
        <time>2022-01-16T08:42:02.000Z</time>
      </trkpt>
      <trkpt lat="47.28323" lon="-2.27912">
        <ele>15.800000190735</ele>
        <time>2022-01-16T08:42:09.000Z</time>
      </trkpt>
      <trkpt lat="47.28329" lon="-2.27863">
        <ele>15.800000190735</ele>
        <time>2022-01-16T08:42:17.000Z</time>
      </trkpt>
      <trkpt lat="47.28333" lon="-2.27815">
        <ele>15.800000190735</ele>
        <time>2022-01-16T08:42:24.000Z</time>
      </trkpt>
      <trkpt lat="47.28338" lon="-2.27746">
        <ele>15.800000190735</ele>
        <time>2022-01-16T08:42:33.000Z</time>
      </trkpt>
      <trkpt lat="47.28341" lon="-2.277">
        <ele>15.800000190735</ele>
        <time>2022-01-16T08:42:40.000Z</time>
      </trkpt>
      <trkpt lat="47.28345" lon="-2.2767">
        <ele>15.800000190735</ele>
        <time>2022-01-16T08:42:46.000Z</time>
      </trkpt>
      <trkpt lat="47.28348" lon="-2.27646">
        <ele>16.200000762939</ele>
        <time>2022-01-16T08:42:51.000Z</time>
      </trkpt>
      <trkpt lat="47.28348" lon="-2.27641">
        <ele>17</ele>
        <time>2022-01-16T08:42:52.000Z</time>
      </trkpt>
      <trkpt lat="47.28348" lon="-2.27636">
        <ele>17.39999961853</ele>
        <time>2022-01-16T08:42:53.000Z</time>
      </trkpt>
      <trkpt lat="47.28348" lon="-2.27631">
        <ele>18</ele>
        <time>2022-01-16T08:42:54.000Z</time>
      </trkpt>
      <trkpt lat="47.28349" lon="-2.276">
        <ele>18</ele>
        <time>2022-01-16T08:43:00.000Z</time>
      </trkpt>
      <trkpt lat="47.28351" lon="-2.27576">
        <ele>18</ele>
        <time>2022-01-16T08:43:05.000Z</time>
      </trkpt>
      <trkpt lat="47.28355" lon="-2.2755">
        <ele>18</ele>
        <time>2022-01-16T08:43:10.000Z</time>
      </trkpt>
      <trkpt lat="47.28364" lon="-2.27506">
        <ele>18</ele>
        <time>2022-01-16T08:43:17.000Z</time>
      </trkpt>
      <trkpt lat="47.2837" lon="-2.27471">
        <ele>18</ele>
        <time>2022-01-16T08:43:22.000Z</time>
      </trkpt>
      <trkpt lat="47.28377" lon="-2.27427">
        <ele>18</ele>
        <time>2022-01-16T08:43:28.000Z</time>
      </trkpt>
      <trkpt lat="47.28386" lon="-2.27371">
        <ele>17.39999961853</ele>
        <time>2022-01-16T08:43:35.000Z</time>
      </trkpt>
      <trkpt lat="47.28387" lon="-2.27365">
        <ele>17</ele>
        <time>2022-01-16T08:43:36.000Z</time>
      </trkpt>
      <trkpt lat="47.28388" lon="-2.2736">
        <ele>16.39999961853</ele>
        <time>2022-01-16T08:43:37.000Z</time>
      </trkpt>
      <trkpt lat="47.28389" lon="-2.27358">
        <ele>15.800000190735</ele>
        <time>2022-01-16T08:43:38.000Z</time>
      </trkpt>
      <trkpt lat="47.28391" lon="-2.27357">
        <ele>15.199999809265</ele>
        <time>2022-01-16T08:43:39.000Z</time>
      </trkpt>
      <trkpt lat="47.28395" lon="-2.27357">
        <ele>14.60000038147</ele>
        <time>2022-01-16T08:43:40.000Z</time>
      </trkpt>
      <trkpt lat="47.284" lon="-2.27359">
        <ele>14</ele>
        <time>2022-01-16T08:43:41.000Z</time>
      </trkpt>
      <trkpt lat="47.28404" lon="-2.2736">
        <ele>13.39999961853</ele>
        <time>2022-01-16T08:43:42.000Z</time>
      </trkpt>
      <trkpt lat="47.28412" lon="-2.27361">
        <ele>13.39999961853</ele>
        <time>2022-01-16T08:43:44.000Z</time>
      </trkpt>
      <trkpt lat="47.2842" lon="-2.2736">
        <ele>13.39999961853</ele>
        <time>2022-01-16T08:43:46.000Z</time>
      </trkpt>
      <trkpt lat="47.28431" lon="-2.27358">
        <ele>13.39999961853</ele>
        <time>2022-01-16T08:43:48.000Z</time>
      </trkpt>
      <trkpt lat="47.28459" lon="-2.27357">
        <ele>13.39999961853</ele>
        <time>2022-01-16T08:43:53.000Z</time>
      </trkpt>
      <trkpt lat="47.28465" lon="-2.27358">
        <ele>13.39999961853</ele>
        <time>2022-01-16T08:43:54.000Z</time>
      </trkpt>
      <trkpt lat="47.28491" lon="-2.27362">
        <ele>12.800000190735</ele>
        <time>2022-01-16T08:43:58.000Z</time>
      </trkpt>
      <trkpt lat="47.28498" lon="-2.27362">
        <ele>12.39999961853</ele>
        <time>2022-01-16T08:43:59.000Z</time>
      </trkpt>
      <trkpt lat="47.28505" lon="-2.27363">
        <ele>12</ele>
        <time>2022-01-16T08:44:00.000Z</time>
      </trkpt>
      <trkpt lat="47.28512" lon="-2.27363">
        <ele>11.60000038147</ele>
        <time>2022-01-16T08:44:01.000Z</time>
      </trkpt>
      <trkpt lat="47.2852" lon="-2.27364">
        <ele>11.199999809265</ele>
        <time>2022-01-16T08:44:02.000Z</time>
      </trkpt>
      <trkpt lat="47.28557" lon="-2.27365">
        <ele>10.60000038147</ele>
        <time>2022-01-16T08:44:07.000Z</time>
      </trkpt>
      <trkpt lat="47.28565" lon="-2.27363">
        <ele>10.199999809265</ele>
        <time>2022-01-16T08:44:08.000Z</time>
      </trkpt>
      <trkpt lat="47.28572" lon="-2.27359">
        <ele>9.8000001907349</ele>
        <time>2022-01-16T08:44:09.000Z</time>
      </trkpt>
      <trkpt lat="47.28578" lon="-2.27355">
        <ele>9.3999996185303</ele>
        <time>2022-01-16T08:44:10.000Z</time>
      </trkpt>
      <trkpt lat="47.28584" lon="-2.2735">
        <ele>9</ele>
        <time>2022-01-16T08:44:11.000Z</time>
      </trkpt>
      <trkpt lat="47.2859" lon="-2.27346">
        <ele>9</ele>
        <time>2022-01-16T08:44:12.000Z</time>
      </trkpt>
      <trkpt lat="47.28595" lon="-2.27344">
        <ele>9</ele>
        <time>2022-01-16T08:44:13.000Z</time>
      </trkpt>
      <trkpt lat="47.28604" lon="-2.27346">
        <ele>9</ele>
        <time>2022-01-16T08:44:15.000Z</time>
      </trkpt>
      <trkpt lat="47.28612" lon="-2.27352">
        <ele>9</ele>
        <time>2022-01-16T08:44:17.000Z</time>
      </trkpt>
      <trkpt lat="47.28616" lon="-2.27356">
        <ele>9</ele>
        <time>2022-01-16T08:44:18.000Z</time>
      </trkpt>
      <trkpt lat="47.2862" lon="-2.27361">
        <ele>9</ele>
        <time>2022-01-16T08:44:19.000Z</time>
      </trkpt>
      <trkpt lat="47.28631" lon="-2.2738">
        <ele>9</ele>
        <time>2022-01-16T08:44:22.000Z</time>
      </trkpt>
      <trkpt lat="47.28635" lon="-2.27387">
        <ele>8.6000003814697</ele>
        <time>2022-01-16T08:44:23.000Z</time>
      </trkpt>
      <trkpt lat="47.28639" lon="-2.27395">
        <ele>8.1999998092651</ele>
        <time>2022-01-16T08:44:24.000Z</time>
      </trkpt>
      <trkpt lat="47.28643" lon="-2.27402">
        <ele>7.8000001907349</ele>
        <time>2022-01-16T08:44:25.000Z</time>
      </trkpt>
      <trkpt lat="47.28647" lon="-2.27409">
        <ele>7.4000000953674</ele>
        <time>2022-01-16T08:44:26.000Z</time>
      </trkpt>
      <trkpt lat="47.28651" lon="-2.27417">
        <ele>7</ele>
        <time>2022-01-16T08:44:27.000Z</time>
      </trkpt>
      <trkpt lat="47.28679" lon="-2.27458">
        <ele>7</ele>
        <time>2022-01-16T08:44:33.000Z</time>
      </trkpt>
      <trkpt lat="47.28689" lon="-2.27471">
        <ele>6.5999999046326</ele>
        <time>2022-01-16T08:44:35.000Z</time>
      </trkpt>
      <trkpt lat="47.28694" lon="-2.27478">
        <ele>6.1999998092651</ele>
        <time>2022-01-16T08:44:36.000Z</time>
      </trkpt>
      <trkpt lat="47.28699" lon="-2.27483">
        <ele>5.8000001907349</ele>
        <time>2022-01-16T08:44:37.000Z</time>
      </trkpt>
      <trkpt lat="47.28704" lon="-2.27488">
        <ele>5.4000000953674</ele>
        <time>2022-01-16T08:44:38.000Z</time>
      </trkpt>
      <trkpt lat="47.2871" lon="-2.27493">
        <ele>5</ele>
        <time>2022-01-16T08:44:39.000Z</time>
      </trkpt>
      <trkpt lat="47.28746" lon="-2.27515">
        <ele>5</ele>
        <time>2022-01-16T08:44:45.000Z</time>
      </trkpt>
      <trkpt lat="47.28784" lon="-2.27529">
        <ele>4.5999999046326</ele>
        <time>2022-01-16T08:44:51.000Z</time>
      </trkpt>
      <trkpt lat="47.2879" lon="-2.2753">
        <ele>4.1999998092651</ele>
        <time>2022-01-16T08:44:52.000Z</time>
      </trkpt>
      <trkpt lat="47.28796" lon="-2.27533">
        <ele>3.7999999523163</ele>
        <time>2022-01-16T08:44:53.000Z</time>
      </trkpt>
      <trkpt lat="47.28802" lon="-2.27535">
        <ele>3.4000000953674</ele>
        <time>2022-01-16T08:44:54.000Z</time>
      </trkpt>
      <trkpt lat="47.28807" lon="-2.27536">
        <ele>3</ele>
        <time>2022-01-16T08:44:55.000Z</time>
      </trkpt>
      <trkpt lat="47.28813" lon="-2.27537">
        <ele>3</ele>
        <time>2022-01-16T08:44:56.000Z</time>
      </trkpt>
      <trkpt lat="47.28825" lon="-2.27535">
        <ele>3</ele>
        <time>2022-01-16T08:44:58.000Z</time>
      </trkpt>
      <trkpt lat="47.28869" lon="-2.27529">
        <ele>3</ele>
        <time>2022-01-16T08:45:05.000Z</time>
      </trkpt>
      <trkpt lat="47.28914" lon="-2.27522">
        <ele>3</ele>
        <time>2022-01-16T08:45:12.000Z</time>
      </trkpt>
      <trkpt lat="47.28956" lon="-2.27521">
        <ele>3</ele>
        <time>2022-01-16T08:45:19.000Z</time>
      </trkpt>
      <trkpt lat="47.28967" lon="-2.27522">
        <ele>3</ele>
        <time>2022-01-16T08:45:21.000Z</time>
      </trkpt>
      <trkpt lat="47.28979" lon="-2.27523">
        <ele>3</ele>
        <time>2022-01-16T08:45:23.000Z</time>
      </trkpt>
      <trkpt lat="47.29013" lon="-2.27521">
        <ele>3</ele>
        <time>2022-01-16T08:45:29.000Z</time>
      </trkpt>
      <trkpt lat="47.29062" lon="-2.27524">
        <ele>3</ele>
        <time>2022-01-16T08:45:37.000Z</time>
      </trkpt>
      <trkpt lat="47.29102" lon="-2.27529">
        <ele>3</ele>
        <time>2022-01-16T08:45:44.000Z</time>
      </trkpt>
      <trkpt lat="47.29145" lon="-2.2753">
        <ele>3</ele>
        <time>2022-01-16T08:45:51.000Z</time>
      </trkpt>
      <trkpt lat="47.29201" lon="-2.2753">
        <ele>3</ele>
        <time>2022-01-16T08:46:00.000Z</time>
      </trkpt>
      <trkpt lat="47.29208" lon="-2.2753">
        <ele>3</ele>
        <time>2022-01-16T08:46:01.000Z</time>
      </trkpt>
      <trkpt lat="47.29219" lon="-2.2753">
        <ele>3</ele>
        <time>2022-01-16T08:46:03.000Z</time>
      </trkpt>
      <trkpt lat="47.29236" lon="-2.27528">
        <ele>3</ele>
        <time>2022-01-16T08:46:06.000Z</time>
      </trkpt>
      <trkpt lat="47.29258" lon="-2.27526">
        <ele>3</ele>
        <time>2022-01-16T08:46:10.000Z</time>
      </trkpt>
      <trkpt lat="47.29268" lon="-2.2752">
        <ele>3</ele>
        <time>2022-01-16T08:46:12.000Z</time>
      </trkpt>
      <trkpt lat="47.29273" lon="-2.27519">
        <ele>3</ele>
        <time>2022-01-16T08:46:13.000Z</time>
      </trkpt>
      <trkpt lat="47.29289" lon="-2.27526">
        <ele>3</ele>
        <time>2022-01-16T08:46:16.000Z</time>
      </trkpt>
      <trkpt lat="47.29294" lon="-2.2753">
        <ele>3</ele>
        <time>2022-01-16T08:46:17.000Z</time>
      </trkpt>
      <trkpt lat="47.293" lon="-2.27532">
        <ele>3</ele>
        <time>2022-01-16T08:46:18.000Z</time>
      </trkpt>
      <trkpt lat="47.29318" lon="-2.27535">
        <ele>3</ele>
        <time>2022-01-16T08:46:21.000Z</time>
      </trkpt>
      <trkpt lat="47.29325" lon="-2.27535">
        <ele>3</ele>
        <time>2022-01-16T08:46:22.000Z</time>
      </trkpt>
      <trkpt lat="47.29363" lon="-2.27531">
        <ele>3</ele>
        <time>2022-01-16T08:46:28.000Z</time>
      </trkpt>
      <trkpt lat="47.29398" lon="-2.27518">
        <ele>3</ele>
        <time>2022-01-16T08:46:34.000Z</time>
      </trkpt>
      <trkpt lat="47.29443" lon="-2.27514">
        <ele>3</ele>
        <time>2022-01-16T08:46:41.000Z</time>
      </trkpt>
      <trkpt lat="47.29486" lon="-2.27522">
        <ele>3</ele>
        <time>2022-01-16T08:46:48.000Z</time>
      </trkpt>
      <trkpt lat="47.29529" lon="-2.27536">
        <ele>3</ele>
        <time>2022-01-16T08:46:55.000Z</time>
      </trkpt>
      <trkpt lat="47.29581" lon="-2.27555">
        <ele>3</ele>
        <time>2022-01-16T08:47:03.000Z</time>
      </trkpt>
      <trkpt lat="47.29612" lon="-2.27575">
        <ele>2.5999999046326</ele>
        <time>2022-01-16T08:47:08.000Z</time>
      </trkpt>
      <trkpt lat="47.29618" lon="-2.27578">
        <ele>2</ele>
        <time>2022-01-16T08:47:09.000Z</time>
      </trkpt>
      <trkpt lat="47.29625" lon="-2.27582">
        <ele>1.6000000238419</ele>
        <time>2022-01-16T08:47:10.000Z</time>
      </trkpt>
      <trkpt lat="47.29631" lon="-2.27588">
        <ele>1.2000000476837</ele>
        <time>2022-01-16T08:47:11.000Z</time>
      </trkpt>
      <trkpt lat="47.29638" lon="-2.27591">
        <ele>0.80000001192093</ele>
        <time>2022-01-16T08:47:12.000Z</time>
      </trkpt>
      <trkpt lat="47.29645" lon="-2.27596">
        <ele>0.80000001192093</ele>
        <time>2022-01-16T08:47:13.000Z</time>
      </trkpt>
      <trkpt lat="47.29674" lon="-2.27611">
        <ele>0.40000000596046</ele>
        <time>2022-01-16T08:47:17.000Z</time>
      </trkpt>
      <trkpt lat="47.29682" lon="-2.27613">
        <ele>-0.20000000298023</ele>
        <time>2022-01-16T08:47:18.000Z</time>
      </trkpt>
      <trkpt lat="47.2969" lon="-2.27615">
        <ele>-0.60000002384186</ele>
        <time>2022-01-16T08:47:19.000Z</time>
      </trkpt>
      <trkpt lat="47.29697" lon="-2.27616">
        <ele>-1</ele>
        <time>2022-01-16T08:47:20.000Z</time>
      </trkpt>
      <trkpt lat="47.29705" lon="-2.27616">
        <ele>-1.3999999761581</ele>
        <time>2022-01-16T08:47:21.000Z</time>
      </trkpt>
      <trkpt lat="47.29733" lon="-2.27611">
        <ele>-1.3999999761581</ele>
        <time>2022-01-16T08:47:25.000Z</time>
      </trkpt>
      <trkpt lat="47.29764" lon="-2.27598">
        <ele>-1.3999999761581</ele>
        <time>2022-01-16T08:47:30.000Z</time>
      </trkpt>
      <trkpt lat="47.29775" lon="-2.27593">
        <ele>-1.7999999523163</ele>
        <time>2022-01-16T08:47:32.000Z</time>
      </trkpt>
      <trkpt lat="47.29781" lon="-2.27593">
        <ele>-2.2000000476837</ele>
        <time>2022-01-16T08:47:33.000Z</time>
      </trkpt>
      <trkpt lat="47.29788" lon="-2.27592">
        <ele>-2.5999999046326</ele>
        <time>2022-01-16T08:47:34.000Z</time>
      </trkpt>
      <trkpt lat="47.29794" lon="-2.27593">
        <ele>-3</ele>
        <time>2022-01-16T08:47:35.000Z</time>
      </trkpt>
      <trkpt lat="47.29801" lon="-2.27595">
        <ele>-3.5999999046326</ele>
        <time>2022-01-16T08:47:36.000Z</time>
      </trkpt>
      <trkpt lat="47.29825" lon="-2.27607">
        <ele>-3.5999999046326</ele>
        <time>2022-01-16T08:47:40.000Z</time>
      </trkpt>
      <trkpt lat="47.29848" lon="-2.27621">
        <ele>-3.5999999046326</ele>
        <time>2022-01-16T08:47:44.000Z</time>
      </trkpt>
      <trkpt lat="47.29854" lon="-2.27623">
        <ele>-3.5999999046326</ele>
        <time>2022-01-16T08:47:45.000Z</time>
      </trkpt>
      <trkpt lat="47.29872" lon="-2.27621">
        <ele>-3.5999999046326</ele>
        <time>2022-01-16T08:47:48.000Z</time>
      </trkpt>
      <trkpt lat="47.29878" lon="-2.27618">
        <ele>-3.5999999046326</ele>
        <time>2022-01-16T08:47:49.000Z</time>
      </trkpt>
      <trkpt lat="47.29889" lon="-2.27612">
        <ele>-3.5999999046326</ele>
        <time>2022-01-16T08:47:51.000Z</time>
      </trkpt>
      <trkpt lat="47.299" lon="-2.27606">
        <ele>-3.5999999046326</ele>
        <time>2022-01-16T08:47:53.000Z</time>
      </trkpt>
      <trkpt lat="47.29933" lon="-2.27598">
        <ele>-3.5999999046326</ele>
        <time>2022-01-16T08:47:59.000Z</time>
      </trkpt>
      <trkpt lat="47.29949" lon="-2.27599">
        <ele>-3.5999999046326</ele>
        <time>2022-01-16T08:48:02.000Z</time>
      </trkpt>
      <trkpt lat="47.29958" lon="-2.27609">
        <ele>-3.5999999046326</ele>
        <time>2022-01-16T08:48:04.000Z</time>
      </trkpt>
      <trkpt lat="47.29963" lon="-2.27632">
        <ele>-3.5999999046326</ele>
        <time>2022-01-16T08:48:07.000Z</time>
      </trkpt>
      <trkpt lat="47.29963" lon="-2.2764">
        <ele>-3.5999999046326</ele>
        <time>2022-01-16T08:48:08.000Z</time>
      </trkpt>
      <trkpt lat="47.2996" lon="-2.27667">
        <ele>-3.5999999046326</ele>
        <time>2022-01-16T08:48:11.000Z</time>
      </trkpt>
      <trkpt lat="47.29954" lon="-2.2773">
        <ele>-3.5999999046326</ele>
        <time>2022-01-16T08:48:18.000Z</time>
      </trkpt>
      <trkpt lat="47.29946" lon="-2.27804">
        <ele>-3.5999999046326</ele>
        <time>2022-01-16T08:48:26.000Z</time>
      </trkpt>
      <trkpt lat="47.2994" lon="-2.27859">
        <ele>-3</ele>
        <time>2022-01-16T08:48:32.000Z</time>
      </trkpt>
      <trkpt lat="47.2994" lon="-2.27868">
        <ele>-2.5999999046326</ele>
        <time>2022-01-16T08:48:33.000Z</time>
      </trkpt>
      <trkpt lat="47.29939" lon="-2.27877">
        <ele>-2.2000000476837</ele>
        <time>2022-01-16T08:48:34.000Z</time>
      </trkpt>
      <trkpt lat="47.29939" lon="-2.27886">
        <ele>-1.7999999523163</ele>
        <time>2022-01-16T08:48:35.000Z</time>
      </trkpt>
      <trkpt lat="47.29939" lon="-2.27895">
        <ele>-1.3999999761581</ele>
        <time>2022-01-16T08:48:36.000Z</time>
      </trkpt>
      <trkpt lat="47.29933" lon="-2.27948">
        <ele>-1.3999999761581</ele>
        <time>2022-01-16T08:48:42.000Z</time>
      </trkpt>
      <trkpt lat="47.29931" lon="-2.27973">
        <ele>-1.3999999761581</ele>
        <time>2022-01-16T08:48:45.000Z</time>
      </trkpt>
      <trkpt lat="47.29932" lon="-2.27999">
        <ele>-1.3999999761581</ele>
        <time>2022-01-16T08:48:48.000Z</time>
      </trkpt>
      <trkpt lat="47.29939" lon="-2.28031">
        <ele>-1.3999999761581</ele>
        <time>2022-01-16T08:48:52.000Z</time>
      </trkpt>
      <trkpt lat="47.29941" lon="-2.28038">
        <ele>-1.3999999761581</ele>
        <time>2022-01-16T08:48:53.000Z</time>
      </trkpt>
      <trkpt lat="47.29954" lon="-2.28051">
        <ele>-1.3999999761581</ele>
        <time>2022-01-16T08:48:56.000Z</time>
      </trkpt>
      <trkpt lat="47.2996" lon="-2.28049">
        <ele>-1.3999999761581</ele>
        <time>2022-01-16T08:48:57.000Z</time>
      </trkpt>
      <trkpt lat="47.29968" lon="-2.28042">
        <ele>-1.3999999761581</ele>
        <time>2022-01-16T08:48:59.000Z</time>
      </trkpt>
      <trkpt lat="47.29977" lon="-2.28039">
        <ele>-1.3999999761581</ele>
        <time>2022-01-16T08:49:01.000Z</time>
      </trkpt>
      <trkpt lat="47.29984" lon="-2.28033">
        <ele>-1.3999999761581</ele>
        <time>2022-01-16T08:49:03.000Z</time>
      </trkpt>
      <trkpt lat="47.2999" lon="-2.28034">
        <ele>-1.3999999761581</ele>
        <time>2022-01-16T08:49:05.000Z</time>
      </trkpt>
      <trkpt lat="47.29992" lon="-2.28038">
        <ele>-1.3999999761581</ele>
        <time>2022-01-16T08:49:06.000Z</time>
      </trkpt>
      <trkpt lat="47.29988" lon="-2.2805">
        <ele>-1.3999999761581</ele>
        <time>2022-01-16T08:49:10.000Z</time>
      </trkpt>
      <trkpt lat="47.29987" lon="-2.28056">
        <ele>-1.3999999761581</ele>
        <time>2022-01-16T08:49:12.000Z</time>
      </trkpt>
      <trkpt lat="47.29984" lon="-2.28067">
        <ele>-1.3999999761581</ele>
        <time>2022-01-16T08:49:17.000Z</time>
      </trkpt>
      <trkpt lat="47.29981" lon="-2.28074">
        <ele>-1.3999999761581</ele>
        <time>2022-01-16T08:49:23.000Z</time>
      </trkpt>
      <trkpt lat="47.29981" lon="-2.2808">
        <ele>-1.3999999761581</ele>
        <time>2022-01-16T08:49:49.000Z</time>
      </trkpt>
      <trkpt lat="47.29975" lon="-2.28103">
        <ele>-1.3999999761581</ele>
        <time>2022-01-16T08:49:54.000Z</time>
      </trkpt>
      <trkpt lat="47.29962" lon="-2.28144">
        <ele>-1.3999999761581</ele>
        <time>2022-01-16T08:50:01.000Z</time>
      </trkpt>
      <trkpt lat="47.29953" lon="-2.2818">
        <ele>-1.3999999761581</ele>
        <time>2022-01-16T08:50:08.000Z</time>
      </trkpt>
      <trkpt lat="47.29951" lon="-2.28192">
        <ele>-1.3999999761581</ele>
        <time>2022-01-16T08:50:10.000Z</time>
      </trkpt>
      <trkpt lat="47.29952" lon="-2.28205">
        <ele>-1.3999999761581</ele>
        <time>2022-01-16T08:50:12.000Z</time>
      </trkpt>
      <trkpt lat="47.29954" lon="-2.28235">
        <ele>-1.3999999761581</ele>
        <time>2022-01-16T08:50:16.000Z</time>
      </trkpt>
      <trkpt lat="47.29954" lon="-2.28251">
        <ele>-1.3999999761581</ele>
        <time>2022-01-16T08:50:18.000Z</time>
      </trkpt>
      <trkpt lat="47.29955" lon="-2.28268">
        <ele>-1.3999999761581</ele>
        <time>2022-01-16T08:50:20.000Z</time>
      </trkpt>
      <trkpt lat="47.29956" lon="-2.28283">
        <ele>-1.3999999761581</ele>
        <time>2022-01-16T08:50:22.000Z</time>
      </trkpt>
      <trkpt lat="47.29956" lon="-2.28314">
        <ele>-1.3999999761581</ele>
        <time>2022-01-16T08:50:26.000Z</time>
      </trkpt>
      <trkpt lat="47.29954" lon="-2.28337">
        <ele>-1.3999999761581</ele>
        <time>2022-01-16T08:50:29.000Z</time>
      </trkpt>
      <trkpt lat="47.29954" lon="-2.28344">
        <ele>-1.3999999761581</ele>
        <time>2022-01-16T08:50:30.000Z</time>
      </trkpt>
      <trkpt lat="47.29952" lon="-2.28385">
        <ele>-1.3999999761581</ele>
        <time>2022-01-16T08:50:35.000Z</time>
      </trkpt>
      <trkpt lat="47.29953" lon="-2.28393">
        <ele>-1.3999999761581</ele>
        <time>2022-01-16T08:50:36.000Z</time>
      </trkpt>
      <trkpt lat="47.29946" lon="-2.28423">
        <ele>-1.3999999761581</ele>
        <time>2022-01-16T08:50:40.000Z</time>
      </trkpt>
      <trkpt lat="47.29939" lon="-2.28448">
        <ele>-1.3999999761581</ele>
        <time>2022-01-16T08:50:44.000Z</time>
      </trkpt>
      <trkpt lat="47.29939" lon="-2.28456">
        <ele>-1.3999999761581</ele>
        <time>2022-01-16T08:50:45.000Z</time>
      </trkpt>
      <trkpt lat="47.29939" lon="-2.2848">
        <ele>-1.3999999761581</ele>
        <time>2022-01-16T08:50:48.000Z</time>
      </trkpt>
      <trkpt lat="47.29939" lon="-2.28488">
        <ele>-1.3999999761581</ele>
        <time>2022-01-16T08:50:49.000Z</time>
      </trkpt>
      <trkpt lat="47.29934" lon="-2.28511">
        <ele>-1.3999999761581</ele>
        <time>2022-01-16T08:50:52.000Z</time>
      </trkpt>
      <trkpt lat="47.29932" lon="-2.28518">
        <ele>-1.3999999761581</ele>
        <time>2022-01-16T08:50:53.000Z</time>
      </trkpt>
      <trkpt lat="47.29928" lon="-2.28532">
        <ele>-1.3999999761581</ele>
        <time>2022-01-16T08:50:55.000Z</time>
      </trkpt>
      <trkpt lat="47.29929" lon="-2.28545">
        <ele>-1.3999999761581</ele>
        <time>2022-01-16T08:50:57.000Z</time>
      </trkpt>
      <trkpt lat="47.29937" lon="-2.28561">
        <ele>-1.3999999761581</ele>
        <time>2022-01-16T08:51:01.000Z</time>
      </trkpt>
      <trkpt lat="47.29938" lon="-2.28564">
        <ele>-1.7999999523163</ele>
        <time>2022-01-16T08:51:03.000Z</time>
      </trkpt>
      <trkpt lat="47.29938" lon="-2.28564">
        <ele>-2.2000000476837</ele>
        <time>2022-01-16T08:51:04.000Z</time>
      </trkpt>
      <trkpt lat="47.2994" lon="-2.28569">
        <ele>-3.5999999046326</ele>
        <time>2022-01-16T08:51:21.000Z</time>
      </trkpt>
      <trkpt lat="47.29939" lon="-2.28586">
        <ele>-3.5999999046326</ele>
        <time>2022-01-16T08:51:26.000Z</time>
      </trkpt>
      <trkpt lat="47.29935" lon="-2.28617">
        <ele>-3.5999999046326</ele>
        <time>2022-01-16T08:51:32.000Z</time>
      </trkpt>
      <trkpt lat="47.29928" lon="-2.28657">
        <ele>-3.5999999046326</ele>
        <time>2022-01-16T08:51:39.000Z</time>
      </trkpt>
      <trkpt lat="47.29921" lon="-2.28681">
        <ele>-3.5999999046326</ele>
        <time>2022-01-16T08:51:43.000Z</time>
      </trkpt>
      <trkpt lat="47.29919" lon="-2.28694">
        <ele>-3.5999999046326</ele>
        <time>2022-01-16T08:51:45.000Z</time>
      </trkpt>
      <trkpt lat="47.29915" lon="-2.2872">
        <ele>-3.5999999046326</ele>
        <time>2022-01-16T08:51:49.000Z</time>
      </trkpt>
      <trkpt lat="47.29913" lon="-2.28727">
        <ele>-3.5999999046326</ele>
        <time>2022-01-16T08:51:50.000Z</time>
      </trkpt>
      <trkpt lat="47.29904" lon="-2.28772">
        <ele>-3.5999999046326</ele>
        <time>2022-01-16T08:51:56.000Z</time>
      </trkpt>
      <trkpt lat="47.29901" lon="-2.28786">
        <ele>-3.5999999046326</ele>
        <time>2022-01-16T08:51:58.000Z</time>
      </trkpt>
      <trkpt lat="47.29897" lon="-2.28818">
        <ele>-3.5999999046326</ele>
        <time>2022-01-16T08:52:02.000Z</time>
      </trkpt>
      <trkpt lat="47.29894" lon="-2.28834">
        <ele>-3.5999999046326</ele>
        <time>2022-01-16T08:52:04.000Z</time>
      </trkpt>
      <trkpt lat="47.29889" lon="-2.28858">
        <ele>-3.5999999046326</ele>
        <time>2022-01-16T08:52:07.000Z</time>
      </trkpt>
      <trkpt lat="47.29882" lon="-2.28887">
        <ele>-3.5999999046326</ele>
        <time>2022-01-16T08:52:11.000Z</time>
      </trkpt>
      <trkpt lat="47.29876" lon="-2.28898">
        <ele>-3.5999999046326</ele>
        <time>2022-01-16T08:52:13.000Z</time>
      </trkpt>
      <trkpt lat="47.29872" lon="-2.28919">
        <ele>-3.5999999046326</ele>
        <time>2022-01-16T08:52:16.000Z</time>
      </trkpt>
      <trkpt lat="47.29872" lon="-2.28926">
        <ele>-3.5999999046326</ele>
        <time>2022-01-16T08:52:17.000Z</time>
      </trkpt>
      <trkpt lat="47.29874" lon="-2.28939">
        <ele>-4</ele>
        <time>2022-01-16T08:52:19.000Z</time>
      </trkpt>
      <trkpt lat="47.29877" lon="-2.28942">
        <ele>-4.4000000953674</ele>
        <time>2022-01-16T08:52:20.000Z</time>
      </trkpt>
      <trkpt lat="47.29881" lon="-2.28943">
        <ele>-4.8000001907349</ele>
        <time>2022-01-16T08:52:21.000Z</time>
      </trkpt>
      <trkpt lat="47.29886" lon="-2.28945">
        <ele>-5.5999999046326</ele>
        <time>2022-01-16T08:52:22.000Z</time>
      </trkpt>
      <trkpt lat="47.29891" lon="-2.28946">
        <ele>-5.5999999046326</ele>
        <time>2022-01-16T08:52:23.000Z</time>
      </trkpt>
      <trkpt lat="47.29896" lon="-2.28947">
        <ele>-5.5999999046326</ele>
        <time>2022-01-16T08:52:24.000Z</time>
      </trkpt>
      <trkpt lat="47.29901" lon="-2.28947">
        <ele>-5.5999999046326</ele>
        <time>2022-01-16T08:52:25.000Z</time>
      </trkpt>
      <trkpt lat="47.29916" lon="-2.28951">
        <ele>-5.5999999046326</ele>
        <time>2022-01-16T08:52:28.000Z</time>
      </trkpt>
      <trkpt lat="47.29924" lon="-2.2896">
        <ele>-5.5999999046326</ele>
        <time>2022-01-16T08:52:30.000Z</time>
      </trkpt>
      <trkpt lat="47.29932" lon="-2.28977">
        <ele>-5.5999999046326</ele>
        <time>2022-01-16T08:52:33.000Z</time>
      </trkpt>
      <trkpt lat="47.29939" lon="-2.28989">
        <ele>-5.5999999046326</ele>
        <time>2022-01-16T08:52:35.000Z</time>
      </trkpt>
      <trkpt lat="47.29961" lon="-2.29026">
        <ele>-5.5999999046326</ele>
        <time>2022-01-16T08:52:41.000Z</time>
      </trkpt>
      <trkpt lat="47.29978" lon="-2.29051">
        <ele>-6</ele>
        <time>2022-01-16T08:52:45.000Z</time>
      </trkpt>
      <trkpt lat="47.29983" lon="-2.29058">
        <ele>-6.4000000953674</ele>
        <time>2022-01-16T08:52:46.000Z</time>
      </trkpt>
      <trkpt lat="47.29987" lon="-2.29065">
        <ele>-7.1999998092651</ele>
        <time>2022-01-16T08:52:47.000Z</time>
      </trkpt>
      <trkpt lat="47.29991" lon="-2.29071">
        <ele>-7.5999999046326</ele>
        <time>2022-01-16T08:52:48.000Z</time>
      </trkpt>
      <trkpt lat="47.30007" lon="-2.29096">
        <ele>-7.5999999046326</ele>
        <time>2022-01-16T08:52:52.000Z</time>
      </trkpt>
      <trkpt lat="47.30011" lon="-2.29101">
        <ele>-7.5999999046326</ele>
        <time>2022-01-16T08:52:53.000Z</time>
      </trkpt>
      <trkpt lat="47.30032" lon="-2.29119">
        <ele>-7.5999999046326</ele>
        <time>2022-01-16T08:52:57.000Z</time>
      </trkpt>
      <trkpt lat="47.30053" lon="-2.29133">
        <ele>-7.5999999046326</ele>
        <time>2022-01-16T08:53:01.000Z</time>
      </trkpt>
      <trkpt lat="47.30058" lon="-2.29138">
        <ele>-7.5999999046326</ele>
        <time>2022-01-16T08:53:02.000Z</time>
      </trkpt>
      <trkpt lat="47.30073" lon="-2.29159">
        <ele>-7.5999999046326</ele>
        <time>2022-01-16T08:53:05.000Z</time>
      </trkpt>
      <trkpt lat="47.30084" lon="-2.29174">
        <ele>-7.5999999046326</ele>
        <time>2022-01-16T08:53:07.000Z</time>
      </trkpt>
      <trkpt lat="47.30123" lon="-2.29231">
        <ele>-7.5999999046326</ele>
        <time>2022-01-16T08:53:14.000Z</time>
      </trkpt>
      <trkpt lat="47.30128" lon="-2.29239">
        <ele>-7.5999999046326</ele>
        <time>2022-01-16T08:53:15.000Z</time>
      </trkpt>
      <trkpt lat="47.30169" lon="-2.29298">
        <ele>-7.5999999046326</ele>
        <time>2022-01-16T08:53:22.000Z</time>
      </trkpt>
      <trkpt lat="47.30174" lon="-2.29307">
        <ele>-7.5999999046326</ele>
        <time>2022-01-16T08:53:23.000Z</time>
      </trkpt>
      <trkpt lat="47.302" lon="-2.29351">
        <ele>-7.5999999046326</ele>
        <time>2022-01-16T08:53:28.000Z</time>
      </trkpt>
      <trkpt lat="47.30204" lon="-2.29361">
        <ele>-7.5999999046326</ele>
        <time>2022-01-16T08:53:29.000Z</time>
      </trkpt>
      <trkpt lat="47.30215" lon="-2.29399">
        <ele>-7.5999999046326</ele>
        <time>2022-01-16T08:53:33.000Z</time>
      </trkpt>
      <trkpt lat="47.30218" lon="-2.29413">
        <ele>-8</ele>
        <time>2022-01-16T08:53:35.000Z</time>
      </trkpt>
      <trkpt lat="47.30217" lon="-2.2942">
        <ele>-9</ele>
        <time>2022-01-16T08:53:36.000Z</time>
      </trkpt>
      <trkpt lat="47.30215" lon="-2.29426">
        <ele>-9.3999996185303</ele>
        <time>2022-01-16T08:53:37.000Z</time>
      </trkpt>
      <trkpt lat="47.30212" lon="-2.29432">
        <ele>-9.8000001907349</ele>
        <time>2022-01-16T08:53:38.000Z</time>
      </trkpt>
      <trkpt lat="47.30209" lon="-2.29439">
        <ele>-9.8000001907349</ele>
        <time>2022-01-16T08:53:39.000Z</time>
      </trkpt>
      <trkpt lat="47.30206" lon="-2.29445">
        <ele>-9.8000001907349</ele>
        <time>2022-01-16T08:53:40.000Z</time>
      </trkpt>
      <trkpt lat="47.30188" lon="-2.29478">
        <ele>-9.8000001907349</ele>
        <time>2022-01-16T08:53:45.000Z</time>
      </trkpt>
      <trkpt lat="47.30167" lon="-2.29522">
        <ele>-9.8000001907349</ele>
        <time>2022-01-16T08:53:52.000Z</time>
      </trkpt>
      <trkpt lat="47.3015" lon="-2.29555">
        <ele>-9.8000001907349</ele>
        <time>2022-01-16T08:53:57.000Z</time>
      </trkpt>
      <trkpt lat="47.30143" lon="-2.29569">
        <ele>-9.8000001907349</ele>
        <time>2022-01-16T08:53:59.000Z</time>
      </trkpt>
      <trkpt lat="47.30142" lon="-2.29585">
        <ele>-9.8000001907349</ele>
        <time>2022-01-16T08:54:01.000Z</time>
      </trkpt>
      <trkpt lat="47.3014" lon="-2.29631">
        <ele>-9.8000001907349</ele>
        <time>2022-01-16T08:54:07.000Z</time>
      </trkpt>
      <trkpt lat="47.3014" lon="-2.29638">
        <ele>-9.8000001907349</ele>
        <time>2022-01-16T08:54:08.000Z</time>
      </trkpt>
      <trkpt lat="47.30135" lon="-2.29653">
        <ele>-9.8000001907349</ele>
        <time>2022-01-16T08:54:11.000Z</time>
      </trkpt>
      <trkpt lat="47.30126" lon="-2.29656">
        <ele>-9.8000001907349</ele>
        <time>2022-01-16T08:54:14.000Z</time>
      </trkpt>
      <trkpt lat="47.30121" lon="-2.29655">
        <ele>-9.8000001907349</ele>
        <time>2022-01-16T08:54:15.000Z</time>
      </trkpt>
      <trkpt lat="47.30101" lon="-2.29649">
        <ele>-9.8000001907349</ele>
        <time>2022-01-16T08:54:19.000Z</time>
      </trkpt>
      <trkpt lat="47.30064" lon="-2.29641">
        <ele>-9.8000001907349</ele>
        <time>2022-01-16T08:54:26.000Z</time>
      </trkpt>
      <trkpt lat="47.30027" lon="-2.29635">
        <ele>-9.8000001907349</ele>
        <time>2022-01-16T08:54:33.000Z</time>
      </trkpt>
      <trkpt lat="47.29984" lon="-2.29639">
        <ele>-9.8000001907349</ele>
        <time>2022-01-16T08:54:41.000Z</time>
      </trkpt>
      <trkpt lat="47.2995" lon="-2.29645">
        <ele>-9.3999996185303</ele>
        <time>2022-01-16T08:54:48.000Z</time>
      </trkpt>
      <trkpt lat="47.29945" lon="-2.29647">
        <ele>-9</ele>
        <time>2022-01-16T08:54:49.000Z</time>
      </trkpt>
      <trkpt lat="47.29941" lon="-2.29649">
        <ele>-8.1999998092651</ele>
        <time>2022-01-16T08:54:50.000Z</time>
      </trkpt>
      <trkpt lat="47.29936" lon="-2.29652">
        <ele>-7.8000001907349</ele>
        <time>2022-01-16T08:54:51.000Z</time>
      </trkpt>
      <trkpt lat="47.29919" lon="-2.29662">
        <ele>-7.8000001907349</ele>
        <time>2022-01-16T08:54:55.000Z</time>
      </trkpt>
      <trkpt lat="47.29916" lon="-2.29667">
        <ele>-7.8000001907349</ele>
        <time>2022-01-16T08:54:56.000Z</time>
      </trkpt>
      <trkpt lat="47.29915" lon="-2.29678">
        <ele>-7.8000001907349</ele>
        <time>2022-01-16T08:54:58.000Z</time>
      </trkpt>
      <trkpt lat="47.29917" lon="-2.2969">
        <ele>-7.8000001907349</ele>
        <time>2022-01-16T08:55:00.000Z</time>
      </trkpt>
      <trkpt lat="47.29925" lon="-2.29716">
        <ele>-7.8000001907349</ele>
        <time>2022-01-16T08:55:04.000Z</time>
      </trkpt>
      <trkpt lat="47.29949" lon="-2.29787">
        <ele>-7.8000001907349</ele>
        <time>2022-01-16T08:55:14.000Z</time>
      </trkpt>
      <trkpt lat="47.29946" lon="-2.29803">
        <ele>-7.8000001907349</ele>
        <time>2022-01-16T08:55:17.000Z</time>
      </trkpt>
      <trkpt lat="47.29943" lon="-2.29807">
        <ele>-7.8000001907349</ele>
        <time>2022-01-16T08:55:18.000Z</time>
      </trkpt>
      <trkpt lat="47.29922" lon="-2.29826">
        <ele>-7.8000001907349</ele>
        <time>2022-01-16T08:55:23.000Z</time>
      </trkpt>
      <trkpt lat="47.29909" lon="-2.29835">
        <ele>-7.8000001907349</ele>
        <time>2022-01-16T08:55:26.000Z</time>
      </trkpt>
      <trkpt lat="47.29904" lon="-2.29845">
        <ele>-7.8000001907349</ele>
        <time>2022-01-16T08:55:28.000Z</time>
      </trkpt>
      <trkpt lat="47.29903" lon="-2.29877">
        <ele>-7.8000001907349</ele>
        <time>2022-01-16T08:55:32.000Z</time>
      </trkpt>
      <trkpt lat="47.29904" lon="-2.29885">
        <ele>-7.8000001907349</ele>
        <time>2022-01-16T08:55:33.000Z</time>
      </trkpt>
      <trkpt lat="47.29907" lon="-2.29918">
        <ele>-7.8000001907349</ele>
        <time>2022-01-16T08:55:37.000Z</time>
      </trkpt>
      <trkpt lat="47.29904" lon="-2.29933">
        <ele>-7.8000001907349</ele>
        <time>2022-01-16T08:55:39.000Z</time>
      </trkpt>
      <trkpt lat="47.2989" lon="-2.29943">
        <ele>-7.8000001907349</ele>
        <time>2022-01-16T08:55:42.000Z</time>
      </trkpt>
      <trkpt lat="47.29885" lon="-2.29944">
        <ele>-7.8000001907349</ele>
        <time>2022-01-16T08:55:43.000Z</time>
      </trkpt>
      <trkpt lat="47.29849" lon="-2.29952">
        <ele>-7.8000001907349</ele>
        <time>2022-01-16T08:55:50.000Z</time>
      </trkpt>
      <trkpt lat="47.29839" lon="-2.29955">
        <ele>-7.8000001907349</ele>
        <time>2022-01-16T08:55:52.000Z</time>
      </trkpt>
      <trkpt lat="47.29822" lon="-2.29955">
        <ele>-7.8000001907349</ele>
        <time>2022-01-16T08:55:55.000Z</time>
      </trkpt>
      <trkpt lat="47.29789" lon="-2.29953">
        <ele>-7.8000001907349</ele>
        <time>2022-01-16T08:56:01.000Z</time>
      </trkpt>
      <trkpt lat="47.29784" lon="-2.29956">
        <ele>-7.8000001907349</ele>
        <time>2022-01-16T08:56:02.000Z</time>
      </trkpt>
      <trkpt lat="47.29775" lon="-2.29963">
        <ele>-7.8000001907349</ele>
        <time>2022-01-16T08:56:04.000Z</time>
      </trkpt>
      <trkpt lat="47.29766" lon="-2.29971">
        <ele>-7.8000001907349</ele>
        <time>2022-01-16T08:56:06.000Z</time>
      </trkpt>
      <trkpt lat="47.29742" lon="-2.29988">
        <ele>-7.8000001907349</ele>
        <time>2022-01-16T08:56:11.000Z</time>
      </trkpt>
      <trkpt lat="47.29714" lon="-2.30001">
        <ele>-7.8000001907349</ele>
        <time>2022-01-16T08:56:16.000Z</time>
      </trkpt>
      <trkpt lat="47.29708" lon="-2.30001">
        <ele>-7.8000001907349</ele>
        <time>2022-01-16T08:56:17.000Z</time>
      </trkpt>
      <trkpt lat="47.2967" lon="-2.3">
        <ele>-7.8000001907349</ele>
        <time>2022-01-16T08:56:23.000Z</time>
      </trkpt>
      <trkpt lat="47.29664" lon="-2.29998">
        <ele>-7.8000001907349</ele>
        <time>2022-01-16T08:56:24.000Z</time>
      </trkpt>
      <trkpt lat="47.29645" lon="-2.29985">
        <ele>-7.8000001907349</ele>
        <time>2022-01-16T08:56:28.000Z</time>
      </trkpt>
      <trkpt lat="47.29632" lon="-2.29992">
        <ele>-7.8000001907349</ele>
        <time>2022-01-16T08:56:31.000Z</time>
      </trkpt>
      <trkpt lat="47.29627" lon="-2.29995">
        <ele>-7.8000001907349</ele>
        <time>2022-01-16T08:56:32.000Z</time>
      </trkpt>
      <trkpt lat="47.29609" lon="-2.30003">
        <ele>-7.8000001907349</ele>
        <time>2022-01-16T08:56:35.000Z</time>
      </trkpt>
      <trkpt lat="47.29564" lon="-2.30017">
        <ele>-7.8000001907349</ele>
        <time>2022-01-16T08:56:42.000Z</time>
      </trkpt>
      <trkpt lat="47.29527" lon="-2.3003">
        <ele>-7.8000001907349</ele>
        <time>2022-01-16T08:56:48.000Z</time>
      </trkpt>
      <trkpt lat="47.29511" lon="-2.30027">
        <ele>-7.8000001907349</ele>
        <time>2022-01-16T08:56:51.000Z</time>
      </trkpt>
      <trkpt lat="47.29496" lon="-2.30027">
        <ele>-7.8000001907349</ele>
        <time>2022-01-16T08:56:54.000Z</time>
      </trkpt>
      <trkpt lat="47.29491" lon="-2.30028">
        <ele>-7.8000001907349</ele>
        <time>2022-01-16T08:56:55.000Z</time>
      </trkpt>
      <trkpt lat="47.29475" lon="-2.30029">
        <ele>-7.8000001907349</ele>
        <time>2022-01-16T08:56:58.000Z</time>
      </trkpt>
      <trkpt lat="47.29459" lon="-2.30029">
        <ele>-7.8000001907349</ele>
        <time>2022-01-16T08:57:01.000Z</time>
      </trkpt>
      <trkpt lat="47.29423" lon="-2.3003">
        <ele>-7.8000001907349</ele>
        <time>2022-01-16T08:57:08.000Z</time>
      </trkpt>
      <trkpt lat="47.29409" lon="-2.30029">
        <ele>-7.8000001907349</ele>
        <time>2022-01-16T08:57:11.000Z</time>
      </trkpt>
      <trkpt lat="47.29399" lon="-2.30026">
        <ele>-7.4000000953674</ele>
        <time>2022-01-16T08:57:13.000Z</time>
      </trkpt>
      <trkpt lat="47.29394" lon="-2.30024">
        <ele>-7</ele>
        <time>2022-01-16T08:57:14.000Z</time>
      </trkpt>
      <trkpt lat="47.2939" lon="-2.30023">
        <ele>-6.5999999046326</ele>
        <time>2022-01-16T08:57:15.000Z</time>
      </trkpt>
      <trkpt lat="47.29385" lon="-2.30021">
        <ele>-6.1999998092651</ele>
        <time>2022-01-16T08:57:16.000Z</time>
      </trkpt>
      <trkpt lat="47.2938" lon="-2.3002">
        <ele>-5.8000001907349</ele>
        <time>2022-01-16T08:57:17.000Z</time>
      </trkpt>
      <trkpt lat="47.29364" lon="-2.30011">
        <ele>-5.8000001907349</ele>
        <time>2022-01-16T08:57:21.000Z</time>
      </trkpt>
      <trkpt lat="47.29348" lon="-2.30005">
        <ele>-5.8000001907349</ele>
        <time>2022-01-16T08:57:26.000Z</time>
      </trkpt>
      <trkpt lat="47.29346" lon="-2.30008">
        <ele>-5.8000001907349</ele>
        <time>2022-01-16T08:57:27.000Z</time>
      </trkpt>
      <trkpt lat="47.29345" lon="-2.30028">
        <ele>-5.8000001907349</ele>
        <time>2022-01-16T08:57:31.000Z</time>
      </trkpt>
      <trkpt lat="47.29342" lon="-2.3007">
        <ele>-5.8000001907349</ele>
        <time>2022-01-16T08:57:37.000Z</time>
      </trkpt>
      <trkpt lat="47.29339" lon="-2.301">
        <ele>-5.8000001907349</ele>
        <time>2022-01-16T08:57:41.000Z</time>
      </trkpt>
      <trkpt lat="47.29333" lon="-2.30121">
        <ele>-5.8000001907349</ele>
        <time>2022-01-16T08:57:44.000Z</time>
      </trkpt>
      <trkpt lat="47.29331" lon="-2.30127">
        <ele>-5.8000001907349</ele>
        <time>2022-01-16T08:57:45.000Z</time>
      </trkpt>
      <trkpt lat="47.2932" lon="-2.30155">
        <ele>-5.8000001907349</ele>
        <time>2022-01-16T08:57:49.000Z</time>
      </trkpt>
      <trkpt lat="47.29317" lon="-2.30162">
        <ele>-5.8000001907349</ele>
        <time>2022-01-16T08:57:50.000Z</time>
      </trkpt>
      <trkpt lat="47.29301" lon="-2.30213">
        <ele>-5.8000001907349</ele>
        <time>2022-01-16T08:57:57.000Z</time>
      </trkpt>
      <trkpt lat="47.29286" lon="-2.30255">
        <ele>-5.8000001907349</ele>
        <time>2022-01-16T08:58:03.000Z</time>
      </trkpt>
      <trkpt lat="47.29263" lon="-2.30303">
        <ele>-5.8000001907349</ele>
        <time>2022-01-16T08:58:10.000Z</time>
      </trkpt>
      <trkpt lat="47.29239" lon="-2.30354">
        <ele>-5.8000001907349</ele>
        <time>2022-01-16T08:58:17.000Z</time>
      </trkpt>
      <trkpt lat="47.29208" lon="-2.30418">
        <ele>-5.8000001907349</ele>
        <time>2022-01-16T08:58:26.000Z</time>
      </trkpt>
      <trkpt lat="47.2919" lon="-2.30454">
        <ele>-5.1999998092651</ele>
        <time>2022-01-16T08:58:31.000Z</time>
      </trkpt>
      <trkpt lat="47.29187" lon="-2.30461">
        <ele>-4.4000000953674</ele>
        <time>2022-01-16T08:58:32.000Z</time>
      </trkpt>
      <trkpt lat="47.29183" lon="-2.30467">
        <ele>-4</ele>
        <time>2022-01-16T08:58:33.000Z</time>
      </trkpt>
      <trkpt lat="47.2918" lon="-2.30474">
        <ele>-3.5999999046326</ele>
        <time>2022-01-16T08:58:34.000Z</time>
      </trkpt>
      <trkpt lat="47.29176" lon="-2.30488">
        <ele>-3.5999999046326</ele>
        <time>2022-01-16T08:58:36.000Z</time>
      </trkpt>
      <trkpt lat="47.29176" lon="-2.30495">
        <ele>-3.5999999046326</ele>
        <time>2022-01-16T08:58:37.000Z</time>
      </trkpt>
      <trkpt lat="47.29182" lon="-2.30501">
        <ele>-3.5999999046326</ele>
        <time>2022-01-16T08:58:39.000Z</time>
      </trkpt>
      <trkpt lat="47.29195" lon="-2.30497">
        <ele>-3.5999999046326</ele>
        <time>2022-01-16T08:58:42.000Z</time>
      </trkpt>
      <trkpt lat="47.29211" lon="-2.3049">
        <ele>-3.5999999046326</ele>
        <time>2022-01-16T08:58:45.000Z</time>
      </trkpt>
      <trkpt lat="47.29217" lon="-2.30489">
        <ele>-3.5999999046326</ele>
        <time>2022-01-16T08:58:46.000Z</time>
      </trkpt>
      <trkpt lat="47.2925" lon="-2.30491">
        <ele>-3.5999999046326</ele>
        <time>2022-01-16T08:58:51.000Z</time>
      </trkpt>
      <trkpt lat="47.29256" lon="-2.30493">
        <ele>-3.5999999046326</ele>
        <time>2022-01-16T08:58:52.000Z</time>
      </trkpt>
      <trkpt lat="47.29292" lon="-2.3051">
        <ele>-3.5999999046326</ele>
        <time>2022-01-16T08:58:58.000Z</time>
      </trkpt>
      <trkpt lat="47.29327" lon="-2.30531">
        <ele>-3.5999999046326</ele>
        <time>2022-01-16T08:59:04.000Z</time>
      </trkpt>
      <trkpt lat="47.29365" lon="-2.30555">
        <ele>-3.5999999046326</ele>
        <time>2022-01-16T08:59:11.000Z</time>
      </trkpt>
      <trkpt lat="47.29387" lon="-2.30567">
        <ele>-3.2000000476837</ele>
        <time>2022-01-16T08:59:15.000Z</time>
      </trkpt>
      <trkpt lat="47.29392" lon="-2.3057">
        <ele>-2.7999999523163</ele>
        <time>2022-01-16T08:59:16.000Z</time>
      </trkpt>
      <trkpt lat="47.29396" lon="-2.30572">
        <ele>-2.4000000953674</ele>
        <time>2022-01-16T08:59:17.000Z</time>
      </trkpt>
      <trkpt lat="47.29401" lon="-2.30574">
        <ele>-2</ele>
        <time>2022-01-16T08:59:18.000Z</time>
      </trkpt>
      <trkpt lat="47.29407" lon="-2.30576">
        <ele>-1.6000000238419</ele>
        <time>2022-01-16T08:59:19.000Z</time>
      </trkpt>
      <trkpt lat="47.29417" lon="-2.30579">
        <ele>-1.6000000238419</ele>
        <time>2022-01-16T08:59:21.000Z</time>
      </trkpt>
      <trkpt lat="47.29422" lon="-2.3058">
        <ele>-1.2000000476837</ele>
        <time>2022-01-16T08:59:22.000Z</time>
      </trkpt>
      <trkpt lat="47.29427" lon="-2.3058">
        <ele>-0.80000001192093</ele>
        <time>2022-01-16T08:59:23.000Z</time>
      </trkpt>
      <trkpt lat="47.29432" lon="-2.3058">
        <ele>-0.40000000596046</ele>
        <time>2022-01-16T08:59:24.000Z</time>
      </trkpt>
      <trkpt lat="47.29438" lon="-2.30579">
        <ele>14.6</ele>
        <time>2022-01-16T08:59:25.000Z</time>
      </trkpt>
      <trkpt lat="47.29443" lon="-2.30578">
        <ele>0.40000000596046</ele>
        <time>2022-01-16T08:59:26.000Z</time>
      </trkpt>
      <trkpt lat="47.29454" lon="-2.30576">
        <ele>0.40000000596046</ele>
        <time>2022-01-16T08:59:28.000Z</time>
      </trkpt>
      <trkpt lat="47.29487" lon="-2.30572">
        <ele>0.40000000596046</ele>
        <time>2022-01-16T08:59:34.000Z</time>
      </trkpt>
      <trkpt lat="47.29498" lon="-2.3057">
        <ele>0.80000001192093</ele>
        <time>2022-01-16T08:59:36.000Z</time>
      </trkpt>
      <trkpt lat="47.29503" lon="-2.30569">
        <ele>1.3999999761581</ele>
        <time>2022-01-16T08:59:37.000Z</time>
      </trkpt>
      <trkpt lat="47.29508" lon="-2.30568">
        <ele>1.7999999523163</ele>
        <time>2022-01-16T08:59:38.000Z</time>
      </trkpt>
      <trkpt lat="47.29514" lon="-2.30568">
        <ele>2.2000000476837</ele>
        <time>2022-01-16T08:59:39.000Z</time>
      </trkpt>
      <trkpt lat="47.29519" lon="-2.30567">
        <ele>2.5999999046326</ele>
        <time>2022-01-16T08:59:40.000Z</time>
      </trkpt>
      <trkpt lat="47.29529" lon="-2.30565">
        <ele>2.5999999046326</ele>
        <time>2022-01-16T08:59:42.000Z</time>
      </trkpt>
      <trkpt lat="47.29576" lon="-2.30558">
        <ele>2.5999999046326</ele>
        <time>2022-01-16T08:59:51.000Z</time>
      </trkpt>
      <trkpt lat="47.29622" lon="-2.3055">
        <ele>2.5999999046326</ele>
        <time>2022-01-16T08:59:59.000Z</time>
      </trkpt>
      <trkpt lat="47.29676" lon="-2.3053">
        <ele>2.5999999046326</ele>
        <time>2022-01-16T09:00:08.000Z</time>
      </trkpt>
      <trkpt lat="47.2972" lon="-2.30516">
        <ele>2.5999999046326</ele>
        <time>2022-01-16T09:00:15.000Z</time>
      </trkpt>
      <trkpt lat="47.2974" lon="-2.30509">
        <ele>2.2000000476837</ele>
        <time>2022-01-16T09:00:18.000Z</time>
      </trkpt>
      <trkpt lat="47.29746" lon="-2.30507">
        <ele>1.7999999523163</ele>
        <time>2022-01-16T09:00:19.000Z</time>
      </trkpt>
      <trkpt lat="47.29754" lon="-2.30505">
        <ele>1.3999999761581</ele>
        <time>2022-01-16T09:00:20.000Z</time>
      </trkpt>
      <trkpt lat="47.29761" lon="-2.30503">
        <ele>1</ele>
        <time>2022-01-16T09:00:21.000Z</time>
      </trkpt>
      <trkpt lat="47.29768" lon="-2.305">
        <ele>0.60000002384186</ele>
        <time>2022-01-16T09:00:22.000Z</time>
      </trkpt>
      <trkpt lat="47.29783" lon="-2.30496">
        <ele>0.60000002384186</ele>
        <time>2022-01-16T09:00:24.000Z</time>
      </trkpt>
      <trkpt lat="47.29805" lon="-2.30491">
        <ele>0.20000000298023</ele>
        <time>2022-01-16T09:00:27.000Z</time>
      </trkpt>
      <trkpt lat="47.29813" lon="-2.30489">
        <ele>-0.20000000298023</ele>
        <time>2022-01-16T09:00:28.000Z</time>
      </trkpt>
      <trkpt lat="47.2982" lon="-2.30488">
        <ele>-0.60000002384186</ele>
        <time>2022-01-16T09:00:29.000Z</time>
      </trkpt>
      <trkpt lat="47.29828" lon="-2.30486">
        <ele>-1.2000000476837</ele>
        <time>2022-01-16T09:00:30.000Z</time>
      </trkpt>
      <trkpt lat="47.29835" lon="-2.30484">
        <ele>-1.6000000238419</ele>
        <time>2022-01-16T09:00:31.000Z</time>
      </trkpt>
      <trkpt lat="47.29843" lon="-2.30482">
        <ele>-1.6000000238419</ele>
        <time>2022-01-16T09:00:32.000Z</time>
      </trkpt>
      <trkpt lat="47.29873" lon="-2.30478">
        <ele>-2.4000000953674</ele>
        <time>2022-01-16T09:00:36.000Z</time>
      </trkpt>
      <trkpt lat="47.29881" lon="-2.30478">
        <ele>-2.7999999523163</ele>
        <time>2022-01-16T09:00:37.000Z</time>
      </trkpt>
      <trkpt lat="47.29888" lon="-2.30478">
        <ele>-3.2000000476837</ele>
        <time>2022-01-16T09:00:38.000Z</time>
      </trkpt>
      <trkpt lat="47.29896" lon="-2.3048">
        <ele>-3.5999999046326</ele>
        <time>2022-01-16T09:00:39.000Z</time>
      </trkpt>
      <trkpt lat="47.29911" lon="-2.30486">
        <ele>-3.5999999046326</ele>
        <time>2022-01-16T09:00:41.000Z</time>
      </trkpt>
      <trkpt lat="47.29953" lon="-2.30511">
        <ele>-4</ele>
        <time>2022-01-16T09:00:47.000Z</time>
      </trkpt>
      <trkpt lat="47.2996" lon="-2.30515">
        <ele>-4.4000000953674</ele>
        <time>2022-01-16T09:00:48.000Z</time>
      </trkpt>
      <trkpt lat="47.29967" lon="-2.30519">
        <ele>-4.8000001907349</ele>
        <time>2022-01-16T09:00:49.000Z</time>
      </trkpt>
      <trkpt lat="47.29975" lon="-2.30523">
        <ele>-5.1999998092651</ele>
        <time>2022-01-16T09:00:50.000Z</time>
      </trkpt>
      <trkpt lat="47.29982" lon="-2.30527">
        <ele>-5.5999999046326</ele>
        <time>2022-01-16T09:00:51.000Z</time>
      </trkpt>
      <trkpt lat="47.3001" lon="-2.30538">
        <ele>-5.5999999046326</ele>
        <time>2022-01-16T09:00:55.000Z</time>
      </trkpt>
      <trkpt lat="47.30024" lon="-2.3054">
        <ele>-6</ele>
        <time>2022-01-16T09:00:57.000Z</time>
      </trkpt>
      <trkpt lat="47.30032" lon="-2.3054">
        <ele>-6.4000000953674</ele>
        <time>2022-01-16T09:00:58.000Z</time>
      </trkpt>
      <trkpt lat="47.30039" lon="-2.30539">
        <ele>-6.8000001907349</ele>
        <time>2022-01-16T09:00:59.000Z</time>
      </trkpt>
      <trkpt lat="47.30046" lon="-2.30539">
        <ele>-7.1999998092651</ele>
        <time>2022-01-16T09:01:00.000Z</time>
      </trkpt>
      <trkpt lat="47.30053" lon="-2.30539">
        <ele>-7.5999999046326</ele>
        <time>2022-01-16T09:01:01.000Z</time>
      </trkpt>
      <trkpt lat="47.30097" lon="-2.30538">
        <ele>-7.5999999046326</ele>
        <time>2022-01-16T09:01:08.000Z</time>
      </trkpt>
      <trkpt lat="47.30103" lon="-2.30539">
        <ele>-7.5999999046326</ele>
        <time>2022-01-16T09:01:09.000Z</time>
      </trkpt>
      <trkpt lat="47.30119" lon="-2.3055">
        <ele>-7.5999999046326</ele>
        <time>2022-01-16T09:01:12.000Z</time>
      </trkpt>
      <trkpt lat="47.30136" lon="-2.30577">
        <ele>-7.5999999046326</ele>
        <time>2022-01-16T09:01:16.000Z</time>
      </trkpt>
      <trkpt lat="47.30139" lon="-2.30584">
        <ele>-7.5999999046326</ele>
        <time>2022-01-16T09:01:17.000Z</time>
      </trkpt>
      <trkpt lat="47.30154" lon="-2.30625">
        <ele>-7.5999999046326</ele>
        <time>2022-01-16T09:01:23.000Z</time>
      </trkpt>
      <trkpt lat="47.30162" lon="-2.30662">
        <ele>-7.5999999046326</ele>
        <time>2022-01-16T09:01:28.000Z</time>
      </trkpt>
      <trkpt lat="47.30169" lon="-2.30714">
        <ele>-7.5999999046326</ele>
        <time>2022-01-16T09:01:34.000Z</time>
      </trkpt>
      <trkpt lat="47.30166" lon="-2.30757">
        <ele>-7.5999999046326</ele>
        <time>2022-01-16T09:01:39.000Z</time>
      </trkpt>
      <trkpt lat="47.30163" lon="-2.30772">
        <ele>-8.1999998092651</ele>
        <time>2022-01-16T09:01:41.000Z</time>
      </trkpt>
      <trkpt lat="47.30162" lon="-2.30779">
        <ele>-8.6000003814697</ele>
        <time>2022-01-16T09:01:42.000Z</time>
      </trkpt>
      <trkpt lat="47.3016" lon="-2.30786">
        <ele>-9</ele>
        <time>2022-01-16T09:01:43.000Z</time>
      </trkpt>
      <trkpt lat="47.3016" lon="-2.30792">
        <ele>-9.3999996185303</ele>
        <time>2022-01-16T09:01:44.000Z</time>
      </trkpt>
      <trkpt lat="47.30161" lon="-2.30797">
        <ele>-9.8000001907349</ele>
        <time>2022-01-16T09:01:45.000Z</time>
      </trkpt>
      <trkpt lat="47.30172" lon="-2.30805">
        <ele>-9.8000001907349</ele>
        <time>2022-01-16T09:01:48.000Z</time>
      </trkpt>
      <trkpt lat="47.30182" lon="-2.30813">
        <ele>-9.8000001907349</ele>
        <time>2022-01-16T09:01:51.000Z</time>
      </trkpt>
      <trkpt lat="47.30189" lon="-2.30819">
        <ele>-9.8000001907349</ele>
        <time>2022-01-16T09:01:53.000Z</time>
      </trkpt>
      <trkpt lat="47.30215" lon="-2.30848">
        <ele>-9.8000001907349</ele>
        <time>2022-01-16T09:02:00.000Z</time>
      </trkpt>
      <trkpt lat="47.30232" lon="-2.30864">
        <ele>-9.3999996185303</ele>
        <time>2022-01-16T09:02:04.000Z</time>
      </trkpt>
      <trkpt lat="47.30237" lon="-2.30868">
        <ele>-9</ele>
        <time>2022-01-16T09:02:05.000Z</time>
      </trkpt>
      <trkpt lat="47.3024" lon="-2.30872">
        <ele>-8.6000003814697</ele>
        <time>2022-01-16T09:02:06.000Z</time>
      </trkpt>
      <trkpt lat="47.30244" lon="-2.30877">
        <ele>-8.1999998092651</ele>
        <time>2022-01-16T09:02:07.000Z</time>
      </trkpt>
      <trkpt lat="47.30248" lon="-2.30882">
        <ele>-7.8000001907349</ele>
        <time>2022-01-16T09:02:08.000Z</time>
      </trkpt>
      <trkpt lat="47.30256" lon="-2.30892">
        <ele>-7.8000001907349</ele>
        <time>2022-01-16T09:02:10.000Z</time>
      </trkpt>
      <trkpt lat="47.30274" lon="-2.30915">
        <ele>-7.8000001907349</ele>
        <time>2022-01-16T09:02:15.000Z</time>
      </trkpt>
      <trkpt lat="47.30277" lon="-2.3092">
        <ele>-7.4000000953674</ele>
        <time>2022-01-16T09:02:16.000Z</time>
      </trkpt>
      <trkpt lat="47.30281" lon="-2.30924">
        <ele>-6.8000001907349</ele>
        <time>2022-01-16T09:02:17.000Z</time>
      </trkpt>
      <trkpt lat="47.30284" lon="-2.30929">
        <ele>-6.4000000953674</ele>
        <time>2022-01-16T09:02:18.000Z</time>
      </trkpt>
      <trkpt lat="47.30287" lon="-2.30933">
        <ele>-6</ele>
        <time>2022-01-16T09:02:19.000Z</time>
      </trkpt>
      <trkpt lat="47.3029" lon="-2.30938">
        <ele>-5.4000000953674</ele>
        <time>2022-01-16T09:02:20.000Z</time>
      </trkpt>
      <trkpt lat="47.30299" lon="-2.30952">
        <ele>-5.4000000953674</ele>
        <time>2022-01-16T09:02:23.000Z</time>
      </trkpt>
      <trkpt lat="47.30315" lon="-2.30975">
        <ele>-5</ele>
        <time>2022-01-16T09:02:28.000Z</time>
      </trkpt>
      <trkpt lat="47.30318" lon="-2.30979">
        <ele>-4.5999999046326</ele>
        <time>2022-01-16T09:02:29.000Z</time>
      </trkpt>
      <trkpt lat="47.3032" lon="-2.30983">
        <ele>-4.1999998092651</ele>
        <time>2022-01-16T09:02:30.000Z</time>
      </trkpt>
      <trkpt lat="47.30323" lon="-2.30987">
        <ele>-3.7999999523163</ele>
        <time>2022-01-16T09:02:31.000Z</time>
      </trkpt>
      <trkpt lat="47.30326" lon="-2.3099">
        <ele>-3.4000000953674</ele>
        <time>2022-01-16T09:02:32.000Z</time>
      </trkpt>
      <trkpt lat="47.30338" lon="-2.3101">
        <ele>-3</ele>
        <time>2022-01-16T09:02:37.000Z</time>
      </trkpt>
      <trkpt lat="47.30341" lon="-2.31013">
        <ele>-2.5999999046326</ele>
        <time>2022-01-16T09:02:38.000Z</time>
      </trkpt>
      <trkpt lat="47.30344" lon="-2.31017">
        <ele>-2.2000000476837</ele>
        <time>2022-01-16T09:02:39.000Z</time>
      </trkpt>
      <trkpt lat="47.30346" lon="-2.3102">
        <ele>-1.3999999761581</ele>
        <time>2022-01-16T09:02:40.000Z</time>
      </trkpt>
      <trkpt lat="47.30358" lon="-2.31034">
        <ele>-1.3999999761581</ele>
        <time>2022-01-16T09:02:44.000Z</time>
      </trkpt>
      <trkpt lat="47.30379" lon="-2.31063">
        <ele>-1</ele>
        <time>2022-01-16T09:02:51.000Z</time>
      </trkpt>
      <trkpt lat="47.30383" lon="-2.31067">
        <ele>-0.60000002384186</ele>
        <time>2022-01-16T09:02:52.000Z</time>
      </trkpt>
      <trkpt lat="47.30386" lon="-2.31071">
        <ele>-0.20000000298023</ele>
        <time>2022-01-16T09:02:53.000Z</time>
      </trkpt>
      <trkpt lat="47.30389" lon="-2.31076">
        <ele>0.20000000298023</ele>
        <time>2022-01-16T09:02:54.000Z</time>
      </trkpt>
      <trkpt lat="47.30393" lon="-2.31079">
        <ele>0.60000002384186</ele>
        <time>2022-01-16T09:02:55.000Z</time>
      </trkpt>
      <trkpt lat="47.30396" lon="-2.31083">
        <ele>0.60000002384186</ele>
        <time>2022-01-16T09:02:56.000Z</time>
      </trkpt>
      <trkpt lat="47.30399" lon="-2.31086">
        <ele>0.60000002384186</ele>
        <time>2022-01-16T09:02:57.000Z</time>
      </trkpt>
      <trkpt lat="47.30421" lon="-2.31105">
        <ele>0.60000002384186</ele>
        <time>2022-01-16T09:03:03.000Z</time>
      </trkpt>
      <trkpt lat="47.30432" lon="-2.31114">
        <ele>0.60000002384186</ele>
        <time>2022-01-16T09:03:06.000Z</time>
      </trkpt>
      <trkpt lat="47.30448" lon="-2.31132">
        <ele>0.60000002384186</ele>
        <time>2022-01-16T09:03:10.000Z</time>
      </trkpt>
      <trkpt lat="47.30456" lon="-2.31152">
        <ele>0.60000002384186</ele>
        <time>2022-01-16T09:03:13.000Z</time>
      </trkpt>
      <trkpt lat="47.30462" lon="-2.31172">
        <ele>0.60000002384186</ele>
        <time>2022-01-16T09:03:16.000Z</time>
      </trkpt>
      <trkpt lat="47.30464" lon="-2.31179">
        <ele>1</ele>
        <time>2022-01-16T09:03:17.000Z</time>
      </trkpt>
      <trkpt lat="47.30465" lon="-2.31186">
        <ele>1.3999999761581</ele>
        <time>2022-01-16T09:03:18.000Z</time>
      </trkpt>
      <trkpt lat="47.30468" lon="-2.31193">
        <ele>1.7999999523163</ele>
        <time>2022-01-16T09:03:19.000Z</time>
      </trkpt>
      <trkpt lat="47.3047" lon="-2.31201">
        <ele>2.4000000953674</ele>
        <time>2022-01-16T09:03:20.000Z</time>
      </trkpt>
      <trkpt lat="47.30472" lon="-2.31208">
        <ele>2.7999999523163</ele>
        <time>2022-01-16T09:03:21.000Z</time>
      </trkpt>
      <trkpt lat="47.30474" lon="-2.31215">
        <ele>2.7999999523163</ele>
        <time>2022-01-16T09:03:22.000Z</time>
      </trkpt>
      <trkpt lat="47.30493" lon="-2.31257">
        <ele>2.7999999523163</ele>
        <time>2022-01-16T09:03:29.000Z</time>
      </trkpt>
      <trkpt lat="47.30516" lon="-2.31294">
        <ele>2.7999999523163</ele>
        <time>2022-01-16T09:03:35.000Z</time>
      </trkpt>
      <trkpt lat="47.30545" lon="-2.31335">
        <ele>2.7999999523163</ele>
        <time>2022-01-16T09:03:42.000Z</time>
      </trkpt>
      <trkpt lat="47.30577" lon="-2.31383">
        <ele>2.7999999523163</ele>
        <time>2022-01-16T09:03:49.000Z</time>
      </trkpt>
      <trkpt lat="47.30594" lon="-2.31419">
        <ele>2.7999999523163</ele>
        <time>2022-01-16T09:03:54.000Z</time>
      </trkpt>
      <trkpt lat="47.30621" lon="-2.31488">
        <ele>2.7999999523163</ele>
        <time>2022-01-16T09:04:03.000Z</time>
      </trkpt>
      <trkpt lat="47.30633" lon="-2.3152">
        <ele>2.7999999523163</ele>
        <time>2022-01-16T09:04:07.000Z</time>
      </trkpt>
      <trkpt lat="47.30643" lon="-2.31546">
        <ele>2.7999999523163</ele>
        <time>2022-01-16T09:04:10.000Z</time>
      </trkpt>
      <trkpt lat="47.30654" lon="-2.31573">
        <ele>2.2000000476837</ele>
        <time>2022-01-16T09:04:13.000Z</time>
      </trkpt>
      <trkpt lat="47.30658" lon="-2.31582">
        <ele>1.7999999523163</ele>
        <time>2022-01-16T09:04:14.000Z</time>
      </trkpt>
      <trkpt lat="47.30663" lon="-2.31591">
        <ele>1.3999999761581</ele>
        <time>2022-01-16T09:04:15.000Z</time>
      </trkpt>
      <trkpt lat="47.30667" lon="-2.316">
        <ele>1</ele>
        <time>2022-01-16T09:04:16.000Z</time>
      </trkpt>
      <trkpt lat="47.30672" lon="-2.31609">
        <ele>0.60000002384186</ele>
        <time>2022-01-16T09:04:17.000Z</time>
      </trkpt>
      <trkpt lat="47.30684" lon="-2.31638">
        <ele>0.60000002384186</ele>
        <time>2022-01-16T09:04:20.000Z</time>
      </trkpt>
      <trkpt lat="47.3069" lon="-2.31658">
        <ele>0.60000002384186</ele>
        <time>2022-01-16T09:04:22.000Z</time>
      </trkpt>
      <trkpt lat="47.30699" lon="-2.31684">
        <ele>0.60000002384186</ele>
        <time>2022-01-16T09:04:25.000Z</time>
      </trkpt>
      <trkpt lat="47.30705" lon="-2.31698">
        <ele>0.60000002384186</ele>
        <time>2022-01-16T09:04:27.000Z</time>
      </trkpt>
      <trkpt lat="47.30728" lon="-2.31756">
        <ele>0.60000002384186</ele>
        <time>2022-01-16T09:04:35.000Z</time>
      </trkpt>
      <trkpt lat="47.30738" lon="-2.31759">
        <ele>0.60000002384186</ele>
        <time>2022-01-16T09:04:38.000Z</time>
      </trkpt>
      <trkpt lat="47.30741" lon="-2.31757">
        <ele>0.60000002384186</ele>
        <time>2022-01-16T09:04:39.000Z</time>
      </trkpt>
      <trkpt lat="47.30748" lon="-2.31752">
        <ele>0.60000002384186</ele>
        <time>2022-01-16T09:04:41.000Z</time>
      </trkpt>
      <trkpt lat="47.30755" lon="-2.31746">
        <ele>0.60000002384186</ele>
        <time>2022-01-16T09:04:43.000Z</time>
      </trkpt>
      <trkpt lat="47.30773" lon="-2.3173">
        <ele>0.60000002384186</ele>
        <time>2022-01-16T09:04:48.000Z</time>
      </trkpt>
      <trkpt lat="47.30777" lon="-2.31726">
        <ele>0.60000002384186</ele>
        <time>2022-01-16T09:04:49.000Z</time>
      </trkpt>
      <trkpt lat="47.30796" lon="-2.31703">
        <ele>0.60000002384186</ele>
        <time>2022-01-16T09:04:55.000Z</time>
      </trkpt>
      <trkpt lat="47.30809" lon="-2.31688">
        <ele>0.60000002384186</ele>
        <time>2022-01-16T09:05:01.000Z</time>
      </trkpt>
      <trkpt lat="47.30824" lon="-2.31668">
        <ele>0.60000002384186</ele>
        <time>2022-01-16T09:05:09.000Z</time>
      </trkpt>
      <trkpt lat="47.30833" lon="-2.31659">
        <ele>1</ele>
        <time>2022-01-16T09:05:13.000Z</time>
      </trkpt>
      <trkpt lat="47.30835" lon="-2.31656">
        <ele>1.3999999761581</ele>
        <time>2022-01-16T09:05:14.000Z</time>
      </trkpt>
      <trkpt lat="47.30836" lon="-2.31654">
        <ele>1.7999999523163</ele>
        <time>2022-01-16T09:05:15.000Z</time>
      </trkpt>
      <trkpt lat="47.30838" lon="-2.31652">
        <ele>2.2000000476837</ele>
        <time>2022-01-16T09:05:16.000Z</time>
      </trkpt>
      <trkpt lat="47.30841" lon="-2.3165">
        <ele>2.5999999046326</ele>
        <time>2022-01-16T09:05:17.000Z</time>
      </trkpt>
      <trkpt lat="47.30847" lon="-2.31649">
        <ele>2.5999999046326</ele>
        <time>2022-01-16T09:05:20.000Z</time>
      </trkpt>
      <trkpt lat="47.3085" lon="-2.31651">
        <ele>2.5999999046326</ele>
        <time>2022-01-16T09:05:22.000Z</time>
      </trkpt>
      <trkpt lat="47.30855" lon="-2.31656">
        <ele>2.5999999046326</ele>
        <time>2022-01-16T09:05:25.000Z</time>
      </trkpt>
      <trkpt lat="47.30862" lon="-2.31666">
        <ele>2.5999999046326</ele>
        <time>2022-01-16T09:05:29.000Z</time>
      </trkpt>
      <trkpt lat="47.30882" lon="-2.31692">
        <ele>2.5999999046326</ele>
        <time>2022-01-16T09:05:39.000Z</time>
      </trkpt>
      <trkpt lat="47.30896" lon="-2.3171">
        <ele>2.5999999046326</ele>
        <time>2022-01-16T09:05:45.000Z</time>
      </trkpt>
      <trkpt lat="47.30917" lon="-2.31734">
        <ele>2.5999999046326</ele>
        <time>2022-01-16T09:05:53.000Z</time>
      </trkpt>
      <trkpt lat="47.30932" lon="-2.31753">
        <ele>2.5999999046326</ele>
        <time>2022-01-16T09:06:00.000Z</time>
      </trkpt>
      <trkpt lat="47.30946" lon="-2.31768">
        <ele>2.5999999046326</ele>
        <time>2022-01-16T09:06:06.000Z</time>
      </trkpt>
      <trkpt lat="47.30969" lon="-2.31792">
        <ele>2.5999999046326</ele>
        <time>2022-01-16T09:06:14.000Z</time>
      </trkpt>
      <trkpt lat="47.30989" lon="-2.31811">
        <ele>2.5999999046326</ele>
        <time>2022-01-16T09:06:21.000Z</time>
      </trkpt>
      <trkpt lat="47.31001" lon="-2.31832">
        <ele>2.5999999046326</ele>
        <time>2022-01-16T09:06:27.000Z</time>
      </trkpt>
      <trkpt lat="47.30995" lon="-2.31854">
        <ele>2.5999999046326</ele>
        <time>2022-01-16T09:06:32.000Z</time>
      </trkpt>
      <trkpt lat="47.30992" lon="-2.31859">
        <ele>2.5999999046326</ele>
        <time>2022-01-16T09:06:33.000Z</time>
      </trkpt>
      <trkpt lat="47.30985" lon="-2.31884">
        <ele>2.5999999046326</ele>
        <time>2022-01-16T09:06:38.000Z</time>
      </trkpt>
      <trkpt lat="47.30976" lon="-2.31918">
        <ele>2.5999999046326</ele>
        <time>2022-01-16T09:06:45.000Z</time>
      </trkpt>
      <trkpt lat="47.30965" lon="-2.31956">
        <ele>2.5999999046326</ele>
        <time>2022-01-16T09:06:52.000Z</time>
      </trkpt>
      <trkpt lat="47.30969" lon="-2.31981">
        <ele>2.5999999046326</ele>
        <time>2022-01-16T09:06:56.000Z</time>
      </trkpt>
      <trkpt lat="47.30986" lon="-2.32029">
        <ele>2.5999999046326</ele>
        <time>2022-01-16T09:07:05.000Z</time>
      </trkpt>
      <trkpt lat="47.31004" lon="-2.32065">
        <ele>2.5999999046326</ele>
        <time>2022-01-16T09:07:12.000Z</time>
      </trkpt>
      <trkpt lat="47.31022" lon="-2.32092">
        <ele>2.5999999046326</ele>
        <time>2022-01-16T09:07:18.000Z</time>
      </trkpt>
      <trkpt lat="47.31027" lon="-2.32101">
        <ele>3</ele>
        <time>2022-01-16T09:07:20.000Z</time>
      </trkpt>
      <trkpt lat="47.3103" lon="-2.32106">
        <ele>3.4000000953674</ele>
        <time>2022-01-16T09:07:21.000Z</time>
      </trkpt>
      <trkpt lat="47.31034" lon="-2.32111">
        <ele>4</ele>
        <time>2022-01-16T09:07:22.000Z</time>
      </trkpt>
      <trkpt lat="47.31037" lon="-2.32115">
        <ele>4.4000000953674</ele>
        <time>2022-01-16T09:07:23.000Z</time>
      </trkpt>
      <trkpt lat="47.3104" lon="-2.3212">
        <ele>4.8000001907349</ele>
        <time>2022-01-16T09:07:24.000Z</time>
      </trkpt>
      <trkpt lat="47.31043" lon="-2.32124">
        <ele>4.8000001907349</ele>
        <time>2022-01-16T09:07:25.000Z</time>
      </trkpt>
      <trkpt lat="47.31059" lon="-2.32147">
        <ele>4.8000001907349</ele>
        <time>2022-01-16T09:07:31.000Z</time>
      </trkpt>
      <trkpt lat="47.3107" lon="-2.32166">
        <ele>4.8000001907349</ele>
        <time>2022-01-16T09:07:36.000Z</time>
      </trkpt>
      <trkpt lat="47.31078" lon="-2.32181">
        <ele>5.1999998092651</ele>
        <time>2022-01-16T09:07:40.000Z</time>
      </trkpt>
      <trkpt lat="47.3108" lon="-2.32185">
        <ele>5.5999999046326</ele>
        <time>2022-01-16T09:07:41.000Z</time>
      </trkpt>
      <trkpt lat="47.31082" lon="-2.32188">
        <ele>6</ele>
        <time>2022-01-16T09:07:42.000Z</time>
      </trkpt>
      <trkpt lat="47.31084" lon="-2.32192">
        <ele>6.4000000953674</ele>
        <time>2022-01-16T09:07:43.000Z</time>
      </trkpt>
      <trkpt lat="47.31086" lon="-2.32195">
        <ele>6.8000001907349</ele>
        <time>2022-01-16T09:07:44.000Z</time>
      </trkpt>
      <trkpt lat="47.31088" lon="-2.32198">
        <ele>6.8000001907349</ele>
        <time>2022-01-16T09:07:45.000Z</time>
      </trkpt>
      <trkpt lat="47.31097" lon="-2.32219">
        <ele>6.8000001907349</ele>
        <time>2022-01-16T09:07:52.000Z</time>
      </trkpt>
      <trkpt lat="47.31104" lon="-2.32239">
        <ele>6.8000001907349</ele>
        <time>2022-01-16T09:07:58.000Z</time>
      </trkpt>
      <trkpt lat="47.31105" lon="-2.32244">
        <ele>7.1999998092651</ele>
        <time>2022-01-16T09:07:59.000Z</time>
      </trkpt>
      <trkpt lat="47.31107" lon="-2.32247">
        <ele>7.5999999046326</ele>
        <time>2022-01-16T09:08:00.000Z</time>
      </trkpt>
      <trkpt lat="47.31109" lon="-2.32251">
        <ele>8.3999996185303</ele>
        <time>2022-01-16T09:08:01.000Z</time>
      </trkpt>
      <trkpt lat="47.31111" lon="-2.32254">
        <ele>8.8000001907349</ele>
        <time>2022-01-16T09:08:02.000Z</time>
      </trkpt>
      <trkpt lat="47.31113" lon="-2.32257">
        <ele>8.8000001907349</ele>
        <time>2022-01-16T09:08:03.000Z</time>
      </trkpt>
      <trkpt lat="47.31123" lon="-2.32276">
        <ele>8.8000001907349</ele>
        <time>2022-01-16T09:08:09.000Z</time>
      </trkpt>
      <trkpt lat="47.31132" lon="-2.32296">
        <ele>9.3999996185303</ele>
        <time>2022-01-16T09:08:14.000Z</time>
      </trkpt>
      <trkpt lat="47.31134" lon="-2.323">
        <ele>9.8000001907349</ele>
        <time>2022-01-16T09:08:15.000Z</time>
      </trkpt>
      <trkpt lat="47.31135" lon="-2.32305">
        <ele>10.199999809265</ele>
        <time>2022-01-16T09:08:16.000Z</time>
      </trkpt>
      <trkpt lat="47.31136" lon="-2.32309">
        <ele>10.60000038147</ele>
        <time>2022-01-16T09:08:17.000Z</time>
      </trkpt>
      <trkpt lat="47.31137" lon="-2.32315">
        <ele>11</ele>
        <time>2022-01-16T09:08:18.000Z</time>
      </trkpt>
      <trkpt lat="47.31141" lon="-2.3234">
        <ele>11</ele>
        <time>2022-01-16T09:08:23.000Z</time>
      </trkpt>
      <trkpt lat="47.31143" lon="-2.32364">
        <ele>11</ele>
        <time>2022-01-16T09:08:28.000Z</time>
      </trkpt>
      <trkpt lat="47.31143" lon="-2.32368">
        <ele>11.39999961853</ele>
        <time>2022-01-16T09:08:29.000Z</time>
      </trkpt>
      <trkpt lat="47.31143" lon="-2.32373">
        <ele>11.800000190735</ele>
        <time>2022-01-16T09:08:30.000Z</time>
      </trkpt>
      <trkpt lat="47.31143" lon="-2.32377">
        <ele>12.199999809265</ele>
        <time>2022-01-16T09:08:31.000Z</time>
      </trkpt>
      <trkpt lat="47.31143" lon="-2.32381">
        <ele>12.60000038147</ele>
        <time>2022-01-16T09:08:32.000Z</time>
      </trkpt>
      <trkpt lat="47.31143" lon="-2.32386">
        <ele>13</ele>
        <time>2022-01-16T09:08:33.000Z</time>
      </trkpt>
      <trkpt lat="47.31143" lon="-2.3239">
        <ele>13</ele>
        <time>2022-01-16T09:08:34.000Z</time>
      </trkpt>
      <trkpt lat="47.31143" lon="-2.32418">
        <ele>13</ele>
        <time>2022-01-16T09:08:41.000Z</time>
      </trkpt>
      <trkpt lat="47.31143" lon="-2.3242">
        <ele>13</ele>
        <time>2022-01-16T09:08:42.000Z</time>
      </trkpt>
      <trkpt lat="47.31142" lon="-2.32421">
        <ele>13</ele>
        <time>2022-01-16T09:08:44.000Z</time>
      </trkpt>
      <trkpt lat="47.31145" lon="-2.32423">
        <ele>13</ele>
        <time>2022-01-16T09:09:18.000Z</time>
      </trkpt>
      <trkpt lat="47.31152" lon="-2.32425">
        <ele>13</ele>
        <time>2022-01-16T09:09:22.000Z</time>
      </trkpt>
      <trkpt lat="47.31153" lon="-2.32426">
        <ele>13</ele>
        <time>2022-01-16T09:09:23.000Z</time>
      </trkpt>
      <trkpt lat="47.31165" lon="-2.32431">
        <ele>13</ele>
        <time>2022-01-16T09:09:28.000Z</time>
      </trkpt>
      <trkpt lat="47.31173" lon="-2.3244">
        <ele>13</ele>
        <time>2022-01-16T09:09:31.000Z</time>
      </trkpt>
      <trkpt lat="47.31174" lon="-2.32445">
        <ele>13</ele>
        <time>2022-01-16T09:09:32.000Z</time>
      </trkpt>
      <trkpt lat="47.31175" lon="-2.32462">
        <ele>13</ele>
        <time>2022-01-16T09:09:35.000Z</time>
      </trkpt>
      <trkpt lat="47.31174" lon="-2.32475">
        <ele>13</ele>
        <time>2022-01-16T09:09:37.000Z</time>
      </trkpt>
      <trkpt lat="47.31175" lon="-2.325">
        <ele>13.39999961853</ele>
        <time>2022-01-16T09:09:41.000Z</time>
      </trkpt>
      <trkpt lat="47.31175" lon="-2.32507">
        <ele>13.800000190735</ele>
        <time>2022-01-16T09:09:42.000Z</time>
      </trkpt>
      <trkpt lat="47.31175" lon="-2.32514">
        <ele>14.199999809265</ele>
        <time>2022-01-16T09:09:43.000Z</time>
      </trkpt>
      <trkpt lat="47.31174" lon="-2.32521">
        <ele>14.60000038147</ele>
        <time>2022-01-16T09:09:44.000Z</time>
      </trkpt>
      <trkpt lat="47.31175" lon="-2.32527">
        <ele>15.199999809265</ele>
        <time>2022-01-16T09:09:45.000Z</time>
      </trkpt>
      <trkpt lat="47.31174" lon="-2.32554">
        <ele>15.199999809265</ele>
        <time>2022-01-16T09:09:49.000Z</time>
      </trkpt>
      <trkpt lat="47.31175" lon="-2.32613">
        <ele>15.199999809265</ele>
        <time>2022-01-16T09:09:58.000Z</time>
      </trkpt>
      <trkpt lat="47.31181" lon="-2.32651">
        <ele>15.199999809265</ele>
        <time>2022-01-16T09:10:04.000Z</time>
      </trkpt>
      <trkpt lat="47.31183" lon="-2.32657">
        <ele>15.199999809265</ele>
        <time>2022-01-16T09:10:05.000Z</time>
      </trkpt>
      <trkpt lat="47.3119" lon="-2.32679">
        <ele>15.199999809265</ele>
        <time>2022-01-16T09:10:09.000Z</time>
      </trkpt>
      <trkpt lat="47.31192" lon="-2.32685">
        <ele>15.60000038147</ele>
        <time>2022-01-16T09:10:10.000Z</time>
      </trkpt>
      <trkpt lat="47.31194" lon="-2.32691">
        <ele>16</ele>
        <time>2022-01-16T09:10:11.000Z</time>
      </trkpt>
      <trkpt lat="47.31196" lon="-2.32697">
        <ele>16.39999961853</ele>
        <time>2022-01-16T09:10:12.000Z</time>
      </trkpt>
      <trkpt lat="47.31198" lon="-2.32703">
        <ele>16.799999237061</ele>
        <time>2022-01-16T09:10:13.000Z</time>
      </trkpt>
      <trkpt lat="47.312" lon="-2.3271">
        <ele>17.200000762939</ele>
        <time>2022-01-16T09:10:14.000Z</time>
      </trkpt>
      <trkpt lat="47.31205" lon="-2.32726">
        <ele>17.200000762939</ele>
        <time>2022-01-16T09:10:17.000Z</time>
      </trkpt>
      <trkpt lat="47.31221" lon="-2.32745">
        <ele>17.200000762939</ele>
        <time>2022-01-16T09:10:22.000Z</time>
      </trkpt>
      <trkpt lat="47.31247" lon="-2.32764">
        <ele>17.200000762939</ele>
        <time>2022-01-16T09:10:28.000Z</time>
      </trkpt>
      <trkpt lat="47.31269" lon="-2.32777">
        <ele>17.200000762939</ele>
        <time>2022-01-16T09:10:32.000Z</time>
      </trkpt>
      <trkpt lat="47.31278" lon="-2.32788">
        <ele>17.200000762939</ele>
        <time>2022-01-16T09:10:34.000Z</time>
      </trkpt>
      <trkpt lat="47.31286" lon="-2.328">
        <ele>17.200000762939</ele>
        <time>2022-01-16T09:10:36.000Z</time>
      </trkpt>
      <trkpt lat="47.31296" lon="-2.32818">
        <ele>17.200000762939</ele>
        <time>2022-01-16T09:10:39.000Z</time>
      </trkpt>
      <trkpt lat="47.313" lon="-2.32823">
        <ele>17.200000762939</ele>
        <time>2022-01-16T09:10:40.000Z</time>
      </trkpt>
      <trkpt lat="47.3132" lon="-2.32849">
        <ele>17.200000762939</ele>
        <time>2022-01-16T09:10:45.000Z</time>
      </trkpt>
      <trkpt lat="47.31342" lon="-2.32875">
        <ele>17.200000762939</ele>
        <time>2022-01-16T09:10:51.000Z</time>
      </trkpt>
      <trkpt lat="47.31346" lon="-2.32879">
        <ele>17.200000762939</ele>
        <time>2022-01-16T09:10:53.000Z</time>
      </trkpt>
      <trkpt lat="47.31348" lon="-2.3288">
        <ele>16.39999961853</ele>
        <time>2022-01-16T09:10:54.000Z</time>
      </trkpt>
      <trkpt lat="47.3135" lon="-2.32881">
        <ele>15.800000190735</ele>
        <time>2022-01-16T09:10:55.000Z</time>
      </trkpt>
      <trkpt lat="47.31351" lon="-2.32883">
        <ele>15.39999961853</ele>
        <time>2022-01-16T09:10:56.000Z</time>
      </trkpt>
      <trkpt lat="47.31352" lon="-2.32887">
        <ele>15</ele>
        <time>2022-01-16T09:10:57.000Z</time>
      </trkpt>
      <trkpt lat="47.3135" lon="-2.32894">
        <ele>15</ele>
        <time>2022-01-16T09:10:59.000Z</time>
      </trkpt>
      <trkpt lat="47.31343" lon="-2.3291">
        <ele>15</ele>
        <time>2022-01-16T09:11:02.000Z</time>
      </trkpt>
      <trkpt lat="47.3134" lon="-2.32917">
        <ele>15</ele>
        <time>2022-01-16T09:11:03.000Z</time>
      </trkpt>
      <trkpt lat="47.31322" lon="-2.32957">
        <ele>15</ele>
        <time>2022-01-16T09:11:09.000Z</time>
      </trkpt>
      <trkpt lat="47.31303" lon="-2.32995">
        <ele>15</ele>
        <time>2022-01-16T09:11:15.000Z</time>
      </trkpt>
      <trkpt lat="47.31293" lon="-2.33014">
        <ele>15</ele>
        <time>2022-01-16T09:11:18.000Z</time>
      </trkpt>
      <trkpt lat="47.31282" lon="-2.33031">
        <ele>15</ele>
        <time>2022-01-16T09:11:21.000Z</time>
      </trkpt>
      <trkpt lat="47.3127" lon="-2.33052">
        <ele>15</ele>
        <time>2022-01-16T09:11:25.000Z</time>
      </trkpt>
      <trkpt lat="47.31268" lon="-2.33057">
        <ele>15</ele>
        <time>2022-01-16T09:11:26.000Z</time>
      </trkpt>
      <trkpt lat="47.31258" lon="-2.33075">
        <ele>15</ele>
        <time>2022-01-16T09:11:29.000Z</time>
      </trkpt>
      <trkpt lat="47.3125" lon="-2.33092">
        <ele>15</ele>
        <time>2022-01-16T09:11:32.000Z</time>
      </trkpt>
      <trkpt lat="47.31237" lon="-2.33122">
        <ele>15</ele>
        <time>2022-01-16T09:11:38.000Z</time>
      </trkpt>
      <trkpt lat="47.31234" lon="-2.33126">
        <ele>15.39999961853</ele>
        <time>2022-01-16T09:11:39.000Z</time>
      </trkpt>
      <trkpt lat="47.31233" lon="-2.3313">
        <ele>15.800000190735</ele>
        <time>2022-01-16T09:11:40.000Z</time>
      </trkpt>
      <trkpt lat="47.31232" lon="-2.33135">
        <ele>16.200000762939</ele>
        <time>2022-01-16T09:11:41.000Z</time>
      </trkpt>
      <trkpt lat="47.31233" lon="-2.3314">
        <ele>16.60000038147</ele>
        <time>2022-01-16T09:11:42.000Z</time>
      </trkpt>
      <trkpt lat="47.31234" lon="-2.33145">
        <ele>17</ele>
        <time>2022-01-16T09:11:43.000Z</time>
      </trkpt>
      <trkpt lat="47.31245" lon="-2.33149">
        <ele>17</ele>
        <time>2022-01-16T09:11:46.000Z</time>
      </trkpt>
      <trkpt lat="47.31275" lon="-2.33157">
        <ele>17</ele>
        <time>2022-01-16T09:11:53.000Z</time>
      </trkpt>
      <trkpt lat="47.3128" lon="-2.3316">
        <ele>17</ele>
        <time>2022-01-16T09:11:54.000Z</time>
      </trkpt>
      <trkpt lat="47.31299" lon="-2.33173">
        <ele>17</ele>
        <time>2022-01-16T09:11:58.000Z</time>
      </trkpt>
      <trkpt lat="47.31329" lon="-2.33198">
        <ele>17</ele>
        <time>2022-01-16T09:12:04.000Z</time>
      </trkpt>
      <trkpt lat="47.31367" lon="-2.33232">
        <ele>17</ele>
        <time>2022-01-16T09:12:12.000Z</time>
      </trkpt>
      <trkpt lat="47.31411" lon="-2.33263">
        <ele>17</ele>
        <time>2022-01-16T09:12:21.000Z</time>
      </trkpt>
      <trkpt lat="47.31416" lon="-2.33267">
        <ele>17</ele>
        <time>2022-01-16T09:12:22.000Z</time>
      </trkpt>
      <trkpt lat="47.31438" lon="-2.33287">
        <ele>17</ele>
        <time>2022-01-16T09:12:27.000Z</time>
      </trkpt>
      <trkpt lat="47.31449" lon="-2.33307">
        <ele>17</ele>
        <time>2022-01-16T09:12:31.000Z</time>
      </trkpt>
      <trkpt lat="47.31452" lon="-2.33313">
        <ele>17.60000038147</ele>
        <time>2022-01-16T09:12:32.000Z</time>
      </trkpt>
      <trkpt lat="47.31455" lon="-2.33319">
        <ele>18.39999961853</ele>
        <time>2022-01-16T09:12:33.000Z</time>
      </trkpt>
      <trkpt lat="47.31458" lon="-2.33325">
        <ele>18.799999237061</ele>
        <time>2022-01-16T09:12:34.000Z</time>
      </trkpt>
      <trkpt lat="47.31462" lon="-2.33332">
        <ele>19.200000762939</ele>
        <time>2022-01-16T09:12:35.000Z</time>
      </trkpt>
      <trkpt lat="47.31471" lon="-2.33351">
        <ele>19.200000762939</ele>
        <time>2022-01-16T09:12:38.000Z</time>
      </trkpt>
      <trkpt lat="47.31483" lon="-2.33369">
        <ele>19.200000762939</ele>
        <time>2022-01-16T09:12:42.000Z</time>
      </trkpt>
      <trkpt lat="47.31488" lon="-2.33369">
        <ele>19.200000762939</ele>
        <time>2022-01-16T09:12:43.000Z</time>
      </trkpt>
      <trkpt lat="47.31504" lon="-2.3336">
        <ele>19.200000762939</ele>
        <time>2022-01-16T09:12:46.000Z</time>
      </trkpt>
      <trkpt lat="47.31509" lon="-2.33357">
        <ele>19.200000762939</ele>
        <time>2022-01-16T09:12:47.000Z</time>
      </trkpt>
      <trkpt lat="47.31545" lon="-2.33339">
        <ele>19.200000762939</ele>
        <time>2022-01-16T09:12:54.000Z</time>
      </trkpt>
      <trkpt lat="47.31583" lon="-2.33322">
        <ele>19.200000762939</ele>
        <time>2022-01-16T09:13:01.000Z</time>
      </trkpt>
      <trkpt lat="47.31624" lon="-2.33295">
        <ele>19.200000762939</ele>
        <time>2022-01-16T09:13:09.000Z</time>
      </trkpt>
      <trkpt lat="47.31657" lon="-2.33276">
        <ele>19.200000762939</ele>
        <time>2022-01-16T09:13:15.000Z</time>
      </trkpt>
      <trkpt lat="47.31692" lon="-2.33262">
        <ele>19.200000762939</ele>
        <time>2022-01-16T09:13:21.000Z</time>
      </trkpt>
      <trkpt lat="47.31723" lon="-2.33248">
        <ele>18.60000038147</ele>
        <time>2022-01-16T09:13:26.000Z</time>
      </trkpt>
      <trkpt lat="47.31729" lon="-2.33246">
        <ele>18.200000762939</ele>
        <time>2022-01-16T09:13:27.000Z</time>
      </trkpt>
      <trkpt lat="47.31734" lon="-2.33244">
        <ele>17.60000038147</ele>
        <time>2022-01-16T09:13:28.000Z</time>
      </trkpt>
      <trkpt lat="47.31739" lon="-2.33245">
        <ele>17.200000762939</ele>
        <time>2022-01-16T09:13:29.000Z</time>
      </trkpt>
      <trkpt lat="47.31744" lon="-2.33247">
        <ele>16.60000038147</ele>
        <time>2022-01-16T09:13:30.000Z</time>
      </trkpt>
      <trkpt lat="47.31746" lon="-2.33252">
        <ele>16.60000038147</ele>
        <time>2022-01-16T09:13:31.000Z</time>
      </trkpt>
      <trkpt lat="47.31751" lon="-2.33263">
        <ele>16.60000038147</ele>
        <time>2022-01-16T09:13:34.000Z</time>
      </trkpt>
      <trkpt lat="47.31752" lon="-2.33268">
        <ele>16.60000038147</ele>
        <time>2022-01-16T09:13:35.000Z</time>
      </trkpt>
      <trkpt lat="47.31756" lon="-2.33299">
        <ele>16.60000038147</ele>
        <time>2022-01-16T09:13:40.000Z</time>
      </trkpt>
      <trkpt lat="47.31761" lon="-2.33311">
        <ele>16.200000762939</ele>
        <time>2022-01-16T09:13:42.000Z</time>
      </trkpt>
      <trkpt lat="47.31765" lon="-2.33316">
        <ele>15.800000190735</ele>
        <time>2022-01-16T09:13:43.000Z</time>
      </trkpt>
      <trkpt lat="47.31769" lon="-2.3332">
        <ele>15.39999961853</ele>
        <time>2022-01-16T09:13:44.000Z</time>
      </trkpt>
      <trkpt lat="47.31773" lon="-2.33319">
        <ele>14.60000038147</ele>
        <time>2022-01-16T09:13:45.000Z</time>
      </trkpt>
      <trkpt lat="47.31779" lon="-2.33316">
        <ele>14.199999809265</ele>
        <time>2022-01-16T09:13:47.000Z</time>
      </trkpt>
      <trkpt lat="47.31783" lon="-2.33316">
        <ele>13.60000038147</ele>
        <time>2022-01-16T09:13:48.000Z</time>
      </trkpt>
      <trkpt lat="47.31785" lon="-2.33315">
        <ele>13.199999809265</ele>
        <time>2022-01-16T09:13:49.000Z</time>
      </trkpt>
      <trkpt lat="47.31788" lon="-2.33313">
        <ele>12.800000190735</ele>
        <time>2022-01-16T09:13:50.000Z</time>
      </trkpt>
      <trkpt lat="47.31792" lon="-2.33311">
        <ele>12.199999809265</ele>
        <time>2022-01-16T09:13:51.000Z</time>
      </trkpt>
      <trkpt lat="47.31797" lon="-2.33309">
        <ele>12.199999809265</ele>
        <time>2022-01-16T09:13:52.000Z</time>
      </trkpt>
      <trkpt lat="47.31806" lon="-2.33303">
        <ele>11.800000190735</ele>
        <time>2022-01-16T09:13:54.000Z</time>
      </trkpt>
      <trkpt lat="47.31811" lon="-2.33299">
        <ele>11.39999961853</ele>
        <time>2022-01-16T09:13:55.000Z</time>
      </trkpt>
      <trkpt lat="47.31815" lon="-2.33296">
        <ele>11</ele>
        <time>2022-01-16T09:13:56.000Z</time>
      </trkpt>
      <trkpt lat="47.3182" lon="-2.33293">
        <ele>10.60000038147</ele>
        <time>2022-01-16T09:13:57.000Z</time>
      </trkpt>
      <trkpt lat="47.31824" lon="-2.3329">
        <ele>10.199999809265</ele>
        <time>2022-01-16T09:13:58.000Z</time>
      </trkpt>
      <trkpt lat="47.31827" lon="-2.33287">
        <ele>10.199999809265</ele>
        <time>2022-01-16T09:13:59.000Z</time>
      </trkpt>
      <trkpt lat="47.3183" lon="-2.33281">
        <ele>9.8000001907349</ele>
        <time>2022-01-16T09:14:00.000Z</time>
      </trkpt>
      <trkpt lat="47.31833" lon="-2.33276">
        <ele>9.3999996185303</ele>
        <time>2022-01-16T09:14:01.000Z</time>
      </trkpt>
      <trkpt lat="47.31837" lon="-2.33271">
        <ele>9</ele>
        <time>2022-01-16T09:14:02.000Z</time>
      </trkpt>
      <trkpt lat="47.3184" lon="-2.33265">
        <ele>8.6000003814697</ele>
        <time>2022-01-16T09:14:03.000Z</time>
      </trkpt>
      <trkpt lat="47.31843" lon="-2.33258">
        <ele>8</ele>
        <time>2022-01-16T09:14:04.000Z</time>
      </trkpt>
      <trkpt lat="47.3185" lon="-2.33243">
        <ele>8</ele>
        <time>2022-01-16T09:14:06.000Z</time>
      </trkpt>
      <trkpt lat="47.31855" lon="-2.33209">
        <ele>8</ele>
        <time>2022-01-16T09:14:10.000Z</time>
      </trkpt>
      <trkpt lat="47.31856" lon="-2.332">
        <ele>8</ele>
        <time>2022-01-16T09:14:11.000Z</time>
      </trkpt>
      <trkpt lat="47.31859" lon="-2.33174">
        <ele>7.5999999046326</ele>
        <time>2022-01-16T09:14:14.000Z</time>
      </trkpt>
      <trkpt lat="47.3186" lon="-2.33165">
        <ele>7.1999998092651</ele>
        <time>2022-01-16T09:14:15.000Z</time>
      </trkpt>
      <trkpt lat="47.31862" lon="-2.33157">
        <ele>6.8000001907349</ele>
        <time>2022-01-16T09:14:16.000Z</time>
      </trkpt>
      <trkpt lat="47.31863" lon="-2.33149">
        <ele>6.4000000953674</ele>
        <time>2022-01-16T09:14:17.000Z</time>
      </trkpt>
      <trkpt lat="47.31864" lon="-2.3314">
        <ele>6</ele>
        <time>2022-01-16T09:14:18.000Z</time>
      </trkpt>
      <trkpt lat="47.31866" lon="-2.33132">
        <ele>6</ele>
        <time>2022-01-16T09:14:19.000Z</time>
      </trkpt>
      <trkpt lat="47.31868" lon="-2.33114">
        <ele>5.5999999046326</ele>
        <time>2022-01-16T09:14:21.000Z</time>
      </trkpt>
      <trkpt lat="47.31869" lon="-2.33104">
        <ele>5</ele>
        <time>2022-01-16T09:14:22.000Z</time>
      </trkpt>
      <trkpt lat="47.31871" lon="-2.33095">
        <ele>4.5999999046326</ele>
        <time>2022-01-16T09:14:23.000Z</time>
      </trkpt>
      <trkpt lat="47.31871" lon="-2.33085">
        <ele>4.1999998092651</ele>
        <time>2022-01-16T09:14:24.000Z</time>
      </trkpt>
      <trkpt lat="47.31871" lon="-2.33075">
        <ele>3.7999999523163</ele>
        <time>2022-01-16T09:14:25.000Z</time>
      </trkpt>
      <trkpt lat="47.31873" lon="-2.33045">
        <ele>3.7999999523163</ele>
        <time>2022-01-16T09:14:28.000Z</time>
      </trkpt>
      <trkpt lat="47.31874" lon="-2.32992">
        <ele>3.7999999523163</ele>
        <time>2022-01-16T09:14:33.000Z</time>
      </trkpt>
      <trkpt lat="47.31877" lon="-2.32947">
        <ele>3.7999999523163</ele>
        <time>2022-01-16T09:14:38.000Z</time>
      </trkpt>
      <trkpt lat="47.31878" lon="-2.32909">
        <ele>3.7999999523163</ele>
        <time>2022-01-16T09:14:43.000Z</time>
      </trkpt>
      <trkpt lat="47.31878" lon="-2.329">
        <ele>3.7999999523163</ele>
        <time>2022-01-16T09:14:44.000Z</time>
      </trkpt>
      <trkpt lat="47.31878" lon="-2.32857">
        <ele>3.7999999523163</ele>
        <time>2022-01-16T09:14:49.000Z</time>
      </trkpt>
      <trkpt lat="47.31877" lon="-2.32825">
        <ele>3.7999999523163</ele>
        <time>2022-01-16T09:14:53.000Z</time>
      </trkpt>
      <trkpt lat="47.31876" lon="-2.32819">
        <ele>3.7999999523163</ele>
        <time>2022-01-16T09:14:54.000Z</time>
      </trkpt>
      <trkpt lat="47.31875" lon="-2.328">
        <ele>3.7999999523163</ele>
        <time>2022-01-16T09:14:57.000Z</time>
      </trkpt>
      <trkpt lat="47.31874" lon="-2.32794">
        <ele>3.7999999523163</ele>
        <time>2022-01-16T09:14:58.000Z</time>
      </trkpt>
      <trkpt lat="47.31872" lon="-2.32766">
        <ele>3.7999999523163</ele>
        <time>2022-01-16T09:15:02.000Z</time>
      </trkpt>
      <trkpt lat="47.3187" lon="-2.32756">
        <ele>3.7999999523163</ele>
        <time>2022-01-16T09:15:04.000Z</time>
      </trkpt>
      <trkpt lat="47.31865" lon="-2.3274">
        <ele>3.7999999523163</ele>
        <time>2022-01-16T09:15:07.000Z</time>
      </trkpt>
      <trkpt lat="47.31863" lon="-2.3273">
        <ele>3.7999999523163</ele>
        <time>2022-01-16T09:15:09.000Z</time>
      </trkpt>
      <trkpt lat="47.3185" lon="-2.32693">
        <ele>3.7999999523163</ele>
        <time>2022-01-16T09:15:16.000Z</time>
      </trkpt>
      <trkpt lat="47.31841" lon="-2.32672">
        <ele>3.7999999523163</ele>
        <time>2022-01-16T09:15:20.000Z</time>
      </trkpt>
      <trkpt lat="47.3184" lon="-2.32667">
        <ele>4.1999998092651</ele>
        <time>2022-01-16T09:15:21.000Z</time>
      </trkpt>
      <trkpt lat="47.31839" lon="-2.3266">
        <ele>4.5999999046326</ele>
        <time>2022-01-16T09:15:22.000Z</time>
      </trkpt>
      <trkpt lat="47.31838" lon="-2.32653">
        <ele>5</ele>
        <time>2022-01-16T09:15:23.000Z</time>
      </trkpt>
      <trkpt lat="47.31836" lon="-2.32647">
        <ele>5.8000001907349</ele>
        <time>2022-01-16T09:15:24.000Z</time>
      </trkpt>
      <trkpt lat="47.31831" lon="-2.32631">
        <ele>5.8000001907349</ele>
        <time>2022-01-16T09:15:27.000Z</time>
      </trkpt>
      <trkpt lat="47.31823" lon="-2.32598">
        <ele>5.8000001907349</ele>
        <time>2022-01-16T09:15:32.000Z</time>
      </trkpt>
      <trkpt lat="47.31819" lon="-2.32579">
        <ele>5.8000001907349</ele>
        <time>2022-01-16T09:15:35.000Z</time>
      </trkpt>
      <trkpt lat="47.31816" lon="-2.32567">
        <ele>6.1999998092651</ele>
        <time>2022-01-16T09:15:37.000Z</time>
      </trkpt>
      <trkpt lat="47.31815" lon="-2.32562">
        <ele>6.5999999046326</ele>
        <time>2022-01-16T09:15:38.000Z</time>
      </trkpt>
      <trkpt lat="47.31814" lon="-2.32556">
        <ele>7</ele>
        <time>2022-01-16T09:15:39.000Z</time>
      </trkpt>
      <trkpt lat="47.31812" lon="-2.32553">
        <ele>7.4000000953674</ele>
        <time>2022-01-16T09:15:40.000Z</time>
      </trkpt>
      <trkpt lat="47.31811" lon="-2.32549">
        <ele>8</ele>
        <time>2022-01-16T09:15:41.000Z</time>
      </trkpt>
      <trkpt lat="47.31809" lon="-2.3254">
        <ele>8</ele>
        <time>2022-01-16T09:15:43.000Z</time>
      </trkpt>
      <trkpt lat="47.31802" lon="-2.32506">
        <ele>8</ele>
        <time>2022-01-16T09:15:49.000Z</time>
      </trkpt>
      <trkpt lat="47.318" lon="-2.32501">
        <ele>8.3999996185303</ele>
        <time>2022-01-16T09:15:50.000Z</time>
      </trkpt>
      <trkpt lat="47.31799" lon="-2.32496">
        <ele>8.8000001907349</ele>
        <time>2022-01-16T09:15:51.000Z</time>
      </trkpt>
      <trkpt lat="47.31798" lon="-2.32491">
        <ele>9.1999998092651</ele>
        <time>2022-01-16T09:15:52.000Z</time>
      </trkpt>
      <trkpt lat="47.31797" lon="-2.32486">
        <ele>9.6000003814697</ele>
        <time>2022-01-16T09:15:53.000Z</time>
      </trkpt>
      <trkpt lat="47.31796" lon="-2.3248">
        <ele>10</ele>
        <time>2022-01-16T09:15:54.000Z</time>
      </trkpt>
      <trkpt lat="47.31792" lon="-2.32469">
        <ele>10</ele>
        <time>2022-01-16T09:15:56.000Z</time>
      </trkpt>
      <trkpt lat="47.31791" lon="-2.32463">
        <ele>10.39999961853</ele>
        <time>2022-01-16T09:15:57.000Z</time>
      </trkpt>
      <trkpt lat="47.3179" lon="-2.32458">
        <ele>10.800000190735</ele>
        <time>2022-01-16T09:15:58.000Z</time>
      </trkpt>
      <trkpt lat="47.31788" lon="-2.32452">
        <ele>11.199999809265</ele>
        <time>2022-01-16T09:15:59.000Z</time>
      </trkpt>
      <trkpt lat="47.31788" lon="-2.32447">
        <ele>11.60000038147</ele>
        <time>2022-01-16T09:16:00.000Z</time>
      </trkpt>
      <trkpt lat="47.31788" lon="-2.32441">
        <ele>12</ele>
        <time>2022-01-16T09:16:01.000Z</time>
      </trkpt>
      <trkpt lat="47.31787" lon="-2.32435">
        <ele>12</ele>
        <time>2022-01-16T09:16:02.000Z</time>
      </trkpt>
      <trkpt lat="47.3178" lon="-2.32399">
        <ele>12.60000038147</ele>
        <time>2022-01-16T09:16:09.000Z</time>
      </trkpt>
      <trkpt lat="47.3178" lon="-2.32394">
        <ele>13</ele>
        <time>2022-01-16T09:16:10.000Z</time>
      </trkpt>
      <trkpt lat="47.31779" lon="-2.32389">
        <ele>13.39999961853</ele>
        <time>2022-01-16T09:16:11.000Z</time>
      </trkpt>
      <trkpt lat="47.31778" lon="-2.32384">
        <ele>14.199999809265</ele>
        <time>2022-01-16T09:16:12.000Z</time>
      </trkpt>
      <trkpt lat="47.31771" lon="-2.32353">
        <ele>14.199999809265</ele>
        <time>2022-01-16T09:16:18.000Z</time>
      </trkpt>
      <trkpt lat="47.31764" lon="-2.32318">
        <ele>14.199999809265</ele>
        <time>2022-01-16T09:16:25.000Z</time>
      </trkpt>
      <trkpt lat="47.3176" lon="-2.32297">
        <ele>14.60000038147</ele>
        <time>2022-01-16T09:16:29.000Z</time>
      </trkpt>
      <trkpt lat="47.31759" lon="-2.32291">
        <ele>15.199999809265</ele>
        <time>2022-01-16T09:16:30.000Z</time>
      </trkpt>
      <trkpt lat="47.31759" lon="-2.32286">
        <ele>15.60000038147</ele>
        <time>2022-01-16T09:16:31.000Z</time>
      </trkpt>
      <trkpt lat="47.31758" lon="-2.3228">
        <ele>16</ele>
        <time>2022-01-16T09:16:32.000Z</time>
      </trkpt>
      <trkpt lat="47.31757" lon="-2.32274">
        <ele>16.39999961853</ele>
        <time>2022-01-16T09:16:33.000Z</time>
      </trkpt>
      <trkpt lat="47.31754" lon="-2.32254">
        <ele>16.39999961853</ele>
        <time>2022-01-16T09:16:37.000Z</time>
      </trkpt>
      <trkpt lat="47.31754" lon="-2.32235">
        <ele>16.39999961853</ele>
        <time>2022-01-16T09:16:41.000Z</time>
      </trkpt>
      <trkpt lat="47.31755" lon="-2.32233">
        <ele>16.39999961853</ele>
        <time>2022-01-16T09:16:42.000Z</time>
      </trkpt>
      <trkpt lat="47.31766" lon="-2.3223">
        <ele>16.39999961853</ele>
        <time>2022-01-16T09:16:45.000Z</time>
      </trkpt>
      <trkpt lat="47.3178" lon="-2.32227">
        <ele>16.39999961853</ele>
        <time>2022-01-16T09:16:48.000Z</time>
      </trkpt>
      <trkpt lat="47.3179" lon="-2.32226">
        <ele>16.39999961853</ele>
        <time>2022-01-16T09:16:50.000Z</time>
      </trkpt>
      <trkpt lat="47.31816" lon="-2.32224">
        <ele>16.39999961853</ele>
        <time>2022-01-16T09:16:55.000Z</time>
      </trkpt>
      <trkpt lat="47.31828" lon="-2.32222">
        <ele>16.39999961853</ele>
        <time>2022-01-16T09:16:57.000Z</time>
      </trkpt>
      <trkpt lat="47.31848" lon="-2.32216">
        <ele>16</ele>
        <time>2022-01-16T09:17:00.000Z</time>
      </trkpt>
      <trkpt lat="47.31855" lon="-2.32213">
        <ele>15.39999961853</ele>
        <time>2022-01-16T09:17:01.000Z</time>
      </trkpt>
      <trkpt lat="47.31862" lon="-2.32211">
        <ele>14.60000038147</ele>
        <time>2022-01-16T09:17:02.000Z</time>
      </trkpt>
      <trkpt lat="47.3187" lon="-2.32208">
        <ele>14</ele>
        <time>2022-01-16T09:17:03.000Z</time>
      </trkpt>
      <trkpt lat="47.31878" lon="-2.32206">
        <ele>13.60000038147</ele>
        <time>2022-01-16T09:17:04.000Z</time>
      </trkpt>
      <trkpt lat="47.31886" lon="-2.32204">
        <ele>13.199999809265</ele>
        <time>2022-01-16T09:17:05.000Z</time>
      </trkpt>
      <trkpt lat="47.31894" lon="-2.32202">
        <ele>12.800000190735</ele>
        <time>2022-01-16T09:17:06.000Z</time>
      </trkpt>
      <trkpt lat="47.31902" lon="-2.32201">
        <ele>12.39999961853</ele>
        <time>2022-01-16T09:17:07.000Z</time>
      </trkpt>
      <trkpt lat="47.31909" lon="-2.322">
        <ele>12</ele>
        <time>2022-01-16T09:17:08.000Z</time>
      </trkpt>
      <trkpt lat="47.31919" lon="-2.32202">
        <ele>11.39999961853</ele>
        <time>2022-01-16T09:17:09.000Z</time>
      </trkpt>
      <trkpt lat="47.31928" lon="-2.32204">
        <ele>11</ele>
        <time>2022-01-16T09:17:10.000Z</time>
      </trkpt>
      <trkpt lat="47.31935" lon="-2.32206">
        <ele>10.39999961853</ele>
        <time>2022-01-16T09:17:11.000Z</time>
      </trkpt>
      <trkpt lat="47.31942" lon="-2.32208">
        <ele>9.8000001907349</ele>
        <time>2022-01-16T09:17:12.000Z</time>
      </trkpt>
      <trkpt lat="47.31947" lon="-2.3221">
        <ele>9.1999998092651</ele>
        <time>2022-01-16T09:17:13.000Z</time>
      </trkpt>
      <trkpt lat="47.31952" lon="-2.32213">
        <ele>8.6000003814697</ele>
        <time>2022-01-16T09:17:14.000Z</time>
      </trkpt>
      <trkpt lat="47.31956" lon="-2.32217">
        <ele>7.8000001907349</ele>
        <time>2022-01-16T09:17:15.000Z</time>
      </trkpt>
      <trkpt lat="47.31957" lon="-2.32223">
        <ele>7.1999998092651</ele>
        <time>2022-01-16T09:17:16.000Z</time>
      </trkpt>
      <trkpt lat="47.31956" lon="-2.3223">
        <ele>6.5999999046326</ele>
        <time>2022-01-16T09:17:17.000Z</time>
      </trkpt>
      <trkpt lat="47.31954" lon="-2.32234">
        <ele>5.8000001907349</ele>
        <time>2022-01-16T09:17:18.000Z</time>
      </trkpt>
      <trkpt lat="47.31952" lon="-2.3224">
        <ele>5.1999998092651</ele>
        <time>2022-01-16T09:17:19.000Z</time>
      </trkpt>
      <trkpt lat="47.31949" lon="-2.32251">
        <ele>5.1999998092651</ele>
        <time>2022-01-16T09:17:21.000Z</time>
      </trkpt>
      <trkpt lat="47.31951" lon="-2.32265">
        <ele>5.1999998092651</ele>
        <time>2022-01-16T09:17:24.000Z</time>
      </trkpt>
      <trkpt lat="47.31956" lon="-2.32264">
        <ele>4.4000000953674</ele>
        <time>2022-01-16T09:17:26.000Z</time>
      </trkpt>
      <trkpt lat="47.31958" lon="-2.32258">
        <ele>4</ele>
        <time>2022-01-16T09:17:27.000Z</time>
      </trkpt>
      <trkpt lat="47.31961" lon="-2.32254">
        <ele>3.4000000953674</ele>
        <time>2022-01-16T09:17:28.000Z</time>
      </trkpt>
      <trkpt lat="47.31965" lon="-2.32249">
        <ele>3</ele>
        <time>2022-01-16T09:17:29.000Z</time>
      </trkpt>
      <trkpt lat="47.31968" lon="-2.32244">
        <ele>2.5999999046326</ele>
        <time>2022-01-16T09:17:30.000Z</time>
      </trkpt>
      <trkpt lat="47.31973" lon="-2.3224">
        <ele>2.2000000476837</ele>
        <time>2022-01-16T09:17:31.000Z</time>
      </trkpt>
      <trkpt lat="47.31978" lon="-2.32235">
        <ele>1.7999999523163</ele>
        <time>2022-01-16T09:17:32.000Z</time>
      </trkpt>
      <trkpt lat="47.31983" lon="-2.3223">
        <ele>1.3999999761581</ele>
        <time>2022-01-16T09:17:33.000Z</time>
      </trkpt>
      <trkpt lat="47.31988" lon="-2.32225">
        <ele>0.80000001192093</ele>
        <time>2022-01-16T09:17:34.000Z</time>
      </trkpt>
      <trkpt lat="47.32001" lon="-2.32211">
        <ele>0.40000000596046</ele>
        <time>2022-01-16T09:17:36.000Z</time>
      </trkpt>
      <trkpt lat="47.32009" lon="-2.32206">
        <ele>15.1</ele>
        <time>2022-01-16T09:17:37.000Z</time>
      </trkpt>
      <trkpt lat="47.32017" lon="-2.32203">
        <ele>-0.40000000596046</ele>
        <time>2022-01-16T09:17:38.000Z</time>
      </trkpt>
      <trkpt lat="47.32026" lon="-2.32201">
        <ele>-0.80000001192093</ele>
        <time>2022-01-16T09:17:39.000Z</time>
      </trkpt>
      <trkpt lat="47.32036" lon="-2.32195">
        <ele>-1.2000000476837</ele>
        <time>2022-01-16T09:17:40.000Z</time>
      </trkpt>
      <trkpt lat="47.32046" lon="-2.32192">
        <ele>-1.2000000476837</ele>
        <time>2022-01-16T09:17:41.000Z</time>
      </trkpt>
      <trkpt lat="47.32055" lon="-2.3219">
        <ele>-1.2000000476837</ele>
        <time>2022-01-16T09:17:42.000Z</time>
      </trkpt>
      <trkpt lat="47.32105" lon="-2.32182">
        <ele>-1.2000000476837</ele>
        <time>2022-01-16T09:17:48.000Z</time>
      </trkpt>
      <trkpt lat="47.32119" lon="-2.32178">
        <ele>-1.6000000238419</ele>
        <time>2022-01-16T09:17:50.000Z</time>
      </trkpt>
      <trkpt lat="47.32127" lon="-2.32176">
        <ele>-2.5999999046326</ele>
        <time>2022-01-16T09:17:51.000Z</time>
      </trkpt>
      <trkpt lat="47.32135" lon="-2.32173">
        <ele>-3</ele>
        <time>2022-01-16T09:17:52.000Z</time>
      </trkpt>
      <trkpt lat="47.32142" lon="-2.32168">
        <ele>-3.4000000953674</ele>
        <time>2022-01-16T09:17:53.000Z</time>
      </trkpt>
      <trkpt lat="47.3218" lon="-2.32138">
        <ele>-3.4000000953674</ele>
        <time>2022-01-16T09:17:59.000Z</time>
      </trkpt>
      <trkpt lat="47.32195" lon="-2.32123">
        <ele>-3.4000000953674</ele>
        <time>2022-01-16T09:18:02.000Z</time>
      </trkpt>
      <trkpt lat="47.32203" lon="-2.32119">
        <ele>-3.4000000953674</ele>
        <time>2022-01-16T09:18:04.000Z</time>
      </trkpt>
      <trkpt lat="47.32213" lon="-2.32111">
        <ele>-3.4000000953674</ele>
        <time>2022-01-16T09:18:08.000Z</time>
      </trkpt>
      <trkpt lat="47.32231" lon="-2.32106">
        <ele>-3.4000000953674</ele>
        <time>2022-01-16T09:18:13.000Z</time>
      </trkpt>
      <trkpt lat="47.32266" lon="-2.32102">
        <ele>-3.4000000953674</ele>
        <time>2022-01-16T09:18:22.000Z</time>
      </trkpt>
      <trkpt lat="47.32296" lon="-2.32098">
        <ele>-3.4000000953674</ele>
        <time>2022-01-16T09:18:29.000Z</time>
      </trkpt>
      <trkpt lat="47.32305" lon="-2.321">
        <ele>-3.4000000953674</ele>
        <time>2022-01-16T09:18:31.000Z</time>
      </trkpt>
      <trkpt lat="47.32325" lon="-2.321">
        <ele>-3.4000000953674</ele>
        <time>2022-01-16T09:18:35.000Z</time>
      </trkpt>
      <trkpt lat="47.32335" lon="-2.32101">
        <ele>-3.4000000953674</ele>
        <time>2022-01-16T09:18:37.000Z</time>
      </trkpt>
      <trkpt lat="47.32346" lon="-2.32103">
        <ele>-3.4000000953674</ele>
        <time>2022-01-16T09:18:40.000Z</time>
      </trkpt>
      <trkpt lat="47.32347" lon="-2.32103">
        <ele>-3.4000000953674</ele>
        <time>2022-01-16T09:18:43.000Z</time>
      </trkpt>
      <trkpt lat="47.3235" lon="-2.32104">
        <ele>-3.4000000953674</ele>
        <time>2022-01-16T09:18:49.000Z</time>
      </trkpt>
      <trkpt lat="47.32356" lon="-2.32105">
        <ele>-3.4000000953674</ele>
        <time>2022-01-16T09:18:51.000Z</time>
      </trkpt>
      <trkpt lat="47.32368" lon="-2.32105">
        <ele>-3.4000000953674</ele>
        <time>2022-01-16T09:18:54.000Z</time>
      </trkpt>
      <trkpt lat="47.32378" lon="-2.32104">
        <ele>-3.4000000953674</ele>
        <time>2022-01-16T09:18:56.000Z</time>
      </trkpt>
      <trkpt lat="47.32412" lon="-2.32102">
        <ele>-3.4000000953674</ele>
        <time>2022-01-16T09:19:02.000Z</time>
      </trkpt>
      <trkpt lat="47.32449" lon="-2.321">
        <ele>-3.4000000953674</ele>
        <time>2022-01-16T09:19:08.000Z</time>
      </trkpt>
      <trkpt lat="47.32492" lon="-2.32098">
        <ele>-3.4000000953674</ele>
        <time>2022-01-16T09:19:15.000Z</time>
      </trkpt>
      <trkpt lat="47.3252" lon="-2.32095">
        <ele>-3.4000000953674</ele>
        <time>2022-01-16T09:19:21.000Z</time>
      </trkpt>
      <trkpt lat="47.32535" lon="-2.32094">
        <ele>-3.4000000953674</ele>
        <time>2022-01-16T09:19:26.000Z</time>
      </trkpt>
      <trkpt lat="47.32553" lon="-2.32093">
        <ele>-3.4000000953674</ele>
        <time>2022-01-16T09:19:31.000Z</time>
      </trkpt>
      <trkpt lat="47.3258" lon="-2.32096">
        <ele>-3.4000000953674</ele>
        <time>2022-01-16T09:19:37.000Z</time>
      </trkpt>
      <trkpt lat="47.32585" lon="-2.32098">
        <ele>-3.4000000953674</ele>
        <time>2022-01-16T09:19:38.000Z</time>
      </trkpt>
      <trkpt lat="47.32591" lon="-2.32105">
        <ele>-3.4000000953674</ele>
        <time>2022-01-16T09:19:41.000Z</time>
      </trkpt>
      <trkpt lat="47.3259" lon="-2.32116">
        <ele>-3.4000000953674</ele>
        <time>2022-01-16T09:19:45.000Z</time>
      </trkpt>
      <trkpt lat="47.32589" lon="-2.3212">
        <ele>-3.4000000953674</ele>
        <time>2022-01-16T09:19:46.000Z</time>
      </trkpt>
      <trkpt lat="47.32583" lon="-2.32142">
        <ele>-3.7999999523163</ele>
        <time>2022-01-16T09:19:51.000Z</time>
      </trkpt>
      <trkpt lat="47.32581" lon="-2.32145">
        <ele>-4.4000000953674</ele>
        <time>2022-01-16T09:19:52.000Z</time>
      </trkpt>
      <trkpt lat="47.32581" lon="-2.32148">
        <ele>-4.8000001907349</ele>
        <time>2022-01-16T09:19:53.000Z</time>
      </trkpt>
      <trkpt lat="47.3258" lon="-2.3215">
        <ele>-5.1999998092651</ele>
        <time>2022-01-16T09:19:54.000Z</time>
      </trkpt>
      <trkpt lat="47.3258" lon="-2.32152">
        <ele>-5.5999999046326</ele>
        <time>2022-01-16T09:19:55.000Z</time>
      </trkpt>
      <trkpt lat="47.32579" lon="-2.32153">
        <ele>-5.5999999046326</ele>
        <time>2022-01-16T09:19:58.000Z</time>
      </trkpt>
      <trkpt lat="47.3258" lon="-2.32145">
        <ele>-5.5999999046326</ele>
        <time>2022-01-16T09:20:10.000Z</time>
      </trkpt>
      <trkpt lat="47.32585" lon="-2.32129">
        <ele>-5.5999999046326</ele>
        <time>2022-01-16T09:20:15.000Z</time>
      </trkpt>
      <trkpt lat="47.32586" lon="-2.32124">
        <ele>-5.5999999046326</ele>
        <time>2022-01-16T09:20:16.000Z</time>
      </trkpt>
      <trkpt lat="47.32586" lon="-2.32099">
        <ele>-5.5999999046326</ele>
        <time>2022-01-16T09:20:21.000Z</time>
      </trkpt>
      <trkpt lat="47.32575" lon="-2.32094">
        <ele>-5.5999999046326</ele>
        <time>2022-01-16T09:20:25.000Z</time>
      </trkpt>
      <trkpt lat="47.32571" lon="-2.32095">
        <ele>-5.1999998092651</ele>
        <time>2022-01-16T09:20:26.000Z</time>
      </trkpt>
      <trkpt lat="47.32568" lon="-2.32095">
        <ele>-4.8000001907349</ele>
        <time>2022-01-16T09:20:27.000Z</time>
      </trkpt>
      <trkpt lat="47.32563" lon="-2.32096">
        <ele>-4.4000000953674</ele>
        <time>2022-01-16T09:20:28.000Z</time>
      </trkpt>
      <trkpt lat="47.32559" lon="-2.32097">
        <ele>-4</ele>
        <time>2022-01-16T09:20:29.000Z</time>
      </trkpt>
      <trkpt lat="47.32555" lon="-2.32097">
        <ele>-3.5999999046326</ele>
        <time>2022-01-16T09:20:30.000Z</time>
      </trkpt>
      <trkpt lat="47.32537" lon="-2.32097">
        <ele>-3.5999999046326</ele>
        <time>2022-01-16T09:20:34.000Z</time>
      </trkpt>
      <trkpt lat="47.32506" lon="-2.32097">
        <ele>-3.5999999046326</ele>
        <time>2022-01-16T09:20:41.000Z</time>
      </trkpt>
      <trkpt lat="47.32499" lon="-2.32091">
        <ele>-3.5999999046326</ele>
        <time>2022-01-16T09:20:43.000Z</time>
      </trkpt>
      <trkpt lat="47.32496" lon="-2.32088">
        <ele>-3.5999999046326</ele>
        <time>2022-01-16T09:20:44.000Z</time>
      </trkpt>
      <trkpt lat="47.32494" lon="-2.32079">
        <ele>-3.5999999046326</ele>
        <time>2022-01-16T09:20:46.000Z</time>
      </trkpt>
      <trkpt lat="47.32495" lon="-2.32066">
        <ele>-3.5999999046326</ele>
        <time>2022-01-16T09:20:48.000Z</time>
      </trkpt>
      <trkpt lat="47.32499" lon="-2.32027">
        <ele>-3.5999999046326</ele>
        <time>2022-01-16T09:20:53.000Z</time>
      </trkpt>
      <trkpt lat="47.32504" lon="-2.31962">
        <ele>-3.5999999046326</ele>
        <time>2022-01-16T09:21:01.000Z</time>
      </trkpt>
      <trkpt lat="47.32509" lon="-2.31931">
        <ele>-3.5999999046326</ele>
        <time>2022-01-16T09:21:05.000Z</time>
      </trkpt>
      <trkpt lat="47.32511" lon="-2.31923">
        <ele>-3.5999999046326</ele>
        <time>2022-01-16T09:21:06.000Z</time>
      </trkpt>
      <trkpt lat="47.32517" lon="-2.31869">
        <ele>-3.5999999046326</ele>
        <time>2022-01-16T09:21:13.000Z</time>
      </trkpt>
      <trkpt lat="47.32518" lon="-2.31845">
        <ele>-3.5999999046326</ele>
        <time>2022-01-16T09:21:16.000Z</time>
      </trkpt>
      <trkpt lat="47.32518" lon="-2.31821">
        <ele>-3.2000000476837</ele>
        <time>2022-01-16T09:21:19.000Z</time>
      </trkpt>
      <trkpt lat="47.32517" lon="-2.31814">
        <ele>-2.7999999523163</ele>
        <time>2022-01-16T09:21:20.000Z</time>
      </trkpt>
      <trkpt lat="47.32517" lon="-2.31806">
        <ele>-2.4000000953674</ele>
        <time>2022-01-16T09:21:21.000Z</time>
      </trkpt>
      <trkpt lat="47.32516" lon="-2.31798">
        <ele>-2</ele>
        <time>2022-01-16T09:21:22.000Z</time>
      </trkpt>
      <trkpt lat="47.32515" lon="-2.3179">
        <ele>-1.6000000238419</ele>
        <time>2022-01-16T09:21:23.000Z</time>
      </trkpt>
      <trkpt lat="47.32516" lon="-2.31783">
        <ele>-1.6000000238419</ele>
        <time>2022-01-16T09:21:24.000Z</time>
      </trkpt>
      <trkpt lat="47.32515" lon="-2.31767">
        <ele>-1.6000000238419</ele>
        <time>2022-01-16T09:21:26.000Z</time>
      </trkpt>
      <trkpt lat="47.3251" lon="-2.31712">
        <ele>-1.6000000238419</ele>
        <time>2022-01-16T09:21:33.000Z</time>
      </trkpt>
      <trkpt lat="47.32508" lon="-2.31659">
        <ele>-1.6000000238419</ele>
        <time>2022-01-16T09:21:40.000Z</time>
      </trkpt>
      <trkpt lat="47.32512" lon="-2.31645">
        <ele>-1.6000000238419</ele>
        <time>2022-01-16T09:21:42.000Z</time>
      </trkpt>
      <trkpt lat="47.32516" lon="-2.31641">
        <ele>-1.6000000238419</ele>
        <time>2022-01-16T09:21:43.000Z</time>
      </trkpt>
      <trkpt lat="47.32539" lon="-2.31607">
        <ele>-1.6000000238419</ele>
        <time>2022-01-16T09:21:49.000Z</time>
      </trkpt>
      <trkpt lat="47.32544" lon="-2.31602">
        <ele>-1.6000000238419</ele>
        <time>2022-01-16T09:21:50.000Z</time>
      </trkpt>
      <trkpt lat="47.32556" lon="-2.31588">
        <ele>-1.6000000238419</ele>
        <time>2022-01-16T09:21:53.000Z</time>
      </trkpt>
      <trkpt lat="47.32558" lon="-2.3158">
        <ele>-1.6000000238419</ele>
        <time>2022-01-16T09:21:54.000Z</time>
      </trkpt>
      <trkpt lat="47.32559" lon="-2.31554">
        <ele>-1.6000000238419</ele>
        <time>2022-01-16T09:21:59.000Z</time>
      </trkpt>
      <trkpt lat="47.32557" lon="-2.31525">
        <ele>-1.6000000238419</ele>
        <time>2022-01-16T09:22:04.000Z</time>
      </trkpt>
      <trkpt lat="47.32558" lon="-2.31512">
        <ele>-1.6000000238419</ele>
        <time>2022-01-16T09:22:06.000Z</time>
      </trkpt>
      <trkpt lat="47.3256" lon="-2.31492">
        <ele>-1.6000000238419</ele>
        <time>2022-01-16T09:22:09.000Z</time>
      </trkpt>
      <trkpt lat="47.32558" lon="-2.31459">
        <ele>-1.6000000238419</ele>
        <time>2022-01-16T09:22:14.000Z</time>
      </trkpt>
      <trkpt lat="47.32554" lon="-2.31431">
        <ele>-1.6000000238419</ele>
        <time>2022-01-16T09:22:18.000Z</time>
      </trkpt>
      <trkpt lat="47.32553" lon="-2.31418">
        <ele>-1.6000000238419</ele>
        <time>2022-01-16T09:22:20.000Z</time>
      </trkpt>
      <trkpt lat="47.32552" lon="-2.31405">
        <ele>-1.6000000238419</ele>
        <time>2022-01-16T09:22:22.000Z</time>
      </trkpt>
      <trkpt lat="47.32554" lon="-2.31392">
        <ele>-1.6000000238419</ele>
        <time>2022-01-16T09:22:24.000Z</time>
      </trkpt>
      <trkpt lat="47.32557" lon="-2.31376">
        <ele>-1.6000000238419</ele>
        <time>2022-01-16T09:22:26.000Z</time>
      </trkpt>
      <trkpt lat="47.32558" lon="-2.31353">
        <ele>-1.6000000238419</ele>
        <time>2022-01-16T09:22:29.000Z</time>
      </trkpt>
      <trkpt lat="47.3256" lon="-2.31335">
        <ele>-1.6000000238419</ele>
        <time>2022-01-16T09:22:31.000Z</time>
      </trkpt>
      <trkpt lat="47.32565" lon="-2.3132">
        <ele>-1.6000000238419</ele>
        <time>2022-01-16T09:22:33.000Z</time>
      </trkpt>
      <trkpt lat="47.32572" lon="-2.31298">
        <ele>-1.6000000238419</ele>
        <time>2022-01-16T09:22:36.000Z</time>
      </trkpt>
      <trkpt lat="47.32572" lon="-2.31288">
        <ele>-1.6000000238419</ele>
        <time>2022-01-16T09:22:37.000Z</time>
      </trkpt>
      <trkpt lat="47.32574" lon="-2.31216">
        <ele>-1.6000000238419</ele>
        <time>2022-01-16T09:22:45.000Z</time>
      </trkpt>
      <trkpt lat="47.32566" lon="-2.31202">
        <ele>-1.6000000238419</ele>
        <time>2022-01-16T09:22:47.000Z</time>
      </trkpt>
      <trkpt lat="47.32563" lon="-2.31196">
        <ele>-1.6000000238419</ele>
        <time>2022-01-16T09:22:48.000Z</time>
      </trkpt>
      <trkpt lat="47.32561" lon="-2.31185">
        <ele>-1.6000000238419</ele>
        <time>2022-01-16T09:22:50.000Z</time>
      </trkpt>
      <trkpt lat="47.32561" lon="-2.31176">
        <ele>-1.6000000238419</ele>
        <time>2022-01-16T09:22:52.000Z</time>
      </trkpt>
      <trkpt lat="47.32562" lon="-2.31164">
        <ele>-1.6000000238419</ele>
        <time>2022-01-16T09:22:55.000Z</time>
      </trkpt>
      <trkpt lat="47.32564" lon="-2.31136">
        <ele>-1.6000000238419</ele>
        <time>2022-01-16T09:23:01.000Z</time>
      </trkpt>
      <trkpt lat="47.32567" lon="-2.31095">
        <ele>-1.6000000238419</ele>
        <time>2022-01-16T09:23:08.000Z</time>
      </trkpt>
      <trkpt lat="47.32569" lon="-2.31066">
        <ele>-1.6000000238419</ele>
        <time>2022-01-16T09:23:13.000Z</time>
      </trkpt>
      <trkpt lat="47.32567" lon="-2.31039">
        <ele>-1.6000000238419</ele>
        <time>2022-01-16T09:23:18.000Z</time>
      </trkpt>
      <trkpt lat="47.32564" lon="-2.31004">
        <ele>-1.6000000238419</ele>
        <time>2022-01-16T09:23:23.000Z</time>
      </trkpt>
      <trkpt lat="47.32564" lon="-2.30954">
        <ele>-1.6000000238419</ele>
        <time>2022-01-16T09:23:30.000Z</time>
      </trkpt>
      <trkpt lat="47.32567" lon="-2.30916">
        <ele>-1.6000000238419</ele>
        <time>2022-01-16T09:23:35.000Z</time>
      </trkpt>
      <trkpt lat="47.32568" lon="-2.30899">
        <ele>-1.6000000238419</ele>
        <time>2022-01-16T09:23:37.000Z</time>
      </trkpt>
      <trkpt lat="47.32568" lon="-2.30873">
        <ele>-1.6000000238419</ele>
        <time>2022-01-16T09:23:40.000Z</time>
      </trkpt>
      <trkpt lat="47.32564" lon="-2.30812">
        <ele>-1.6000000238419</ele>
        <time>2022-01-16T09:23:47.000Z</time>
      </trkpt>
      <trkpt lat="47.32562" lon="-2.30787">
        <ele>-1.6000000238419</ele>
        <time>2022-01-16T09:23:50.000Z</time>
      </trkpt>
      <trkpt lat="47.32558" lon="-2.30762">
        <ele>-1.6000000238419</ele>
        <time>2022-01-16T09:23:53.000Z</time>
      </trkpt>
      <trkpt lat="47.32556" lon="-2.30754">
        <ele>-1.6000000238419</ele>
        <time>2022-01-16T09:23:54.000Z</time>
      </trkpt>
      <trkpt lat="47.32553" lon="-2.30732">
        <ele>-1.6000000238419</ele>
        <time>2022-01-16T09:23:57.000Z</time>
      </trkpt>
      <trkpt lat="47.32552" lon="-2.30724">
        <ele>-1.6000000238419</ele>
        <time>2022-01-16T09:23:58.000Z</time>
      </trkpt>
      <trkpt lat="47.32548" lon="-2.30694">
        <ele>-1.6000000238419</ele>
        <time>2022-01-16T09:24:02.000Z</time>
      </trkpt>
      <trkpt lat="47.32544" lon="-2.30657">
        <ele>-1.6000000238419</ele>
        <time>2022-01-16T09:24:07.000Z</time>
      </trkpt>
      <trkpt lat="47.32541" lon="-2.30644">
        <ele>-1.6000000238419</ele>
        <time>2022-01-16T09:24:09.000Z</time>
      </trkpt>
      <trkpt lat="47.32535" lon="-2.30617">
        <ele>-1.6000000238419</ele>
        <time>2022-01-16T09:24:14.000Z</time>
      </trkpt>
      <trkpt lat="47.3253" lon="-2.3058">
        <ele>-1.6000000238419</ele>
        <time>2022-01-16T09:24:20.000Z</time>
      </trkpt>
      <trkpt lat="47.32523" lon="-2.3054">
        <ele>-1.2000000476837</ele>
        <time>2022-01-16T09:24:26.000Z</time>
      </trkpt>
      <trkpt lat="47.32522" lon="-2.30534">
        <ele>-0.60000002384186</ele>
        <time>2022-01-16T09:24:27.000Z</time>
      </trkpt>
      <trkpt lat="47.32521" lon="-2.30527">
        <ele>-0.20000000298023</ele>
        <time>2022-01-16T09:24:28.000Z</time>
      </trkpt>
      <trkpt lat="47.3252" lon="-2.3052">
        <ele>0.20000000298023</ele>
        <time>2022-01-16T09:24:29.000Z</time>
      </trkpt>
      <trkpt lat="47.32519" lon="-2.30513">
        <ele>0.60000002384186</ele>
        <time>2022-01-16T09:24:30.000Z</time>
      </trkpt>
      <trkpt lat="47.32513" lon="-2.3048">
        <ele>0.60000002384186</ele>
        <time>2022-01-16T09:24:35.000Z</time>
      </trkpt>
      <trkpt lat="47.32503" lon="-2.30439">
        <ele>0.60000002384186</ele>
        <time>2022-01-16T09:24:42.000Z</time>
      </trkpt>
      <trkpt lat="47.32501" lon="-2.30421">
        <ele>0.60000002384186</ele>
        <time>2022-01-16T09:24:45.000Z</time>
      </trkpt>
      <trkpt lat="47.32503" lon="-2.30417">
        <ele>0.60000002384186</ele>
        <time>2022-01-16T09:24:46.000Z</time>
      </trkpt>
      <trkpt lat="47.32515" lon="-2.3041">
        <ele>0.60000002384186</ele>
        <time>2022-01-16T09:24:49.000Z</time>
      </trkpt>
      <trkpt lat="47.32536" lon="-2.30401">
        <ele>0.60000002384186</ele>
        <time>2022-01-16T09:24:54.000Z</time>
      </trkpt>
      <trkpt lat="47.32541" lon="-2.30395">
        <ele>0.60000002384186</ele>
        <time>2022-01-16T09:24:56.000Z</time>
      </trkpt>
      <trkpt lat="47.32542" lon="-2.30378">
        <ele>0.60000002384186</ele>
        <time>2022-01-16T09:25:00.000Z</time>
      </trkpt>
      <trkpt lat="47.32541" lon="-2.30373">
        <ele>0.60000002384186</ele>
        <time>2022-01-16T09:25:01.000Z</time>
      </trkpt>
      <trkpt lat="47.32534" lon="-2.30339">
        <ele>0.60000002384186</ele>
        <time>2022-01-16T09:25:07.000Z</time>
      </trkpt>
      <trkpt lat="47.32525" lon="-2.303">
        <ele>0.60000002384186</ele>
        <time>2022-01-16T09:25:14.000Z</time>
      </trkpt>
      <trkpt lat="47.32523" lon="-2.30282">
        <ele>1</ele>
        <time>2022-01-16T09:25:17.000Z</time>
      </trkpt>
      <trkpt lat="47.32522" lon="-2.30275">
        <ele>1.3999999761581</ele>
        <time>2022-01-16T09:25:18.000Z</time>
      </trkpt>
      <trkpt lat="47.3252" lon="-2.30269">
        <ele>1.7999999523163</ele>
        <time>2022-01-16T09:25:19.000Z</time>
      </trkpt>
      <trkpt lat="47.32519" lon="-2.30262">
        <ele>2.2000000476837</ele>
        <time>2022-01-16T09:25:20.000Z</time>
      </trkpt>
      <trkpt lat="47.32518" lon="-2.30256">
        <ele>2.5999999046326</ele>
        <time>2022-01-16T09:25:21.000Z</time>
      </trkpt>
      <trkpt lat="47.32513" lon="-2.30211">
        <ele>2.5999999046326</ele>
        <time>2022-01-16T09:25:28.000Z</time>
      </trkpt>
      <trkpt lat="47.32505" lon="-2.30165">
        <ele>2.5999999046326</ele>
        <time>2022-01-16T09:25:36.000Z</time>
      </trkpt>
      <trkpt lat="47.32502" lon="-2.30139">
        <ele>2.5999999046326</ele>
        <time>2022-01-16T09:25:41.000Z</time>
      </trkpt>
      <trkpt lat="47.32499" lon="-2.30121">
        <ele>3</ele>
        <time>2022-01-16T09:25:44.000Z</time>
      </trkpt>
      <trkpt lat="47.32499" lon="-2.30115">
        <ele>3.4000000953674</ele>
        <time>2022-01-16T09:25:45.000Z</time>
      </trkpt>
      <trkpt lat="47.32498" lon="-2.3011">
        <ele>3.7999999523163</ele>
        <time>2022-01-16T09:25:46.000Z</time>
      </trkpt>
      <trkpt lat="47.32497" lon="-2.30104">
        <ele>4.1999998092651</ele>
        <time>2022-01-16T09:25:47.000Z</time>
      </trkpt>
      <trkpt lat="47.32496" lon="-2.30099">
        <ele>4.5999999046326</ele>
        <time>2022-01-16T09:25:48.000Z</time>
      </trkpt>
      <trkpt lat="47.32496" lon="-2.30075">
        <ele>4.5999999046326</ele>
        <time>2022-01-16T09:25:53.000Z</time>
      </trkpt>
      <trkpt lat="47.3249" lon="-2.30049">
        <ele>4.5999999046326</ele>
        <time>2022-01-16T09:25:58.000Z</time>
      </trkpt>
      <trkpt lat="47.32477" lon="-2.30009">
        <ele>4.5999999046326</ele>
        <time>2022-01-16T09:26:05.000Z</time>
      </trkpt>
      <trkpt lat="47.32474" lon="-2.30003">
        <ele>4.5999999046326</ele>
        <time>2022-01-16T09:26:06.000Z</time>
      </trkpt>
      <trkpt lat="47.32466" lon="-2.29989">
        <ele>4.5999999046326</ele>
        <time>2022-01-16T09:26:09.000Z</time>
      </trkpt>
      <trkpt lat="47.32445" lon="-2.29958">
        <ele>4.5999999046326</ele>
        <time>2022-01-16T09:26:16.000Z</time>
      </trkpt>
      <trkpt lat="47.32441" lon="-2.29946">
        <ele>4.5999999046326</ele>
        <time>2022-01-16T09:26:19.000Z</time>
      </trkpt>
      <trkpt lat="47.32442" lon="-2.29942">
        <ele>4.5999999046326</ele>
        <time>2022-01-16T09:26:20.000Z</time>
      </trkpt>
      <trkpt lat="47.32448" lon="-2.29921">
        <ele>4.5999999046326</ele>
        <time>2022-01-16T09:26:24.000Z</time>
      </trkpt>
      <trkpt lat="47.32447" lon="-2.29915">
        <ele>4.5999999046326</ele>
        <time>2022-01-16T09:26:25.000Z</time>
      </trkpt>
      <trkpt lat="47.32444" lon="-2.29895">
        <ele>4.5999999046326</ele>
        <time>2022-01-16T09:26:28.000Z</time>
      </trkpt>
      <trkpt lat="47.32441" lon="-2.29878">
        <ele>4.5999999046326</ele>
        <time>2022-01-16T09:26:31.000Z</time>
      </trkpt>
      <trkpt lat="47.32442" lon="-2.29869">
        <ele>4.5999999046326</ele>
        <time>2022-01-16T09:26:33.000Z</time>
      </trkpt>
      <trkpt lat="47.32443" lon="-2.29867">
        <ele>4.5999999046326</ele>
        <time>2022-01-16T09:26:34.000Z</time>
      </trkpt>
      <trkpt lat="47.32445" lon="-2.29867">
        <ele>4.5999999046326</ele>
        <time>2022-01-16T09:26:37.000Z</time>
      </trkpt>
      <trkpt lat="47.32447" lon="-2.29863">
        <ele>4.5999999046326</ele>
        <time>2022-01-16T09:27:42.000Z</time>
      </trkpt>
      <trkpt lat="47.32449" lon="-2.29862">
        <ele>4.5999999046326</ele>
        <time>2022-01-16T09:27:43.000Z</time>
      </trkpt>
      <trkpt lat="47.32457" lon="-2.29853">
        <ele>4.5999999046326</ele>
        <time>2022-01-16T09:27:49.000Z</time>
      </trkpt>
      <trkpt lat="47.32472" lon="-2.29839">
        <ele>4.5999999046326</ele>
        <time>2022-01-16T09:27:55.000Z</time>
      </trkpt>
      <trkpt lat="47.32493" lon="-2.2982">
        <ele>4.5999999046326</ele>
        <time>2022-01-16T09:28:01.000Z</time>
      </trkpt>
      <trkpt lat="47.3251" lon="-2.29806">
        <ele>4.5999999046326</ele>
        <time>2022-01-16T09:28:06.000Z</time>
      </trkpt>
      <trkpt lat="47.32538" lon="-2.29779">
        <ele>4.5999999046326</ele>
        <time>2022-01-16T09:28:12.000Z</time>
      </trkpt>
      <trkpt lat="47.32561" lon="-2.29754">
        <ele>4.5999999046326</ele>
        <time>2022-01-16T09:28:17.000Z</time>
      </trkpt>
      <trkpt lat="47.32591" lon="-2.29706">
        <ele>4.5999999046326</ele>
        <time>2022-01-16T09:28:24.000Z</time>
      </trkpt>
      <trkpt lat="47.32621" lon="-2.29654">
        <ele>4.1999998092651</ele>
        <time>2022-01-16T09:28:31.000Z</time>
      </trkpt>
      <trkpt lat="47.32625" lon="-2.29645">
        <ele>3.7999999523163</ele>
        <time>2022-01-16T09:28:32.000Z</time>
      </trkpt>
      <trkpt lat="47.3263" lon="-2.29637">
        <ele>3.4000000953674</ele>
        <time>2022-01-16T09:28:33.000Z</time>
      </trkpt>
      <trkpt lat="47.32635" lon="-2.29628">
        <ele>2.5999999046326</ele>
        <time>2022-01-16T09:28:34.000Z</time>
      </trkpt>
      <trkpt lat="47.32652" lon="-2.29588">
        <ele>2.2000000476837</ele>
        <time>2022-01-16T09:28:38.000Z</time>
      </trkpt>
      <trkpt lat="47.32656" lon="-2.29577">
        <ele>1.6000000238419</ele>
        <time>2022-01-16T09:28:39.000Z</time>
      </trkpt>
      <trkpt lat="47.32659" lon="-2.29567">
        <ele>1.2000000476837</ele>
        <time>2022-01-16T09:28:40.000Z</time>
      </trkpt>
      <trkpt lat="47.32662" lon="-2.29556">
        <ele>0.80000001192093</ele>
        <time>2022-01-16T09:28:41.000Z</time>
      </trkpt>
      <trkpt lat="47.32664" lon="-2.29546">
        <ele>0.40000000596046</ele>
        <time>2022-01-16T09:28:42.000Z</time>
      </trkpt>
      <trkpt lat="47.32666" lon="-2.29535">
        <ele>0.40000000596046</ele>
        <time>2022-01-16T09:28:43.000Z</time>
      </trkpt>
      <trkpt lat="47.32678" lon="-2.29483">
        <ele>-0.20000000298023</ele>
        <time>2022-01-16T09:28:48.000Z</time>
      </trkpt>
      <trkpt lat="47.3268" lon="-2.29473">
        <ele>-0.60000002384186</ele>
        <time>2022-01-16T09:28:49.000Z</time>
      </trkpt>
      <trkpt lat="47.32683" lon="-2.29463">
        <ele>-1</ele>
        <time>2022-01-16T09:28:50.000Z</time>
      </trkpt>
      <trkpt lat="47.32686" lon="-2.29453">
        <ele>-1.6000000238419</ele>
        <time>2022-01-16T09:28:51.000Z</time>
      </trkpt>
      <trkpt lat="47.32689" lon="-2.29444">
        <ele>-2</ele>
        <time>2022-01-16T09:28:52.000Z</time>
      </trkpt>
      <trkpt lat="47.32692" lon="-2.29437">
        <ele>-2</ele>
        <time>2022-01-16T09:28:53.000Z</time>
      </trkpt>
      <trkpt lat="47.32695" lon="-2.2943">
        <ele>-2</ele>
        <time>2022-01-16T09:28:54.000Z</time>
      </trkpt>
      <trkpt lat="47.32701" lon="-2.29422">
        <ele>-2</ele>
        <time>2022-01-16T09:28:56.000Z</time>
      </trkpt>
      <trkpt lat="47.32704" lon="-2.2942">
        <ele>-2</ele>
        <time>2022-01-16T09:28:57.000Z</time>
      </trkpt>
      <trkpt lat="47.32707" lon="-2.29418">
        <ele>-2.7999999523163</ele>
        <time>2022-01-16T09:28:58.000Z</time>
      </trkpt>
      <trkpt lat="47.3271" lon="-2.29415">
        <ele>-3.2000000476837</ele>
        <time>2022-01-16T09:28:59.000Z</time>
      </trkpt>
      <trkpt lat="47.32713" lon="-2.29414">
        <ele>-3.7999999523163</ele>
        <time>2022-01-16T09:29:00.000Z</time>
      </trkpt>
      <trkpt lat="47.32717" lon="-2.29412">
        <ele>-4.1999998092651</ele>
        <time>2022-01-16T09:29:01.000Z</time>
      </trkpt>
      <trkpt lat="47.3272" lon="-2.2941">
        <ele>-4.1999998092651</ele>
        <time>2022-01-16T09:29:02.000Z</time>
      </trkpt>
      <trkpt lat="47.32732" lon="-2.29401">
        <ele>-4.1999998092651</ele>
        <time>2022-01-16T09:29:05.000Z</time>
      </trkpt>
      <trkpt lat="47.32736" lon="-2.29398">
        <ele>-4.1999998092651</ele>
        <time>2022-01-16T09:29:06.000Z</time>
      </trkpt>
      <trkpt lat="47.32757" lon="-2.29382">
        <ele>-4.1999998092651</ele>
        <time>2022-01-16T09:29:11.000Z</time>
      </trkpt>
      <trkpt lat="47.32762" lon="-2.29377">
        <ele>-4.1999998092651</ele>
        <time>2022-01-16T09:29:12.000Z</time>
      </trkpt>
      <trkpt lat="47.32781" lon="-2.29351">
        <ele>-4.1999998092651</ele>
        <time>2022-01-16T09:29:17.000Z</time>
      </trkpt>
      <trkpt lat="47.32795" lon="-2.29325">
        <ele>-4.1999998092651</ele>
        <time>2022-01-16T09:29:21.000Z</time>
      </trkpt>
      <trkpt lat="47.32798" lon="-2.29318">
        <ele>-4.1999998092651</ele>
        <time>2022-01-16T09:29:22.000Z</time>
      </trkpt>
      <trkpt lat="47.3281" lon="-2.29278">
        <ele>-4.1999998092651</ele>
        <time>2022-01-16T09:29:27.000Z</time>
      </trkpt>
      <trkpt lat="47.32811" lon="-2.2927">
        <ele>-4.1999998092651</ele>
        <time>2022-01-16T09:29:28.000Z</time>
      </trkpt>
      <trkpt lat="47.32816" lon="-2.29248">
        <ele>-4.1999998092651</ele>
        <time>2022-01-16T09:29:32.000Z</time>
      </trkpt>
      <trkpt lat="47.32825" lon="-2.29253">
        <ele>-4.1999998092651</ele>
        <time>2022-01-16T09:29:35.000Z</time>
      </trkpt>
      <trkpt lat="47.32831" lon="-2.29261">
        <ele>-4.1999998092651</ele>
        <time>2022-01-16T09:29:37.000Z</time>
      </trkpt>
      <trkpt lat="47.3284" lon="-2.29277">
        <ele>-4.1999998092651</ele>
        <time>2022-01-16T09:29:40.000Z</time>
      </trkpt>
      <trkpt lat="47.32844" lon="-2.29281">
        <ele>-4.1999998092651</ele>
        <time>2022-01-16T09:29:41.000Z</time>
      </trkpt>
      <trkpt lat="47.3286" lon="-2.29299">
        <ele>-4.1999998092651</ele>
        <time>2022-01-16T09:29:45.000Z</time>
      </trkpt>
      <trkpt lat="47.32886" lon="-2.29327">
        <ele>-4.1999998092651</ele>
        <time>2022-01-16T09:29:51.000Z</time>
      </trkpt>
      <trkpt lat="47.32908" lon="-2.29349">
        <ele>-4.1999998092651</ele>
        <time>2022-01-16T09:29:56.000Z</time>
      </trkpt>
      <trkpt lat="47.32912" lon="-2.29353">
        <ele>-4.1999998092651</ele>
        <time>2022-01-16T09:29:57.000Z</time>
      </trkpt>
      <trkpt lat="47.3292" lon="-2.29362">
        <ele>-3.7999999523163</ele>
        <time>2022-01-16T09:29:59.000Z</time>
      </trkpt>
      <trkpt lat="47.32924" lon="-2.29366">
        <ele>-3.4000000953674</ele>
        <time>2022-01-16T09:30:00.000Z</time>
      </trkpt>
      <trkpt lat="47.32928" lon="-2.29371">
        <ele>-2.7999999523163</ele>
        <time>2022-01-16T09:30:01.000Z</time>
      </trkpt>
      <trkpt lat="47.32932" lon="-2.29376">
        <ele>-2.4000000953674</ele>
        <time>2022-01-16T09:30:02.000Z</time>
      </trkpt>
      <trkpt lat="47.32937" lon="-2.29381">
        <ele>-2</ele>
        <time>2022-01-16T09:30:03.000Z</time>
      </trkpt>
      <trkpt lat="47.3294" lon="-2.29387">
        <ele>-2</ele>
        <time>2022-01-16T09:30:04.000Z</time>
      </trkpt>
      <trkpt lat="47.32944" lon="-2.29392">
        <ele>-2</ele>
        <time>2022-01-16T09:30:05.000Z</time>
      </trkpt>
      <trkpt lat="47.32962" lon="-2.29434">
        <ele>-2</ele>
        <time>2022-01-16T09:30:11.000Z</time>
      </trkpt>
      <trkpt lat="47.3298" lon="-2.29486">
        <ele>-2</ele>
        <time>2022-01-16T09:30:18.000Z</time>
      </trkpt>
      <trkpt lat="47.32988" lon="-2.29509">
        <ele>-1.6000000238419</ele>
        <time>2022-01-16T09:30:21.000Z</time>
      </trkpt>
      <trkpt lat="47.3299" lon="-2.29517">
        <ele>-1.2000000476837</ele>
        <time>2022-01-16T09:30:22.000Z</time>
      </trkpt>
      <trkpt lat="47.32992" lon="-2.29525">
        <ele>-0.80000001192093</ele>
        <time>2022-01-16T09:30:23.000Z</time>
      </trkpt>
      <trkpt lat="47.32995" lon="-2.29533">
        <ele>-0.40000000596046</ele>
        <time>2022-01-16T09:30:24.000Z</time>
      </trkpt>
      <trkpt lat="47.32997" lon="-2.29541">
        <ele>13.1</ele>
        <time>2022-01-16T09:30:25.000Z</time>
      </trkpt>
      <trkpt lat="47.32998" lon="-2.29549">
        <ele>13.1</ele>
        <time>2022-01-16T09:30:26.000Z</time>
      </trkpt>
      <trkpt lat="47.33008" lon="-2.29622">
        <ele>11.4</ele>
        <time>2022-01-16T09:30:34.000Z</time>
      </trkpt>
      <trkpt lat="47.33013" lon="-2.29677">
        <ele>-0.40000000596046</ele>
        <time>2022-01-16T09:30:40.000Z</time>
      </trkpt>
      <trkpt lat="47.33014" lon="-2.29685">
        <ele>-0.80000001192093</ele>
        <time>2022-01-16T09:30:41.000Z</time>
      </trkpt>
      <trkpt lat="47.33014" lon="-2.29693">
        <ele>-1.2000000476837</ele>
        <time>2022-01-16T09:30:42.000Z</time>
      </trkpt>
      <trkpt lat="47.33015" lon="-2.29701">
        <ele>-1.6000000238419</ele>
        <time>2022-01-16T09:30:43.000Z</time>
      </trkpt>
      <trkpt lat="47.33018" lon="-2.29708">
        <ele>-2</ele>
        <time>2022-01-16T09:30:44.000Z</time>
      </trkpt>
      <trkpt lat="47.33021" lon="-2.29714">
        <ele>-2</ele>
        <time>2022-01-16T09:30:45.000Z</time>
      </trkpt>
      <trkpt lat="47.33032" lon="-2.29717">
        <ele>-2.5999999046326</ele>
        <time>2022-01-16T09:30:47.000Z</time>
      </trkpt>
      <trkpt lat="47.33038" lon="-2.29716">
        <ele>-3</ele>
        <time>2022-01-16T09:30:48.000Z</time>
      </trkpt>
      <trkpt lat="47.33044" lon="-2.29713">
        <ele>-3.4000000953674</ele>
        <time>2022-01-16T09:30:49.000Z</time>
      </trkpt>
      <trkpt lat="47.3305" lon="-2.29711">
        <ele>-3.7999999523163</ele>
        <time>2022-01-16T09:30:50.000Z</time>
      </trkpt>
      <trkpt lat="47.33056" lon="-2.29709">
        <ele>-4.1999998092651</ele>
        <time>2022-01-16T09:30:51.000Z</time>
      </trkpt>
      <trkpt lat="47.33081" lon="-2.29702">
        <ele>-4.1999998092651</ele>
        <time>2022-01-16T09:30:55.000Z</time>
      </trkpt>
      <trkpt lat="47.3314" lon="-2.29687">
        <ele>-4.1999998092651</ele>
        <time>2022-01-16T09:31:03.000Z</time>
      </trkpt>
      <trkpt lat="47.33147" lon="-2.29685">
        <ele>-4.5999999046326</ele>
        <time>2022-01-16T09:31:04.000Z</time>
      </trkpt>
      <trkpt lat="47.33154" lon="-2.29683">
        <ele>-5</ele>
        <time>2022-01-16T09:31:05.000Z</time>
      </trkpt>
      <trkpt lat="47.33162" lon="-2.29681">
        <ele>-5.4000000953674</ele>
        <time>2022-01-16T09:31:06.000Z</time>
      </trkpt>
      <trkpt lat="47.33169" lon="-2.29678">
        <ele>-5.8000001907349</ele>
        <time>2022-01-16T09:31:07.000Z</time>
      </trkpt>
      <trkpt lat="47.33177" lon="-2.29675">
        <ele>-6.1999998092651</ele>
        <time>2022-01-16T09:31:08.000Z</time>
      </trkpt>
      <trkpt lat="47.33192" lon="-2.29669">
        <ele>-6.1999998092651</ele>
        <time>2022-01-16T09:31:10.000Z</time>
      </trkpt>
      <trkpt lat="47.33206" lon="-2.29661">
        <ele>-6.1999998092651</ele>
        <time>2022-01-16T09:31:12.000Z</time>
      </trkpt>
      <trkpt lat="47.33223" lon="-2.29645">
        <ele>-6.1999998092651</ele>
        <time>2022-01-16T09:31:15.000Z</time>
      </trkpt>
      <trkpt lat="47.33233" lon="-2.2963">
        <ele>-6.1999998092651</ele>
        <time>2022-01-16T09:31:17.000Z</time>
      </trkpt>
      <trkpt lat="47.3324" lon="-2.29614">
        <ele>-6.1999998092651</ele>
        <time>2022-01-16T09:31:19.000Z</time>
      </trkpt>
      <trkpt lat="47.33256" lon="-2.29581">
        <ele>-6.1999998092651</ele>
        <time>2022-01-16T09:31:23.000Z</time>
      </trkpt>
      <trkpt lat="47.33261" lon="-2.29575">
        <ele>-6.1999998092651</ele>
        <time>2022-01-16T09:31:24.000Z</time>
      </trkpt>
      <trkpt lat="47.33284" lon="-2.29558">
        <ele>-6.1999998092651</ele>
        <time>2022-01-16T09:31:28.000Z</time>
      </trkpt>
      <trkpt lat="47.33331" lon="-2.29533">
        <ele>-6.1999998092651</ele>
        <time>2022-01-16T09:31:35.000Z</time>
      </trkpt>
      <trkpt lat="47.33373" lon="-2.29518">
        <ele>-6.5999999046326</ele>
        <time>2022-01-16T09:31:41.000Z</time>
      </trkpt>
      <trkpt lat="47.3338" lon="-2.29514">
        <ele>-7.1999998092651</ele>
        <time>2022-01-16T09:31:42.000Z</time>
      </trkpt>
      <trkpt lat="47.33387" lon="-2.2951">
        <ele>-7.5999999046326</ele>
        <time>2022-01-16T09:31:43.000Z</time>
      </trkpt>
      <trkpt lat="47.33395" lon="-2.29506">
        <ele>-8</ele>
        <time>2022-01-16T09:31:44.000Z</time>
      </trkpt>
      <trkpt lat="47.33402" lon="-2.29502">
        <ele>-8.3999996185303</ele>
        <time>2022-01-16T09:31:45.000Z</time>
      </trkpt>
      <trkpt lat="47.33423" lon="-2.29491">
        <ele>-8.3999996185303</ele>
        <time>2022-01-16T09:31:48.000Z</time>
      </trkpt>
      <trkpt lat="47.33459" lon="-2.2947">
        <ele>-8.3999996185303</ele>
        <time>2022-01-16T09:31:54.000Z</time>
      </trkpt>
      <trkpt lat="47.33496" lon="-2.29443">
        <ele>-8.3999996185303</ele>
        <time>2022-01-16T09:32:01.000Z</time>
      </trkpt>
      <trkpt lat="47.33532" lon="-2.29419">
        <ele>-8.3999996185303</ele>
        <time>2022-01-16T09:32:07.000Z</time>
      </trkpt>
      <trkpt lat="47.33588" lon="-2.29386">
        <ele>-8.3999996185303</ele>
        <time>2022-01-16T09:32:16.000Z</time>
      </trkpt>
      <trkpt lat="47.3363" lon="-2.29363">
        <ele>-8.3999996185303</ele>
        <time>2022-01-16T09:32:23.000Z</time>
      </trkpt>
      <trkpt lat="47.33678" lon="-2.29339">
        <ele>-8.3999996185303</ele>
        <time>2022-01-16T09:32:31.000Z</time>
      </trkpt>
      <trkpt lat="47.3372" lon="-2.29318">
        <ele>-8.3999996185303</ele>
        <time>2022-01-16T09:32:38.000Z</time>
      </trkpt>
      <trkpt lat="47.33756" lon="-2.29303">
        <ele>-8.3999996185303</ele>
        <time>2022-01-16T09:32:44.000Z</time>
      </trkpt>
      <trkpt lat="47.33792" lon="-2.29284">
        <ele>-8.3999996185303</ele>
        <time>2022-01-16T09:32:50.000Z</time>
      </trkpt>
      <trkpt lat="47.33798" lon="-2.29278">
        <ele>-8.3999996185303</ele>
        <time>2022-01-16T09:32:51.000Z</time>
      </trkpt>
      <trkpt lat="47.33807" lon="-2.29254">
        <ele>-8.3999996185303</ele>
        <time>2022-01-16T09:32:54.000Z</time>
      </trkpt>
      <trkpt lat="47.33809" lon="-2.29235">
        <ele>-8.3999996185303</ele>
        <time>2022-01-16T09:32:56.000Z</time>
      </trkpt>
      <trkpt lat="47.33813" lon="-2.29209">
        <ele>-8.3999996185303</ele>
        <time>2022-01-16T09:32:59.000Z</time>
      </trkpt>
      <trkpt lat="47.33814" lon="-2.29192">
        <ele>-8.8000001907349</ele>
        <time>2022-01-16T09:33:01.000Z</time>
      </trkpt>
      <trkpt lat="47.33814" lon="-2.29184">
        <ele>-9.1999998092651</ele>
        <time>2022-01-16T09:33:02.000Z</time>
      </trkpt>
      <trkpt lat="47.33815" lon="-2.29176">
        <ele>-9.6000003814697</ele>
        <time>2022-01-16T09:33:03.000Z</time>
      </trkpt>
      <trkpt lat="47.33815" lon="-2.29168">
        <ele>-10.39999961853</ele>
        <time>2022-01-16T09:33:04.000Z</time>
      </trkpt>
      <trkpt lat="47.33817" lon="-2.29151">
        <ele>-10.39999961853</ele>
        <time>2022-01-16T09:33:06.000Z</time>
      </trkpt>
      <trkpt lat="47.3382" lon="-2.29127">
        <ele>-10.39999961853</ele>
        <time>2022-01-16T09:33:09.000Z</time>
      </trkpt>
      <trkpt lat="47.33823" lon="-2.2912">
        <ele>-10.39999961853</ele>
        <time>2022-01-16T09:33:10.000Z</time>
      </trkpt>
      <trkpt lat="47.33841" lon="-2.29095">
        <ele>-10.39999961853</ele>
        <time>2022-01-16T09:33:15.000Z</time>
      </trkpt>
      <trkpt lat="47.33846" lon="-2.29091">
        <ele>-10.39999961853</ele>
        <time>2022-01-16T09:33:16.000Z</time>
      </trkpt>
      <trkpt lat="47.33878" lon="-2.29068">
        <ele>-10.39999961853</ele>
        <time>2022-01-16T09:33:22.000Z</time>
      </trkpt>
      <trkpt lat="47.33919" lon="-2.29041">
        <ele>-10.39999961853</ele>
        <time>2022-01-16T09:33:29.000Z</time>
      </trkpt>
      <trkpt lat="47.33956" lon="-2.29008">
        <ele>-10.39999961853</ele>
        <time>2022-01-16T09:33:35.000Z</time>
      </trkpt>
      <trkpt lat="47.3399" lon="-2.28979">
        <ele>-10.39999961853</ele>
        <time>2022-01-16T09:33:41.000Z</time>
      </trkpt>
      <trkpt lat="47.34025" lon="-2.28958">
        <ele>-10.39999961853</ele>
        <time>2022-01-16T09:33:47.000Z</time>
      </trkpt>
      <trkpt lat="47.34057" lon="-2.28946">
        <ele>-10.39999961853</ele>
        <time>2022-01-16T09:33:52.000Z</time>
      </trkpt>
      <trkpt lat="47.34097" lon="-2.28931">
        <ele>-10.39999961853</ele>
        <time>2022-01-16T09:33:58.000Z</time>
      </trkpt>
      <trkpt lat="47.34137" lon="-2.2891">
        <ele>-10.39999961853</ele>
        <time>2022-01-16T09:34:04.000Z</time>
      </trkpt>
      <trkpt lat="47.34168" lon="-2.28892">
        <ele>-10.39999961853</ele>
        <time>2022-01-16T09:34:09.000Z</time>
      </trkpt>
      <trkpt lat="47.34173" lon="-2.28888">
        <ele>-10.39999961853</ele>
        <time>2022-01-16T09:34:10.000Z</time>
      </trkpt>
      <trkpt lat="47.3418" lon="-2.28874">
        <ele>-10.39999961853</ele>
        <time>2022-01-16T09:34:12.000Z</time>
      </trkpt>
      <trkpt lat="47.34181" lon="-2.2885">
        <ele>-10.39999961853</ele>
        <time>2022-01-16T09:34:15.000Z</time>
      </trkpt>
      <trkpt lat="47.34178" lon="-2.28793">
        <ele>-10.39999961853</ele>
        <time>2022-01-16T09:34:21.000Z</time>
      </trkpt>
      <trkpt lat="47.34177" lon="-2.28747">
        <ele>-10.39999961853</ele>
        <time>2022-01-16T09:34:26.000Z</time>
      </trkpt>
      <trkpt lat="47.34174" lon="-2.28713">
        <ele>-10.39999961853</ele>
        <time>2022-01-16T09:34:30.000Z</time>
      </trkpt>
      <trkpt lat="47.34172" lon="-2.28705">
        <ele>-10.39999961853</ele>
        <time>2022-01-16T09:34:31.000Z</time>
      </trkpt>
      <trkpt lat="47.34161" lon="-2.28694">
        <ele>-10.39999961853</ele>
        <time>2022-01-16T09:34:34.000Z</time>
      </trkpt>
      <trkpt lat="47.34142" lon="-2.28692">
        <ele>-10.39999961853</ele>
        <time>2022-01-16T09:34:38.000Z</time>
      </trkpt>
      <trkpt lat="47.34137" lon="-2.28693">
        <ele>-10.39999961853</ele>
        <time>2022-01-16T09:34:39.000Z</time>
      </trkpt>
      <trkpt lat="47.34126" lon="-2.28694">
        <ele>-10.39999961853</ele>
        <time>2022-01-16T09:34:41.000Z</time>
      </trkpt>
      <trkpt lat="47.3412" lon="-2.28696">
        <ele>-10.39999961853</ele>
        <time>2022-01-16T09:34:42.000Z</time>
      </trkpt>
      <trkpt lat="47.34107" lon="-2.28714">
        <ele>-10.39999961853</ele>
        <time>2022-01-16T09:34:45.000Z</time>
      </trkpt>
      <trkpt lat="47.34104" lon="-2.28721">
        <ele>-10.39999961853</ele>
        <time>2022-01-16T09:34:46.000Z</time>
      </trkpt>
      <trkpt lat="47.341" lon="-2.28728">
        <ele>-10.39999961853</ele>
        <time>2022-01-16T09:34:47.000Z</time>
      </trkpt>
      <trkpt lat="47.3409" lon="-2.28735">
        <ele>-10.39999961853</ele>
        <time>2022-01-16T09:34:49.000Z</time>
      </trkpt>
      <trkpt lat="47.34072" lon="-2.28729">
        <ele>-10.39999961853</ele>
        <time>2022-01-16T09:34:52.000Z</time>
      </trkpt>
      <trkpt lat="47.34025" lon="-2.28713">
        <ele>-10.39999961853</ele>
        <time>2022-01-16T09:35:00.000Z</time>
      </trkpt>
      <trkpt lat="47.34015" lon="-2.28709">
        <ele>-10.39999961853</ele>
        <time>2022-01-16T09:35:02.000Z</time>
      </trkpt>
      <trkpt lat="47.34004" lon="-2.28701">
        <ele>-10.39999961853</ele>
        <time>2022-01-16T09:35:05.000Z</time>
      </trkpt>
      <trkpt lat="47.3399" lon="-2.28687">
        <ele>-10.39999961853</ele>
        <time>2022-01-16T09:35:10.000Z</time>
      </trkpt>
      <trkpt lat="47.33991" lon="-2.28666">
        <ele>-10.39999961853</ele>
        <time>2022-01-16T09:35:14.000Z</time>
      </trkpt>
      <trkpt lat="47.33998" lon="-2.28643">
        <ele>-10.39999961853</ele>
        <time>2022-01-16T09:35:20.000Z</time>
      </trkpt>
      <trkpt lat="47.34003" lon="-2.28636">
        <ele>-10.800000190735</ele>
        <time>2022-01-16T09:35:23.000Z</time>
      </trkpt>
      <trkpt lat="47.34004" lon="-2.28634">
        <ele>-11.199999809265</ele>
        <time>2022-01-16T09:35:24.000Z</time>
      </trkpt>
      <trkpt lat="47.34005" lon="-2.28633">
        <ele>-11.60000038147</ele>
        <time>2022-01-16T09:35:25.000Z</time>
      </trkpt>
      <trkpt lat="47.34005" lon="-2.28633">
        <ele>-12</ele>
        <time>2022-01-16T09:35:26.000Z</time>
      </trkpt>
      <trkpt lat="47.34006" lon="-2.28634">
        <ele>-14.39999961853</ele>
        <time>2022-01-16T09:50:15.000Z</time>
      </trkpt>
      <trkpt lat="47.34002" lon="-2.28636">
        <ele>-14.39999961853</ele>
        <time>2022-01-16T09:50:17.000Z</time>
      </trkpt>
      <trkpt lat="47.33985" lon="-2.28637">
        <ele>-14.39999961853</ele>
        <time>2022-01-16T09:50:24.000Z</time>
      </trkpt>
      <trkpt lat="47.33972" lon="-2.28624">
        <ele>-14.39999961853</ele>
        <time>2022-01-16T09:50:28.000Z</time>
      </trkpt>
      <trkpt lat="47.33954" lon="-2.286">
        <ele>-14.39999961853</ele>
        <time>2022-01-16T09:50:34.000Z</time>
      </trkpt>
      <trkpt lat="47.33933" lon="-2.28574">
        <ele>-14.39999961853</ele>
        <time>2022-01-16T09:50:40.000Z</time>
      </trkpt>
      <trkpt lat="47.33908" lon="-2.28546">
        <ele>-14.39999961853</ele>
        <time>2022-01-16T09:50:47.000Z</time>
      </trkpt>
      <trkpt lat="47.3389" lon="-2.28522">
        <ele>-14.39999961853</ele>
        <time>2022-01-16T09:50:53.000Z</time>
      </trkpt>
      <trkpt lat="47.33869" lon="-2.28496">
        <ele>-14.39999961853</ele>
        <time>2022-01-16T09:50:59.000Z</time>
      </trkpt>
      <trkpt lat="47.33866" lon="-2.28492">
        <ele>-14.39999961853</ele>
        <time>2022-01-16T09:51:00.000Z</time>
      </trkpt>
      <trkpt lat="47.33849" lon="-2.28471">
        <ele>-14.39999961853</ele>
        <time>2022-01-16T09:51:05.000Z</time>
      </trkpt>
      <trkpt lat="47.33833" lon="-2.28458">
        <ele>-14.39999961853</ele>
        <time>2022-01-16T09:51:10.000Z</time>
      </trkpt>
      <trkpt lat="47.33828" lon="-2.28458">
        <ele>-14.39999961853</ele>
        <time>2022-01-16T09:51:11.000Z</time>
      </trkpt>
      <trkpt lat="47.33819" lon="-2.28461">
        <ele>-14.39999961853</ele>
        <time>2022-01-16T09:51:13.000Z</time>
      </trkpt>
      <trkpt lat="47.33809" lon="-2.28468">
        <ele>-14.39999961853</ele>
        <time>2022-01-16T09:51:15.000Z</time>
      </trkpt>
      <trkpt lat="47.3379" lon="-2.2848">
        <ele>-14.39999961853</ele>
        <time>2022-01-16T09:51:19.000Z</time>
      </trkpt>
      <trkpt lat="47.33782" lon="-2.28487">
        <ele>-14.39999961853</ele>
        <time>2022-01-16T09:51:21.000Z</time>
      </trkpt>
      <trkpt lat="47.33768" lon="-2.28498">
        <ele>-14.39999961853</ele>
        <time>2022-01-16T09:51:24.000Z</time>
      </trkpt>
      <trkpt lat="47.33763" lon="-2.28501">
        <ele>-14.39999961853</ele>
        <time>2022-01-16T09:51:25.000Z</time>
      </trkpt>
      <trkpt lat="47.33737" lon="-2.28526">
        <ele>-14.39999961853</ele>
        <time>2022-01-16T09:51:31.000Z</time>
      </trkpt>
      <trkpt lat="47.33709" lon="-2.28549">
        <ele>-14.39999961853</ele>
        <time>2022-01-16T09:51:37.000Z</time>
      </trkpt>
      <trkpt lat="47.33682" lon="-2.28579">
        <ele>-14.39999961853</ele>
        <time>2022-01-16T09:51:43.000Z</time>
      </trkpt>
      <trkpt lat="47.33651" lon="-2.28616">
        <ele>-14.39999961853</ele>
        <time>2022-01-16T09:51:50.000Z</time>
      </trkpt>
      <trkpt lat="47.33623" lon="-2.28638">
        <ele>-14.39999961853</ele>
        <time>2022-01-16T09:51:55.000Z</time>
      </trkpt>
      <trkpt lat="47.33581" lon="-2.28659">
        <ele>-14.39999961853</ele>
        <time>2022-01-16T09:52:02.000Z</time>
      </trkpt>
      <trkpt lat="47.3354" lon="-2.28679">
        <ele>-14.39999961853</ele>
        <time>2022-01-16T09:52:09.000Z</time>
      </trkpt>
      <trkpt lat="47.33512" lon="-2.28695">
        <ele>-14.39999961853</ele>
        <time>2022-01-16T09:52:14.000Z</time>
      </trkpt>
      <trkpt lat="47.33507" lon="-2.287">
        <ele>-14.39999961853</ele>
        <time>2022-01-16T09:52:15.000Z</time>
      </trkpt>
      <trkpt lat="47.33494" lon="-2.28717">
        <ele>-14.39999961853</ele>
        <time>2022-01-16T09:52:19.000Z</time>
      </trkpt>
      <trkpt lat="47.3349" lon="-2.28723">
        <ele>-14.39999961853</ele>
        <time>2022-01-16T09:52:20.000Z</time>
      </trkpt>
      <trkpt lat="47.3348" lon="-2.28744">
        <ele>-14</ele>
        <time>2022-01-16T09:52:23.000Z</time>
      </trkpt>
      <trkpt lat="47.33477" lon="-2.28751">
        <ele>-13.60000038147</ele>
        <time>2022-01-16T09:52:24.000Z</time>
      </trkpt>
      <trkpt lat="47.33473" lon="-2.28758">
        <ele>-12.800000190735</ele>
        <time>2022-01-16T09:52:25.000Z</time>
      </trkpt>
      <trkpt lat="47.3347" lon="-2.28765">
        <ele>-12.39999961853</ele>
        <time>2022-01-16T09:52:26.000Z</time>
      </trkpt>
      <trkpt lat="47.33448" lon="-2.28812">
        <ele>-12.39999961853</ele>
        <time>2022-01-16T09:52:33.000Z</time>
      </trkpt>
      <trkpt lat="47.33426" lon="-2.28844">
        <ele>-12.39999961853</ele>
        <time>2022-01-16T09:52:39.000Z</time>
      </trkpt>
      <trkpt lat="47.33396" lon="-2.28868">
        <ele>-12.39999961853</ele>
        <time>2022-01-16T09:52:45.000Z</time>
      </trkpt>
      <trkpt lat="47.33369" lon="-2.28881">
        <ele>-11.60000038147</ele>
        <time>2022-01-16T09:52:50.000Z</time>
      </trkpt>
      <trkpt lat="47.33363" lon="-2.28883">
        <ele>-11.199999809265</ele>
        <time>2022-01-16T09:52:51.000Z</time>
      </trkpt>
      <trkpt lat="47.33358" lon="-2.28886">
        <ele>-10.800000190735</ele>
        <time>2022-01-16T09:52:52.000Z</time>
      </trkpt>
      <trkpt lat="47.33353" lon="-2.28889">
        <ele>-10.39999961853</ele>
        <time>2022-01-16T09:52:53.000Z</time>
      </trkpt>
      <trkpt lat="47.33326" lon="-2.28904">
        <ele>-10.39999961853</ele>
        <time>2022-01-16T09:52:58.000Z</time>
      </trkpt>
      <trkpt lat="47.3329" lon="-2.28928">
        <ele>-10.39999961853</ele>
        <time>2022-01-16T09:53:05.000Z</time>
      </trkpt>
      <trkpt lat="47.33257" lon="-2.28952">
        <ele>-10.39999961853</ele>
        <time>2022-01-16T09:53:12.000Z</time>
      </trkpt>
      <trkpt lat="47.33248" lon="-2.28961">
        <ele>-10.39999961853</ele>
        <time>2022-01-16T09:53:14.000Z</time>
      </trkpt>
      <trkpt lat="47.33245" lon="-2.28969">
        <ele>-9.6000003814697</ele>
        <time>2022-01-16T09:53:15.000Z</time>
      </trkpt>
      <trkpt lat="47.33243" lon="-2.28977">
        <ele>-9.1999998092651</ele>
        <time>2022-01-16T09:53:16.000Z</time>
      </trkpt>
      <trkpt lat="47.33242" lon="-2.28984">
        <ele>-8.8000001907349</ele>
        <time>2022-01-16T09:53:17.000Z</time>
      </trkpt>
      <trkpt lat="47.33241" lon="-2.28992">
        <ele>-8.3999996185303</ele>
        <time>2022-01-16T09:53:18.000Z</time>
      </trkpt>
      <trkpt lat="47.3324" lon="-2.29017">
        <ele>-8.3999996185303</ele>
        <time>2022-01-16T09:53:21.000Z</time>
      </trkpt>
      <trkpt lat="47.33234" lon="-2.29063">
        <ele>-8.3999996185303</ele>
        <time>2022-01-16T09:53:27.000Z</time>
      </trkpt>
      <trkpt lat="47.33231" lon="-2.2907">
        <ele>-8.3999996185303</ele>
        <time>2022-01-16T09:53:28.000Z</time>
      </trkpt>
      <trkpt lat="47.33222" lon="-2.29072">
        <ele>-8.3999996185303</ele>
        <time>2022-01-16T09:53:30.000Z</time>
      </trkpt>
      <trkpt lat="47.33214" lon="-2.29071">
        <ele>-8.3999996185303</ele>
        <time>2022-01-16T09:53:32.000Z</time>
      </trkpt>
      <trkpt lat="47.33209" lon="-2.29072">
        <ele>-8.3999996185303</ele>
        <time>2022-01-16T09:53:33.000Z</time>
      </trkpt>
      <trkpt lat="47.33201" lon="-2.29071">
        <ele>-8.3999996185303</ele>
        <time>2022-01-16T09:53:35.000Z</time>
      </trkpt>
      <trkpt lat="47.33166" lon="-2.29062">
        <ele>-8.3999996185303</ele>
        <time>2022-01-16T09:53:42.000Z</time>
      </trkpt>
      <trkpt lat="47.33141" lon="-2.2906">
        <ele>-8.3999996185303</ele>
        <time>2022-01-16T09:53:47.000Z</time>
      </trkpt>
      <trkpt lat="47.33136" lon="-2.29061">
        <ele>-8</ele>
        <time>2022-01-16T09:53:48.000Z</time>
      </trkpt>
      <trkpt lat="47.33132" lon="-2.29062">
        <ele>-7.5999999046326</ele>
        <time>2022-01-16T09:53:49.000Z</time>
      </trkpt>
      <trkpt lat="47.33124" lon="-2.29063">
        <ele>-6.5999999046326</ele>
        <time>2022-01-16T09:53:50.000Z</time>
      </trkpt>
      <trkpt lat="47.3312" lon="-2.29064">
        <ele>-6.1999998092651</ele>
        <time>2022-01-16T09:53:51.000Z</time>
      </trkpt>
      <trkpt lat="47.33102" lon="-2.29068">
        <ele>-6.1999998092651</ele>
        <time>2022-01-16T09:53:55.000Z</time>
      </trkpt>
      <trkpt lat="47.33098" lon="-2.29066">
        <ele>-6.1999998092651</ele>
        <time>2022-01-16T09:53:56.000Z</time>
      </trkpt>
      <trkpt lat="47.3309" lon="-2.2905">
        <ele>-6.1999998092651</ele>
        <time>2022-01-16T09:53:59.000Z</time>
      </trkpt>
      <trkpt lat="47.33093" lon="-2.2903">
        <ele>-6.1999998092651</ele>
        <time>2022-01-16T09:54:02.000Z</time>
      </trkpt>
      <trkpt lat="47.33095" lon="-2.29024">
        <ele>-6.1999998092651</ele>
        <time>2022-01-16T09:54:03.000Z</time>
      </trkpt>
      <trkpt lat="47.33097" lon="-2.29016">
        <ele>-6.1999998092651</ele>
        <time>2022-01-16T09:54:04.000Z</time>
      </trkpt>
      <trkpt lat="47.33101" lon="-2.29">
        <ele>-6.1999998092651</ele>
        <time>2022-01-16T09:54:06.000Z</time>
      </trkpt>
      <trkpt lat="47.33113" lon="-2.28939">
        <ele>-6.1999998092651</ele>
        <time>2022-01-16T09:54:13.000Z</time>
      </trkpt>
      <trkpt lat="47.33117" lon="-2.28899">
        <ele>-6.1999998092651</ele>
        <time>2022-01-16T09:54:18.000Z</time>
      </trkpt>
      <trkpt lat="47.33116" lon="-2.28876">
        <ele>-6.1999998092651</ele>
        <time>2022-01-16T09:54:21.000Z</time>
      </trkpt>
      <trkpt lat="47.33112" lon="-2.28862">
        <ele>-6.1999998092651</ele>
        <time>2022-01-16T09:54:23.000Z</time>
      </trkpt>
      <trkpt lat="47.33102" lon="-2.28823">
        <ele>-6.1999998092651</ele>
        <time>2022-01-16T09:54:28.000Z</time>
      </trkpt>
      <trkpt lat="47.33092" lon="-2.28818">
        <ele>-6.1999998092651</ele>
        <time>2022-01-16T09:54:30.000Z</time>
      </trkpt>
      <trkpt lat="47.33076" lon="-2.28826">
        <ele>-6.1999998092651</ele>
        <time>2022-01-16T09:54:33.000Z</time>
      </trkpt>
      <trkpt lat="47.33036" lon="-2.28845">
        <ele>-6.1999998092651</ele>
        <time>2022-01-16T09:54:40.000Z</time>
      </trkpt>
      <trkpt lat="47.32989" lon="-2.28877">
        <ele>-6.1999998092651</ele>
        <time>2022-01-16T09:54:48.000Z</time>
      </trkpt>
      <trkpt lat="47.32945" lon="-2.28916">
        <ele>-6.1999998092651</ele>
        <time>2022-01-16T09:54:56.000Z</time>
      </trkpt>
      <trkpt lat="47.32933" lon="-2.28927">
        <ele>-6.1999998092651</ele>
        <time>2022-01-16T09:54:58.000Z</time>
      </trkpt>
      <trkpt lat="47.32908" lon="-2.28943">
        <ele>-6.1999998092651</ele>
        <time>2022-01-16T09:55:02.000Z</time>
      </trkpt>
      <trkpt lat="47.32881" lon="-2.2894">
        <ele>-6.1999998092651</ele>
        <time>2022-01-16T09:55:06.000Z</time>
      </trkpt>
      <trkpt lat="47.32866" lon="-2.2894">
        <ele>-6.5999999046326</ele>
        <time>2022-01-16T09:55:08.000Z</time>
      </trkpt>
      <trkpt lat="47.32859" lon="-2.28943">
        <ele>-7</ele>
        <time>2022-01-16T09:55:09.000Z</time>
      </trkpt>
      <trkpt lat="47.32853" lon="-2.28947">
        <ele>-7.4000000953674</ele>
        <time>2022-01-16T09:55:10.000Z</time>
      </trkpt>
      <trkpt lat="47.32847" lon="-2.28953">
        <ele>-7.8000001907349</ele>
        <time>2022-01-16T09:55:11.000Z</time>
      </trkpt>
      <trkpt lat="47.32841" lon="-2.28958">
        <ele>-8.1999998092651</ele>
        <time>2022-01-16T09:55:12.000Z</time>
      </trkpt>
      <trkpt lat="47.32816" lon="-2.28979">
        <ele>-8.1999998092651</ele>
        <time>2022-01-16T09:55:16.000Z</time>
      </trkpt>
      <trkpt lat="47.32775" lon="-2.29005">
        <ele>-8.6000003814697</ele>
        <time>2022-01-16T09:55:23.000Z</time>
      </trkpt>
      <trkpt lat="47.32771" lon="-2.29006">
        <ele>-9.1999998092651</ele>
        <time>2022-01-16T09:55:24.000Z</time>
      </trkpt>
      <trkpt lat="47.32768" lon="-2.29006">
        <ele>-9.6000003814697</ele>
        <time>2022-01-16T09:55:25.000Z</time>
      </trkpt>
      <trkpt lat="47.32765" lon="-2.29004">
        <ele>-10</ele>
        <time>2022-01-16T09:55:26.000Z</time>
      </trkpt>
      <trkpt lat="47.32763" lon="-2.29">
        <ele>-10.39999961853</ele>
        <time>2022-01-16T09:55:27.000Z</time>
      </trkpt>
      <trkpt lat="47.32762" lon="-2.28987">
        <ele>-10.39999961853</ele>
        <time>2022-01-16T09:55:29.000Z</time>
      </trkpt>
      <trkpt lat="47.32764" lon="-2.28964">
        <ele>-10.39999961853</ele>
        <time>2022-01-16T09:55:32.000Z</time>
      </trkpt>
      <trkpt lat="47.32765" lon="-2.28948">
        <ele>-10.39999961853</ele>
        <time>2022-01-16T09:55:34.000Z</time>
      </trkpt>
      <trkpt lat="47.32772" lon="-2.28895">
        <ele>-10.39999961853</ele>
        <time>2022-01-16T09:55:40.000Z</time>
      </trkpt>
      <trkpt lat="47.32785" lon="-2.28848">
        <ele>-10.39999961853</ele>
        <time>2022-01-16T09:55:46.000Z</time>
      </trkpt>
      <trkpt lat="47.32797" lon="-2.288">
        <ele>-10.39999961853</ele>
        <time>2022-01-16T09:55:53.000Z</time>
      </trkpt>
      <trkpt lat="47.32798" lon="-2.28791">
        <ele>-10.39999961853</ele>
        <time>2022-01-16T09:55:54.000Z</time>
      </trkpt>
      <trkpt lat="47.32797" lon="-2.28756">
        <ele>-10.39999961853</ele>
        <time>2022-01-16T09:55:58.000Z</time>
      </trkpt>
      <trkpt lat="47.32796" lon="-2.28748">
        <ele>-10.39999961853</ele>
        <time>2022-01-16T09:55:59.000Z</time>
      </trkpt>
      <trkpt lat="47.32787" lon="-2.28688">
        <ele>-10.39999961853</ele>
        <time>2022-01-16T09:56:06.000Z</time>
      </trkpt>
      <trkpt lat="47.32785" lon="-2.2868">
        <ele>-10.39999961853</ele>
        <time>2022-01-16T09:56:07.000Z</time>
      </trkpt>
      <trkpt lat="47.32775" lon="-2.28659">
        <ele>-10.39999961853</ele>
        <time>2022-01-16T09:56:10.000Z</time>
      </trkpt>
      <trkpt lat="47.32772" lon="-2.28652">
        <ele>-10.39999961853</ele>
        <time>2022-01-16T09:56:11.000Z</time>
      </trkpt>
      <trkpt lat="47.32746" lon="-2.28601">
        <ele>-10.39999961853</ele>
        <time>2022-01-16T09:56:18.000Z</time>
      </trkpt>
      <trkpt lat="47.3273" lon="-2.2856">
        <ele>-10.39999961853</ele>
        <time>2022-01-16T09:56:23.000Z</time>
      </trkpt>
      <trkpt lat="47.32728" lon="-2.28551">
        <ele>-10.39999961853</ele>
        <time>2022-01-16T09:56:24.000Z</time>
      </trkpt>
      <trkpt lat="47.32723" lon="-2.28495">
        <ele>-10.39999961853</ele>
        <time>2022-01-16T09:56:30.000Z</time>
      </trkpt>
      <trkpt lat="47.32716" lon="-2.28413">
        <ele>-10.39999961853</ele>
        <time>2022-01-16T09:56:39.000Z</time>
      </trkpt>
      <trkpt lat="47.3271" lon="-2.28368">
        <ele>-10.800000190735</ele>
        <time>2022-01-16T09:56:44.000Z</time>
      </trkpt>
      <trkpt lat="47.32709" lon="-2.28359">
        <ele>-11.39999961853</ele>
        <time>2022-01-16T09:56:45.000Z</time>
      </trkpt>
      <trkpt lat="47.32708" lon="-2.2835">
        <ele>-11.800000190735</ele>
        <time>2022-01-16T09:56:46.000Z</time>
      </trkpt>
      <trkpt lat="47.32708" lon="-2.28342">
        <ele>-12.199999809265</ele>
        <time>2022-01-16T09:56:47.000Z</time>
      </trkpt>
      <trkpt lat="47.32707" lon="-2.28333">
        <ele>-12.800000190735</ele>
        <time>2022-01-16T09:56:48.000Z</time>
      </trkpt>
      <trkpt lat="47.32705" lon="-2.28317">
        <ele>-12.800000190735</ele>
        <time>2022-01-16T09:56:50.000Z</time>
      </trkpt>
      <trkpt lat="47.32699" lon="-2.2831">
        <ele>-12.800000190735</ele>
        <time>2022-01-16T09:56:52.000Z</time>
      </trkpt>
      <trkpt lat="47.32686" lon="-2.28318">
        <ele>-12.800000190735</ele>
        <time>2022-01-16T09:56:55.000Z</time>
      </trkpt>
      <trkpt lat="47.32653" lon="-2.28343">
        <ele>-12.800000190735</ele>
        <time>2022-01-16T09:57:01.000Z</time>
      </trkpt>
      <trkpt lat="47.32629" lon="-2.2834">
        <ele>-12.800000190735</ele>
        <time>2022-01-16T09:57:05.000Z</time>
      </trkpt>
      <trkpt lat="47.32619" lon="-2.2833">
        <ele>-12.800000190735</ele>
        <time>2022-01-16T09:57:07.000Z</time>
      </trkpt>
      <trkpt lat="47.32614" lon="-2.28325">
        <ele>-12.800000190735</ele>
        <time>2022-01-16T09:57:08.000Z</time>
      </trkpt>
      <trkpt lat="47.3261" lon="-2.28319">
        <ele>-12.800000190735</ele>
        <time>2022-01-16T09:57:09.000Z</time>
      </trkpt>
      <trkpt lat="47.32602" lon="-2.28295">
        <ele>-12.800000190735</ele>
        <time>2022-01-16T09:57:12.000Z</time>
      </trkpt>
      <trkpt lat="47.32599" lon="-2.28261">
        <ele>-13.199999809265</ele>
        <time>2022-01-16T09:57:15.000Z</time>
      </trkpt>
      <trkpt lat="47.32597" lon="-2.28251">
        <ele>-13.60000038147</ele>
        <time>2022-01-16T09:57:16.000Z</time>
      </trkpt>
      <trkpt lat="47.32595" lon="-2.28242">
        <ele>-14</ele>
        <time>2022-01-16T09:57:17.000Z</time>
      </trkpt>
      <trkpt lat="47.32594" lon="-2.28233">
        <ele>-14.39999961853</ele>
        <time>2022-01-16T09:57:18.000Z</time>
      </trkpt>
      <trkpt lat="47.32592" lon="-2.28223">
        <ele>-14.800000190735</ele>
        <time>2022-01-16T09:57:19.000Z</time>
      </trkpt>
      <trkpt lat="47.32582" lon="-2.28166">
        <ele>-14.800000190735</ele>
        <time>2022-01-16T09:57:25.000Z</time>
      </trkpt>
      <trkpt lat="47.32568" lon="-2.2809">
        <ele>-14.800000190735</ele>
        <time>2022-01-16T09:57:33.000Z</time>
      </trkpt>
      <trkpt lat="47.32556" lon="-2.28028">
        <ele>-14.800000190735</ele>
        <time>2022-01-16T09:57:40.000Z</time>
      </trkpt>
      <trkpt lat="47.32543" lon="-2.27966">
        <ele>-14.800000190735</ele>
        <time>2022-01-16T09:57:47.000Z</time>
      </trkpt>
      <trkpt lat="47.32526" lon="-2.27882">
        <ele>-14.800000190735</ele>
        <time>2022-01-16T09:57:57.000Z</time>
      </trkpt>
      <trkpt lat="47.32516" lon="-2.2785">
        <ele>-14.800000190735</ele>
        <time>2022-01-16T09:58:01.000Z</time>
      </trkpt>
      <trkpt lat="47.32507" lon="-2.27838">
        <ele>-14.800000190735</ele>
        <time>2022-01-16T09:58:03.000Z</time>
      </trkpt>
      <trkpt lat="47.32483" lon="-2.2783">
        <ele>-14.800000190735</ele>
        <time>2022-01-16T09:58:07.000Z</time>
      </trkpt>
      <trkpt lat="47.32477" lon="-2.2783">
        <ele>-14.800000190735</ele>
        <time>2022-01-16T09:58:08.000Z</time>
      </trkpt>
      <trkpt lat="47.32427" lon="-2.27832">
        <ele>-14.800000190735</ele>
        <time>2022-01-16T09:58:16.000Z</time>
      </trkpt>
      <trkpt lat="47.3239" lon="-2.27834">
        <ele>-14.800000190735</ele>
        <time>2022-01-16T09:58:22.000Z</time>
      </trkpt>
      <trkpt lat="47.32355" lon="-2.27835">
        <ele>-14.800000190735</ele>
        <time>2022-01-16T09:58:28.000Z</time>
      </trkpt>
      <trkpt lat="47.32325" lon="-2.27836">
        <ele>-14.800000190735</ele>
        <time>2022-01-16T09:58:34.000Z</time>
      </trkpt>
      <trkpt lat="47.3232" lon="-2.27823">
        <ele>-14.800000190735</ele>
        <time>2022-01-16T09:58:37.000Z</time>
      </trkpt>
      <trkpt lat="47.32325" lon="-2.27808">
        <ele>-14.800000190735</ele>
        <time>2022-01-16T09:58:40.000Z</time>
      </trkpt>
      <trkpt lat="47.32327" lon="-2.27802">
        <ele>-14.800000190735</ele>
        <time>2022-01-16T09:58:41.000Z</time>
      </trkpt>
      <trkpt lat="47.32334" lon="-2.27774">
        <ele>-14.800000190735</ele>
        <time>2022-01-16T09:58:45.000Z</time>
      </trkpt>
      <trkpt lat="47.32342" lon="-2.27728">
        <ele>-14.800000190735</ele>
        <time>2022-01-16T09:58:51.000Z</time>
      </trkpt>
      <trkpt lat="47.3235" lon="-2.27671">
        <ele>-14.800000190735</ele>
        <time>2022-01-16T09:58:58.000Z</time>
      </trkpt>
      <trkpt lat="47.32352" lon="-2.27657">
        <ele>-14.800000190735</ele>
        <time>2022-01-16T09:59:00.000Z</time>
      </trkpt>
      <trkpt lat="47.32357" lon="-2.27634">
        <ele>-14.800000190735</ele>
        <time>2022-01-16T09:59:03.000Z</time>
      </trkpt>
      <trkpt lat="47.32363" lon="-2.27585">
        <ele>-14.800000190735</ele>
        <time>2022-01-16T09:59:09.000Z</time>
      </trkpt>
      <trkpt lat="47.32365" lon="-2.27559">
        <ele>-14.800000190735</ele>
        <time>2022-01-16T09:59:12.000Z</time>
      </trkpt>
      <trkpt lat="47.32363" lon="-2.27541">
        <ele>-14.800000190735</ele>
        <time>2022-01-16T09:59:14.000Z</time>
      </trkpt>
      <trkpt lat="47.32355" lon="-2.27516">
        <ele>-14.800000190735</ele>
        <time>2022-01-16T09:59:17.000Z</time>
      </trkpt>
      <trkpt lat="47.3235" lon="-2.27511">
        <ele>-14.800000190735</ele>
        <time>2022-01-16T09:59:18.000Z</time>
      </trkpt>
      <trkpt lat="47.32333" lon="-2.27509">
        <ele>-14.800000190735</ele>
        <time>2022-01-16T09:59:21.000Z</time>
      </trkpt>
      <trkpt lat="47.323" lon="-2.27503">
        <ele>-14.800000190735</ele>
        <time>2022-01-16T09:59:27.000Z</time>
      </trkpt>
      <trkpt lat="47.32261" lon="-2.27501">
        <ele>-14.800000190735</ele>
        <time>2022-01-16T09:59:34.000Z</time>
      </trkpt>
      <trkpt lat="47.32246" lon="-2.27501">
        <ele>-14.800000190735</ele>
        <time>2022-01-16T09:59:37.000Z</time>
      </trkpt>
      <trkpt lat="47.32243" lon="-2.27497">
        <ele>-14.800000190735</ele>
        <time>2022-01-16T09:59:38.000Z</time>
      </trkpt>
      <trkpt lat="47.32238" lon="-2.27477">
        <ele>-14.800000190735</ele>
        <time>2022-01-16T09:59:41.000Z</time>
      </trkpt>
      <trkpt lat="47.3224" lon="-2.27462">
        <ele>-14.39999961853</ele>
        <time>2022-01-16T09:59:43.000Z</time>
      </trkpt>
      <trkpt lat="47.32241" lon="-2.27453">
        <ele>-14</ele>
        <time>2022-01-16T09:59:44.000Z</time>
      </trkpt>
      <trkpt lat="47.32243" lon="-2.27445">
        <ele>-13.60000038147</ele>
        <time>2022-01-16T09:59:45.000Z</time>
      </trkpt>
      <trkpt lat="47.32245" lon="-2.27436">
        <ele>-13</ele>
        <time>2022-01-16T09:59:46.000Z</time>
      </trkpt>
      <trkpt lat="47.32246" lon="-2.27427">
        <ele>-12.60000038147</ele>
        <time>2022-01-16T09:59:47.000Z</time>
      </trkpt>
      <trkpt lat="47.3225" lon="-2.27399">
        <ele>-12.60000038147</ele>
        <time>2022-01-16T09:59:50.000Z</time>
      </trkpt>
      <trkpt lat="47.3225" lon="-2.27381">
        <ele>-12.60000038147</ele>
        <time>2022-01-16T09:59:52.000Z</time>
      </trkpt>
      <trkpt lat="47.32249" lon="-2.27363">
        <ele>-12.60000038147</ele>
        <time>2022-01-16T09:59:54.000Z</time>
      </trkpt>
      <trkpt lat="47.32249" lon="-2.27336">
        <ele>-12.60000038147</ele>
        <time>2022-01-16T09:59:57.000Z</time>
      </trkpt>
      <trkpt lat="47.3225" lon="-2.27327">
        <ele>-12.60000038147</ele>
        <time>2022-01-16T09:59:58.000Z</time>
      </trkpt>
      <trkpt lat="47.32256" lon="-2.27313">
        <ele>-12.60000038147</ele>
        <time>2022-01-16T10:00:00.000Z</time>
      </trkpt>
      <trkpt lat="47.32272" lon="-2.27301">
        <ele>-12.60000038147</ele>
        <time>2022-01-16T10:00:03.000Z</time>
      </trkpt>
      <trkpt lat="47.32313" lon="-2.27278">
        <ele>-12.60000038147</ele>
        <time>2022-01-16T10:00:10.000Z</time>
      </trkpt>
      <trkpt lat="47.32343" lon="-2.27254">
        <ele>-12.60000038147</ele>
        <time>2022-01-16T10:00:16.000Z</time>
      </trkpt>
      <trkpt lat="47.32347" lon="-2.27248">
        <ele>-12.60000038147</ele>
        <time>2022-01-16T10:00:17.000Z</time>
      </trkpt>
      <trkpt lat="47.32355" lon="-2.27237">
        <ele>-12.60000038147</ele>
        <time>2022-01-16T10:00:19.000Z</time>
      </trkpt>
      <trkpt lat="47.3236" lon="-2.27223">
        <ele>-12.60000038147</ele>
        <time>2022-01-16T10:00:21.000Z</time>
      </trkpt>
      <trkpt lat="47.32363" lon="-2.27216">
        <ele>-12.199999809265</ele>
        <time>2022-01-16T10:00:22.000Z</time>
      </trkpt>
      <trkpt lat="47.32365" lon="-2.27208">
        <ele>-11.800000190735</ele>
        <time>2022-01-16T10:00:23.000Z</time>
      </trkpt>
      <trkpt lat="47.32368" lon="-2.27201">
        <ele>-11.39999961853</ele>
        <time>2022-01-16T10:00:24.000Z</time>
      </trkpt>
      <trkpt lat="47.3237" lon="-2.27193">
        <ele>-11</ele>
        <time>2022-01-16T10:00:25.000Z</time>
      </trkpt>
      <trkpt lat="47.32373" lon="-2.27186">
        <ele>-10.60000038147</ele>
        <time>2022-01-16T10:00:26.000Z</time>
      </trkpt>
      <trkpt lat="47.32379" lon="-2.27171">
        <ele>-10.60000038147</ele>
        <time>2022-01-16T10:00:28.000Z</time>
      </trkpt>
      <trkpt lat="47.32381" lon="-2.27162">
        <ele>-10.60000038147</ele>
        <time>2022-01-16T10:00:29.000Z</time>
      </trkpt>
      <trkpt lat="47.32385" lon="-2.27131">
        <ele>-10.60000038147</ele>
        <time>2022-01-16T10:00:32.000Z</time>
      </trkpt>
      <trkpt lat="47.32386" lon="-2.2711">
        <ele>-10.60000038147</ele>
        <time>2022-01-16T10:00:34.000Z</time>
      </trkpt>
      <trkpt lat="47.32385" lon="-2.27082">
        <ele>-10.60000038147</ele>
        <time>2022-01-16T10:00:37.000Z</time>
      </trkpt>
      <trkpt lat="47.32384" lon="-2.27034">
        <ele>-10.60000038147</ele>
        <time>2022-01-16T10:00:43.000Z</time>
      </trkpt>
      <trkpt lat="47.32385" lon="-2.27028">
        <ele>-10.60000038147</ele>
        <time>2022-01-16T10:00:44.000Z</time>
      </trkpt>
      <trkpt lat="47.32394" lon="-2.27023">
        <ele>-10.60000038147</ele>
        <time>2022-01-16T10:00:46.000Z</time>
      </trkpt>
      <trkpt lat="47.32406" lon="-2.27024">
        <ele>-10.60000038147</ele>
        <time>2022-01-16T10:00:48.000Z</time>
      </trkpt>
      <trkpt lat="47.32413" lon="-2.27025">
        <ele>-10.60000038147</ele>
        <time>2022-01-16T10:00:49.000Z</time>
      </trkpt>
      <trkpt lat="47.32444" lon="-2.27026">
        <ele>-11</ele>
        <time>2022-01-16T10:00:54.000Z</time>
      </trkpt>
      <trkpt lat="47.32449" lon="-2.27022">
        <ele>-11.39999961853</ele>
        <time>2022-01-16T10:00:55.000Z</time>
      </trkpt>
      <trkpt lat="47.32454" lon="-2.27014">
        <ele>-11.800000190735</ele>
        <time>2022-01-16T10:00:56.000Z</time>
      </trkpt>
      <trkpt lat="47.32456" lon="-2.27005">
        <ele>-12.199999809265</ele>
        <time>2022-01-16T10:00:57.000Z</time>
      </trkpt>
      <trkpt lat="47.32458" lon="-2.26995">
        <ele>-12.60000038147</ele>
        <time>2022-01-16T10:00:58.000Z</time>
      </trkpt>
      <trkpt lat="47.32457" lon="-2.26975">
        <ele>-12.60000038147</ele>
        <time>2022-01-16T10:01:00.000Z</time>
      </trkpt>
      <trkpt lat="47.32454" lon="-2.26958">
        <ele>-12.60000038147</ele>
        <time>2022-01-16T10:01:02.000Z</time>
      </trkpt>
      <trkpt lat="47.3245" lon="-2.26941">
        <ele>-12.60000038147</ele>
        <time>2022-01-16T10:01:04.000Z</time>
      </trkpt>
      <trkpt lat="47.32437" lon="-2.26875">
        <ele>-12.60000038147</ele>
        <time>2022-01-16T10:01:11.000Z</time>
      </trkpt>
      <trkpt lat="47.32428" lon="-2.26803">
        <ele>-12.60000038147</ele>
        <time>2022-01-16T10:01:18.000Z</time>
      </trkpt>
      <trkpt lat="47.32422" lon="-2.2673">
        <ele>-12.60000038147</ele>
        <time>2022-01-16T10:01:25.000Z</time>
      </trkpt>
      <trkpt lat="47.3242" lon="-2.26692">
        <ele>-12.60000038147</ele>
        <time>2022-01-16T10:01:29.000Z</time>
      </trkpt>
      <trkpt lat="47.32418" lon="-2.26674">
        <ele>-12.60000038147</ele>
        <time>2022-01-16T10:01:31.000Z</time>
      </trkpt>
      <trkpt lat="47.32411" lon="-2.2665">
        <ele>-12.60000038147</ele>
        <time>2022-01-16T10:01:34.000Z</time>
      </trkpt>
      <trkpt lat="47.32405" lon="-2.26633">
        <ele>-12.60000038147</ele>
        <time>2022-01-16T10:01:36.000Z</time>
      </trkpt>
      <trkpt lat="47.32394" lon="-2.26605">
        <ele>-12.60000038147</ele>
        <time>2022-01-16T10:01:40.000Z</time>
      </trkpt>
      <trkpt lat="47.32392" lon="-2.26597">
        <ele>-12.60000038147</ele>
        <time>2022-01-16T10:01:41.000Z</time>
      </trkpt>
      <trkpt lat="47.3238" lon="-2.26543">
        <ele>-12.60000038147</ele>
        <time>2022-01-16T10:01:48.000Z</time>
      </trkpt>
      <trkpt lat="47.32377" lon="-2.26536">
        <ele>-12.60000038147</ele>
        <time>2022-01-16T10:01:49.000Z</time>
      </trkpt>
      <trkpt lat="47.32367" lon="-2.2653">
        <ele>-12.60000038147</ele>
        <time>2022-01-16T10:01:51.000Z</time>
      </trkpt>
      <trkpt lat="47.32352" lon="-2.26536">
        <ele>-12.60000038147</ele>
        <time>2022-01-16T10:01:54.000Z</time>
      </trkpt>
      <trkpt lat="47.32347" lon="-2.2654">
        <ele>-12.60000038147</ele>
        <time>2022-01-16T10:01:55.000Z</time>
      </trkpt>
      <trkpt lat="47.32327" lon="-2.26556">
        <ele>-12.60000038147</ele>
        <time>2022-01-16T10:01:59.000Z</time>
      </trkpt>
      <trkpt lat="47.32318" lon="-2.26566">
        <ele>-12.60000038147</ele>
        <time>2022-01-16T10:02:01.000Z</time>
      </trkpt>
      <trkpt lat="47.3231" lon="-2.26577">
        <ele>-12.60000038147</ele>
        <time>2022-01-16T10:02:03.000Z</time>
      </trkpt>
      <trkpt lat="47.32292" lon="-2.26598">
        <ele>-12.60000038147</ele>
        <time>2022-01-16T10:02:07.000Z</time>
      </trkpt>
      <trkpt lat="47.32286" lon="-2.26602">
        <ele>-12.60000038147</ele>
        <time>2022-01-16T10:02:08.000Z</time>
      </trkpt>
      <trkpt lat="47.32274" lon="-2.26606">
        <ele>-12.60000038147</ele>
        <time>2022-01-16T10:02:10.000Z</time>
      </trkpt>
      <trkpt lat="47.32262" lon="-2.26608">
        <ele>-12.60000038147</ele>
        <time>2022-01-16T10:02:12.000Z</time>
      </trkpt>
      <trkpt lat="47.32245" lon="-2.26609">
        <ele>-12.60000038147</ele>
        <time>2022-01-16T10:02:15.000Z</time>
      </trkpt>
      <trkpt lat="47.3221" lon="-2.2661">
        <ele>-12.60000038147</ele>
        <time>2022-01-16T10:02:22.000Z</time>
      </trkpt>
      <trkpt lat="47.32178" lon="-2.26611">
        <ele>-12.199999809265</ele>
        <time>2022-01-16T10:02:28.000Z</time>
      </trkpt>
      <trkpt lat="47.32172" lon="-2.26611">
        <ele>-11.800000190735</ele>
        <time>2022-01-16T10:02:29.000Z</time>
      </trkpt>
      <trkpt lat="47.32166" lon="-2.2661">
        <ele>-11.39999961853</ele>
        <time>2022-01-16T10:02:30.000Z</time>
      </trkpt>
      <trkpt lat="47.3216" lon="-2.26609">
        <ele>-10.39999961853</ele>
        <time>2022-01-16T10:02:31.000Z</time>
      </trkpt>
      <trkpt lat="47.3213" lon="-2.266">
        <ele>-10.39999961853</ele>
        <time>2022-01-16T10:02:36.000Z</time>
      </trkpt>
      <trkpt lat="47.32093" lon="-2.26585">
        <ele>-10.39999961853</ele>
        <time>2022-01-16T10:02:43.000Z</time>
      </trkpt>
      <trkpt lat="47.32088" lon="-2.26584">
        <ele>-10.39999961853</ele>
        <time>2022-01-16T10:02:44.000Z</time>
      </trkpt>
      <trkpt lat="47.32065" lon="-2.26586">
        <ele>-10.39999961853</ele>
        <time>2022-01-16T10:02:48.000Z</time>
      </trkpt>
      <trkpt lat="47.32054" lon="-2.2659">
        <ele>-10.39999961853</ele>
        <time>2022-01-16T10:02:50.000Z</time>
      </trkpt>
      <trkpt lat="47.32037" lon="-2.266">
        <ele>-10.39999961853</ele>
        <time>2022-01-16T10:02:53.000Z</time>
      </trkpt>
      <trkpt lat="47.32" lon="-2.26627">
        <ele>-10.39999961853</ele>
        <time>2022-01-16T10:03:00.000Z</time>
      </trkpt>
      <trkpt lat="47.31974" lon="-2.26643">
        <ele>-10</ele>
        <time>2022-01-16T10:03:05.000Z</time>
      </trkpt>
      <trkpt lat="47.31969" lon="-2.26647">
        <ele>-9.6000003814697</ele>
        <time>2022-01-16T10:03:06.000Z</time>
      </trkpt>
      <trkpt lat="47.31965" lon="-2.26651">
        <ele>-9.1999998092651</ele>
        <time>2022-01-16T10:03:07.000Z</time>
      </trkpt>
      <trkpt lat="47.3196" lon="-2.26654">
        <ele>-8.8000001907349</ele>
        <time>2022-01-16T10:03:08.000Z</time>
      </trkpt>
      <trkpt lat="47.31955" lon="-2.26658">
        <ele>-8.3999996185303</ele>
        <time>2022-01-16T10:03:09.000Z</time>
      </trkpt>
      <trkpt lat="47.31926" lon="-2.2668">
        <ele>-8.3999996185303</ele>
        <time>2022-01-16T10:03:15.000Z</time>
      </trkpt>
      <trkpt lat="47.31886" lon="-2.26712">
        <ele>-8.3999996185303</ele>
        <time>2022-01-16T10:03:23.000Z</time>
      </trkpt>
      <trkpt lat="47.31858" lon="-2.26737">
        <ele>-8.3999996185303</ele>
        <time>2022-01-16T10:03:29.000Z</time>
      </trkpt>
      <trkpt lat="47.31853" lon="-2.26738">
        <ele>-8.3999996185303</ele>
        <time>2022-01-16T10:03:30.000Z</time>
      </trkpt>
      <trkpt lat="47.31831" lon="-2.26732">
        <ele>-8.3999996185303</ele>
        <time>2022-01-16T10:03:34.000Z</time>
      </trkpt>
      <trkpt lat="47.31819" lon="-2.26713">
        <ele>-8.3999996185303</ele>
        <time>2022-01-16T10:03:37.000Z</time>
      </trkpt>
      <trkpt lat="47.31814" lon="-2.26701">
        <ele>-8.3999996185303</ele>
        <time>2022-01-16T10:03:39.000Z</time>
      </trkpt>
      <trkpt lat="47.31807" lon="-2.26694">
        <ele>-8.3999996185303</ele>
        <time>2022-01-16T10:03:41.000Z</time>
      </trkpt>
      <trkpt lat="47.31803" lon="-2.26693">
        <ele>-8.3999996185303</ele>
        <time>2022-01-16T10:03:42.000Z</time>
      </trkpt>
      <trkpt lat="47.31795" lon="-2.26694">
        <ele>-8.3999996185303</ele>
        <time>2022-01-16T10:03:44.000Z</time>
      </trkpt>
      <trkpt lat="47.31785" lon="-2.26698">
        <ele>-8.3999996185303</ele>
        <time>2022-01-16T10:03:46.000Z</time>
      </trkpt>
      <trkpt lat="47.31769" lon="-2.26704">
        <ele>-8.3999996185303</ele>
        <time>2022-01-16T10:03:49.000Z</time>
      </trkpt>
      <trkpt lat="47.3174" lon="-2.26713">
        <ele>-9</ele>
        <time>2022-01-16T10:03:54.000Z</time>
      </trkpt>
      <trkpt lat="47.31734" lon="-2.26716">
        <ele>-9.3999996185303</ele>
        <time>2022-01-16T10:03:55.000Z</time>
      </trkpt>
      <trkpt lat="47.31728" lon="-2.26717">
        <ele>-9.8000001907349</ele>
        <time>2022-01-16T10:03:56.000Z</time>
      </trkpt>
      <trkpt lat="47.31724" lon="-2.26717">
        <ele>-10.199999809265</ele>
        <time>2022-01-16T10:03:57.000Z</time>
      </trkpt>
      <trkpt lat="47.3172" lon="-2.26718">
        <ele>-10.60000038147</ele>
        <time>2022-01-16T10:03:58.000Z</time>
      </trkpt>
      <trkpt lat="47.31717" lon="-2.26718">
        <ele>-10.60000038147</ele>
        <time>2022-01-16T10:03:59.000Z</time>
      </trkpt>
      <trkpt lat="47.31696" lon="-2.26722">
        <ele>-10.60000038147</ele>
        <time>2022-01-16T10:04:04.000Z</time>
      </trkpt>
      <trkpt lat="47.31691" lon="-2.26722">
        <ele>-10.60000038147</ele>
        <time>2022-01-16T10:04:05.000Z</time>
      </trkpt>
      <trkpt lat="47.31683" lon="-2.26722">
        <ele>-10.60000038147</ele>
        <time>2022-01-16T10:04:07.000Z</time>
      </trkpt>
      <trkpt lat="47.31672" lon="-2.26725">
        <ele>-10.60000038147</ele>
        <time>2022-01-16T10:04:10.000Z</time>
      </trkpt>
      <trkpt lat="47.31661" lon="-2.26728">
        <ele>-10.60000038147</ele>
        <time>2022-01-16T10:04:13.000Z</time>
      </trkpt>
      <trkpt lat="47.31658" lon="-2.26729">
        <ele>-10.60000038147</ele>
        <time>2022-01-16T10:04:14.000Z</time>
      </trkpt>
      <trkpt lat="47.31641" lon="-2.26742">
        <ele>-10.60000038147</ele>
        <time>2022-01-16T10:04:19.000Z</time>
      </trkpt>
      <trkpt lat="47.3162" lon="-2.26756">
        <ele>-10.60000038147</ele>
        <time>2022-01-16T10:04:24.000Z</time>
      </trkpt>
      <trkpt lat="47.31606" lon="-2.26756">
        <ele>-11</ele>
        <time>2022-01-16T10:04:27.000Z</time>
      </trkpt>
      <trkpt lat="47.31601" lon="-2.26755">
        <ele>-11.39999961853</ele>
        <time>2022-01-16T10:04:28.000Z</time>
      </trkpt>
      <trkpt lat="47.31596" lon="-2.26755">
        <ele>-11.800000190735</ele>
        <time>2022-01-16T10:04:29.000Z</time>
      </trkpt>
      <trkpt lat="47.3159" lon="-2.26755">
        <ele>-12.199999809265</ele>
        <time>2022-01-16T10:04:30.000Z</time>
      </trkpt>
      <trkpt lat="47.31585" lon="-2.26754">
        <ele>-12.60000038147</ele>
        <time>2022-01-16T10:04:31.000Z</time>
      </trkpt>
      <trkpt lat="47.3158" lon="-2.26755">
        <ele>-12.60000038147</ele>
        <time>2022-01-16T10:04:32.000Z</time>
      </trkpt>
      <trkpt lat="47.31576" lon="-2.26756">
        <ele>-12.60000038147</ele>
        <time>2022-01-16T10:04:33.000Z</time>
      </trkpt>
      <trkpt lat="47.31564" lon="-2.26773">
        <ele>-12.60000038147</ele>
        <time>2022-01-16T10:04:37.000Z</time>
      </trkpt>
      <trkpt lat="47.31557" lon="-2.26791">
        <ele>-12.60000038147</ele>
        <time>2022-01-16T10:04:40.000Z</time>
      </trkpt>
      <trkpt lat="47.31551" lon="-2.26801">
        <ele>-12.60000038147</ele>
        <time>2022-01-16T10:04:42.000Z</time>
      </trkpt>
      <trkpt lat="47.31549" lon="-2.26807">
        <ele>-12.60000038147</ele>
        <time>2022-01-16T10:04:43.000Z</time>
      </trkpt>
      <trkpt lat="47.31541" lon="-2.2683">
        <ele>-12.60000038147</ele>
        <time>2022-01-16T10:04:47.000Z</time>
      </trkpt>
      <trkpt lat="47.31538" lon="-2.26836">
        <ele>-12.60000038147</ele>
        <time>2022-01-16T10:04:48.000Z</time>
      </trkpt>
      <trkpt lat="47.31525" lon="-2.26863">
        <ele>-12.60000038147</ele>
        <time>2022-01-16T10:04:53.000Z</time>
      </trkpt>
      <trkpt lat="47.31515" lon="-2.2689">
        <ele>-12.60000038147</ele>
        <time>2022-01-16T10:04:59.000Z</time>
      </trkpt>
      <trkpt lat="47.31508" lon="-2.26913">
        <ele>-12.60000038147</ele>
        <time>2022-01-16T10:05:03.000Z</time>
      </trkpt>
      <trkpt lat="47.31507" lon="-2.2692">
        <ele>-12.60000038147</ele>
        <time>2022-01-16T10:05:04.000Z</time>
      </trkpt>
      <trkpt lat="47.315" lon="-2.2695">
        <ele>-12.60000038147</ele>
        <time>2022-01-16T10:05:09.000Z</time>
      </trkpt>
      <trkpt lat="47.3149" lon="-2.2698">
        <ele>-12.60000038147</ele>
        <time>2022-01-16T10:05:14.000Z</time>
      </trkpt>
      <trkpt lat="47.31476" lon="-2.26991">
        <ele>-12.60000038147</ele>
        <time>2022-01-16T10:05:17.000Z</time>
      </trkpt>
      <trkpt lat="47.31438" lon="-2.2702">
        <ele>-12.60000038147</ele>
        <time>2022-01-16T10:05:25.000Z</time>
      </trkpt>
      <trkpt lat="47.31408" lon="-2.27043">
        <ele>-12.199999809265</ele>
        <time>2022-01-16T10:05:32.000Z</time>
      </trkpt>
      <trkpt lat="47.31404" lon="-2.27045">
        <ele>-11.800000190735</ele>
        <time>2022-01-16T10:05:33.000Z</time>
      </trkpt>
      <trkpt lat="47.31399" lon="-2.27047">
        <ele>-11.39999961853</ele>
        <time>2022-01-16T10:05:34.000Z</time>
      </trkpt>
      <trkpt lat="47.31394" lon="-2.2705">
        <ele>-11</ele>
        <time>2022-01-16T10:05:35.000Z</time>
      </trkpt>
      <trkpt lat="47.3139" lon="-2.27053">
        <ele>-10.39999961853</ele>
        <time>2022-01-16T10:05:36.000Z</time>
      </trkpt>
      <trkpt lat="47.31366" lon="-2.27065">
        <ele>-10.39999961853</ele>
        <time>2022-01-16T10:05:41.000Z</time>
      </trkpt>
      <trkpt lat="47.31336" lon="-2.27074">
        <ele>-10.39999961853</ele>
        <time>2022-01-16T10:05:47.000Z</time>
      </trkpt>
      <trkpt lat="47.31331" lon="-2.27076">
        <ele>-10</ele>
        <time>2022-01-16T10:05:48.000Z</time>
      </trkpt>
      <trkpt lat="47.31326" lon="-2.27078">
        <ele>-9.6000003814697</ele>
        <time>2022-01-16T10:05:49.000Z</time>
      </trkpt>
      <trkpt lat="47.31321" lon="-2.27079">
        <ele>-9.1999998092651</ele>
        <time>2022-01-16T10:05:50.000Z</time>
      </trkpt>
      <trkpt lat="47.31316" lon="-2.27081">
        <ele>-8.8000001907349</ele>
        <time>2022-01-16T10:05:51.000Z</time>
      </trkpt>
      <trkpt lat="47.31311" lon="-2.27083">
        <ele>-8.3999996185303</ele>
        <time>2022-01-16T10:05:52.000Z</time>
      </trkpt>
      <trkpt lat="47.31306" lon="-2.27085">
        <ele>-8.3999996185303</ele>
        <time>2022-01-16T10:05:53.000Z</time>
      </trkpt>
      <trkpt lat="47.3128" lon="-2.27099">
        <ele>-8.3999996185303</ele>
        <time>2022-01-16T10:05:58.000Z</time>
      </trkpt>
      <trkpt lat="47.31243" lon="-2.27126">
        <ele>-8.3999996185303</ele>
        <time>2022-01-16T10:06:05.000Z</time>
      </trkpt>
      <trkpt lat="47.31207" lon="-2.27156">
        <ele>-8.3999996185303</ele>
        <time>2022-01-16T10:06:12.000Z</time>
      </trkpt>
      <trkpt lat="47.31175" lon="-2.27192">
        <ele>-8.3999996185303</ele>
        <time>2022-01-16T10:06:19.000Z</time>
      </trkpt>
      <trkpt lat="47.3113" lon="-2.27232">
        <ele>-8.3999996185303</ele>
        <time>2022-01-16T10:06:28.000Z</time>
      </trkpt>
      <trkpt lat="47.31096" lon="-2.27244">
        <ele>-8.3999996185303</ele>
        <time>2022-01-16T10:06:34.000Z</time>
      </trkpt>
      <trkpt lat="47.31055" lon="-2.27257">
        <ele>-8.3999996185303</ele>
        <time>2022-01-16T10:06:41.000Z</time>
      </trkpt>
      <trkpt lat="47.31044" lon="-2.27258">
        <ele>-8.3999996185303</ele>
        <time>2022-01-16T10:06:43.000Z</time>
      </trkpt>
      <trkpt lat="47.31026" lon="-2.27256">
        <ele>-8.3999996185303</ele>
        <time>2022-01-16T10:06:46.000Z</time>
      </trkpt>
      <trkpt lat="47.31021" lon="-2.27256">
        <ele>-8.3999996185303</ele>
        <time>2022-01-16T10:06:47.000Z</time>
      </trkpt>
      <trkpt lat="47.31011" lon="-2.27251">
        <ele>-8.3999996185303</ele>
        <time>2022-01-16T10:06:49.000Z</time>
      </trkpt>
      <trkpt lat="47.31009" lon="-2.27245">
        <ele>-8.3999996185303</ele>
        <time>2022-01-16T10:06:50.000Z</time>
      </trkpt>
      <trkpt lat="47.31005" lon="-2.27221">
        <ele>-8.3999996185303</ele>
        <time>2022-01-16T10:06:53.000Z</time>
      </trkpt>
      <trkpt lat="47.31004" lon="-2.27212">
        <ele>-8.3999996185303</ele>
        <time>2022-01-16T10:06:54.000Z</time>
      </trkpt>
      <trkpt lat="47.31001" lon="-2.27159">
        <ele>-8.3999996185303</ele>
        <time>2022-01-16T10:07:00.000Z</time>
      </trkpt>
      <trkpt lat="47.30998" lon="-2.27099">
        <ele>-8.3999996185303</ele>
        <time>2022-01-16T10:07:07.000Z</time>
      </trkpt>
      <trkpt lat="47.30995" lon="-2.27025">
        <ele>-8.3999996185303</ele>
        <time>2022-01-16T10:07:14.000Z</time>
      </trkpt>
      <trkpt lat="47.30993" lon="-2.27001">
        <ele>-8.8000001907349</ele>
        <time>2022-01-16T10:07:16.000Z</time>
      </trkpt>
      <trkpt lat="47.3099" lon="-2.26989">
        <ele>-9.1999998092651</ele>
        <time>2022-01-16T10:07:17.000Z</time>
      </trkpt>
      <trkpt lat="47.30986" lon="-2.26979">
        <ele>-9.6000003814697</ele>
        <time>2022-01-16T10:07:18.000Z</time>
      </trkpt>
      <trkpt lat="47.3098" lon="-2.26969">
        <ele>-10</ele>
        <time>2022-01-16T10:07:19.000Z</time>
      </trkpt>
      <trkpt lat="47.30973" lon="-2.2696">
        <ele>-10.39999961853</ele>
        <time>2022-01-16T10:07:20.000Z</time>
      </trkpt>
      <trkpt lat="47.30966" lon="-2.26953">
        <ele>-10.39999961853</ele>
        <time>2022-01-16T10:07:21.000Z</time>
      </trkpt>
      <trkpt lat="47.30959" lon="-2.26948">
        <ele>-11</ele>
        <time>2022-01-16T10:07:22.000Z</time>
      </trkpt>
      <trkpt lat="47.30952" lon="-2.26943">
        <ele>-11.39999961853</ele>
        <time>2022-01-16T10:07:23.000Z</time>
      </trkpt>
      <trkpt lat="47.30945" lon="-2.2694">
        <ele>-11.800000190735</ele>
        <time>2022-01-16T10:07:24.000Z</time>
      </trkpt>
      <trkpt lat="47.30938" lon="-2.26937">
        <ele>-12.199999809265</ele>
        <time>2022-01-16T10:07:25.000Z</time>
      </trkpt>
      <trkpt lat="47.30931" lon="-2.26935">
        <ele>-12.60000038147</ele>
        <time>2022-01-16T10:07:26.000Z</time>
      </trkpt>
      <trkpt lat="47.30914" lon="-2.26925">
        <ele>-12.60000038147</ele>
        <time>2022-01-16T10:07:29.000Z</time>
      </trkpt>
      <trkpt lat="47.30908" lon="-2.26924">
        <ele>-12.60000038147</ele>
        <time>2022-01-16T10:07:30.000Z</time>
      </trkpt>
      <trkpt lat="47.3089" lon="-2.26918">
        <ele>-12.60000038147</ele>
        <time>2022-01-16T10:07:33.000Z</time>
      </trkpt>
      <trkpt lat="47.30877" lon="-2.26918">
        <ele>-12.60000038147</ele>
        <time>2022-01-16T10:07:35.000Z</time>
      </trkpt>
      <trkpt lat="47.3086" lon="-2.26924">
        <ele>-12.60000038147</ele>
        <time>2022-01-16T10:07:38.000Z</time>
      </trkpt>
      <trkpt lat="47.30849" lon="-2.26928">
        <ele>-12.60000038147</ele>
        <time>2022-01-16T10:07:40.000Z</time>
      </trkpt>
      <trkpt lat="47.30815" lon="-2.26946">
        <ele>-12.60000038147</ele>
        <time>2022-01-16T10:07:46.000Z</time>
      </trkpt>
      <trkpt lat="47.30786" lon="-2.2695">
        <ele>-12.60000038147</ele>
        <time>2022-01-16T10:07:51.000Z</time>
      </trkpt>
      <trkpt lat="47.30752" lon="-2.26944">
        <ele>-12.60000038147</ele>
        <time>2022-01-16T10:07:57.000Z</time>
      </trkpt>
      <trkpt lat="47.30747" lon="-2.26941">
        <ele>-12.60000038147</ele>
        <time>2022-01-16T10:07:58.000Z</time>
      </trkpt>
      <trkpt lat="47.30737" lon="-2.26937">
        <ele>-12.199999809265</ele>
        <time>2022-01-16T10:08:00.000Z</time>
      </trkpt>
      <trkpt lat="47.30732" lon="-2.26934">
        <ele>-11.800000190735</ele>
        <time>2022-01-16T10:08:01.000Z</time>
      </trkpt>
      <trkpt lat="47.30726" lon="-2.26931">
        <ele>-11.39999961853</ele>
        <time>2022-01-16T10:08:02.000Z</time>
      </trkpt>
      <trkpt lat="47.30721" lon="-2.26928">
        <ele>-11</ele>
        <time>2022-01-16T10:08:03.000Z</time>
      </trkpt>
      <trkpt lat="47.30717" lon="-2.26924">
        <ele>-10.39999961853</ele>
        <time>2022-01-16T10:08:04.000Z</time>
      </trkpt>
      <trkpt lat="47.30704" lon="-2.26911">
        <ele>-10</ele>
        <time>2022-01-16T10:08:07.000Z</time>
      </trkpt>
      <trkpt lat="47.307" lon="-2.26906">
        <ele>-9.6000003814697</ele>
        <time>2022-01-16T10:08:08.000Z</time>
      </trkpt>
      <trkpt lat="47.30696" lon="-2.269">
        <ele>-9.1999998092651</ele>
        <time>2022-01-16T10:08:09.000Z</time>
      </trkpt>
      <trkpt lat="47.30692" lon="-2.26894">
        <ele>-8.8000001907349</ele>
        <time>2022-01-16T10:08:10.000Z</time>
      </trkpt>
      <trkpt lat="47.30688" lon="-2.26888">
        <ele>-8.3999996185303</ele>
        <time>2022-01-16T10:08:11.000Z</time>
      </trkpt>
      <trkpt lat="47.3067" lon="-2.26852">
        <ele>-8.3999996185303</ele>
        <time>2022-01-16T10:08:16.000Z</time>
      </trkpt>
      <trkpt lat="47.30654" lon="-2.26817">
        <ele>-8</ele>
        <time>2022-01-16T10:08:21.000Z</time>
      </trkpt>
      <trkpt lat="47.30652" lon="-2.2681">
        <ele>-7.5999999046326</ele>
        <time>2022-01-16T10:08:22.000Z</time>
      </trkpt>
      <trkpt lat="47.30648" lon="-2.26803">
        <ele>-7.1999998092651</ele>
        <time>2022-01-16T10:08:23.000Z</time>
      </trkpt>
      <trkpt lat="47.30645" lon="-2.26796">
        <ele>-6.8000001907349</ele>
        <time>2022-01-16T10:08:24.000Z</time>
      </trkpt>
      <trkpt lat="47.30642" lon="-2.26789">
        <ele>-6.4000000953674</ele>
        <time>2022-01-16T10:08:25.000Z</time>
      </trkpt>
      <trkpt lat="47.30628" lon="-2.26756">
        <ele>-6.4000000953674</ele>
        <time>2022-01-16T10:08:30.000Z</time>
      </trkpt>
      <trkpt lat="47.30618" lon="-2.26715">
        <ele>-6.4000000953674</ele>
        <time>2022-01-16T10:08:35.000Z</time>
      </trkpt>
      <trkpt lat="47.30617" lon="-2.26707">
        <ele>-6.4000000953674</ele>
        <time>2022-01-16T10:08:36.000Z</time>
      </trkpt>
      <trkpt lat="47.30608" lon="-2.26649">
        <ele>-6</ele>
        <time>2022-01-16T10:08:43.000Z</time>
      </trkpt>
      <trkpt lat="47.30607" lon="-2.2664">
        <ele>-5.5999999046326</ele>
        <time>2022-01-16T10:08:44.000Z</time>
      </trkpt>
      <trkpt lat="47.30606" lon="-2.26632">
        <ele>-5.1999998092651</ele>
        <time>2022-01-16T10:08:45.000Z</time>
      </trkpt>
      <trkpt lat="47.30605" lon="-2.26624">
        <ele>-4.8000001907349</ele>
        <time>2022-01-16T10:08:46.000Z</time>
      </trkpt>
      <trkpt lat="47.30604" lon="-2.26616">
        <ele>-4.4000000953674</ele>
        <time>2022-01-16T10:08:47.000Z</time>
      </trkpt>
      <trkpt lat="47.30594" lon="-2.26576">
        <ele>-4.4000000953674</ele>
        <time>2022-01-16T10:08:52.000Z</time>
      </trkpt>
      <trkpt lat="47.30577" lon="-2.2655">
        <ele>-4.4000000953674</ele>
        <time>2022-01-16T10:08:56.000Z</time>
      </trkpt>
      <trkpt lat="47.30561" lon="-2.26537">
        <ele>-4.4000000953674</ele>
        <time>2022-01-16T10:08:59.000Z</time>
      </trkpt>
      <trkpt lat="47.3055" lon="-2.2653">
        <ele>-4.4000000953674</ele>
        <time>2022-01-16T10:09:01.000Z</time>
      </trkpt>
      <trkpt lat="47.30511" lon="-2.26505">
        <ele>-4.4000000953674</ele>
        <time>2022-01-16T10:09:08.000Z</time>
      </trkpt>
      <trkpt lat="47.30502" lon="-2.26501">
        <ele>-4.8000001907349</ele>
        <time>2022-01-16T10:09:10.000Z</time>
      </trkpt>
      <trkpt lat="47.30499" lon="-2.26499">
        <ele>-5.1999998092651</ele>
        <time>2022-01-16T10:09:11.000Z</time>
      </trkpt>
      <trkpt lat="47.30496" lon="-2.26495">
        <ele>-5.8000001907349</ele>
        <time>2022-01-16T10:09:12.000Z</time>
      </trkpt>
      <trkpt lat="47.30494" lon="-2.26491">
        <ele>-6.1999998092651</ele>
        <time>2022-01-16T10:09:13.000Z</time>
      </trkpt>
      <trkpt lat="47.30493" lon="-2.26487">
        <ele>-6.5999999046326</ele>
        <time>2022-01-16T10:09:14.000Z</time>
      </trkpt>
      <trkpt lat="47.30493" lon="-2.26483">
        <ele>-6.5999999046326</ele>
        <time>2022-01-16T10:09:15.000Z</time>
      </trkpt>
      <trkpt lat="47.30499" lon="-2.26466">
        <ele>-6.5999999046326</ele>
        <time>2022-01-16T10:09:18.000Z</time>
      </trkpt>
      <trkpt lat="47.30512" lon="-2.26435">
        <ele>-6.5999999046326</ele>
        <time>2022-01-16T10:09:23.000Z</time>
      </trkpt>
      <trkpt lat="47.30515" lon="-2.26428">
        <ele>-6.5999999046326</ele>
        <time>2022-01-16T10:09:24.000Z</time>
      </trkpt>
      <trkpt lat="47.30534" lon="-2.26379">
        <ele>-6.5999999046326</ele>
        <time>2022-01-16T10:09:31.000Z</time>
      </trkpt>
      <trkpt lat="47.30546" lon="-2.2633">
        <ele>-6.5999999046326</ele>
        <time>2022-01-16T10:09:37.000Z</time>
      </trkpt>
      <trkpt lat="47.30565" lon="-2.26264">
        <ele>-6.5999999046326</ele>
        <time>2022-01-16T10:09:45.000Z</time>
      </trkpt>
      <trkpt lat="47.30579" lon="-2.26217">
        <ele>-6.5999999046326</ele>
        <time>2022-01-16T10:09:51.000Z</time>
      </trkpt>
      <trkpt lat="47.30591" lon="-2.26179">
        <ele>-6.5999999046326</ele>
        <time>2022-01-16T10:09:56.000Z</time>
      </trkpt>
      <trkpt lat="47.30594" lon="-2.26172">
        <ele>-6.5999999046326</ele>
        <time>2022-01-16T10:09:57.000Z</time>
      </trkpt>
      <trkpt lat="47.30597" lon="-2.26164">
        <ele>-6.5999999046326</ele>
        <time>2022-01-16T10:09:58.000Z</time>
      </trkpt>
      <trkpt lat="47.30612" lon="-2.26141">
        <ele>-6.5999999046326</ele>
        <time>2022-01-16T10:10:02.000Z</time>
      </trkpt>
      <trkpt lat="47.30634" lon="-2.26108">
        <ele>-6.5999999046326</ele>
        <time>2022-01-16T10:10:08.000Z</time>
      </trkpt>
      <trkpt lat="47.30638" lon="-2.26105">
        <ele>-6.5999999046326</ele>
        <time>2022-01-16T10:10:09.000Z</time>
      </trkpt>
      <trkpt lat="47.3067" lon="-2.26086">
        <ele>-6.5999999046326</ele>
        <time>2022-01-16T10:10:15.000Z</time>
      </trkpt>
      <trkpt lat="47.30723" lon="-2.26057">
        <ele>-6.5999999046326</ele>
        <time>2022-01-16T10:10:24.000Z</time>
      </trkpt>
      <trkpt lat="47.30728" lon="-2.26054">
        <ele>-6.1999998092651</ele>
        <time>2022-01-16T10:10:25.000Z</time>
      </trkpt>
      <trkpt lat="47.30734" lon="-2.26051">
        <ele>-5.8000001907349</ele>
        <time>2022-01-16T10:10:26.000Z</time>
      </trkpt>
      <trkpt lat="47.3074" lon="-2.26048">
        <ele>-5.4000000953674</ele>
        <time>2022-01-16T10:10:27.000Z</time>
      </trkpt>
      <trkpt lat="47.30746" lon="-2.26045">
        <ele>-5</ele>
        <time>2022-01-16T10:10:28.000Z</time>
      </trkpt>
      <trkpt lat="47.30752" lon="-2.26042">
        <ele>-4.4000000953674</ele>
        <time>2022-01-16T10:10:29.000Z</time>
      </trkpt>
      <trkpt lat="47.30764" lon="-2.26035">
        <ele>-4.4000000953674</ele>
        <time>2022-01-16T10:10:31.000Z</time>
      </trkpt>
      <trkpt lat="47.30797" lon="-2.26016">
        <ele>-4.4000000953674</ele>
        <time>2022-01-16T10:10:37.000Z</time>
      </trkpt>
      <trkpt lat="47.30829" lon="-2.25985">
        <ele>-4.4000000953674</ele>
        <time>2022-01-16T10:10:43.000Z</time>
      </trkpt>
      <trkpt lat="47.30864" lon="-2.25944">
        <ele>-4.4000000953674</ele>
        <time>2022-01-16T10:10:50.000Z</time>
      </trkpt>
      <trkpt lat="47.30902" lon="-2.25899">
        <ele>-4.4000000953674</ele>
        <time>2022-01-16T10:10:58.000Z</time>
      </trkpt>
      <trkpt lat="47.30911" lon="-2.25888">
        <ele>-4.4000000953674</ele>
        <time>2022-01-16T10:11:00.000Z</time>
      </trkpt>
      <trkpt lat="47.30914" lon="-2.25871">
        <ele>-4.4000000953674</ele>
        <time>2022-01-16T10:11:02.000Z</time>
      </trkpt>
      <trkpt lat="47.30907" lon="-2.2585">
        <ele>-4.4000000953674</ele>
        <time>2022-01-16T10:11:05.000Z</time>
      </trkpt>
      <trkpt lat="47.30904" lon="-2.25842">
        <ele>-4.4000000953674</ele>
        <time>2022-01-16T10:11:06.000Z</time>
      </trkpt>
      <trkpt lat="47.3089" lon="-2.258">
        <ele>-4.4000000953674</ele>
        <time>2022-01-16T10:11:12.000Z</time>
      </trkpt>
      <trkpt lat="47.30883" lon="-2.25778">
        <ele>-4.4000000953674</ele>
        <time>2022-01-16T10:11:15.000Z</time>
      </trkpt>
      <trkpt lat="47.30879" lon="-2.25753">
        <ele>-4.4000000953674</ele>
        <time>2022-01-16T10:11:18.000Z</time>
      </trkpt>
      <trkpt lat="47.30878" lon="-2.25745">
        <ele>-4.4000000953674</ele>
        <time>2022-01-16T10:11:19.000Z</time>
      </trkpt>
      <trkpt lat="47.30877" lon="-2.25692">
        <ele>-4.4000000953674</ele>
        <time>2022-01-16T10:11:25.000Z</time>
      </trkpt>
      <trkpt lat="47.30874" lon="-2.25629">
        <ele>-4.4000000953674</ele>
        <time>2022-01-16T10:11:32.000Z</time>
      </trkpt>
      <trkpt lat="47.30867" lon="-2.25566">
        <ele>-4.4000000953674</ele>
        <time>2022-01-16T10:11:39.000Z</time>
      </trkpt>
      <trkpt lat="47.30862" lon="-2.25521">
        <ele>-4.4000000953674</ele>
        <time>2022-01-16T10:11:44.000Z</time>
      </trkpt>
      <trkpt lat="47.30855" lon="-2.25456">
        <ele>-4.4000000953674</ele>
        <time>2022-01-16T10:11:51.000Z</time>
      </trkpt>
      <trkpt lat="47.30853" lon="-2.2544">
        <ele>-5</ele>
        <time>2022-01-16T10:11:53.000Z</time>
      </trkpt>
      <trkpt lat="47.30852" lon="-2.25433">
        <ele>-5.4000000953674</ele>
        <time>2022-01-16T10:11:54.000Z</time>
      </trkpt>
      <trkpt lat="47.30852" lon="-2.25427">
        <ele>-5.8000001907349</ele>
        <time>2022-01-16T10:11:55.000Z</time>
      </trkpt>
      <trkpt lat="47.30852" lon="-2.25421">
        <ele>-6.1999998092651</ele>
        <time>2022-01-16T10:11:56.000Z</time>
      </trkpt>
      <trkpt lat="47.30852" lon="-2.25414">
        <ele>-6.5999999046326</ele>
        <time>2022-01-16T10:11:57.000Z</time>
      </trkpt>
      <trkpt lat="47.30853" lon="-2.25406">
        <ele>-6.5999999046326</ele>
        <time>2022-01-16T10:11:58.000Z</time>
      </trkpt>
      <trkpt lat="47.30853" lon="-2.25381">
        <ele>-6.5999999046326</ele>
        <time>2022-01-16T10:12:01.000Z</time>
      </trkpt>
      <trkpt lat="47.3085" lon="-2.25356">
        <ele>-6.5999999046326</ele>
        <time>2022-01-16T10:12:04.000Z</time>
      </trkpt>
      <trkpt lat="47.30845" lon="-2.25333">
        <ele>-6.5999999046326</ele>
        <time>2022-01-16T10:12:07.000Z</time>
      </trkpt>
      <trkpt lat="47.30842" lon="-2.25308">
        <ele>-6.5999999046326</ele>
        <time>2022-01-16T10:12:10.000Z</time>
      </trkpt>
      <trkpt lat="47.30843" lon="-2.25284">
        <ele>-6.5999999046326</ele>
        <time>2022-01-16T10:12:13.000Z</time>
      </trkpt>
      <trkpt lat="47.30845" lon="-2.25276">
        <ele>-6.5999999046326</ele>
        <time>2022-01-16T10:12:14.000Z</time>
      </trkpt>
      <trkpt lat="47.30856" lon="-2.25258">
        <ele>-6.5999999046326</ele>
        <time>2022-01-16T10:12:17.000Z</time>
      </trkpt>
      <trkpt lat="47.30867" lon="-2.2525">
        <ele>-6.5999999046326</ele>
        <time>2022-01-16T10:12:19.000Z</time>
      </trkpt>
      <trkpt lat="47.30878" lon="-2.25243">
        <ele>-6.5999999046326</ele>
        <time>2022-01-16T10:12:21.000Z</time>
      </trkpt>
      <trkpt lat="47.3089" lon="-2.25234">
        <ele>-7</ele>
        <time>2022-01-16T10:12:23.000Z</time>
      </trkpt>
      <trkpt lat="47.30895" lon="-2.25229">
        <ele>-7.4000000953674</ele>
        <time>2022-01-16T10:12:24.000Z</time>
      </trkpt>
      <trkpt lat="47.30901" lon="-2.25226">
        <ele>-7.8000001907349</ele>
        <time>2022-01-16T10:12:25.000Z</time>
      </trkpt>
      <trkpt lat="47.30906" lon="-2.25221">
        <ele>-8.3999996185303</ele>
        <time>2022-01-16T10:12:26.000Z</time>
      </trkpt>
      <trkpt lat="47.30912" lon="-2.25217">
        <ele>-8.8000001907349</ele>
        <time>2022-01-16T10:12:27.000Z</time>
      </trkpt>
      <trkpt lat="47.30914" lon="-2.25213">
        <ele>-8.8000001907349</ele>
        <time>2022-01-16T10:12:28.000Z</time>
      </trkpt>
      <trkpt lat="47.30916" lon="-2.25198">
        <ele>-8.8000001907349</ele>
        <time>2022-01-16T10:12:31.000Z</time>
      </trkpt>
      <trkpt lat="47.30907" lon="-2.25188">
        <ele>-8.8000001907349</ele>
        <time>2022-01-16T10:12:33.000Z</time>
      </trkpt>
      <trkpt lat="47.30903" lon="-2.25181">
        <ele>-8.8000001907349</ele>
        <time>2022-01-16T10:12:34.000Z</time>
      </trkpt>
      <trkpt lat="47.30894" lon="-2.25145">
        <ele>-8.8000001907349</ele>
        <time>2022-01-16T10:12:38.000Z</time>
      </trkpt>
      <trkpt lat="47.30886" lon="-2.25094">
        <ele>-9.1999998092651</ele>
        <time>2022-01-16T10:12:43.000Z</time>
      </trkpt>
      <trkpt lat="47.30885" lon="-2.25083">
        <ele>-9.6000003814697</ele>
        <time>2022-01-16T10:12:44.000Z</time>
      </trkpt>
      <trkpt lat="47.30883" lon="-2.25073">
        <ele>-10</ele>
        <time>2022-01-16T10:12:45.000Z</time>
      </trkpt>
      <trkpt lat="47.30882" lon="-2.25063">
        <ele>-10.800000190735</ele>
        <time>2022-01-16T10:12:46.000Z</time>
      </trkpt>
      <trkpt lat="47.30877" lon="-2.25024">
        <ele>-11.199999809265</ele>
        <time>2022-01-16T10:12:50.000Z</time>
      </trkpt>
      <trkpt lat="47.30877" lon="-2.25016">
        <ele>-11.60000038147</ele>
        <time>2022-01-16T10:12:51.000Z</time>
      </trkpt>
      <trkpt lat="47.30876" lon="-2.25007">
        <ele>-12</ele>
        <time>2022-01-16T10:12:52.000Z</time>
      </trkpt>
      <trkpt lat="47.30874" lon="-2.24999">
        <ele>-12.39999961853</ele>
        <time>2022-01-16T10:12:53.000Z</time>
      </trkpt>
      <trkpt lat="47.30873" lon="-2.24993">
        <ele>-12.800000190735</ele>
        <time>2022-01-16T10:12:54.000Z</time>
      </trkpt>
      <trkpt lat="47.30871" lon="-2.24985">
        <ele>-12.800000190735</ele>
        <time>2022-01-16T10:12:55.000Z</time>
      </trkpt>
      <trkpt lat="47.30864" lon="-2.24964">
        <ele>-12.800000190735</ele>
        <time>2022-01-16T10:12:58.000Z</time>
      </trkpt>
      <trkpt lat="47.30855" lon="-2.2495">
        <ele>-12.800000190735</ele>
        <time>2022-01-16T10:13:00.000Z</time>
      </trkpt>
      <trkpt lat="47.3085" lon="-2.24945">
        <ele>-12.800000190735</ele>
        <time>2022-01-16T10:13:01.000Z</time>
      </trkpt>
      <trkpt lat="47.3084" lon="-2.24937">
        <ele>-12.800000190735</ele>
        <time>2022-01-16T10:13:03.000Z</time>
      </trkpt>
      <trkpt lat="47.30835" lon="-2.24934">
        <ele>-12.800000190735</ele>
        <time>2022-01-16T10:13:04.000Z</time>
      </trkpt>
      <trkpt lat="47.30829" lon="-2.24932">
        <ele>-12.800000190735</ele>
        <time>2022-01-16T10:13:05.000Z</time>
      </trkpt>
      <trkpt lat="47.30805" lon="-2.24921">
        <ele>-12.800000190735</ele>
        <time>2022-01-16T10:13:09.000Z</time>
      </trkpt>
      <trkpt lat="47.30758" lon="-2.24898">
        <ele>-12.800000190735</ele>
        <time>2022-01-16T10:13:17.000Z</time>
      </trkpt>
      <trkpt lat="47.30726" lon="-2.24873">
        <ele>-12.800000190735</ele>
        <time>2022-01-16T10:13:23.000Z</time>
      </trkpt>
      <trkpt lat="47.30711" lon="-2.24846">
        <ele>-12.800000190735</ele>
        <time>2022-01-16T10:13:27.000Z</time>
      </trkpt>
      <trkpt lat="47.30686" lon="-2.24806">
        <ele>-12.800000190735</ele>
        <time>2022-01-16T10:13:33.000Z</time>
      </trkpt>
      <trkpt lat="47.30662" lon="-2.24775">
        <ele>-12.800000190735</ele>
        <time>2022-01-16T10:13:38.000Z</time>
      </trkpt>
      <trkpt lat="47.30658" lon="-2.24769">
        <ele>-12.800000190735</ele>
        <time>2022-01-16T10:13:39.000Z</time>
      </trkpt>
      <trkpt lat="47.30643" lon="-2.24728">
        <ele>-12.800000190735</ele>
        <time>2022-01-16T10:13:44.000Z</time>
      </trkpt>
      <trkpt lat="47.30624" lon="-2.2467">
        <ele>-12.800000190735</ele>
        <time>2022-01-16T10:13:51.000Z</time>
      </trkpt>
      <trkpt lat="47.3061" lon="-2.24605">
        <ele>-12.800000190735</ele>
        <time>2022-01-16T10:13:59.000Z</time>
      </trkpt>
      <trkpt lat="47.30615" lon="-2.24564">
        <ele>-12.800000190735</ele>
        <time>2022-01-16T10:14:04.000Z</time>
      </trkpt>
      <trkpt lat="47.3062" lon="-2.24526">
        <ele>-12.39999961853</ele>
        <time>2022-01-16T10:14:09.000Z</time>
      </trkpt>
      <trkpt lat="47.3062" lon="-2.2452">
        <ele>-11.800000190735</ele>
        <time>2022-01-16T10:14:10.000Z</time>
      </trkpt>
      <trkpt lat="47.30621" lon="-2.24513">
        <ele>-11.39999961853</ele>
        <time>2022-01-16T10:14:11.000Z</time>
      </trkpt>
      <trkpt lat="47.30622" lon="-2.24506">
        <ele>-11</ele>
        <time>2022-01-16T10:14:12.000Z</time>
      </trkpt>
      <trkpt lat="47.30623" lon="-2.24499">
        <ele>-10.60000038147</ele>
        <time>2022-01-16T10:14:13.000Z</time>
      </trkpt>
      <trkpt lat="47.30626" lon="-2.24479">
        <ele>-10.199999809265</ele>
        <time>2022-01-16T10:14:16.000Z</time>
      </trkpt>
      <trkpt lat="47.30627" lon="-2.24472">
        <ele>-9.8000001907349</ele>
        <time>2022-01-16T10:14:17.000Z</time>
      </trkpt>
      <trkpt lat="47.30628" lon="-2.24465">
        <ele>-9.1999998092651</ele>
        <time>2022-01-16T10:14:18.000Z</time>
      </trkpt>
      <trkpt lat="47.30629" lon="-2.24459">
        <ele>-8.8000001907349</ele>
        <time>2022-01-16T10:14:19.000Z</time>
      </trkpt>
      <trkpt lat="47.3063" lon="-2.24453">
        <ele>-8.3999996185303</ele>
        <time>2022-01-16T10:14:20.000Z</time>
      </trkpt>
      <trkpt lat="47.3063" lon="-2.24447">
        <ele>-8.3999996185303</ele>
        <time>2022-01-16T10:14:21.000Z</time>
      </trkpt>
      <trkpt lat="47.30632" lon="-2.24436">
        <ele>-8</ele>
        <time>2022-01-16T10:14:23.000Z</time>
      </trkpt>
      <trkpt lat="47.30632" lon="-2.2443">
        <ele>-7.1999998092651</ele>
        <time>2022-01-16T10:14:24.000Z</time>
      </trkpt>
      <trkpt lat="47.3063" lon="-2.24427">
        <ele>-6.8000001907349</ele>
        <time>2022-01-16T10:14:25.000Z</time>
      </trkpt>
      <trkpt lat="47.30628" lon="-2.24424">
        <ele>-6.4000000953674</ele>
        <time>2022-01-16T10:14:26.000Z</time>
      </trkpt>
      <trkpt lat="47.30623" lon="-2.24421">
        <ele>-6</ele>
        <time>2022-01-16T10:14:28.000Z</time>
      </trkpt>
      <trkpt lat="47.30619" lon="-2.24419">
        <ele>-5.5999999046326</ele>
        <time>2022-01-16T10:14:29.000Z</time>
      </trkpt>
      <trkpt lat="47.30616" lon="-2.24417">
        <ele>-5.1999998092651</ele>
        <time>2022-01-16T10:14:30.000Z</time>
      </trkpt>
      <trkpt lat="47.30612" lon="-2.24416">
        <ele>-4.8000001907349</ele>
        <time>2022-01-16T10:14:31.000Z</time>
      </trkpt>
      <trkpt lat="47.30608" lon="-2.24414">
        <ele>-4.4000000953674</ele>
        <time>2022-01-16T10:14:32.000Z</time>
      </trkpt>
      <trkpt lat="47.30596" lon="-2.24406">
        <ele>-4.4000000953674</ele>
        <time>2022-01-16T10:14:35.000Z</time>
      </trkpt>
      <trkpt lat="47.30589" lon="-2.244">
        <ele>-4.4000000953674</ele>
        <time>2022-01-16T10:14:37.000Z</time>
      </trkpt>
      <trkpt lat="47.30578" lon="-2.24388">
        <ele>-4</ele>
        <time>2022-01-16T10:14:40.000Z</time>
      </trkpt>
      <trkpt lat="47.30574" lon="-2.24384">
        <ele>-3.5999999046326</ele>
        <time>2022-01-16T10:14:41.000Z</time>
      </trkpt>
      <trkpt lat="47.3057" lon="-2.2438">
        <ele>-3</ele>
        <time>2022-01-16T10:14:42.000Z</time>
      </trkpt>
      <trkpt lat="47.30567" lon="-2.24377">
        <ele>-2.5999999046326</ele>
        <time>2022-01-16T10:14:43.000Z</time>
      </trkpt>
      <trkpt lat="47.30563" lon="-2.24373">
        <ele>-2.2000000476837</ele>
        <time>2022-01-16T10:14:44.000Z</time>
      </trkpt>
      <trkpt lat="47.30542" lon="-2.2435">
        <ele>-2.2000000476837</ele>
        <time>2022-01-16T10:14:50.000Z</time>
      </trkpt>
      <trkpt lat="47.30513" lon="-2.24319">
        <ele>-2.2000000476837</ele>
        <time>2022-01-16T10:14:58.000Z</time>
      </trkpt>
      <trkpt lat="47.30498" lon="-2.24301">
        <ele>-2.2000000476837</ele>
        <time>2022-01-16T10:15:02.000Z</time>
      </trkpt>
      <trkpt lat="47.30489" lon="-2.24296">
        <ele>-2.2000000476837</ele>
        <time>2022-01-16T10:15:04.000Z</time>
      </trkpt>
      <trkpt lat="47.30454" lon="-2.24283">
        <ele>-2.2000000476837</ele>
        <time>2022-01-16T10:15:11.000Z</time>
      </trkpt>
      <trkpt lat="47.30434" lon="-2.2428">
        <ele>-2.2000000476837</ele>
        <time>2022-01-16T10:15:15.000Z</time>
      </trkpt>
      <trkpt lat="47.30424" lon="-2.24277">
        <ele>-2.2000000476837</ele>
        <time>2022-01-16T10:15:17.000Z</time>
      </trkpt>
      <trkpt lat="47.3042" lon="-2.24275">
        <ele>-2.2000000476837</ele>
        <time>2022-01-16T10:15:18.000Z</time>
      </trkpt>
      <trkpt lat="47.30408" lon="-2.24268">
        <ele>-2.2000000476837</ele>
        <time>2022-01-16T10:15:21.000Z</time>
      </trkpt>
      <trkpt lat="47.30405" lon="-2.24264">
        <ele>-2.2000000476837</ele>
        <time>2022-01-16T10:15:22.000Z</time>
      </trkpt>
      <trkpt lat="47.30385" lon="-2.24242">
        <ele>-2.2000000476837</ele>
        <time>2022-01-16T10:15:27.000Z</time>
      </trkpt>
      <trkpt lat="47.30367" lon="-2.24223">
        <ele>-2.2000000476837</ele>
        <time>2022-01-16T10:15:32.000Z</time>
      </trkpt>
      <trkpt lat="47.30364" lon="-2.24219">
        <ele>-2.2000000476837</ele>
        <time>2022-01-16T10:15:33.000Z</time>
      </trkpt>
      <trkpt lat="47.30353" lon="-2.24205">
        <ele>-2.2000000476837</ele>
        <time>2022-01-16T10:15:36.000Z</time>
      </trkpt>
      <trkpt lat="47.30351" lon="-2.24199">
        <ele>-2.2000000476837</ele>
        <time>2022-01-16T10:15:37.000Z</time>
      </trkpt>
      <trkpt lat="47.30353" lon="-2.2418">
        <ele>-2.2000000476837</ele>
        <time>2022-01-16T10:15:40.000Z</time>
      </trkpt>
      <trkpt lat="47.30358" lon="-2.24169">
        <ele>-2.2000000476837</ele>
        <time>2022-01-16T10:15:42.000Z</time>
      </trkpt>
      <trkpt lat="47.30365" lon="-2.24155">
        <ele>-2.2000000476837</ele>
        <time>2022-01-16T10:15:45.000Z</time>
      </trkpt>
      <trkpt lat="47.30373" lon="-2.24141">
        <ele>-1.7999999523163</ele>
        <time>2022-01-16T10:15:48.000Z</time>
      </trkpt>
      <trkpt lat="47.30376" lon="-2.24136">
        <ele>-1.3999999761581</ele>
        <time>2022-01-16T10:15:49.000Z</time>
      </trkpt>
      <trkpt lat="47.30379" lon="-2.24133">
        <ele>-1</ele>
        <time>2022-01-16T10:15:50.000Z</time>
      </trkpt>
      <trkpt lat="47.30381" lon="-2.24129">
        <ele>-0.60000002384186</ele>
        <time>2022-01-16T10:15:51.000Z</time>
      </trkpt>
      <trkpt lat="47.30384" lon="-2.24127">
        <ele>-0.20000000298023</ele>
        <time>2022-01-16T10:15:52.000Z</time>
      </trkpt>
      <trkpt lat="47.30403" lon="-2.24106">
        <ele>-0.20000000298023</ele>
        <time>2022-01-16T10:15:58.000Z</time>
      </trkpt>
      <trkpt lat="47.30427" lon="-2.24075">
        <ele>-0.20000000298023</ele>
        <time>2022-01-16T10:16:05.000Z</time>
      </trkpt>
      <trkpt lat="47.30431" lon="-2.2407">
        <ele>-0.60000002384186</ele>
        <time>2022-01-16T10:16:06.000Z</time>
      </trkpt>
      <trkpt lat="47.30435" lon="-2.24064">
        <ele>-1.2000000476837</ele>
        <time>2022-01-16T10:16:07.000Z</time>
      </trkpt>
      <trkpt lat="47.30439" lon="-2.24059">
        <ele>-1.6000000238419</ele>
        <time>2022-01-16T10:16:08.000Z</time>
      </trkpt>
      <trkpt lat="47.30444" lon="-2.24054">
        <ele>-2</ele>
        <time>2022-01-16T10:16:09.000Z</time>
      </trkpt>
      <trkpt lat="47.30449" lon="-2.24049">
        <ele>-2.4000000953674</ele>
        <time>2022-01-16T10:16:10.000Z</time>
      </trkpt>
      <trkpt lat="47.30471" lon="-2.24036">
        <ele>-2.7999999523163</ele>
        <time>2022-01-16T10:16:14.000Z</time>
      </trkpt>
      <trkpt lat="47.30479" lon="-2.2403">
        <ele>-3.2000000476837</ele>
        <time>2022-01-16T10:16:15.000Z</time>
      </trkpt>
      <trkpt lat="47.30486" lon="-2.24024">
        <ele>-3.7999999523163</ele>
        <time>2022-01-16T10:16:16.000Z</time>
      </trkpt>
      <trkpt lat="47.30492" lon="-2.24017">
        <ele>-4.1999998092651</ele>
        <time>2022-01-16T10:16:17.000Z</time>
      </trkpt>
      <trkpt lat="47.30499" lon="-2.24008">
        <ele>-4.5999999046326</ele>
        <time>2022-01-16T10:16:18.000Z</time>
      </trkpt>
      <trkpt lat="47.30505" lon="-2.23998">
        <ele>-5</ele>
        <time>2022-01-16T10:16:19.000Z</time>
      </trkpt>
      <trkpt lat="47.30512" lon="-2.23989">
        <ele>-5.4000000953674</ele>
        <time>2022-01-16T10:16:20.000Z</time>
      </trkpt>
      <trkpt lat="47.30519" lon="-2.23981">
        <ele>-6</ele>
        <time>2022-01-16T10:16:21.000Z</time>
      </trkpt>
      <trkpt lat="47.30526" lon="-2.23972">
        <ele>-6.4000000953674</ele>
        <time>2022-01-16T10:16:22.000Z</time>
      </trkpt>
      <trkpt lat="47.30532" lon="-2.23964">
        <ele>-7</ele>
        <time>2022-01-16T10:16:23.000Z</time>
      </trkpt>
      <trkpt lat="47.30538" lon="-2.23957">
        <ele>-7.5999999046326</ele>
        <time>2022-01-16T10:16:24.000Z</time>
      </trkpt>
      <trkpt lat="47.30543" lon="-2.2395">
        <ele>-8.1999998092651</ele>
        <time>2022-01-16T10:16:25.000Z</time>
      </trkpt>
      <trkpt lat="47.30547" lon="-2.23944">
        <ele>-8.8000001907349</ele>
        <time>2022-01-16T10:16:26.000Z</time>
      </trkpt>
      <trkpt lat="47.30551" lon="-2.23937">
        <ele>-10</ele>
        <time>2022-01-16T10:16:27.000Z</time>
      </trkpt>
      <trkpt lat="47.30553" lon="-2.2393">
        <ele>-10.60000038147</ele>
        <time>2022-01-16T10:16:28.000Z</time>
      </trkpt>
      <trkpt lat="47.30552" lon="-2.23923">
        <ele>-11.39999961853</ele>
        <time>2022-01-16T10:16:29.000Z</time>
      </trkpt>
      <trkpt lat="47.30549" lon="-2.23917">
        <ele>-12</ele>
        <time>2022-01-16T10:16:30.000Z</time>
      </trkpt>
      <trkpt lat="47.30539" lon="-2.23909">
        <ele>-12</ele>
        <time>2022-01-16T10:16:32.000Z</time>
      </trkpt>
      <trkpt lat="47.30508" lon="-2.23871">
        <ele>-12</ele>
        <time>2022-01-16T10:16:39.000Z</time>
      </trkpt>
      <trkpt lat="47.3049" lon="-2.2385">
        <ele>-12</ele>
        <time>2022-01-16T10:16:43.000Z</time>
      </trkpt>
      <trkpt lat="47.30479" lon="-2.23846">
        <ele>-12</ele>
        <time>2022-01-16T10:16:45.000Z</time>
      </trkpt>
      <trkpt lat="47.30468" lon="-2.23846">
        <ele>-12</ele>
        <time>2022-01-16T10:16:47.000Z</time>
      </trkpt>
      <trkpt lat="47.30452" lon="-2.23847">
        <ele>-12</ele>
        <time>2022-01-16T10:16:50.000Z</time>
      </trkpt>
      <trkpt lat="47.30414" lon="-2.23853">
        <ele>-12</ele>
        <time>2022-01-16T10:16:57.000Z</time>
      </trkpt>
      <trkpt lat="47.30368" lon="-2.23861">
        <ele>-12</ele>
        <time>2022-01-16T10:17:05.000Z</time>
      </trkpt>
      <trkpt lat="47.30334" lon="-2.23871">
        <ele>-12</ele>
        <time>2022-01-16T10:17:11.000Z</time>
      </trkpt>
      <trkpt lat="47.30298" lon="-2.23885">
        <ele>-12</ele>
        <time>2022-01-16T10:17:18.000Z</time>
      </trkpt>
      <trkpt lat="47.30292" lon="-2.23886">
        <ele>-12</ele>
        <time>2022-01-16T10:17:19.000Z</time>
      </trkpt>
      <trkpt lat="47.30282" lon="-2.23887">
        <ele>-12</ele>
        <time>2022-01-16T10:17:21.000Z</time>
      </trkpt>
      <trkpt lat="47.30272" lon="-2.2389">
        <ele>-12</ele>
        <time>2022-01-16T10:17:23.000Z</time>
      </trkpt>
      <trkpt lat="47.30263" lon="-2.23908">
        <ele>-12</ele>
        <time>2022-01-16T10:17:26.000Z</time>
      </trkpt>
      <trkpt lat="47.30261" lon="-2.23936">
        <ele>-12</ele>
        <time>2022-01-16T10:17:30.000Z</time>
      </trkpt>
      <trkpt lat="47.30267" lon="-2.23962">
        <ele>-12</ele>
        <time>2022-01-16T10:17:34.000Z</time>
      </trkpt>
      <trkpt lat="47.30269" lon="-2.23968">
        <ele>-12</ele>
        <time>2022-01-16T10:17:35.000Z</time>
      </trkpt>
      <trkpt lat="47.30278" lon="-2.24009">
        <ele>-11.199999809265</ele>
        <time>2022-01-16T10:17:42.000Z</time>
      </trkpt>
      <trkpt lat="47.30279" lon="-2.24014">
        <ele>-10.60000038147</ele>
        <time>2022-01-16T10:17:43.000Z</time>
      </trkpt>
      <trkpt lat="47.3028" lon="-2.2402">
        <ele>-10.199999809265</ele>
        <time>2022-01-16T10:17:44.000Z</time>
      </trkpt>
      <trkpt lat="47.30281" lon="-2.24025">
        <ele>-9.8000001907349</ele>
        <time>2022-01-16T10:17:45.000Z</time>
      </trkpt>
      <trkpt lat="47.30282" lon="-2.24038">
        <ele>-9.8000001907349</ele>
        <time>2022-01-16T10:17:48.000Z</time>
      </trkpt>
      <trkpt lat="47.30281" lon="-2.24053">
        <ele>-9.3999996185303</ele>
        <time>2022-01-16T10:17:51.000Z</time>
      </trkpt>
      <trkpt lat="47.30279" lon="-2.24056">
        <ele>-8.8000001907349</ele>
        <time>2022-01-16T10:17:52.000Z</time>
      </trkpt>
      <trkpt lat="47.30277" lon="-2.24059">
        <ele>-8.3999996185303</ele>
        <time>2022-01-16T10:17:53.000Z</time>
      </trkpt>
      <trkpt lat="47.30274" lon="-2.24061">
        <ele>-8</ele>
        <time>2022-01-16T10:17:54.000Z</time>
      </trkpt>
      <trkpt lat="47.30271" lon="-2.24062">
        <ele>-7.5999999046326</ele>
        <time>2022-01-16T10:17:55.000Z</time>
      </trkpt>
      <trkpt lat="47.30268" lon="-2.24062">
        <ele>-7.5999999046326</ele>
        <time>2022-01-16T10:17:56.000Z</time>
      </trkpt>
      <trkpt lat="47.30262" lon="-2.24061">
        <ele>-7.5999999046326</ele>
        <time>2022-01-16T10:17:58.000Z</time>
      </trkpt>
      <trkpt lat="47.30247" lon="-2.2406">
        <ele>-7.5999999046326</ele>
        <time>2022-01-16T10:18:02.000Z</time>
      </trkpt>
      <trkpt lat="47.30219" lon="-2.24058">
        <ele>-7.5999999046326</ele>
        <time>2022-01-16T10:18:09.000Z</time>
      </trkpt>
      <trkpt lat="47.30215" lon="-2.24058">
        <ele>-7.1999998092651</ele>
        <time>2022-01-16T10:18:10.000Z</time>
      </trkpt>
      <trkpt lat="47.30211" lon="-2.24059">
        <ele>-6.5999999046326</ele>
        <time>2022-01-16T10:18:11.000Z</time>
      </trkpt>
      <trkpt lat="47.30207" lon="-2.24059">
        <ele>-6.1999998092651</ele>
        <time>2022-01-16T10:18:12.000Z</time>
      </trkpt>
      <trkpt lat="47.30203" lon="-2.24059">
        <ele>-5.8000001907349</ele>
        <time>2022-01-16T10:18:13.000Z</time>
      </trkpt>
      <trkpt lat="47.30199" lon="-2.24059">
        <ele>-5.4000000953674</ele>
        <time>2022-01-16T10:18:14.000Z</time>
      </trkpt>
      <trkpt lat="47.30195" lon="-2.24059">
        <ele>-5.4000000953674</ele>
        <time>2022-01-16T10:18:15.000Z</time>
      </trkpt>
      <trkpt lat="47.30173" lon="-2.24066">
        <ele>-5.4000000953674</ele>
        <time>2022-01-16T10:18:21.000Z</time>
      </trkpt>
      <trkpt lat="47.30147" lon="-2.24078">
        <ele>-5.4000000953674</ele>
        <time>2022-01-16T10:18:28.000Z</time>
      </trkpt>
      <trkpt lat="47.30126" lon="-2.24088">
        <ele>-5.4000000953674</ele>
        <time>2022-01-16T10:18:34.000Z</time>
      </trkpt>
      <trkpt lat="47.30102" lon="-2.24102">
        <ele>-5.4000000953674</ele>
        <time>2022-01-16T10:18:41.000Z</time>
      </trkpt>
      <trkpt lat="47.30082" lon="-2.24112">
        <ele>-5.4000000953674</ele>
        <time>2022-01-16T10:18:47.000Z</time>
      </trkpt>
      <trkpt lat="47.30062" lon="-2.24125">
        <ele>-5.4000000953674</ele>
        <time>2022-01-16T10:18:54.000Z</time>
      </trkpt>
      <trkpt lat="47.3004" lon="-2.24137">
        <ele>-5.4000000953674</ele>
        <time>2022-01-16T10:19:01.000Z</time>
      </trkpt>
      <trkpt lat="47.30035" lon="-2.24144">
        <ele>-5.4000000953674</ele>
        <time>2022-01-16T10:19:05.000Z</time>
      </trkpt>
      <trkpt lat="47.30035" lon="-2.24146">
        <ele>-5.8000001907349</ele>
        <time>2022-01-16T10:19:06.000Z</time>
      </trkpt>
      <trkpt lat="47.30035" lon="-2.24148">
        <ele>-6.1999998092651</ele>
        <time>2022-01-16T10:19:07.000Z</time>
      </trkpt>
      <trkpt lat="47.30035" lon="-2.24151">
        <ele>-6.5999999046326</ele>
        <time>2022-01-16T10:19:08.000Z</time>
      </trkpt>
      <trkpt lat="47.30035" lon="-2.24154">
        <ele>-7</ele>
        <time>2022-01-16T10:19:09.000Z</time>
      </trkpt>
      <trkpt lat="47.30035" lon="-2.24157">
        <ele>-7.4000000953674</ele>
        <time>2022-01-16T10:19:10.000Z</time>
      </trkpt>
      <trkpt lat="47.30033" lon="-2.24179">
        <ele>-7</ele>
        <time>2022-01-16T10:19:16.000Z</time>
      </trkpt>
      <trkpt lat="47.30032" lon="-2.24183">
        <ele>-6.5999999046326</ele>
        <time>2022-01-16T10:19:17.000Z</time>
      </trkpt>
      <trkpt lat="47.30032" lon="-2.24187">
        <ele>-6.1999998092651</ele>
        <time>2022-01-16T10:19:18.000Z</time>
      </trkpt>
      <trkpt lat="47.30032" lon="-2.24192">
        <ele>-5.8000001907349</ele>
        <time>2022-01-16T10:19:19.000Z</time>
      </trkpt>
      <trkpt lat="47.30031" lon="-2.24195">
        <ele>-5.4000000953674</ele>
        <time>2022-01-16T10:19:20.000Z</time>
      </trkpt>
      <trkpt lat="47.3003" lon="-2.24198">
        <ele>-5</ele>
        <time>2022-01-16T10:19:21.000Z</time>
      </trkpt>
      <trkpt lat="47.3003" lon="-2.24202">
        <ele>-4.4000000953674</ele>
        <time>2022-01-16T10:19:22.000Z</time>
      </trkpt>
      <trkpt lat="47.30029" lon="-2.24205">
        <ele>-4</ele>
        <time>2022-01-16T10:19:23.000Z</time>
      </trkpt>
      <trkpt lat="47.30028" lon="-2.24209">
        <ele>-3.4000000953674</ele>
        <time>2022-01-16T10:19:24.000Z</time>
      </trkpt>
      <trkpt lat="47.30027" lon="-2.24213">
        <ele>-3</ele>
        <time>2022-01-16T10:19:25.000Z</time>
      </trkpt>
      <trkpt lat="47.30026" lon="-2.24221">
        <ele>-3</ele>
        <time>2022-01-16T10:19:27.000Z</time>
      </trkpt>
      <trkpt lat="47.30027" lon="-2.24233">
        <ele>-3</ele>
        <time>2022-01-16T10:19:30.000Z</time>
      </trkpt>
      <trkpt lat="47.30028" lon="-2.24237">
        <ele>-3</ele>
        <time>2022-01-16T10:19:31.000Z</time>
      </trkpt>
      <trkpt lat="47.30028" lon="-2.24251">
        <ele>-2.5999999046326</ele>
        <time>2022-01-16T10:19:35.000Z</time>
      </trkpt>
      <trkpt lat="47.30029" lon="-2.24255">
        <ele>-2</ele>
        <time>2022-01-16T10:19:36.000Z</time>
      </trkpt>
      <trkpt lat="47.30029" lon="-2.24258">
        <ele>-1.6000000238419</ele>
        <time>2022-01-16T10:19:37.000Z</time>
      </trkpt>
      <trkpt lat="47.3003" lon="-2.2426">
        <ele>-1.2000000476837</ele>
        <time>2022-01-16T10:19:38.000Z</time>
      </trkpt>
      <trkpt lat="47.30029" lon="-2.24263">
        <ele>-0.60000002384186</ele>
        <time>2022-01-16T10:19:39.000Z</time>
      </trkpt>
      <trkpt lat="47.30027" lon="-2.24269">
        <ele>-0.60000002384186</ele>
        <time>2022-01-16T10:19:41.000Z</time>
      </trkpt>
      <trkpt lat="47.30022" lon="-2.24277">
        <ele>-0.60000002384186</ele>
        <time>2022-01-16T10:19:45.000Z</time>
      </trkpt>
      <trkpt lat="47.30021" lon="-2.24281">
        <ele>-0.60000002384186</ele>
        <time>2022-01-16T10:19:46.000Z</time>
      </trkpt>
      <trkpt lat="47.30018" lon="-2.24297">
        <ele>-0.20000000298023</ele>
        <time>2022-01-16T10:19:50.000Z</time>
      </trkpt>
      <trkpt lat="47.30017" lon="-2.24302">
        <ele>0.20000000298023</ele>
        <time>2022-01-16T10:19:51.000Z</time>
      </trkpt>
      <trkpt lat="47.30015" lon="-2.24306">
        <ele>0.60000002384186</ele>
        <time>2022-01-16T10:19:52.000Z</time>
      </trkpt>
      <trkpt lat="47.30013" lon="-2.2431">
        <ele>1</ele>
        <time>2022-01-16T10:19:53.000Z</time>
      </trkpt>
      <trkpt lat="47.30011" lon="-2.24314">
        <ele>1.3999999761581</ele>
        <time>2022-01-16T10:19:54.000Z</time>
      </trkpt>
      <trkpt lat="47.30008" lon="-2.24323">
        <ele>1.3999999761581</ele>
        <time>2022-01-16T10:19:56.000Z</time>
      </trkpt>
      <trkpt lat="47.29999" lon="-2.2435">
        <ele>1.3999999761581</ele>
        <time>2022-01-16T10:20:02.000Z</time>
      </trkpt>
      <trkpt lat="47.29996" lon="-2.24354">
        <ele>1.3999999761581</ele>
        <time>2022-01-16T10:20:03.000Z</time>
      </trkpt>
      <trkpt lat="47.29989" lon="-2.24356">
        <ele>1.3999999761581</ele>
        <time>2022-01-16T10:20:05.000Z</time>
      </trkpt>
      <trkpt lat="47.29979" lon="-2.24348">
        <ele>1.3999999761581</ele>
        <time>2022-01-16T10:20:08.000Z</time>
      </trkpt>
      <trkpt lat="47.29976" lon="-2.24344">
        <ele>1.3999999761581</ele>
        <time>2022-01-16T10:20:09.000Z</time>
      </trkpt>
      <trkpt lat="47.29955" lon="-2.24324">
        <ele>1.3999999761581</ele>
        <time>2022-01-16T10:20:15.000Z</time>
      </trkpt>
      <trkpt lat="47.2994" lon="-2.24307">
        <ele>1.3999999761581</ele>
        <time>2022-01-16T10:20:21.000Z</time>
      </trkpt>
      <trkpt lat="47.29936" lon="-2.24296">
        <ele>1.3999999761581</ele>
        <time>2022-01-16T10:20:25.000Z</time>
      </trkpt>
      <trkpt lat="47.29925" lon="-2.24289">
        <ele>1.3999999761581</ele>
        <time>2022-01-16T10:20:31.000Z</time>
      </trkpt>
      <trkpt lat="47.29909" lon="-2.24279">
        <ele>1.3999999761581</ele>
        <time>2022-01-16T10:20:37.000Z</time>
      </trkpt>
      <trkpt lat="47.29886" lon="-2.24264">
        <ele>1.3999999761581</ele>
        <time>2022-01-16T10:20:44.000Z</time>
      </trkpt>
      <trkpt lat="47.29862" lon="-2.24249">
        <ele>1.3999999761581</ele>
        <time>2022-01-16T10:20:50.000Z</time>
      </trkpt>
      <trkpt lat="47.2983" lon="-2.24233">
        <ele>1.3999999761581</ele>
        <time>2022-01-16T10:20:58.000Z</time>
      </trkpt>
      <trkpt lat="47.29818" lon="-2.24227">
        <ele>1.3999999761581</ele>
        <time>2022-01-16T10:21:01.000Z</time>
      </trkpt>
      <trkpt lat="47.29806" lon="-2.24218">
        <ele>1.3999999761581</ele>
        <time>2022-01-16T10:21:04.000Z</time>
      </trkpt>
      <trkpt lat="47.29801" lon="-2.24217">
        <ele>1.3999999761581</ele>
        <time>2022-01-16T10:21:05.000Z</time>
      </trkpt>
      <trkpt lat="47.29792" lon="-2.24219">
        <ele>1.3999999761581</ele>
        <time>2022-01-16T10:21:07.000Z</time>
      </trkpt>
      <trkpt lat="47.29776" lon="-2.24228">
        <ele>1</ele>
        <time>2022-01-16T10:21:10.000Z</time>
      </trkpt>
      <trkpt lat="47.29771" lon="-2.24231">
        <ele>0.60000002384186</ele>
        <time>2022-01-16T10:21:11.000Z</time>
      </trkpt>
      <trkpt lat="47.29765" lon="-2.24234">
        <ele>0.20000000298023</ele>
        <time>2022-01-16T10:21:12.000Z</time>
      </trkpt>
      <trkpt lat="47.2976" lon="-2.24238">
        <ele>-0.40000000596046</ele>
        <time>2022-01-16T10:21:13.000Z</time>
      </trkpt>
      <trkpt lat="47.29754" lon="-2.24241">
        <ele>-0.80000001192093</ele>
        <time>2022-01-16T10:21:14.000Z</time>
      </trkpt>
      <trkpt lat="47.29724" lon="-2.24257">
        <ele>-1.2000000476837</ele>
        <time>2022-01-16T10:21:19.000Z</time>
      </trkpt>
      <trkpt lat="47.29718" lon="-2.24261">
        <ele>-1.6000000238419</ele>
        <time>2022-01-16T10:21:20.000Z</time>
      </trkpt>
      <trkpt lat="47.29712" lon="-2.24264">
        <ele>-2.2000000476837</ele>
        <time>2022-01-16T10:21:21.000Z</time>
      </trkpt>
      <trkpt lat="47.29705" lon="-2.24267">
        <ele>-2.5999999046326</ele>
        <time>2022-01-16T10:21:22.000Z</time>
      </trkpt>
      <trkpt lat="47.29699" lon="-2.24271">
        <ele>-3</ele>
        <time>2022-01-16T10:21:23.000Z</time>
      </trkpt>
      <trkpt lat="47.29679" lon="-2.24283">
        <ele>-3.4000000953674</ele>
        <time>2022-01-16T10:21:26.000Z</time>
      </trkpt>
      <trkpt lat="47.29672" lon="-2.24286">
        <ele>-4</ele>
        <time>2022-01-16T10:21:27.000Z</time>
      </trkpt>
      <trkpt lat="47.29666" lon="-2.24289">
        <ele>-4.4000000953674</ele>
        <time>2022-01-16T10:21:28.000Z</time>
      </trkpt>
      <trkpt lat="47.2966" lon="-2.24292">
        <ele>-4.8000001907349</ele>
        <time>2022-01-16T10:21:29.000Z</time>
      </trkpt>
      <trkpt lat="47.29653" lon="-2.24295">
        <ele>-5.1999998092651</ele>
        <time>2022-01-16T10:21:30.000Z</time>
      </trkpt>
      <trkpt lat="47.29627" lon="-2.24309">
        <ele>-6</ele>
        <time>2022-01-16T10:21:34.000Z</time>
      </trkpt>
      <trkpt lat="47.29621" lon="-2.24312">
        <ele>-6.5999999046326</ele>
        <time>2022-01-16T10:21:35.000Z</time>
      </trkpt>
      <trkpt lat="47.29616" lon="-2.24313">
        <ele>-7.1999998092651</ele>
        <time>2022-01-16T10:21:36.000Z</time>
      </trkpt>
      <trkpt lat="47.2961" lon="-2.24315">
        <ele>-7.8000001907349</ele>
        <time>2022-01-16T10:21:37.000Z</time>
      </trkpt>
      <trkpt lat="47.29605" lon="-2.24316">
        <ele>-8.3999996185303</ele>
        <time>2022-01-16T10:21:38.000Z</time>
      </trkpt>
      <trkpt lat="47.29594" lon="-2.24318">
        <ele>-8.3999996185303</ele>
        <time>2022-01-16T10:21:40.000Z</time>
      </trkpt>
      <trkpt lat="47.29581" lon="-2.24319">
        <ele>-8.3999996185303</ele>
        <time>2022-01-16T10:21:43.000Z</time>
      </trkpt>
      <trkpt lat="47.29572" lon="-2.24319">
        <ele>-8.3999996185303</ele>
        <time>2022-01-16T10:21:45.000Z</time>
      </trkpt>
      <trkpt lat="47.29559" lon="-2.24307">
        <ele>-8.3999996185303</ele>
        <time>2022-01-16T10:21:48.000Z</time>
      </trkpt>
      <trkpt lat="47.29555" lon="-2.24302">
        <ele>-8.3999996185303</ele>
        <time>2022-01-16T10:21:49.000Z</time>
      </trkpt>
      <trkpt lat="47.29545" lon="-2.24292">
        <ele>-8.3999996185303</ele>
        <time>2022-01-16T10:21:51.000Z</time>
      </trkpt>
      <trkpt lat="47.29534" lon="-2.24286">
        <ele>-8.3999996185303</ele>
        <time>2022-01-16T10:21:53.000Z</time>
      </trkpt>
      <trkpt lat="47.29513" lon="-2.24291">
        <ele>-8.3999996185303</ele>
        <time>2022-01-16T10:21:57.000Z</time>
      </trkpt>
      <trkpt lat="47.29487" lon="-2.24304">
        <ele>-8.3999996185303</ele>
        <time>2022-01-16T10:22:04.000Z</time>
      </trkpt>
      <trkpt lat="47.29457" lon="-2.24314">
        <ele>-8.3999996185303</ele>
        <time>2022-01-16T10:22:11.000Z</time>
      </trkpt>
      <trkpt lat="47.29453" lon="-2.24316">
        <ele>-8</ele>
        <time>2022-01-16T10:22:12.000Z</time>
      </trkpt>
      <trkpt lat="47.29449" lon="-2.24317">
        <ele>-7.5999999046326</ele>
        <time>2022-01-16T10:22:13.000Z</time>
      </trkpt>
      <trkpt lat="47.29445" lon="-2.24318">
        <ele>-6.8000001907349</ele>
        <time>2022-01-16T10:22:14.000Z</time>
      </trkpt>
      <trkpt lat="47.29441" lon="-2.24319">
        <ele>-6.4000000953674</ele>
        <time>2022-01-16T10:22:15.000Z</time>
      </trkpt>
      <trkpt lat="47.29433" lon="-2.24323">
        <ele>-6.4000000953674</ele>
        <time>2022-01-16T10:22:17.000Z</time>
      </trkpt>
      <trkpt lat="47.29418" lon="-2.24335">
        <ele>-6.4000000953674</ele>
        <time>2022-01-16T10:22:21.000Z</time>
      </trkpt>
      <trkpt lat="47.29415" lon="-2.24339">
        <ele>-6.4000000953674</ele>
        <time>2022-01-16T10:22:22.000Z</time>
      </trkpt>
      <trkpt lat="47.29392" lon="-2.24361">
        <ele>-6</ele>
        <time>2022-01-16T10:22:28.000Z</time>
      </trkpt>
      <trkpt lat="47.29389" lon="-2.24366">
        <ele>-5.5999999046326</ele>
        <time>2022-01-16T10:22:29.000Z</time>
      </trkpt>
      <trkpt lat="47.29385" lon="-2.2437">
        <ele>-5.1999998092651</ele>
        <time>2022-01-16T10:22:30.000Z</time>
      </trkpt>
      <trkpt lat="47.29381" lon="-2.24374">
        <ele>-4.8000001907349</ele>
        <time>2022-01-16T10:22:31.000Z</time>
      </trkpt>
      <trkpt lat="47.29376" lon="-2.24378">
        <ele>-4.1999998092651</ele>
        <time>2022-01-16T10:22:32.000Z</time>
      </trkpt>
      <trkpt lat="47.29369" lon="-2.24386">
        <ele>-4.1999998092651</ele>
        <time>2022-01-16T10:22:34.000Z</time>
      </trkpt>
      <trkpt lat="47.29335" lon="-2.24422">
        <ele>-4.1999998092651</ele>
        <time>2022-01-16T10:22:42.000Z</time>
      </trkpt>
      <trkpt lat="47.29302" lon="-2.24451">
        <ele>-4.1999998092651</ele>
        <time>2022-01-16T10:22:50.000Z</time>
      </trkpt>
      <trkpt lat="47.29298" lon="-2.24455">
        <ele>-4.1999998092651</ele>
        <time>2022-01-16T10:22:51.000Z</time>
      </trkpt>
      <trkpt lat="47.29294" lon="-2.24465">
        <ele>-4.1999998092651</ele>
        <time>2022-01-16T10:22:53.000Z</time>
      </trkpt>
      <trkpt lat="47.29294" lon="-2.24478">
        <ele>-4.1999998092651</ele>
        <time>2022-01-16T10:22:55.000Z</time>
      </trkpt>
      <trkpt lat="47.29294" lon="-2.24498">
        <ele>-4.1999998092651</ele>
        <time>2022-01-16T10:22:58.000Z</time>
      </trkpt>
      <trkpt lat="47.29295" lon="-2.24519">
        <ele>-4.1999998092651</ele>
        <time>2022-01-16T10:23:01.000Z</time>
      </trkpt>
      <trkpt lat="47.29295" lon="-2.24535">
        <ele>-4.1999998092651</ele>
        <time>2022-01-16T10:23:03.000Z</time>
      </trkpt>
      <trkpt lat="47.29297" lon="-2.24592">
        <ele>-4.1999998092651</ele>
        <time>2022-01-16T10:23:10.000Z</time>
      </trkpt>
      <trkpt lat="47.29297" lon="-2.24606">
        <ele>-4.1999998092651</ele>
        <time>2022-01-16T10:23:12.000Z</time>
      </trkpt>
      <trkpt lat="47.29294" lon="-2.24626">
        <ele>-4.1999998092651</ele>
        <time>2022-01-16T10:23:15.000Z</time>
      </trkpt>
      <trkpt lat="47.29293" lon="-2.24644">
        <ele>-4.1999998092651</ele>
        <time>2022-01-16T10:23:18.000Z</time>
      </trkpt>
      <trkpt lat="47.29291" lon="-2.24662">
        <ele>-4.1999998092651</ele>
        <time>2022-01-16T10:23:21.000Z</time>
      </trkpt>
      <trkpt lat="47.29296" lon="-2.24684">
        <ele>-4.1999998092651</ele>
        <time>2022-01-16T10:23:25.000Z</time>
      </trkpt>
      <trkpt lat="47.29299" lon="-2.24694">
        <ele>-3.7999999523163</ele>
        <time>2022-01-16T10:23:27.000Z</time>
      </trkpt>
      <trkpt lat="47.293" lon="-2.247">
        <ele>-3.4000000953674</ele>
        <time>2022-01-16T10:23:28.000Z</time>
      </trkpt>
      <trkpt lat="47.29302" lon="-2.24706">
        <ele>-3</ele>
        <time>2022-01-16T10:23:29.000Z</time>
      </trkpt>
      <trkpt lat="47.29303" lon="-2.24712">
        <ele>-2.5999999046326</ele>
        <time>2022-01-16T10:23:30.000Z</time>
      </trkpt>
      <trkpt lat="47.29304" lon="-2.24718">
        <ele>-2.2000000476837</ele>
        <time>2022-01-16T10:23:31.000Z</time>
      </trkpt>
      <trkpt lat="47.29308" lon="-2.24748">
        <ele>-2.2000000476837</ele>
        <time>2022-01-16T10:23:36.000Z</time>
      </trkpt>
      <trkpt lat="47.29317" lon="-2.24768">
        <ele>-2.2000000476837</ele>
        <time>2022-01-16T10:23:40.000Z</time>
      </trkpt>
      <trkpt lat="47.29323" lon="-2.24795">
        <ele>-2.2000000476837</ele>
        <time>2022-01-16T10:23:45.000Z</time>
      </trkpt>
      <trkpt lat="47.29328" lon="-2.24829">
        <ele>-2.2000000476837</ele>
        <time>2022-01-16T10:23:51.000Z</time>
      </trkpt>
      <trkpt lat="47.2933" lon="-2.24867">
        <ele>-2.2000000476837</ele>
        <time>2022-01-16T10:23:56.000Z</time>
      </trkpt>
      <trkpt lat="47.29331" lon="-2.24882">
        <ele>-1.7999999523163</ele>
        <time>2022-01-16T10:23:58.000Z</time>
      </trkpt>
      <trkpt lat="47.29331" lon="-2.2489">
        <ele>-1.3999999761581</ele>
        <time>2022-01-16T10:23:59.000Z</time>
      </trkpt>
      <trkpt lat="47.29331" lon="-2.24898">
        <ele>-1</ele>
        <time>2022-01-16T10:24:00.000Z</time>
      </trkpt>
      <trkpt lat="47.29329" lon="-2.24906">
        <ele>-0.60000002384186</ele>
        <time>2022-01-16T10:24:01.000Z</time>
      </trkpt>
      <trkpt lat="47.29326" lon="-2.2491">
        <ele>-0.20000000298023</ele>
        <time>2022-01-16T10:24:02.000Z</time>
      </trkpt>
      <trkpt lat="47.29313" lon="-2.24914">
        <ele>-0.20000000298023</ele>
        <time>2022-01-16T10:24:05.000Z</time>
      </trkpt>
      <trkpt lat="47.29309" lon="-2.24915">
        <ele>-0.20000000298023</ele>
        <time>2022-01-16T10:24:06.000Z</time>
      </trkpt>
      <trkpt lat="47.29274" lon="-2.2492">
        <ele>-0.20000000298023</ele>
        <time>2022-01-16T10:24:14.000Z</time>
      </trkpt>
      <trkpt lat="47.29269" lon="-2.24919">
        <ele>-0.20000000298023</ele>
        <time>2022-01-16T10:24:15.000Z</time>
      </trkpt>
      <trkpt lat="47.29258" lon="-2.24926">
        <ele>-0.20000000298023</ele>
        <time>2022-01-16T10:24:18.000Z</time>
      </trkpt>
      <trkpt lat="47.29258" lon="-2.24944">
        <ele>-0.20000000298023</ele>
        <time>2022-01-16T10:24:21.000Z</time>
      </trkpt>
      <trkpt lat="47.29262" lon="-2.24979">
        <ele>-0.20000000298023</ele>
        <time>2022-01-16T10:24:27.000Z</time>
      </trkpt>
      <trkpt lat="47.29264" lon="-2.24986">
        <ele>-0.20000000298023</ele>
        <time>2022-01-16T10:24:28.000Z</time>
      </trkpt>
      <trkpt lat="47.29276" lon="-2.25038">
        <ele>-0.20000000298023</ele>
        <time>2022-01-16T10:24:35.000Z</time>
      </trkpt>
      <trkpt lat="47.2929" lon="-2.25093">
        <ele>-0.20000000298023</ele>
        <time>2022-01-16T10:24:42.000Z</time>
      </trkpt>
      <trkpt lat="47.29298" lon="-2.25156">
        <ele>-0.20000000298023</ele>
        <time>2022-01-16T10:24:49.000Z</time>
      </trkpt>
      <trkpt lat="47.29303" lon="-2.25181">
        <ele>-0.60000002384186</ele>
        <time>2022-01-16T10:24:52.000Z</time>
      </trkpt>
      <trkpt lat="47.29305" lon="-2.25188">
        <ele>-1.2000000476837</ele>
        <time>2022-01-16T10:24:53.000Z</time>
      </trkpt>
      <trkpt lat="47.29309" lon="-2.25191">
        <ele>-1.6000000238419</ele>
        <time>2022-01-16T10:24:54.000Z</time>
      </trkpt>
      <trkpt lat="47.29314" lon="-2.25192">
        <ele>-2</ele>
        <time>2022-01-16T10:24:55.000Z</time>
      </trkpt>
      <trkpt lat="47.29318" lon="-2.25191">
        <ele>-2.5999999046326</ele>
        <time>2022-01-16T10:24:56.000Z</time>
      </trkpt>
      <trkpt lat="47.29323" lon="-2.25191">
        <ele>-2.5999999046326</ele>
        <time>2022-01-16T10:24:57.000Z</time>
      </trkpt>
      <trkpt lat="47.29328" lon="-2.25192">
        <ele>-2.5999999046326</ele>
        <time>2022-01-16T10:24:58.000Z</time>
      </trkpt>
      <trkpt lat="47.29348" lon="-2.25197">
        <ele>-2.5999999046326</ele>
        <time>2022-01-16T10:25:02.000Z</time>
      </trkpt>
      <trkpt lat="47.2939" lon="-2.25209">
        <ele>-2.5999999046326</ele>
        <time>2022-01-16T10:25:10.000Z</time>
      </trkpt>
      <trkpt lat="47.29414" lon="-2.25213">
        <ele>-2.5999999046326</ele>
        <time>2022-01-16T10:25:14.000Z</time>
      </trkpt>
      <trkpt lat="47.29419" lon="-2.25211">
        <ele>-2.5999999046326</ele>
        <time>2022-01-16T10:25:15.000Z</time>
      </trkpt>
      <trkpt lat="47.29444" lon="-2.25204">
        <ele>-2.5999999046326</ele>
        <time>2022-01-16T10:25:20.000Z</time>
      </trkpt>
      <trkpt lat="47.2946" lon="-2.252">
        <ele>-2.2000000476837</ele>
        <time>2022-01-16T10:25:23.000Z</time>
      </trkpt>
      <trkpt lat="47.29464" lon="-2.25199">
        <ele>-1.6000000238419</ele>
        <time>2022-01-16T10:25:24.000Z</time>
      </trkpt>
      <trkpt lat="47.29469" lon="-2.25198">
        <ele>-1.2000000476837</ele>
        <time>2022-01-16T10:25:25.000Z</time>
      </trkpt>
      <trkpt lat="47.29474" lon="-2.25197">
        <ele>-0.80000001192093</ele>
        <time>2022-01-16T10:25:26.000Z</time>
      </trkpt>
      <trkpt lat="47.29479" lon="-2.25196">
        <ele>-0.40000000596046</ele>
        <time>2022-01-16T10:25:27.000Z</time>
      </trkpt>
      <trkpt lat="47.29497" lon="-2.25191">
        <ele>-0.40000000596046</ele>
        <time>2022-01-16T10:25:31.000Z</time>
      </trkpt>
      <trkpt lat="47.29505" lon="-2.25188">
        <ele>-0.40000000596046</ele>
        <time>2022-01-16T10:25:33.000Z</time>
      </trkpt>
      <trkpt lat="47.29531" lon="-2.25182">
        <ele>13.1</ele>
        <time>2022-01-16T10:25:40.000Z</time>
      </trkpt>
      <trkpt lat="47.29534" lon="-2.25182">
        <ele>0.40000000596046</ele>
        <time>2022-01-16T10:25:41.000Z</time>
      </trkpt>
      <trkpt lat="47.29537" lon="-2.25182">
        <ele>0.80000001192093</ele>
        <time>2022-01-16T10:25:42.000Z</time>
      </trkpt>
      <trkpt lat="47.2954" lon="-2.25183">
        <ele>1.2000000476837</ele>
        <time>2022-01-16T10:25:43.000Z</time>
      </trkpt>
      <trkpt lat="47.29542" lon="-2.25184">
        <ele>1.6000000238419</ele>
        <time>2022-01-16T10:25:44.000Z</time>
      </trkpt>
      <trkpt lat="47.29544" lon="-2.25186">
        <ele>1.6000000238419</ele>
        <time>2022-01-16T10:25:45.000Z</time>
      </trkpt>
      <trkpt lat="47.29545" lon="-2.252">
        <ele>1.6000000238419</ele>
        <time>2022-01-16T10:25:49.000Z</time>
      </trkpt>
      <trkpt lat="47.29544" lon="-2.25205">
        <ele>1.6000000238419</ele>
        <time>2022-01-16T10:25:50.000Z</time>
      </trkpt>
      <trkpt lat="47.29541" lon="-2.25236">
        <ele>1.6000000238419</ele>
        <time>2022-01-16T10:25:55.000Z</time>
      </trkpt>
      <trkpt lat="47.2954" lon="-2.25249">
        <ele>1.6000000238419</ele>
        <time>2022-01-16T10:25:57.000Z</time>
      </trkpt>
      <trkpt lat="47.29539" lon="-2.25269">
        <ele>1.6000000238419</ele>
        <time>2022-01-16T10:26:00.000Z</time>
      </trkpt>
      <trkpt lat="47.29547" lon="-2.25302">
        <ele>1.6000000238419</ele>
        <time>2022-01-16T10:26:05.000Z</time>
      </trkpt>
      <trkpt lat="47.29549" lon="-2.25308">
        <ele>1.6000000238419</ele>
        <time>2022-01-16T10:26:06.000Z</time>
      </trkpt>
      <trkpt lat="47.29562" lon="-2.25336">
        <ele>1.6000000238419</ele>
        <time>2022-01-16T10:26:11.000Z</time>
      </trkpt>
      <trkpt lat="47.29569" lon="-2.25353">
        <ele>2</ele>
        <time>2022-01-16T10:26:14.000Z</time>
      </trkpt>
      <trkpt lat="47.29572" lon="-2.25358">
        <ele>2.5999999046326</ele>
        <time>2022-01-16T10:26:15.000Z</time>
      </trkpt>
      <trkpt lat="47.29574" lon="-2.25364">
        <ele>3</ele>
        <time>2022-01-16T10:26:16.000Z</time>
      </trkpt>
      <trkpt lat="47.29576" lon="-2.2537">
        <ele>3.4000000953674</ele>
        <time>2022-01-16T10:26:17.000Z</time>
      </trkpt>
      <trkpt lat="47.29578" lon="-2.25376">
        <ele>3.7999999523163</ele>
        <time>2022-01-16T10:26:18.000Z</time>
      </trkpt>
      <trkpt lat="47.29583" lon="-2.25406">
        <ele>3.7999999523163</ele>
        <time>2022-01-16T10:26:22.000Z</time>
      </trkpt>
      <trkpt lat="47.29584" lon="-2.25414">
        <ele>3.7999999523163</ele>
        <time>2022-01-16T10:26:23.000Z</time>
      </trkpt>
      <trkpt lat="47.29587" lon="-2.25444">
        <ele>4.1999998092651</ele>
        <time>2022-01-16T10:26:27.000Z</time>
      </trkpt>
      <trkpt lat="47.29587" lon="-2.25451">
        <ele>4.5999999046326</ele>
        <time>2022-01-16T10:26:28.000Z</time>
      </trkpt>
      <trkpt lat="47.29588" lon="-2.25459">
        <ele>5</ele>
        <time>2022-01-16T10:26:29.000Z</time>
      </trkpt>
      <trkpt lat="47.29588" lon="-2.25466">
        <ele>5.5999999046326</ele>
        <time>2022-01-16T10:26:30.000Z</time>
      </trkpt>
      <trkpt lat="47.29589" lon="-2.25473">
        <ele>6</ele>
        <time>2022-01-16T10:26:31.000Z</time>
      </trkpt>
      <trkpt lat="47.29589" lon="-2.25481">
        <ele>6</ele>
        <time>2022-01-16T10:26:32.000Z</time>
      </trkpt>
      <trkpt lat="47.29584" lon="-2.2551">
        <ele>6</ele>
        <time>2022-01-16T10:26:36.000Z</time>
      </trkpt>
      <trkpt lat="47.29569" lon="-2.2554">
        <ele>6</ele>
        <time>2022-01-16T10:26:41.000Z</time>
      </trkpt>
      <trkpt lat="47.2956" lon="-2.25548">
        <ele>6.8000001907349</ele>
        <time>2022-01-16T10:26:43.000Z</time>
      </trkpt>
      <trkpt lat="47.29555" lon="-2.25551">
        <ele>7.1999998092651</ele>
        <time>2022-01-16T10:26:44.000Z</time>
      </trkpt>
      <trkpt lat="47.2955" lon="-2.25554">
        <ele>7.5999999046326</ele>
        <time>2022-01-16T10:26:45.000Z</time>
      </trkpt>
      <trkpt lat="47.29546" lon="-2.25557">
        <ele>8</ele>
        <time>2022-01-16T10:26:46.000Z</time>
      </trkpt>
      <trkpt lat="47.29514" lon="-2.25578">
        <ele>8</ele>
        <time>2022-01-16T10:26:53.000Z</time>
      </trkpt>
      <trkpt lat="47.29492" lon="-2.25591">
        <ele>8.3999996185303</ele>
        <time>2022-01-16T10:26:58.000Z</time>
      </trkpt>
      <trkpt lat="47.29488" lon="-2.25594">
        <ele>8.8000001907349</ele>
        <time>2022-01-16T10:26:59.000Z</time>
      </trkpt>
      <trkpt lat="47.29483" lon="-2.25597">
        <ele>9.1999998092651</ele>
        <time>2022-01-16T10:27:00.000Z</time>
      </trkpt>
      <trkpt lat="47.29479" lon="-2.25599">
        <ele>9.6000003814697</ele>
        <time>2022-01-16T10:27:01.000Z</time>
      </trkpt>
      <trkpt lat="47.29474" lon="-2.25601">
        <ele>10</ele>
        <time>2022-01-16T10:27:02.000Z</time>
      </trkpt>
      <trkpt lat="47.29457" lon="-2.25608">
        <ele>10</ele>
        <time>2022-01-16T10:27:06.000Z</time>
      </trkpt>
      <trkpt lat="47.29421" lon="-2.25624">
        <ele>10</ele>
        <time>2022-01-16T10:27:14.000Z</time>
      </trkpt>
      <trkpt lat="47.29397" lon="-2.25637">
        <ele>10</ele>
        <time>2022-01-16T10:27:20.000Z</time>
      </trkpt>
      <trkpt lat="47.29391" lon="-2.25646">
        <ele>10</ele>
        <time>2022-01-16T10:27:22.000Z</time>
      </trkpt>
      <trkpt lat="47.29385" lon="-2.25673">
        <ele>10</ele>
        <time>2022-01-16T10:27:26.000Z</time>
      </trkpt>
      <trkpt lat="47.29375" lon="-2.25718">
        <ele>10</ele>
        <time>2022-01-16T10:27:32.000Z</time>
      </trkpt>
      <trkpt lat="47.29365" lon="-2.25738">
        <ele>10</ele>
        <time>2022-01-16T10:27:35.000Z</time>
      </trkpt>
      <trkpt lat="47.29358" lon="-2.25748">
        <ele>10</ele>
        <time>2022-01-16T10:27:37.000Z</time>
      </trkpt>
      <trkpt lat="47.29343" lon="-2.25764">
        <ele>10</ele>
        <time>2022-01-16T10:27:41.000Z</time>
      </trkpt>
      <trkpt lat="47.29325" lon="-2.2578">
        <ele>10</ele>
        <time>2022-01-16T10:27:47.000Z</time>
      </trkpt>
      <trkpt lat="47.29328" lon="-2.25785">
        <ele>10</ele>
        <time>2022-01-16T10:27:51.000Z</time>
      </trkpt>
      <trkpt lat="47.29339" lon="-2.25792">
        <ele>9.6000003814697</ele>
        <time>2022-01-16T10:27:57.000Z</time>
      </trkpt>
      <trkpt lat="47.29341" lon="-2.25792">
        <ele>9.1999998092651</ele>
        <time>2022-01-16T10:27:58.000Z</time>
      </trkpt>
      <trkpt lat="47.29343" lon="-2.25792">
        <ele>8.8000001907349</ele>
        <time>2022-01-16T10:27:59.000Z</time>
      </trkpt>
      <trkpt lat="47.29344" lon="-2.25792">
        <ele>8.3999996185303</ele>
        <time>2022-01-16T10:28:00.000Z</time>
      </trkpt>
      <trkpt lat="47.29346" lon="-2.25792">
        <ele>8</ele>
        <time>2022-01-16T10:28:01.000Z</time>
      </trkpt>
      <trkpt lat="47.29349" lon="-2.25791">
        <ele>8</ele>
        <time>2022-01-16T10:28:03.000Z</time>
      </trkpt>
      <trkpt lat="47.29352" lon="-2.25783">
        <ele>8</ele>
        <time>2022-01-16T10:28:07.000Z</time>
      </trkpt>
      <trkpt lat="47.29353" lon="-2.25781">
        <ele>8</ele>
        <time>2022-01-16T10:28:09.000Z</time>
      </trkpt>
      <trkpt lat="47.29357" lon="-2.25769">
        <ele>8</ele>
        <time>2022-01-16T10:28:15.000Z</time>
      </trkpt>
      <trkpt lat="47.29359" lon="-2.25767">
        <ele>8</ele>
        <time>2022-01-16T10:28:17.000Z</time>
      </trkpt>
      <trkpt lat="47.29364" lon="-2.25765">
        <ele>8</ele>
        <time>2022-01-16T10:28:19.000Z</time>
      </trkpt>
      <trkpt lat="47.29368" lon="-2.25762">
        <ele>8</ele>
        <time>2022-01-16T10:28:21.000Z</time>
      </trkpt>
      <trkpt lat="47.29379" lon="-2.25754">
        <ele>8</ele>
        <time>2022-01-16T10:28:26.000Z</time>
      </trkpt>
      <trkpt lat="47.29382" lon="-2.25755">
        <ele>8</ele>
        <time>2022-01-16T10:28:27.000Z</time>
      </trkpt>
      <trkpt lat="47.29385" lon="-2.25757">
        <ele>7.5999999046326</ele>
        <time>2022-01-16T10:28:28.000Z</time>
      </trkpt>
      <trkpt lat="47.29387" lon="-2.25759">
        <ele>7</ele>
        <time>2022-01-16T10:28:29.000Z</time>
      </trkpt>
      <trkpt lat="47.2939" lon="-2.25759">
        <ele>6.5999999046326</ele>
        <time>2022-01-16T10:28:30.000Z</time>
      </trkpt>
      <trkpt lat="47.29392" lon="-2.25759">
        <ele>6.1999998092651</ele>
        <time>2022-01-16T10:28:31.000Z</time>
      </trkpt>
      <trkpt lat="47.29394" lon="-2.2576">
        <ele>5.8000001907349</ele>
        <time>2022-01-16T10:28:32.000Z</time>
      </trkpt>
      <trkpt lat="47.29403" lon="-2.25768">
        <ele>5.8000001907349</ele>
        <time>2022-01-16T10:28:36.000Z</time>
      </trkpt>
      <trkpt lat="47.29412" lon="-2.25774">
        <ele>5.4000000953674</ele>
        <time>2022-01-16T10:28:40.000Z</time>
      </trkpt>
      <trkpt lat="47.29413" lon="-2.25776">
        <ele>5</ele>
        <time>2022-01-16T10:28:41.000Z</time>
      </trkpt>
      <trkpt lat="47.29414" lon="-2.25778">
        <ele>4.5999999046326</ele>
        <time>2022-01-16T10:28:42.000Z</time>
      </trkpt>
      <trkpt lat="47.29415" lon="-2.25781">
        <ele>4.1999998092651</ele>
        <time>2022-01-16T10:28:43.000Z</time>
      </trkpt>
      <trkpt lat="47.29415" lon="-2.25784">
        <ele>3.5999999046326</ele>
        <time>2022-01-16T10:28:44.000Z</time>
      </trkpt>
      <trkpt lat="47.29415" lon="-2.25787">
        <ele>3.5999999046326</ele>
        <time>2022-01-16T10:28:45.000Z</time>
      </trkpt>
      <trkpt lat="47.29417" lon="-2.25807">
        <ele>3.5999999046326</ele>
        <time>2022-01-16T10:28:51.000Z</time>
      </trkpt>
      <trkpt lat="47.29416" lon="-2.25831">
        <ele>3.5999999046326</ele>
        <time>2022-01-16T10:28:57.000Z</time>
      </trkpt>
      <trkpt lat="47.2941" lon="-2.25858">
        <ele>3.5999999046326</ele>
        <time>2022-01-16T10:29:04.000Z</time>
      </trkpt>
      <trkpt lat="47.29415" lon="-2.25862">
        <ele>3.5999999046326</ele>
        <time>2022-01-16T10:29:05.000Z</time>
      </trkpt>
      <trkpt lat="47.29424" lon="-2.25873">
        <ele>3.5999999046326</ele>
        <time>2022-01-16T10:29:09.000Z</time>
      </trkpt>
      <trkpt lat="47.29431" lon="-2.25885">
        <ele>3.5999999046326</ele>
        <time>2022-01-16T10:30:59.000Z</time>
      </trkpt>
      <trkpt lat="47.29435" lon="-2.25892">
        <ele>3.5999999046326</ele>
        <time>2022-01-16T10:31:02.000Z</time>
      </trkpt>
      <trkpt lat="47.2944" lon="-2.25914">
        <ele>3.2000000476837</ele>
        <time>2022-01-16T10:31:08.000Z</time>
      </trkpt>
      <trkpt lat="47.2944" lon="-2.25917">
        <ele>2.7999999523163</ele>
        <time>2022-01-16T10:31:09.000Z</time>
      </trkpt>
      <trkpt lat="47.2944" lon="-2.25922">
        <ele>2.4000000953674</ele>
        <time>2022-01-16T10:31:10.000Z</time>
      </trkpt>
      <trkpt lat="47.2944" lon="-2.25926">
        <ele>2</ele>
        <time>2022-01-16T10:31:11.000Z</time>
      </trkpt>
      <trkpt lat="47.29439" lon="-2.25929">
        <ele>1.6000000238419</ele>
        <time>2022-01-16T10:31:12.000Z</time>
      </trkpt>
      <trkpt lat="47.29437" lon="-2.25931">
        <ele>1.6000000238419</ele>
        <time>2022-01-16T10:31:13.000Z</time>
      </trkpt>
      <trkpt lat="47.29431" lon="-2.25937">
        <ele>1.6000000238419</ele>
        <time>2022-01-16T10:31:16.000Z</time>
      </trkpt>
      <trkpt lat="47.29425" lon="-2.25942">
        <ele>1.6000000238419</ele>
        <time>2022-01-16T10:31:18.000Z</time>
      </trkpt>
      <trkpt lat="47.2941" lon="-2.25954">
        <ele>1.6000000238419</ele>
        <time>2022-01-16T10:31:24.000Z</time>
      </trkpt>
      <trkpt lat="47.29402" lon="-2.25953">
        <ele>1.6000000238419</ele>
        <time>2022-01-16T10:31:27.000Z</time>
      </trkpt>
      <trkpt lat="47.29401" lon="-2.25951">
        <ele>2</ele>
        <time>2022-01-16T10:31:28.000Z</time>
      </trkpt>
      <trkpt lat="47.29399" lon="-2.25951">
        <ele>2.4000000953674</ele>
        <time>2022-01-16T10:31:29.000Z</time>
      </trkpt>
      <trkpt lat="47.29397" lon="-2.25951">
        <ele>2.7999999523163</ele>
        <time>2022-01-16T10:31:30.000Z</time>
      </trkpt>
      <trkpt lat="47.29396" lon="-2.25952">
        <ele>3.2000000476837</ele>
        <time>2022-01-16T10:31:31.000Z</time>
      </trkpt>
      <trkpt lat="47.29395" lon="-2.25955">
        <ele>3.5999999046326</ele>
        <time>2022-01-16T10:31:32.000Z</time>
      </trkpt>
      <trkpt lat="47.29395" lon="-2.25957">
        <ele>3.5999999046326</ele>
        <time>2022-01-16T10:31:33.000Z</time>
      </trkpt>
      <trkpt lat="47.29395" lon="-2.25972">
        <ele>3.5999999046326</ele>
        <time>2022-01-16T10:31:38.000Z</time>
      </trkpt>
      <trkpt lat="47.29392" lon="-2.25998">
        <ele>3.5999999046326</ele>
        <time>2022-01-16T10:31:43.000Z</time>
      </trkpt>
      <trkpt lat="47.29392" lon="-2.26003">
        <ele>3.2000000476837</ele>
        <time>2022-01-16T10:31:44.000Z</time>
      </trkpt>
      <trkpt lat="47.29392" lon="-2.26009">
        <ele>2.7999999523163</ele>
        <time>2022-01-16T10:31:45.000Z</time>
      </trkpt>
      <trkpt lat="47.29391" lon="-2.26014">
        <ele>2.4000000953674</ele>
        <time>2022-01-16T10:31:46.000Z</time>
      </trkpt>
      <trkpt lat="47.29391" lon="-2.26018">
        <ele>2</ele>
        <time>2022-01-16T10:31:47.000Z</time>
      </trkpt>
      <trkpt lat="47.2939" lon="-2.26022">
        <ele>1.6000000238419</ele>
        <time>2022-01-16T10:31:48.000Z</time>
      </trkpt>
      <trkpt lat="47.2939" lon="-2.26027">
        <ele>1.6000000238419</ele>
        <time>2022-01-16T10:31:49.000Z</time>
      </trkpt>
      <trkpt lat="47.29401" lon="-2.26045">
        <ele>1.6000000238419</ele>
        <time>2022-01-16T10:31:54.000Z</time>
      </trkpt>
      <trkpt lat="47.29405" lon="-2.26058">
        <ele>1.6000000238419</ele>
        <time>2022-01-16T10:31:58.000Z</time>
      </trkpt>
      <trkpt lat="47.29411" lon="-2.26078">
        <ele>1.6000000238419</ele>
        <time>2022-01-16T10:32:04.000Z</time>
      </trkpt>
      <trkpt lat="47.29415" lon="-2.26105">
        <ele>1.6000000238419</ele>
        <time>2022-01-16T10:32:09.000Z</time>
      </trkpt>
      <trkpt lat="47.29413" lon="-2.26138">
        <ele>1.6000000238419</ele>
        <time>2022-01-16T10:32:14.000Z</time>
      </trkpt>
      <trkpt lat="47.2941" lon="-2.26155">
        <ele>2.2000000476837</ele>
        <time>2022-01-16T10:32:18.000Z</time>
      </trkpt>
      <trkpt lat="47.29407" lon="-2.26158">
        <ele>2.5999999046326</ele>
        <time>2022-01-16T10:32:19.000Z</time>
      </trkpt>
      <trkpt lat="47.29405" lon="-2.2616">
        <ele>3</ele>
        <time>2022-01-16T10:32:20.000Z</time>
      </trkpt>
      <trkpt lat="47.29402" lon="-2.26161">
        <ele>3.4000000953674</ele>
        <time>2022-01-16T10:32:21.000Z</time>
      </trkpt>
      <trkpt lat="47.294" lon="-2.26161">
        <ele>4</ele>
        <time>2022-01-16T10:32:22.000Z</time>
      </trkpt>
      <trkpt lat="47.29393" lon="-2.26163">
        <ele>4</ele>
        <time>2022-01-16T10:32:25.000Z</time>
      </trkpt>
      <trkpt lat="47.29385" lon="-2.26163">
        <ele>4.8000001907349</ele>
        <time>2022-01-16T10:32:28.000Z</time>
      </trkpt>
      <trkpt lat="47.29382" lon="-2.26163">
        <ele>5.1999998092651</ele>
        <time>2022-01-16T10:32:29.000Z</time>
      </trkpt>
      <trkpt lat="47.2938" lon="-2.26162">
        <ele>5.5999999046326</ele>
        <time>2022-01-16T10:32:30.000Z</time>
      </trkpt>
      <trkpt lat="47.29376" lon="-2.26161">
        <ele>6</ele>
        <time>2022-01-16T10:32:31.000Z</time>
      </trkpt>
      <trkpt lat="47.2937" lon="-2.26162">
        <ele>6</ele>
        <time>2022-01-16T10:32:33.000Z</time>
      </trkpt>
      <trkpt lat="47.29352" lon="-2.26164">
        <ele>6</ele>
        <time>2022-01-16T10:32:39.000Z</time>
      </trkpt>
      <trkpt lat="47.29343" lon="-2.26167">
        <ele>6</ele>
        <time>2022-01-16T10:32:44.000Z</time>
      </trkpt>
      <trkpt lat="47.2934" lon="-2.26169">
        <ele>6</ele>
        <time>2022-01-16T10:32:46.000Z</time>
      </trkpt>
      <trkpt lat="47.29338" lon="-2.26169">
        <ele>6.4000000953674</ele>
        <time>2022-01-16T10:32:47.000Z</time>
      </trkpt>
      <trkpt lat="47.29336" lon="-2.26169">
        <ele>7</ele>
        <time>2022-01-16T10:32:48.000Z</time>
      </trkpt>
      <trkpt lat="47.29335" lon="-2.2617">
        <ele>7.4000000953674</ele>
        <time>2022-01-16T10:32:49.000Z</time>
      </trkpt>
      <trkpt lat="47.29333" lon="-2.2617">
        <ele>7.8000001907349</ele>
        <time>2022-01-16T10:32:50.000Z</time>
      </trkpt>
      <trkpt lat="47.29331" lon="-2.26171">
        <ele>8.1999998092651</ele>
        <time>2022-01-16T10:32:51.000Z</time>
      </trkpt>
      <trkpt lat="47.2933" lon="-2.26171">
        <ele>8.1999998092651</ele>
        <time>2022-01-16T10:32:52.000Z</time>
      </trkpt>
      <trkpt lat="47.29322" lon="-2.26173">
        <ele>8.1999998092651</ele>
        <time>2022-01-16T10:32:56.000Z</time>
      </trkpt>
      <trkpt lat="47.2932" lon="-2.26175">
        <ele>8.1999998092651</ele>
        <time>2022-01-16T10:32:57.000Z</time>
      </trkpt>
      <trkpt lat="47.29317" lon="-2.26181">
        <ele>8.1999998092651</ele>
        <time>2022-01-16T10:33:00.000Z</time>
      </trkpt>
      <trkpt lat="47.29311" lon="-2.26182">
        <ele>8.1999998092651</ele>
        <time>2022-01-16T10:33:02.000Z</time>
      </trkpt>
      <trkpt lat="47.29304" lon="-2.26181">
        <ele>8.1999998092651</ele>
        <time>2022-01-16T10:33:04.000Z</time>
      </trkpt>
      <trkpt lat="47.29297" lon="-2.2618">
        <ele>8.1999998092651</ele>
        <time>2022-01-16T10:33:06.000Z</time>
      </trkpt>
      <trkpt lat="47.29279" lon="-2.2618">
        <ele>8.1999998092651</ele>
        <time>2022-01-16T10:33:12.000Z</time>
      </trkpt>
      <trkpt lat="47.29265" lon="-2.26176">
        <ele>8.1999998092651</ele>
        <time>2022-01-16T10:33:17.000Z</time>
      </trkpt>
      <trkpt lat="47.29264" lon="-2.26171">
        <ele>8.1999998092651</ele>
        <time>2022-01-16T10:33:18.000Z</time>
      </trkpt>
      <trkpt lat="47.29253" lon="-2.26137">
        <ele>8.6000003814697</ele>
        <time>2022-01-16T10:33:25.000Z</time>
      </trkpt>
      <trkpt lat="47.29251" lon="-2.26133">
        <ele>9</ele>
        <time>2022-01-16T10:33:26.000Z</time>
      </trkpt>
      <trkpt lat="47.29249" lon="-2.26129">
        <ele>9.3999996185303</ele>
        <time>2022-01-16T10:33:27.000Z</time>
      </trkpt>
      <trkpt lat="47.29247" lon="-2.26123">
        <ele>9.8000001907349</ele>
        <time>2022-01-16T10:33:28.000Z</time>
      </trkpt>
      <trkpt lat="47.29246" lon="-2.26118">
        <ele>10.199999809265</ele>
        <time>2022-01-16T10:33:29.000Z</time>
      </trkpt>
      <trkpt lat="47.29241" lon="-2.26103">
        <ele>10.199999809265</ele>
        <time>2022-01-16T10:33:32.000Z</time>
      </trkpt>
      <trkpt lat="47.29228" lon="-2.26083">
        <ele>10.199999809265</ele>
        <time>2022-01-16T10:33:37.000Z</time>
      </trkpt>
      <trkpt lat="47.29215" lon="-2.26064">
        <ele>10.199999809265</ele>
        <time>2022-01-16T10:33:41.000Z</time>
      </trkpt>
      <trkpt lat="47.29211" lon="-2.26059">
        <ele>10.199999809265</ele>
        <time>2022-01-16T10:33:42.000Z</time>
      </trkpt>
      <trkpt lat="47.29185" lon="-2.26026">
        <ele>10.199999809265</ele>
        <time>2022-01-16T10:33:48.000Z</time>
      </trkpt>
      <trkpt lat="47.29175" lon="-2.26008">
        <ele>10.199999809265</ele>
        <time>2022-01-16T10:33:52.000Z</time>
      </trkpt>
      <trkpt lat="47.29174" lon="-2.26005">
        <ele>9.8000001907349</ele>
        <time>2022-01-16T10:33:53.000Z</time>
      </trkpt>
      <trkpt lat="47.29174" lon="-2.26003">
        <ele>9.3999996185303</ele>
        <time>2022-01-16T10:33:54.000Z</time>
      </trkpt>
      <trkpt lat="47.29174" lon="-2.26001">
        <ele>9</ele>
        <time>2022-01-16T10:33:55.000Z</time>
      </trkpt>
      <trkpt lat="47.29174" lon="-2.25998">
        <ele>8.6000003814697</ele>
        <time>2022-01-16T10:33:56.000Z</time>
      </trkpt>
      <trkpt lat="47.29174" lon="-2.25996">
        <ele>8.1999998092651</ele>
        <time>2022-01-16T10:33:57.000Z</time>
      </trkpt>
      <trkpt lat="47.29178" lon="-2.25994">
        <ele>8.1999998092651</ele>
        <time>2022-01-16T10:33:59.000Z</time>
      </trkpt>
      <trkpt lat="47.29179" lon="-2.26001">
        <ele>8.1999998092651</ele>
        <time>2022-01-16T10:34:03.000Z</time>
      </trkpt>
      <trkpt lat="47.29175" lon="-2.26005">
        <ele>8.1999998092651</ele>
        <time>2022-01-16T10:34:08.000Z</time>
      </trkpt>
      <trkpt lat="47.2917" lon="-2.25993">
        <ele>8.1999998092651</ele>
        <time>2022-01-16T10:34:11.000Z</time>
      </trkpt>
      <trkpt lat="47.29156" lon="-2.25978">
        <ele>8.1999998092651</ele>
        <time>2022-01-16T10:34:16.000Z</time>
      </trkpt>
      <trkpt lat="47.29135" lon="-2.25974">
        <ele>8.1999998092651</ele>
        <time>2022-01-16T10:34:21.000Z</time>
      </trkpt>
      <trkpt lat="47.29114" lon="-2.25974">
        <ele>8.1999998092651</ele>
        <time>2022-01-16T10:34:27.000Z</time>
      </trkpt>
      <trkpt lat="47.291" lon="-2.25979">
        <ele>8.1999998092651</ele>
        <time>2022-01-16T10:34:33.000Z</time>
      </trkpt>
      <trkpt lat="47.29094" lon="-2.25985">
        <ele>8.1999998092651</ele>
        <time>2022-01-16T10:34:38.000Z</time>
      </trkpt>
      <trkpt lat="47.29086" lon="-2.25989">
        <ele>8.1999998092651</ele>
        <time>2022-01-16T10:34:43.000Z</time>
      </trkpt>
      <trkpt lat="47.2907" lon="-2.25994">
        <ele>8.1999998092651</ele>
        <time>2022-01-16T10:34:49.000Z</time>
      </trkpt>
      <trkpt lat="47.29059" lon="-2.25986">
        <ele>8.1999998092651</ele>
        <time>2022-01-16T10:34:53.000Z</time>
      </trkpt>
      <trkpt lat="47.29047" lon="-2.25967">
        <ele>8.1999998092651</ele>
        <time>2022-01-16T10:34:58.000Z</time>
      </trkpt>
      <trkpt lat="47.2903" lon="-2.25963">
        <ele>8.1999998092651</ele>
        <time>2022-01-16T10:35:02.000Z</time>
      </trkpt>
      <trkpt lat="47.2902" lon="-2.25963">
        <ele>7.8000001907349</ele>
        <time>2022-01-16T10:35:04.000Z</time>
      </trkpt>
      <trkpt lat="47.29016" lon="-2.25963">
        <ele>7.4000000953674</ele>
        <time>2022-01-16T10:35:05.000Z</time>
      </trkpt>
      <trkpt lat="47.29011" lon="-2.25963">
        <ele>7</ele>
        <time>2022-01-16T10:35:06.000Z</time>
      </trkpt>
      <trkpt lat="47.29005" lon="-2.25963">
        <ele>6.5999999046326</ele>
        <time>2022-01-16T10:35:07.000Z</time>
      </trkpt>
      <trkpt lat="47.29" lon="-2.25963">
        <ele>6.1999998092651</ele>
        <time>2022-01-16T10:35:08.000Z</time>
      </trkpt>
      <trkpt lat="47.28957" lon="-2.25964">
        <ele>6.1999998092651</ele>
        <time>2022-01-16T10:35:16.000Z</time>
      </trkpt>
      <trkpt lat="47.28922" lon="-2.25965">
        <ele>6.1999998092651</ele>
        <time>2022-01-16T10:35:22.000Z</time>
      </trkpt>
      <trkpt lat="47.28889" lon="-2.25967">
        <ele>6.1999998092651</ele>
        <time>2022-01-16T10:35:27.000Z</time>
      </trkpt>
      <trkpt lat="47.28834" lon="-2.25967">
        <ele>6.1999998092651</ele>
        <time>2022-01-16T10:35:36.000Z</time>
      </trkpt>
      <trkpt lat="47.28806" lon="-2.25968">
        <ele>6.1999998092651</ele>
        <time>2022-01-16T10:35:41.000Z</time>
      </trkpt>
      <trkpt lat="47.28795" lon="-2.25971">
        <ele>6.1999998092651</ele>
        <time>2022-01-16T10:35:43.000Z</time>
      </trkpt>
      <trkpt lat="47.28756" lon="-2.25972">
        <ele>6.1999998092651</ele>
        <time>2022-01-16T10:35:50.000Z</time>
      </trkpt>
      <trkpt lat="47.28725" lon="-2.25972">
        <ele>6.1999998092651</ele>
        <time>2022-01-16T10:35:56.000Z</time>
      </trkpt>
      <trkpt lat="47.2871" lon="-2.25973">
        <ele>6.1999998092651</ele>
        <time>2022-01-16T10:35:59.000Z</time>
      </trkpt>
      <trkpt lat="47.28699" lon="-2.25974">
        <ele>6.1999998092651</ele>
        <time>2022-01-16T10:36:01.000Z</time>
      </trkpt>
      <trkpt lat="47.28694" lon="-2.25975">
        <ele>6.1999998092651</ele>
        <time>2022-01-16T10:36:02.000Z</time>
      </trkpt>
      <trkpt lat="47.2866" lon="-2.25976">
        <ele>6.1999998092651</ele>
        <time>2022-01-16T10:36:09.000Z</time>
      </trkpt>
      <trkpt lat="47.28636" lon="-2.25977">
        <ele>6.5999999046326</ele>
        <time>2022-01-16T10:36:14.000Z</time>
      </trkpt>
      <trkpt lat="47.28631" lon="-2.25977">
        <ele>7</ele>
        <time>2022-01-16T10:36:15.000Z</time>
      </trkpt>
      <trkpt lat="47.28627" lon="-2.25977">
        <ele>7.4000000953674</ele>
        <time>2022-01-16T10:36:16.000Z</time>
      </trkpt>
      <trkpt lat="47.28622" lon="-2.25977">
        <ele>7.8000001907349</ele>
        <time>2022-01-16T10:36:17.000Z</time>
      </trkpt>
      <trkpt lat="47.28617" lon="-2.25978">
        <ele>8.1999998092651</ele>
        <time>2022-01-16T10:36:18.000Z</time>
      </trkpt>
      <trkpt lat="47.28583" lon="-2.25979">
        <ele>8.1999998092651</ele>
        <time>2022-01-16T10:36:25.000Z</time>
      </trkpt>
      <trkpt lat="47.28537" lon="-2.25978">
        <ele>8.6000003814697</ele>
        <time>2022-01-16T10:36:34.000Z</time>
      </trkpt>
      <trkpt lat="47.28532" lon="-2.25978">
        <ele>9</ele>
        <time>2022-01-16T10:36:35.000Z</time>
      </trkpt>
      <trkpt lat="47.28527" lon="-2.25977">
        <ele>9.3999996185303</ele>
        <time>2022-01-16T10:36:36.000Z</time>
      </trkpt>
      <trkpt lat="47.28522" lon="-2.25977">
        <ele>9.8000001907349</ele>
        <time>2022-01-16T10:36:37.000Z</time>
      </trkpt>
      <trkpt lat="47.28516" lon="-2.25975">
        <ele>10.199999809265</ele>
        <time>2022-01-16T10:36:38.000Z</time>
      </trkpt>
      <trkpt lat="47.28501" lon="-2.25972">
        <ele>10.199999809265</ele>
        <time>2022-01-16T10:36:41.000Z</time>
      </trkpt>
      <trkpt lat="47.28496" lon="-2.25972">
        <ele>10.199999809265</ele>
        <time>2022-01-16T10:36:42.000Z</time>
      </trkpt>
      <trkpt lat="47.28475" lon="-2.25967">
        <ele>10.199999809265</ele>
        <time>2022-01-16T10:36:46.000Z</time>
      </trkpt>
      <trkpt lat="47.28465" lon="-2.25966">
        <ele>10.199999809265</ele>
        <time>2022-01-16T10:36:48.000Z</time>
      </trkpt>
      <trkpt lat="47.28455" lon="-2.25965">
        <ele>10.60000038147</ele>
        <time>2022-01-16T10:36:50.000Z</time>
      </trkpt>
      <trkpt lat="47.28449" lon="-2.25965">
        <ele>11</ele>
        <time>2022-01-16T10:36:51.000Z</time>
      </trkpt>
      <trkpt lat="47.28444" lon="-2.25965">
        <ele>11.60000038147</ele>
        <time>2022-01-16T10:36:52.000Z</time>
      </trkpt>
      <trkpt lat="47.28439" lon="-2.25965">
        <ele>12</ele>
        <time>2022-01-16T10:36:53.000Z</time>
      </trkpt>
      <trkpt lat="47.28434" lon="-2.25965">
        <ele>12.39999961853</ele>
        <time>2022-01-16T10:36:54.000Z</time>
      </trkpt>
      <trkpt lat="47.28424" lon="-2.25964">
        <ele>12.39999961853</ele>
        <time>2022-01-16T10:36:56.000Z</time>
      </trkpt>
      <trkpt lat="47.28412" lon="-2.2596">
        <ele>12.39999961853</ele>
        <time>2022-01-16T10:36:59.000Z</time>
      </trkpt>
      <trkpt lat="47.28401" lon="-2.25951">
        <ele>12.39999961853</ele>
        <time>2022-01-16T10:37:02.000Z</time>
      </trkpt>
      <trkpt lat="47.284" lon="-2.25945">
        <ele>12.39999961853</ele>
        <time>2022-01-16T10:37:03.000Z</time>
      </trkpt>
      <trkpt lat="47.284" lon="-2.25925">
        <ele>12.39999961853</ele>
        <time>2022-01-16T10:37:06.000Z</time>
      </trkpt>
      <trkpt lat="47.28399" lon="-2.25899">
        <ele>12.39999961853</ele>
        <time>2022-01-16T10:37:10.000Z</time>
      </trkpt>
      <trkpt lat="47.28398" lon="-2.25893">
        <ele>12.39999961853</ele>
        <time>2022-01-16T10:37:11.000Z</time>
      </trkpt>
      <trkpt lat="47.28398" lon="-2.25886">
        <ele>12.39999961853</ele>
        <time>2022-01-16T10:37:12.000Z</time>
      </trkpt>
      <trkpt lat="47.28401" lon="-2.2586">
        <ele>12.39999961853</ele>
        <time>2022-01-16T10:37:16.000Z</time>
      </trkpt>
      <trkpt lat="47.28402" lon="-2.2584">
        <ele>12.39999961853</ele>
        <time>2022-01-16T10:37:19.000Z</time>
      </trkpt>
      <trkpt lat="47.28398" lon="-2.25832">
        <ele>12.39999961853</ele>
        <time>2022-01-16T10:37:21.000Z</time>
      </trkpt>
      <trkpt lat="47.28388" lon="-2.25823">
        <ele>12.39999961853</ele>
        <time>2022-01-16T10:37:24.000Z</time>
      </trkpt>
      <trkpt lat="47.28385" lon="-2.2582">
        <ele>12.39999961853</ele>
        <time>2022-01-16T10:37:25.000Z</time>
      </trkpt>
      <trkpt lat="47.28374" lon="-2.2581">
        <ele>12.39999961853</ele>
        <time>2022-01-16T10:37:30.000Z</time>
      </trkpt>
      <trkpt lat="47.28374" lon="-2.25808">
        <ele>12.39999961853</ele>
        <time>2022-01-16T10:37:31.000Z</time>
      </trkpt>
      <trkpt lat="47.28374" lon="-2.25802">
        <ele>12.39999961853</ele>
        <time>2022-01-16T10:37:34.000Z</time>
      </trkpt>
      <trkpt lat="47.28375" lon="-2.25794">
        <ele>12.39999961853</ele>
        <time>2022-01-16T10:37:36.000Z</time>
      </trkpt>
      <trkpt lat="47.28376" lon="-2.25778">
        <ele>12.39999961853</ele>
        <time>2022-01-16T10:37:39.000Z</time>
      </trkpt>
      <trkpt lat="47.28379" lon="-2.25753">
        <ele>12.39999961853</ele>
        <time>2022-01-16T10:37:44.000Z</time>
      </trkpt>
      <trkpt lat="47.28381" lon="-2.2573">
        <ele>12.39999961853</ele>
        <time>2022-01-16T10:37:51.000Z</time>
      </trkpt>
      <trkpt lat="47.2838" lon="-2.25712">
        <ele>12.39999961853</ele>
        <time>2022-01-16T10:37:55.000Z</time>
      </trkpt>
      <trkpt lat="47.28375" lon="-2.25694">
        <ele>12.39999961853</ele>
        <time>2022-01-16T10:37:58.000Z</time>
      </trkpt>
      <trkpt lat="47.28371" lon="-2.25689">
        <ele>12.39999961853</ele>
        <time>2022-01-16T10:37:59.000Z</time>
      </trkpt>
      <trkpt lat="47.28367" lon="-2.25678">
        <ele>12.39999961853</ele>
        <time>2022-01-16T10:38:01.000Z</time>
      </trkpt>
      <trkpt lat="47.28364" lon="-2.25658">
        <ele>12.39999961853</ele>
        <time>2022-01-16T10:38:04.000Z</time>
      </trkpt>
      <trkpt lat="47.28365" lon="-2.25645">
        <ele>12.39999961853</ele>
        <time>2022-01-16T10:38:06.000Z</time>
      </trkpt>
      <trkpt lat="47.28364" lon="-2.25638">
        <ele>12.39999961853</ele>
        <time>2022-01-16T10:38:07.000Z</time>
      </trkpt>
      <trkpt lat="47.28362" lon="-2.25631">
        <ele>12.39999961853</ele>
        <time>2022-01-16T10:38:08.000Z</time>
      </trkpt>
      <trkpt lat="47.28361" lon="-2.25596">
        <ele>12.39999961853</ele>
        <time>2022-01-16T10:38:13.000Z</time>
      </trkpt>
      <trkpt lat="47.28367" lon="-2.2554">
        <ele>12.39999961853</ele>
        <time>2022-01-16T10:38:20.000Z</time>
      </trkpt>
      <trkpt lat="47.28371" lon="-2.25491">
        <ele>12.39999961853</ele>
        <time>2022-01-16T10:38:26.000Z</time>
      </trkpt>
      <trkpt lat="47.28374" lon="-2.25434">
        <ele>12.39999961853</ele>
        <time>2022-01-16T10:38:33.000Z</time>
      </trkpt>
      <trkpt lat="47.28377" lon="-2.2538">
        <ele>12.39999961853</ele>
        <time>2022-01-16T10:38:40.000Z</time>
      </trkpt>
      <trkpt lat="47.28383" lon="-2.25329">
        <ele>12.39999961853</ele>
        <time>2022-01-16T10:38:47.000Z</time>
      </trkpt>
      <trkpt lat="47.28384" lon="-2.25323">
        <ele>12.39999961853</ele>
        <time>2022-01-16T10:38:48.000Z</time>
      </trkpt>
      <trkpt lat="47.2838" lon="-2.25318">
        <ele>12.39999961853</ele>
        <time>2022-01-16T10:38:50.000Z</time>
      </trkpt>
      <trkpt lat="47.2837" lon="-2.25322">
        <ele>12.39999961853</ele>
        <time>2022-01-16T10:38:54.000Z</time>
      </trkpt>
      <trkpt lat="47.28367" lon="-2.25324">
        <ele>12.39999961853</ele>
        <time>2022-01-16T10:38:55.000Z</time>
      </trkpt>
      <trkpt lat="47.28351" lon="-2.25339">
        <ele>12.39999961853</ele>
        <time>2022-01-16T10:39:01.000Z</time>
      </trkpt>
      <trkpt lat="47.28329" lon="-2.25357">
        <ele>12.39999961853</ele>
        <time>2022-01-16T10:39:08.000Z</time>
      </trkpt>
      <trkpt lat="47.28305" lon="-2.25363">
        <ele>12.39999961853</ele>
        <time>2022-01-16T10:39:13.000Z</time>
      </trkpt>
      <trkpt lat="47.28298" lon="-2.25364">
        <ele>12</ele>
        <time>2022-01-16T10:39:14.000Z</time>
      </trkpt>
      <trkpt lat="47.2829" lon="-2.25364">
        <ele>11.60000038147</ele>
        <time>2022-01-16T10:39:15.000Z</time>
      </trkpt>
      <trkpt lat="47.28284" lon="-2.25364">
        <ele>11</ele>
        <time>2022-01-16T10:39:16.000Z</time>
      </trkpt>
      <trkpt lat="47.28278" lon="-2.25365">
        <ele>10.60000038147</ele>
        <time>2022-01-16T10:39:17.000Z</time>
      </trkpt>
      <trkpt lat="47.28273" lon="-2.25366">
        <ele>10.199999809265</ele>
        <time>2022-01-16T10:39:18.000Z</time>
      </trkpt>
      <trkpt lat="47.28248" lon="-2.25381">
        <ele>9.8000001907349</ele>
        <time>2022-01-16T10:39:23.000Z</time>
      </trkpt>
      <trkpt lat="47.28243" lon="-2.25384">
        <ele>9.3999996185303</ele>
        <time>2022-01-16T10:39:24.000Z</time>
      </trkpt>
      <trkpt lat="47.28237" lon="-2.25387">
        <ele>9</ele>
        <time>2022-01-16T10:39:25.000Z</time>
      </trkpt>
      <trkpt lat="47.28231" lon="-2.25391">
        <ele>8.3999996185303</ele>
        <time>2022-01-16T10:39:26.000Z</time>
      </trkpt>
      <trkpt lat="47.28225" lon="-2.25396">
        <ele>8</ele>
        <time>2022-01-16T10:39:27.000Z</time>
      </trkpt>
      <trkpt lat="47.28219" lon="-2.25401">
        <ele>7.5999999046326</ele>
        <time>2022-01-16T10:39:28.000Z</time>
      </trkpt>
      <trkpt lat="47.28212" lon="-2.25406">
        <ele>7</ele>
        <time>2022-01-16T10:39:29.000Z</time>
      </trkpt>
      <trkpt lat="47.28206" lon="-2.2541">
        <ele>6.5999999046326</ele>
        <time>2022-01-16T10:39:30.000Z</time>
      </trkpt>
      <trkpt lat="47.28199" lon="-2.25415">
        <ele>6.1999998092651</ele>
        <time>2022-01-16T10:39:31.000Z</time>
      </trkpt>
      <trkpt lat="47.28193" lon="-2.2542">
        <ele>5.8000001907349</ele>
        <time>2022-01-16T10:39:32.000Z</time>
      </trkpt>
      <trkpt lat="47.28186" lon="-2.25424">
        <ele>5.8000001907349</ele>
        <time>2022-01-16T10:39:33.000Z</time>
      </trkpt>
      <trkpt lat="47.2818" lon="-2.25428">
        <ele>5.1999998092651</ele>
        <time>2022-01-16T10:39:34.000Z</time>
      </trkpt>
      <trkpt lat="47.28174" lon="-2.25433">
        <ele>4.8000001907349</ele>
        <time>2022-01-16T10:39:35.000Z</time>
      </trkpt>
      <trkpt lat="47.28168" lon="-2.25437">
        <ele>4.4000000953674</ele>
        <time>2022-01-16T10:39:36.000Z</time>
      </trkpt>
      <trkpt lat="47.28162" lon="-2.25437">
        <ele>4</ele>
        <time>2022-01-16T10:39:37.000Z</time>
      </trkpt>
      <trkpt lat="47.28157" lon="-2.25439">
        <ele>3.5999999046326</ele>
        <time>2022-01-16T10:39:38.000Z</time>
      </trkpt>
      <trkpt lat="47.28141" lon="-2.25451">
        <ele>3.5999999046326</ele>
        <time>2022-01-16T10:39:42.000Z</time>
      </trkpt>
      <trkpt lat="47.28137" lon="-2.25454">
        <ele>3.2000000476837</ele>
        <time>2022-01-16T10:39:43.000Z</time>
      </trkpt>
      <trkpt lat="47.28132" lon="-2.25455">
        <ele>2.7999999523163</ele>
        <time>2022-01-16T10:39:44.000Z</time>
      </trkpt>
      <trkpt lat="47.28128" lon="-2.25457">
        <ele>2.4000000953674</ele>
        <time>2022-01-16T10:39:45.000Z</time>
      </trkpt>
      <trkpt lat="47.28124" lon="-2.25459">
        <ele>2</ele>
        <time>2022-01-16T10:39:46.000Z</time>
      </trkpt>
      <trkpt lat="47.28121" lon="-2.25461">
        <ele>1.6000000238419</ele>
        <time>2022-01-16T10:39:47.000Z</time>
      </trkpt>
      <trkpt lat="47.28117" lon="-2.25464">
        <ele>1.6000000238419</ele>
        <time>2022-01-16T10:39:48.000Z</time>
      </trkpt>
      <trkpt lat="47.28108" lon="-2.25472">
        <ele>1.6000000238419</ele>
        <time>2022-01-16T10:39:52.000Z</time>
      </trkpt>
      <trkpt lat="47.28098" lon="-2.25473">
        <ele>1</ele>
        <time>2022-01-16T10:39:55.000Z</time>
      </trkpt>
      <trkpt lat="47.28094" lon="-2.25473">
        <ele>0.60000002384186</ele>
        <time>2022-01-16T10:39:56.000Z</time>
      </trkpt>
      <trkpt lat="47.28091" lon="-2.2547">
        <ele>14.3</ele>
        <time>2022-01-16T10:39:57.000Z</time>
      </trkpt>
      <trkpt lat="47.2809" lon="-2.25463">
        <ele>-0.40000000596046</ele>
        <time>2022-01-16T10:39:58.000Z</time>
      </trkpt>
      <trkpt lat="47.28089" lon="-2.25457">
        <ele>-0.80000001192093</ele>
        <time>2022-01-16T10:39:59.000Z</time>
      </trkpt>
      <trkpt lat="47.28087" lon="-2.25444">
        <ele>-0.80000001192093</ele>
        <time>2022-01-16T10:40:01.000Z</time>
      </trkpt>
      <trkpt lat="47.28083" lon="-2.25415">
        <ele>-0.80000001192093</ele>
        <time>2022-01-16T10:40:05.000Z</time>
      </trkpt>
      <trkpt lat="47.28083" lon="-2.25407">
        <ele>-0.80000001192093</ele>
        <time>2022-01-16T10:40:06.000Z</time>
      </trkpt>
      <trkpt lat="47.28082" lon="-2.25368">
        <ele>-0.80000001192093</ele>
        <time>2022-01-16T10:40:11.000Z</time>
      </trkpt>
      <trkpt lat="47.2808" lon="-2.25299">
        <ele>-0.80000001192093</ele>
        <time>2022-01-16T10:40:20.000Z</time>
      </trkpt>
      <trkpt lat="47.28081" lon="-2.25284">
        <ele>-0.80000001192093</ele>
        <time>2022-01-16T10:40:22.000Z</time>
      </trkpt>
      <trkpt lat="47.28084" lon="-2.25262">
        <ele>-0.80000001192093</ele>
        <time>2022-01-16T10:40:25.000Z</time>
      </trkpt>
      <trkpt lat="47.28086" lon="-2.25254">
        <ele>-0.80000001192093</ele>
        <time>2022-01-16T10:40:26.000Z</time>
      </trkpt>
      <trkpt lat="47.28094" lon="-2.25226">
        <ele>-0.80000001192093</ele>
        <time>2022-01-16T10:40:30.000Z</time>
      </trkpt>
      <trkpt lat="47.28095" lon="-2.25213">
        <ele>-0.80000001192093</ele>
        <time>2022-01-16T10:40:32.000Z</time>
      </trkpt>
      <trkpt lat="47.28097" lon="-2.25198">
        <ele>-0.80000001192093</ele>
        <time>2022-01-16T10:40:34.000Z</time>
      </trkpt>
      <trkpt lat="47.28098" lon="-2.25191">
        <ele>-0.80000001192093</ele>
        <time>2022-01-16T10:40:35.000Z</time>
      </trkpt>
      <trkpt lat="47.28098" lon="-2.25183">
        <ele>-0.80000001192093</ele>
        <time>2022-01-16T10:40:36.000Z</time>
      </trkpt>
      <trkpt lat="47.28094" lon="-2.25164">
        <ele>-0.80000001192093</ele>
        <time>2022-01-16T10:40:39.000Z</time>
      </trkpt>
      <trkpt lat="47.28081" lon="-2.25146">
        <ele>-0.80000001192093</ele>
        <time>2022-01-16T10:40:43.000Z</time>
      </trkpt>
      <trkpt lat="47.28074" lon="-2.2514">
        <ele>-0.80000001192093</ele>
        <time>2022-01-16T10:40:45.000Z</time>
      </trkpt>
      <trkpt lat="47.28058" lon="-2.25127">
        <ele>-0.80000001192093</ele>
        <time>2022-01-16T10:40:50.000Z</time>
      </trkpt>
      <trkpt lat="47.28034" lon="-2.25108">
        <ele>-0.80000001192093</ele>
        <time>2022-01-16T10:40:57.000Z</time>
      </trkpt>
      <trkpt lat="47.28007" lon="-2.25086">
        <ele>-0.80000001192093</ele>
        <time>2022-01-16T10:41:04.000Z</time>
      </trkpt>
      <trkpt lat="47.27983" lon="-2.25068">
        <ele>-0.80000001192093</ele>
        <time>2022-01-16T10:41:10.000Z</time>
      </trkpt>
      <trkpt lat="47.27979" lon="-2.25071">
        <ele>-0.80000001192093</ele>
        <time>2022-01-16T10:41:11.000Z</time>
      </trkpt>
      <trkpt lat="47.27963" lon="-2.25072">
        <ele>-0.80000001192093</ele>
        <time>2022-01-16T10:41:14.000Z</time>
      </trkpt>
      <trkpt lat="47.27958" lon="-2.25072">
        <ele>-0.80000001192093</ele>
        <time>2022-01-16T10:41:15.000Z</time>
      </trkpt>
      <trkpt lat="47.2793" lon="-2.25076">
        <ele>-0.80000001192093</ele>
        <time>2022-01-16T10:41:21.000Z</time>
      </trkpt>
      <trkpt lat="47.27925" lon="-2.25077">
        <ele>-0.80000001192093</ele>
        <time>2022-01-16T10:41:24.000Z</time>
      </trkpt>
      <trkpt lat="47.2791" lon="-2.25083">
        <ele>-0.80000001192093</ele>
        <time>2022-01-16T10:41:30.000Z</time>
      </trkpt>
      <trkpt lat="47.27905" lon="-2.25085">
        <ele>-0.80000001192093</ele>
        <time>2022-01-16T10:41:31.000Z</time>
      </trkpt>
      <trkpt lat="47.27893" lon="-2.25078">
        <ele>-0.80000001192093</ele>
        <time>2022-01-16T10:41:34.000Z</time>
      </trkpt>
      <trkpt lat="47.27889" lon="-2.25073">
        <ele>-0.80000001192093</ele>
        <time>2022-01-16T10:41:35.000Z</time>
      </trkpt>
      <trkpt lat="47.27876" lon="-2.25061">
        <ele>-0.80000001192093</ele>
        <time>2022-01-16T10:41:38.000Z</time>
      </trkpt>
      <trkpt lat="47.27867" lon="-2.25056">
        <ele>-0.80000001192093</ele>
        <time>2022-01-16T10:41:40.000Z</time>
      </trkpt>
      <trkpt lat="47.27839" lon="-2.25045">
        <ele>-0.80000001192093</ele>
        <time>2022-01-16T10:41:45.000Z</time>
      </trkpt>
      <trkpt lat="47.27808" lon="-2.25026">
        <ele>-0.80000001192093</ele>
        <time>2022-01-16T10:41:52.000Z</time>
      </trkpt>
      <trkpt lat="47.27803" lon="-2.25024">
        <ele>-0.80000001192093</ele>
        <time>2022-01-16T10:41:53.000Z</time>
      </trkpt>
      <trkpt lat="47.27789" lon="-2.25021">
        <ele>-0.80000001192093</ele>
        <time>2022-01-16T10:41:56.000Z</time>
      </trkpt>
      <trkpt lat="47.27785" lon="-2.25022">
        <ele>-0.80000001192093</ele>
        <time>2022-01-16T10:41:57.000Z</time>
      </trkpt>
      <trkpt lat="47.27765" lon="-2.2503">
        <ele>-0.80000001192093</ele>
        <time>2022-01-16T10:42:01.000Z</time>
      </trkpt>
      <trkpt lat="47.27749" lon="-2.25043">
        <ele>-0.80000001192093</ele>
        <time>2022-01-16T10:42:05.000Z</time>
      </trkpt>
      <trkpt lat="47.27741" lon="-2.2505">
        <ele>-0.80000001192093</ele>
        <time>2022-01-16T10:42:07.000Z</time>
      </trkpt>
      <trkpt lat="47.27723" lon="-2.25064">
        <ele>-0.80000001192093</ele>
        <time>2022-01-16T10:42:11.000Z</time>
      </trkpt>
      <trkpt lat="47.27693" lon="-2.25083">
        <ele>-0.80000001192093</ele>
        <time>2022-01-16T10:42:18.000Z</time>
      </trkpt>
      <trkpt lat="47.27675" lon="-2.25091">
        <ele>-0.80000001192093</ele>
        <time>2022-01-16T10:42:22.000Z</time>
      </trkpt>
      <trkpt lat="47.2767" lon="-2.25092">
        <ele>-0.80000001192093</ele>
        <time>2022-01-16T10:42:23.000Z</time>
      </trkpt>
      <trkpt lat="47.27661" lon="-2.25094">
        <ele>-0.80000001192093</ele>
        <time>2022-01-16T10:42:25.000Z</time>
      </trkpt>
      <trkpt lat="47.27647" lon="-2.25097">
        <ele>-0.80000001192093</ele>
        <time>2022-01-16T10:42:28.000Z</time>
      </trkpt>
      <trkpt lat="47.27641" lon="-2.25097">
        <ele>-0.80000001192093</ele>
        <time>2022-01-16T10:42:29.000Z</time>
      </trkpt>
      <trkpt lat="47.2762" lon="-2.25093">
        <ele>-0.80000001192093</ele>
        <time>2022-01-16T10:42:33.000Z</time>
      </trkpt>
      <trkpt lat="47.27592" lon="-2.2508">
        <ele>-0.80000001192093</ele>
        <time>2022-01-16T10:42:39.000Z</time>
      </trkpt>
      <trkpt lat="47.27565" lon="-2.25068">
        <ele>-0.80000001192093</ele>
        <time>2022-01-16T10:42:45.000Z</time>
      </trkpt>
      <trkpt lat="47.27557" lon="-2.25063">
        <ele>-0.80000001192093</ele>
        <time>2022-01-16T10:42:48.000Z</time>
      </trkpt>
      <trkpt lat="47.27554" lon="-2.2506">
        <ele>-0.80000001192093</ele>
        <time>2022-01-16T10:42:49.000Z</time>
      </trkpt>
      <trkpt lat="47.2754" lon="-2.25045">
        <ele>-0.80000001192093</ele>
        <time>2022-01-16T10:42:53.000Z</time>
      </trkpt>
      <trkpt lat="47.27537" lon="-2.25041">
        <ele>-0.80000001192093</ele>
        <time>2022-01-16T10:42:54.000Z</time>
      </trkpt>
      <trkpt lat="47.27523" lon="-2.25021">
        <ele>-0.80000001192093</ele>
        <time>2022-01-16T10:42:58.000Z</time>
      </trkpt>
      <trkpt lat="47.27519" lon="-2.25016">
        <ele>-0.80000001192093</ele>
        <time>2022-01-16T10:42:59.000Z</time>
      </trkpt>
      <trkpt lat="47.27514" lon="-2.25012">
        <ele>-0.80000001192093</ele>
        <time>2022-01-16T10:43:00.000Z</time>
      </trkpt>
      <trkpt lat="47.27498" lon="-2.25001">
        <ele>-0.80000001192093</ele>
        <time>2022-01-16T10:43:03.000Z</time>
      </trkpt>
      <trkpt lat="47.27467" lon="-2.24973">
        <ele>-0.80000001192093</ele>
        <time>2022-01-16T10:43:10.000Z</time>
      </trkpt>
      <trkpt lat="47.27446" lon="-2.2496">
        <ele>-0.80000001192093</ele>
        <time>2022-01-16T10:43:15.000Z</time>
      </trkpt>
      <trkpt lat="47.27426" lon="-2.24956">
        <ele>-0.80000001192093</ele>
        <time>2022-01-16T10:43:19.000Z</time>
      </trkpt>
      <trkpt lat="47.27422" lon="-2.24958">
        <ele>-0.80000001192093</ele>
        <time>2022-01-16T10:43:20.000Z</time>
      </trkpt>
      <trkpt lat="47.27403" lon="-2.24969">
        <ele>-0.80000001192093</ele>
        <time>2022-01-16T10:43:25.000Z</time>
      </trkpt>
      <trkpt lat="47.27383" lon="-2.24977">
        <ele>-0.80000001192093</ele>
        <time>2022-01-16T10:43:31.000Z</time>
      </trkpt>
      <trkpt lat="47.27379" lon="-2.2498">
        <ele>-0.80000001192093</ele>
        <time>2022-01-16T10:43:32.000Z</time>
      </trkpt>
      <trkpt lat="47.27366" lon="-2.24999">
        <ele>-0.80000001192093</ele>
        <time>2022-01-16T10:43:36.000Z</time>
      </trkpt>
      <trkpt lat="47.27347" lon="-2.25036">
        <ele>-0.80000001192093</ele>
        <time>2022-01-16T10:43:43.000Z</time>
      </trkpt>
      <trkpt lat="47.27345" lon="-2.25059">
        <ele>-0.80000001192093</ele>
        <time>2022-01-16T10:43:48.000Z</time>
      </trkpt>
      <trkpt lat="47.27347" lon="-2.25066">
        <ele>-0.80000001192093</ele>
        <time>2022-01-16T10:43:50.000Z</time>
      </trkpt>
      <trkpt lat="47.27351" lon="-2.25078">
        <ele>-0.80000001192093</ele>
        <time>2022-01-16T10:43:53.000Z</time>
      </trkpt>
      <trkpt lat="47.27359" lon="-2.25101">
        <ele>-0.80000001192093</ele>
        <time>2022-01-16T10:43:58.000Z</time>
      </trkpt>
      <trkpt lat="47.27374" lon="-2.25134">
        <ele>-0.80000001192093</ele>
        <time>2022-01-16T10:44:04.000Z</time>
      </trkpt>
      <trkpt lat="47.27389" lon="-2.25176">
        <ele>-0.80000001192093</ele>
        <time>2022-01-16T10:44:11.000Z</time>
      </trkpt>
      <trkpt lat="47.27406" lon="-2.25209">
        <ele>-0.80000001192093</ele>
        <time>2022-01-16T10:44:17.000Z</time>
      </trkpt>
      <trkpt lat="47.27408" lon="-2.25215">
        <ele>-0.80000001192093</ele>
        <time>2022-01-16T10:44:18.000Z</time>
      </trkpt>
      <trkpt lat="47.27415" lon="-2.25236">
        <ele>-0.80000001192093</ele>
        <time>2022-01-16T10:44:22.000Z</time>
      </trkpt>
      <trkpt lat="47.27425" lon="-2.2526">
        <ele>-0.80000001192093</ele>
        <time>2022-01-16T10:44:28.000Z</time>
      </trkpt>
      <trkpt lat="47.27436" lon="-2.2529">
        <ele>-0.80000001192093</ele>
        <time>2022-01-16T10:44:36.000Z</time>
      </trkpt>
      <trkpt lat="47.27442" lon="-2.25309">
        <ele>-0.80000001192093</ele>
        <time>2022-01-16T10:44:43.000Z</time>
      </trkpt>
      <trkpt lat="47.27451" lon="-2.25337">
        <ele>-0.80000001192093</ele>
        <time>2022-01-16T10:44:49.000Z</time>
      </trkpt>
      <trkpt lat="47.27451" lon="-2.25361">
        <ele>-0.80000001192093</ele>
        <time>2022-01-16T10:44:53.000Z</time>
      </trkpt>
      <trkpt lat="47.2745" lon="-2.25367">
        <ele>-0.80000001192093</ele>
        <time>2022-01-16T10:44:54.000Z</time>
      </trkpt>
      <trkpt lat="47.2744" lon="-2.25404">
        <ele>-0.80000001192093</ele>
        <time>2022-01-16T10:45:01.000Z</time>
      </trkpt>
      <trkpt lat="47.27436" lon="-2.25429">
        <ele>-0.80000001192093</ele>
        <time>2022-01-16T10:45:06.000Z</time>
      </trkpt>
      <trkpt lat="47.27449" lon="-2.25441">
        <ele>-0.80000001192093</ele>
        <time>2022-01-16T10:45:10.000Z</time>
      </trkpt>
      <trkpt lat="47.27468" lon="-2.25446">
        <ele>-0.80000001192093</ele>
        <time>2022-01-16T10:45:14.000Z</time>
      </trkpt>
      <trkpt lat="47.27473" lon="-2.25446">
        <ele>-0.80000001192093</ele>
        <time>2022-01-16T10:45:15.000Z</time>
      </trkpt>
      <trkpt lat="47.27497" lon="-2.25447">
        <ele>-0.80000001192093</ele>
        <time>2022-01-16T10:45:20.000Z</time>
      </trkpt>
      <trkpt lat="47.27514" lon="-2.25461">
        <ele>-0.80000001192093</ele>
        <time>2022-01-16T10:45:24.000Z</time>
      </trkpt>
      <trkpt lat="47.27529" lon="-2.25481">
        <ele>-0.80000001192093</ele>
        <time>2022-01-16T10:45:28.000Z</time>
      </trkpt>
      <trkpt lat="47.27532" lon="-2.25486">
        <ele>-0.80000001192093</ele>
        <time>2022-01-16T10:45:29.000Z</time>
      </trkpt>
      <trkpt lat="47.27535" lon="-2.25493">
        <ele>-0.80000001192093</ele>
        <time>2022-01-16T10:45:30.000Z</time>
      </trkpt>
      <trkpt lat="47.27543" lon="-2.25511">
        <ele>-0.80000001192093</ele>
        <time>2022-01-16T10:45:33.000Z</time>
      </trkpt>
      <trkpt lat="47.27546" lon="-2.25518">
        <ele>-0.80000001192093</ele>
        <time>2022-01-16T10:45:34.000Z</time>
      </trkpt>
      <trkpt lat="47.27552" lon="-2.25538">
        <ele>-0.80000001192093</ele>
        <time>2022-01-16T10:45:37.000Z</time>
      </trkpt>
      <trkpt lat="47.27555" lon="-2.25551">
        <ele>-0.80000001192093</ele>
        <time>2022-01-16T10:45:39.000Z</time>
      </trkpt>
      <trkpt lat="47.27563" lon="-2.25593">
        <ele>-0.80000001192093</ele>
        <time>2022-01-16T10:45:46.000Z</time>
      </trkpt>
      <trkpt lat="47.27565" lon="-2.25626">
        <ele>-0.80000001192093</ele>
        <time>2022-01-16T10:45:52.000Z</time>
      </trkpt>
      <trkpt lat="47.27567" lon="-2.25648">
        <ele>-0.80000001192093</ele>
        <time>2022-01-16T10:45:56.000Z</time>
      </trkpt>
      <trkpt lat="47.27558" lon="-2.2567">
        <ele>-0.80000001192093</ele>
        <time>2022-01-16T10:46:00.000Z</time>
      </trkpt>
      <trkpt lat="47.27545" lon="-2.25694">
        <ele>-0.40000000596046</ele>
        <time>2022-01-16T10:46:05.000Z</time>
      </trkpt>
      <trkpt lat="47.27542" lon="-2.25699">
        <ele>17.1</ele>
        <time>2022-01-16T10:46:06.000Z</time>
      </trkpt>
      <trkpt lat="47.2754" lon="-2.25703">
        <ele>0.40000000596046</ele>
        <time>2022-01-16T10:46:07.000Z</time>
      </trkpt>
      <trkpt lat="47.27537" lon="-2.25709">
        <ele>0.80000001192093</ele>
        <time>2022-01-16T10:46:08.000Z</time>
      </trkpt>
      <trkpt lat="47.27534" lon="-2.25713">
        <ele>1.2000000476837</ele>
        <time>2022-01-16T10:46:09.000Z</time>
      </trkpt>
      <trkpt lat="47.27522" lon="-2.25732">
        <ele>1.2000000476837</ele>
        <time>2022-01-16T10:46:14.000Z</time>
      </trkpt>
      <trkpt lat="47.27505" lon="-2.25755">
        <ele>1.2000000476837</ele>
        <time>2022-01-16T10:46:20.000Z</time>
      </trkpt>
      <trkpt lat="47.27487" lon="-2.25779">
        <ele>2</ele>
        <time>2022-01-16T10:46:27.000Z</time>
      </trkpt>
      <trkpt lat="47.27484" lon="-2.25783">
        <ele>2.4000000953674</ele>
        <time>2022-01-16T10:46:28.000Z</time>
      </trkpt>
      <trkpt lat="47.2748" lon="-2.25785">
        <ele>2.7999999523163</ele>
        <time>2022-01-16T10:46:29.000Z</time>
      </trkpt>
      <trkpt lat="47.27476" lon="-2.25789">
        <ele>3.2000000476837</ele>
        <time>2022-01-16T10:46:30.000Z</time>
      </trkpt>
      <trkpt lat="47.2747" lon="-2.25795">
        <ele>3.2000000476837</ele>
        <time>2022-01-16T10:46:32.000Z</time>
      </trkpt>
      <trkpt lat="47.27453" lon="-2.25808">
        <ele>3.2000000476837</ele>
        <time>2022-01-16T10:46:37.000Z</time>
      </trkpt>
      <trkpt lat="47.27436" lon="-2.25838">
        <ele>3.2000000476837</ele>
        <time>2022-01-16T10:46:44.000Z</time>
      </trkpt>
      <trkpt lat="47.27418" lon="-2.25869">
        <ele>3.2000000476837</ele>
        <time>2022-01-16T10:46:52.000Z</time>
      </trkpt>
      <trkpt lat="47.27406" lon="-2.25896">
        <ele>3.2000000476837</ele>
        <time>2022-01-16T10:46:58.000Z</time>
      </trkpt>
      <trkpt lat="47.27392" lon="-2.25916">
        <ele>3.2000000476837</ele>
        <time>2022-01-16T10:47:03.000Z</time>
      </trkpt>
      <trkpt lat="47.27373" lon="-2.25942">
        <ele>3.2000000476837</ele>
        <time>2022-01-16T10:47:10.000Z</time>
      </trkpt>
      <trkpt lat="47.27368" lon="-2.25948">
        <ele>3.2000000476837</ele>
        <time>2022-01-16T10:47:12.000Z</time>
      </trkpt>
      <trkpt lat="47.27359" lon="-2.25956">
        <ele>3.2000000476837</ele>
        <time>2022-01-16T10:47:15.000Z</time>
      </trkpt>
      <trkpt lat="47.27339" lon="-2.25966">
        <ele>3.2000000476837</ele>
        <time>2022-01-16T10:47:21.000Z</time>
      </trkpt>
      <trkpt lat="47.27324" lon="-2.25976">
        <ele>3.2000000476837</ele>
        <time>2022-01-16T10:47:26.000Z</time>
      </trkpt>
      <trkpt lat="47.27308" lon="-2.25982">
        <ele>3.2000000476837</ele>
        <time>2022-01-16T10:47:32.000Z</time>
      </trkpt>
      <trkpt lat="47.27297" lon="-2.25998">
        <ele>3.2000000476837</ele>
        <time>2022-01-16T10:47:39.000Z</time>
      </trkpt>
      <trkpt lat="47.27296" lon="-2.26002">
        <ele>3.2000000476837</ele>
        <time>2022-01-16T10:47:40.000Z</time>
      </trkpt>
      <trkpt lat="47.27299" lon="-2.26012">
        <ele>3.2000000476837</ele>
        <time>2022-01-16T10:47:43.000Z</time>
      </trkpt>
      <trkpt lat="47.27302" lon="-2.26015">
        <ele>3.2000000476837</ele>
        <time>2022-01-16T10:47:44.000Z</time>
      </trkpt>
      <trkpt lat="47.27308" lon="-2.26024">
        <ele>3.2000000476837</ele>
        <time>2022-01-16T10:47:46.000Z</time>
      </trkpt>
      <trkpt lat="47.27311" lon="-2.26029">
        <ele>3.2000000476837</ele>
        <time>2022-01-16T10:47:47.000Z</time>
      </trkpt>
      <trkpt lat="47.27324" lon="-2.26057">
        <ele>3.2000000476837</ele>
        <time>2022-01-16T10:47:52.000Z</time>
      </trkpt>
      <trkpt lat="47.27339" lon="-2.26091">
        <ele>3.2000000476837</ele>
        <time>2022-01-16T10:47:58.000Z</time>
      </trkpt>
      <trkpt lat="47.27347" lon="-2.26122">
        <ele>3.2000000476837</ele>
        <time>2022-01-16T10:48:05.000Z</time>
      </trkpt>
      <trkpt lat="47.27345" lon="-2.26127">
        <ele>3.5999999046326</ele>
        <time>2022-01-16T10:48:06.000Z</time>
      </trkpt>
      <trkpt lat="47.27343" lon="-2.2613">
        <ele>4</ele>
        <time>2022-01-16T10:48:07.000Z</time>
      </trkpt>
      <trkpt lat="47.27338" lon="-2.26133">
        <ele>4.4000000953674</ele>
        <time>2022-01-16T10:48:08.000Z</time>
      </trkpt>
      <trkpt lat="47.27334" lon="-2.26135">
        <ele>5</ele>
        <time>2022-01-16T10:48:09.000Z</time>
      </trkpt>
      <trkpt lat="47.27329" lon="-2.26136">
        <ele>5.4000000953674</ele>
        <time>2022-01-16T10:48:10.000Z</time>
      </trkpt>
      <trkpt lat="47.27309" lon="-2.26142">
        <ele>5.4000000953674</ele>
        <time>2022-01-16T10:48:14.000Z</time>
      </trkpt>
      <trkpt lat="47.27277" lon="-2.26155">
        <ele>5.4000000953674</ele>
        <time>2022-01-16T10:48:20.000Z</time>
      </trkpt>
      <trkpt lat="47.27235" lon="-2.26174">
        <ele>5.4000000953674</ele>
        <time>2022-01-16T10:48:28.000Z</time>
      </trkpt>
      <trkpt lat="47.27201" lon="-2.26198">
        <ele>5.4000000953674</ele>
        <time>2022-01-16T10:48:35.000Z</time>
      </trkpt>
      <trkpt lat="47.27175" lon="-2.26223">
        <ele>5.4000000953674</ele>
        <time>2022-01-16T10:48:41.000Z</time>
      </trkpt>
      <trkpt lat="47.27167" lon="-2.26233">
        <ele>5.8000001907349</ele>
        <time>2022-01-16T10:48:43.000Z</time>
      </trkpt>
      <trkpt lat="47.27164" lon="-2.26237">
        <ele>6.1999998092651</ele>
        <time>2022-01-16T10:48:44.000Z</time>
      </trkpt>
      <trkpt lat="47.2716" lon="-2.26242">
        <ele>6.5999999046326</ele>
        <time>2022-01-16T10:48:45.000Z</time>
      </trkpt>
      <trkpt lat="47.27156" lon="-2.26247">
        <ele>7</ele>
        <time>2022-01-16T10:48:46.000Z</time>
      </trkpt>
      <trkpt lat="47.27152" lon="-2.26252">
        <ele>7.4000000953674</ele>
        <time>2022-01-16T10:48:47.000Z</time>
      </trkpt>
      <trkpt lat="47.27148" lon="-2.26257">
        <ele>7.4000000953674</ele>
        <time>2022-01-16T10:48:48.000Z</time>
      </trkpt>
      <trkpt lat="47.27117" lon="-2.26301">
        <ele>7.4000000953674</ele>
        <time>2022-01-16T10:48:57.000Z</time>
      </trkpt>
      <trkpt lat="47.27095" lon="-2.2633">
        <ele>7.8000001907349</ele>
        <time>2022-01-16T10:49:03.000Z</time>
      </trkpt>
      <trkpt lat="47.27092" lon="-2.26335">
        <ele>8.1999998092651</ele>
        <time>2022-01-16T10:49:04.000Z</time>
      </trkpt>
      <trkpt lat="47.27088" lon="-2.2634">
        <ele>8.6000003814697</ele>
        <time>2022-01-16T10:49:05.000Z</time>
      </trkpt>
      <trkpt lat="47.27085" lon="-2.26345">
        <ele>9</ele>
        <time>2022-01-16T10:49:06.000Z</time>
      </trkpt>
      <trkpt lat="47.27081" lon="-2.2635">
        <ele>9.6000003814697</ele>
        <time>2022-01-16T10:49:07.000Z</time>
      </trkpt>
      <trkpt lat="47.27068" lon="-2.2637">
        <ele>9.6000003814697</ele>
        <time>2022-01-16T10:49:11.000Z</time>
      </trkpt>
      <trkpt lat="47.27041" lon="-2.26409">
        <ele>9.6000003814697</ele>
        <time>2022-01-16T10:49:19.000Z</time>
      </trkpt>
      <trkpt lat="47.27016" lon="-2.26445">
        <ele>9.6000003814697</ele>
        <time>2022-01-16T10:49:26.000Z</time>
      </trkpt>
      <trkpt lat="47.26999" lon="-2.26468">
        <ele>9.6000003814697</ele>
        <time>2022-01-16T10:49:31.000Z</time>
      </trkpt>
      <trkpt lat="47.26992" lon="-2.26477">
        <ele>9.6000003814697</ele>
        <time>2022-01-16T10:49:33.000Z</time>
      </trkpt>
      <trkpt lat="47.26988" lon="-2.26481">
        <ele>9.6000003814697</ele>
        <time>2022-01-16T10:49:34.000Z</time>
      </trkpt>
      <trkpt lat="47.26974" lon="-2.26494">
        <ele>9.6000003814697</ele>
        <time>2022-01-16T10:49:38.000Z</time>
      </trkpt>
      <trkpt lat="47.26966" lon="-2.26503">
        <ele>9.6000003814697</ele>
        <time>2022-01-16T10:49:41.000Z</time>
      </trkpt>
      <trkpt lat="47.26965" lon="-2.26507">
        <ele>9.6000003814697</ele>
        <time>2022-01-16T10:49:42.000Z</time>
      </trkpt>
      <trkpt lat="47.26969" lon="-2.26523">
        <ele>9.6000003814697</ele>
        <time>2022-01-16T10:49:45.000Z</time>
      </trkpt>
      <trkpt lat="47.26975" lon="-2.26545">
        <ele>9.6000003814697</ele>
        <time>2022-01-16T10:49:48.000Z</time>
      </trkpt>
      <trkpt lat="47.2698" lon="-2.26559">
        <ele>9.1999998092651</ele>
        <time>2022-01-16T10:49:50.000Z</time>
      </trkpt>
      <trkpt lat="47.26983" lon="-2.26564">
        <ele>8.6000003814697</ele>
        <time>2022-01-16T10:49:51.000Z</time>
      </trkpt>
      <trkpt lat="47.26987" lon="-2.26569">
        <ele>8.1999998092651</ele>
        <time>2022-01-16T10:49:52.000Z</time>
      </trkpt>
      <trkpt lat="47.26992" lon="-2.26573">
        <ele>7.8000001907349</ele>
        <time>2022-01-16T10:49:53.000Z</time>
      </trkpt>
      <trkpt lat="47.26997" lon="-2.26578">
        <ele>7.4000000953674</ele>
        <time>2022-01-16T10:49:54.000Z</time>
      </trkpt>
      <trkpt lat="47.27001" lon="-2.26582">
        <ele>7.4000000953674</ele>
        <time>2022-01-16T10:49:55.000Z</time>
      </trkpt>
      <trkpt lat="47.27016" lon="-2.266">
        <ele>7.4000000953674</ele>
        <time>2022-01-16T10:49:59.000Z</time>
      </trkpt>
      <trkpt lat="47.27039" lon="-2.26634">
        <ele>7.4000000953674</ele>
        <time>2022-01-16T10:50:05.000Z</time>
      </trkpt>
      <trkpt lat="47.27041" lon="-2.2664">
        <ele>7.4000000953674</ele>
        <time>2022-01-16T10:50:06.000Z</time>
      </trkpt>
      <trkpt lat="47.27041" lon="-2.26656">
        <ele>7.4000000953674</ele>
        <time>2022-01-16T10:50:09.000Z</time>
      </trkpt>
      <trkpt lat="47.2704" lon="-2.26668">
        <ele>7</ele>
        <time>2022-01-16T10:50:11.000Z</time>
      </trkpt>
      <trkpt lat="47.27041" lon="-2.26673">
        <ele>6.5999999046326</ele>
        <time>2022-01-16T10:50:12.000Z</time>
      </trkpt>
      <trkpt lat="47.27042" lon="-2.26679">
        <ele>6.1999998092651</ele>
        <time>2022-01-16T10:50:13.000Z</time>
      </trkpt>
      <trkpt lat="47.27043" lon="-2.26684">
        <ele>5.8000001907349</ele>
        <time>2022-01-16T10:50:14.000Z</time>
      </trkpt>
      <trkpt lat="47.27043" lon="-2.2669">
        <ele>5.4000000953674</ele>
        <time>2022-01-16T10:50:15.000Z</time>
      </trkpt>
      <trkpt lat="47.27043" lon="-2.26724">
        <ele>5.4000000953674</ele>
        <time>2022-01-16T10:50:20.000Z</time>
      </trkpt>
      <trkpt lat="47.2704" lon="-2.2674">
        <ele>5.4000000953674</ele>
        <time>2022-01-16T10:50:25.000Z</time>
      </trkpt>
      <trkpt lat="47.27038" lon="-2.26745">
        <ele>5.4000000953674</ele>
        <time>2022-01-16T10:50:27.000Z</time>
      </trkpt>
      <trkpt lat="47.27032" lon="-2.26752">
        <ele>5.4000000953674</ele>
        <time>2022-01-16T10:50:30.000Z</time>
      </trkpt>
      <trkpt lat="47.27021" lon="-2.26764">
        <ele>5.4000000953674</ele>
        <time>2022-01-16T10:50:35.000Z</time>
      </trkpt>
      <trkpt lat="47.27014" lon="-2.26777">
        <ele>5.4000000953674</ele>
        <time>2022-01-16T10:50:40.000Z</time>
      </trkpt>
      <trkpt lat="47.27013" lon="-2.26779">
        <ele>5.4000000953674</ele>
        <time>2022-01-16T10:50:41.000Z</time>
      </trkpt>
      <trkpt lat="47.27003" lon="-2.26786">
        <ele>5.4000000953674</ele>
        <time>2022-01-16T10:50:46.000Z</time>
      </trkpt>
      <trkpt lat="47.26992" lon="-2.26797">
        <ele>5.4000000953674</ele>
        <time>2022-01-16T10:50:51.000Z</time>
      </trkpt>
      <trkpt lat="47.26971" lon="-2.26814">
        <ele>5.4000000953674</ele>
        <time>2022-01-16T10:50:57.000Z</time>
      </trkpt>
      <trkpt lat="47.26962" lon="-2.26831">
        <ele>5.4000000953674</ele>
        <time>2022-01-16T10:51:01.000Z</time>
      </trkpt>
      <trkpt lat="47.26964" lon="-2.26854">
        <ele>5.4000000953674</ele>
        <time>2022-01-16T10:51:05.000Z</time>
      </trkpt>
      <trkpt lat="47.26969" lon="-2.2689">
        <ele>5.4000000953674</ele>
        <time>2022-01-16T10:51:11.000Z</time>
      </trkpt>
      <trkpt lat="47.2697" lon="-2.26896">
        <ele>5.8000001907349</ele>
        <time>2022-01-16T10:51:12.000Z</time>
      </trkpt>
      <trkpt lat="47.26971" lon="-2.26903">
        <ele>6.1999998092651</ele>
        <time>2022-01-16T10:51:13.000Z</time>
      </trkpt>
      <trkpt lat="47.26971" lon="-2.26909">
        <ele>6.8000001907349</ele>
        <time>2022-01-16T10:51:14.000Z</time>
      </trkpt>
      <trkpt lat="47.26971" lon="-2.26915">
        <ele>7.1999998092651</ele>
        <time>2022-01-16T10:51:15.000Z</time>
      </trkpt>
      <trkpt lat="47.2697" lon="-2.26922">
        <ele>7.5999999046326</ele>
        <time>2022-01-16T10:51:16.000Z</time>
      </trkpt>
      <trkpt lat="47.26968" lon="-2.26928">
        <ele>7.5999999046326</ele>
        <time>2022-01-16T10:51:17.000Z</time>
      </trkpt>
      <trkpt lat="47.26958" lon="-2.26972">
        <ele>7.5999999046326</ele>
        <time>2022-01-16T10:51:24.000Z</time>
      </trkpt>
      <trkpt lat="47.26962" lon="-2.26994">
        <ele>7.5999999046326</ele>
        <time>2022-01-16T10:51:28.000Z</time>
      </trkpt>
      <trkpt lat="47.26981" lon="-2.27017">
        <ele>8</ele>
        <time>2022-01-16T10:51:34.000Z</time>
      </trkpt>
      <trkpt lat="47.26984" lon="-2.27022">
        <ele>8.3999996185303</ele>
        <time>2022-01-16T10:51:35.000Z</time>
      </trkpt>
      <trkpt lat="47.26987" lon="-2.27026">
        <ele>8.8000001907349</ele>
        <time>2022-01-16T10:51:36.000Z</time>
      </trkpt>
      <trkpt lat="47.26989" lon="-2.27029">
        <ele>9.1999998092651</ele>
        <time>2022-01-16T10:51:37.000Z</time>
      </trkpt>
      <trkpt lat="47.26992" lon="-2.27034">
        <ele>9.6000003814697</ele>
        <time>2022-01-16T10:51:38.000Z</time>
      </trkpt>
      <trkpt lat="47.27001" lon="-2.27048">
        <ele>9.6000003814697</ele>
        <time>2022-01-16T10:51:41.000Z</time>
      </trkpt>
      <trkpt lat="47.2701" lon="-2.27075">
        <ele>9.6000003814697</ele>
        <time>2022-01-16T10:51:46.000Z</time>
      </trkpt>
      <trkpt lat="47.27017" lon="-2.27106">
        <ele>9.6000003814697</ele>
        <time>2022-01-16T10:51:52.000Z</time>
      </trkpt>
      <trkpt lat="47.2702" lon="-2.27112">
        <ele>9.6000003814697</ele>
        <time>2022-01-16T10:51:53.000Z</time>
      </trkpt>
      <trkpt lat="47.27033" lon="-2.27139">
        <ele>9.6000003814697</ele>
        <time>2022-01-16T10:51:57.000Z</time>
      </trkpt>
      <trkpt lat="47.27058" lon="-2.27181">
        <ele>9.6000003814697</ele>
        <time>2022-01-16T10:52:03.000Z</time>
      </trkpt>
      <trkpt lat="47.27066" lon="-2.27191">
        <ele>9.6000003814697</ele>
        <time>2022-01-16T10:52:05.000Z</time>
      </trkpt>
      <trkpt lat="47.27078" lon="-2.27211">
        <ele>10.199999809265</ele>
        <time>2022-01-16T10:52:09.000Z</time>
      </trkpt>
      <trkpt lat="47.27081" lon="-2.27215">
        <ele>10.60000038147</ele>
        <time>2022-01-16T10:52:10.000Z</time>
      </trkpt>
      <trkpt lat="47.27083" lon="-2.2722">
        <ele>11.199999809265</ele>
        <time>2022-01-16T10:52:11.000Z</time>
      </trkpt>
      <trkpt lat="47.27086" lon="-2.27223">
        <ele>11.60000038147</ele>
        <time>2022-01-16T10:52:12.000Z</time>
      </trkpt>
      <trkpt lat="47.27088" lon="-2.27227">
        <ele>12.199999809265</ele>
        <time>2022-01-16T10:52:13.000Z</time>
      </trkpt>
      <trkpt lat="47.27092" lon="-2.27235">
        <ele>12.199999809265</ele>
        <time>2022-01-16T10:52:15.000Z</time>
      </trkpt>
      <trkpt lat="47.27102" lon="-2.27254">
        <ele>12.60000038147</ele>
        <time>2022-01-16T10:52:19.000Z</time>
      </trkpt>
      <trkpt lat="47.27105" lon="-2.27258">
        <ele>13</ele>
        <time>2022-01-16T10:52:20.000Z</time>
      </trkpt>
      <trkpt lat="47.27107" lon="-2.27263">
        <ele>13.39999961853</ele>
        <time>2022-01-16T10:52:21.000Z</time>
      </trkpt>
      <trkpt lat="47.27109" lon="-2.27267">
        <ele>13.800000190735</ele>
        <time>2022-01-16T10:52:22.000Z</time>
      </trkpt>
      <trkpt lat="47.27111" lon="-2.27272">
        <ele>14.199999809265</ele>
        <time>2022-01-16T10:52:23.000Z</time>
      </trkpt>
      <trkpt lat="47.27118" lon="-2.2729">
        <ele>14.199999809265</ele>
        <time>2022-01-16T10:52:27.000Z</time>
      </trkpt>
      <trkpt lat="47.27121" lon="-2.27302">
        <ele>14.60000038147</ele>
        <time>2022-01-16T10:52:29.000Z</time>
      </trkpt>
      <trkpt lat="47.27122" lon="-2.27308">
        <ele>15</ele>
        <time>2022-01-16T10:52:30.000Z</time>
      </trkpt>
      <trkpt lat="47.27124" lon="-2.27314">
        <ele>15.39999961853</ele>
        <time>2022-01-16T10:52:31.000Z</time>
      </trkpt>
      <trkpt lat="47.27125" lon="-2.27321">
        <ele>15.800000190735</ele>
        <time>2022-01-16T10:52:32.000Z</time>
      </trkpt>
      <trkpt lat="47.27127" lon="-2.27328">
        <ele>16.200000762939</ele>
        <time>2022-01-16T10:52:33.000Z</time>
      </trkpt>
      <trkpt lat="47.27135" lon="-2.27381">
        <ele>16.200000762939</ele>
        <time>2022-01-16T10:52:41.000Z</time>
      </trkpt>
      <trkpt lat="47.27137" lon="-2.27394">
        <ele>16.200000762939</ele>
        <time>2022-01-16T10:52:43.000Z</time>
      </trkpt>
      <trkpt lat="47.27142" lon="-2.2742">
        <ele>16.200000762939</ele>
        <time>2022-01-16T10:52:47.000Z</time>
      </trkpt>
      <trkpt lat="47.27145" lon="-2.27456">
        <ele>16.200000762939</ele>
        <time>2022-01-16T10:52:53.000Z</time>
      </trkpt>
      <trkpt lat="47.27148" lon="-2.27469">
        <ele>16.60000038147</ele>
        <time>2022-01-16T10:52:55.000Z</time>
      </trkpt>
      <trkpt lat="47.27148" lon="-2.27474">
        <ele>17</ele>
        <time>2022-01-16T10:52:56.000Z</time>
      </trkpt>
      <trkpt lat="47.27149" lon="-2.27481">
        <ele>17.60000038147</ele>
        <time>2022-01-16T10:52:57.000Z</time>
      </trkpt>
      <trkpt lat="47.27149" lon="-2.27488">
        <ele>18</ele>
        <time>2022-01-16T10:52:58.000Z</time>
      </trkpt>
      <trkpt lat="47.27149" lon="-2.27495">
        <ele>18.39999961853</ele>
        <time>2022-01-16T10:52:59.000Z</time>
      </trkpt>
      <trkpt lat="47.27149" lon="-2.27509">
        <ele>18.39999961853</ele>
        <time>2022-01-16T10:53:01.000Z</time>
      </trkpt>
      <trkpt lat="47.27149" lon="-2.27537">
        <ele>18.39999961853</ele>
        <time>2022-01-16T10:53:05.000Z</time>
      </trkpt>
      <trkpt lat="47.27148" lon="-2.27566">
        <ele>18.39999961853</ele>
        <time>2022-01-16T10:53:09.000Z</time>
      </trkpt>
      <trkpt lat="47.27146" lon="-2.27579">
        <ele>18.39999961853</ele>
        <time>2022-01-16T10:53:11.000Z</time>
      </trkpt>
      <trkpt lat="47.27145" lon="-2.27585">
        <ele>18.39999961853</ele>
        <time>2022-01-16T10:53:12.000Z</time>
      </trkpt>
      <trkpt lat="47.27137" lon="-2.27602">
        <ele>18.39999961853</ele>
        <time>2022-01-16T10:53:15.000Z</time>
      </trkpt>
      <trkpt lat="47.27118" lon="-2.27618">
        <ele>18.39999961853</ele>
        <time>2022-01-16T10:53:19.000Z</time>
      </trkpt>
      <trkpt lat="47.27107" lon="-2.27623">
        <ele>18.39999961853</ele>
        <time>2022-01-16T10:53:21.000Z</time>
      </trkpt>
      <trkpt lat="47.27083" lon="-2.27637">
        <ele>18.39999961853</ele>
        <time>2022-01-16T10:53:26.000Z</time>
      </trkpt>
      <trkpt lat="47.27054" lon="-2.27661">
        <ele>18.39999961853</ele>
        <time>2022-01-16T10:53:33.000Z</time>
      </trkpt>
      <trkpt lat="47.27031" lon="-2.27689">
        <ele>18.39999961853</ele>
        <time>2022-01-16T10:53:41.000Z</time>
      </trkpt>
      <trkpt lat="47.27023" lon="-2.27713">
        <ele>18.39999961853</ele>
        <time>2022-01-16T10:53:46.000Z</time>
      </trkpt>
      <trkpt lat="47.27027" lon="-2.27727">
        <ele>18.39999961853</ele>
        <time>2022-01-16T10:53:49.000Z</time>
      </trkpt>
      <trkpt lat="47.27029" lon="-2.27729">
        <ele>18.39999961853</ele>
        <time>2022-01-16T10:53:50.000Z</time>
      </trkpt>
      <trkpt lat="47.27044" lon="-2.27733">
        <ele>18.39999961853</ele>
        <time>2022-01-16T10:53:53.000Z</time>
      </trkpt>
      <trkpt lat="47.2705" lon="-2.27735">
        <ele>18.39999961853</ele>
        <time>2022-01-16T10:53:54.000Z</time>
      </trkpt>
      <trkpt lat="47.27065" lon="-2.27739">
        <ele>18.39999961853</ele>
        <time>2022-01-16T10:53:57.000Z</time>
      </trkpt>
      <trkpt lat="47.27078" lon="-2.27745">
        <ele>18.39999961853</ele>
        <time>2022-01-16T10:54:00.000Z</time>
      </trkpt>
      <trkpt lat="47.27091" lon="-2.27754">
        <ele>18.39999961853</ele>
        <time>2022-01-16T10:54:03.000Z</time>
      </trkpt>
      <trkpt lat="47.27095" lon="-2.27758">
        <ele>18.799999237061</ele>
        <time>2022-01-16T10:54:04.000Z</time>
      </trkpt>
      <trkpt lat="47.27098" lon="-2.27763">
        <ele>19.200000762939</ele>
        <time>2022-01-16T10:54:05.000Z</time>
      </trkpt>
      <trkpt lat="47.27101" lon="-2.27768">
        <ele>19.60000038147</ele>
        <time>2022-01-16T10:54:06.000Z</time>
      </trkpt>
      <trkpt lat="47.27103" lon="-2.27773">
        <ele>20</ele>
        <time>2022-01-16T10:54:07.000Z</time>
      </trkpt>
      <trkpt lat="47.27105" lon="-2.27779">
        <ele>20.39999961853</ele>
        <time>2022-01-16T10:54:08.000Z</time>
      </trkpt>
      <trkpt lat="47.27106" lon="-2.27785">
        <ele>20.39999961853</ele>
        <time>2022-01-16T10:54:09.000Z</time>
      </trkpt>
      <trkpt lat="47.27114" lon="-2.27807">
        <ele>20.39999961853</ele>
        <time>2022-01-16T10:54:13.000Z</time>
      </trkpt>
      <trkpt lat="47.27114" lon="-2.27818">
        <ele>20.39999961853</ele>
        <time>2022-01-16T10:54:15.000Z</time>
      </trkpt>
      <trkpt lat="47.27112" lon="-2.2783">
        <ele>20.39999961853</ele>
        <time>2022-01-16T10:54:17.000Z</time>
      </trkpt>
      <trkpt lat="47.2711" lon="-2.27836">
        <ele>20.39999961853</ele>
        <time>2022-01-16T10:54:18.000Z</time>
      </trkpt>
      <trkpt lat="47.27106" lon="-2.27848">
        <ele>20.799999237061</ele>
        <time>2022-01-16T10:54:20.000Z</time>
      </trkpt>
      <trkpt lat="47.27104" lon="-2.27854">
        <ele>21.200000762939</ele>
        <time>2022-01-16T10:54:21.000Z</time>
      </trkpt>
      <trkpt lat="47.27102" lon="-2.2786">
        <ele>21.60000038147</ele>
        <time>2022-01-16T10:54:22.000Z</time>
      </trkpt>
      <trkpt lat="47.27101" lon="-2.27865">
        <ele>22</ele>
        <time>2022-01-16T10:54:23.000Z</time>
      </trkpt>
      <trkpt lat="47.27099" lon="-2.27871">
        <ele>22.39999961853</ele>
        <time>2022-01-16T10:54:24.000Z</time>
      </trkpt>
      <trkpt lat="47.27095" lon="-2.27881">
        <ele>22.39999961853</ele>
        <time>2022-01-16T10:54:26.000Z</time>
      </trkpt>
      <trkpt lat="47.27089" lon="-2.27889">
        <ele>22.799999237061</ele>
        <time>2022-01-16T10:54:28.000Z</time>
      </trkpt>
      <trkpt lat="47.27085" lon="-2.27893">
        <ele>23.200000762939</ele>
        <time>2022-01-16T10:54:29.000Z</time>
      </trkpt>
      <trkpt lat="47.27082" lon="-2.27896">
        <ele>23.60000038147</ele>
        <time>2022-01-16T10:54:30.000Z</time>
      </trkpt>
      <trkpt lat="47.27079" lon="-2.279">
        <ele>24.200000762939</ele>
        <time>2022-01-16T10:54:31.000Z</time>
      </trkpt>
      <trkpt lat="47.27076" lon="-2.27904">
        <ele>24.60000038147</ele>
        <time>2022-01-16T10:54:32.000Z</time>
      </trkpt>
      <trkpt lat="47.27071" lon="-2.27914">
        <ele>24.60000038147</ele>
        <time>2022-01-16T10:54:34.000Z</time>
      </trkpt>
      <trkpt lat="47.27068" lon="-2.27925">
        <ele>24.60000038147</ele>
        <time>2022-01-16T10:54:36.000Z</time>
      </trkpt>
      <trkpt lat="47.27067" lon="-2.27937">
        <ele>24.60000038147</ele>
        <time>2022-01-16T10:54:38.000Z</time>
      </trkpt>
      <trkpt lat="47.27069" lon="-2.27956">
        <ele>24.60000038147</ele>
        <time>2022-01-16T10:54:41.000Z</time>
      </trkpt>
      <trkpt lat="47.2708" lon="-2.27976">
        <ele>24.60000038147</ele>
        <time>2022-01-16T10:54:45.000Z</time>
      </trkpt>
      <trkpt lat="47.27096" lon="-2.27988">
        <ele>24.60000038147</ele>
        <time>2022-01-16T10:54:49.000Z</time>
      </trkpt>
      <trkpt lat="47.27114" lon="-2.28001">
        <ele>24.60000038147</ele>
        <time>2022-01-16T10:54:53.000Z</time>
      </trkpt>
      <trkpt lat="47.27121" lon="-2.28032">
        <ele>24.60000038147</ele>
        <time>2022-01-16T10:54:57.000Z</time>
      </trkpt>
      <trkpt lat="47.27125" lon="-2.28063">
        <ele>24.60000038147</ele>
        <time>2022-01-16T10:55:01.000Z</time>
      </trkpt>
      <trkpt lat="47.27124" lon="-2.28086">
        <ele>24.60000038147</ele>
        <time>2022-01-16T10:55:04.000Z</time>
      </trkpt>
      <trkpt lat="47.27124" lon="-2.28114">
        <ele>24.60000038147</ele>
        <time>2022-01-16T10:55:09.000Z</time>
      </trkpt>
      <trkpt lat="47.27125" lon="-2.28126">
        <ele>24</ele>
        <time>2022-01-16T10:55:11.000Z</time>
      </trkpt>
      <trkpt lat="47.27125" lon="-2.28132">
        <ele>23.60000038147</ele>
        <time>2022-01-16T10:55:12.000Z</time>
      </trkpt>
      <trkpt lat="47.27125" lon="-2.28137">
        <ele>23.200000762939</ele>
        <time>2022-01-16T10:55:13.000Z</time>
      </trkpt>
      <trkpt lat="47.27126" lon="-2.28143">
        <ele>22.799999237061</ele>
        <time>2022-01-16T10:55:14.000Z</time>
      </trkpt>
      <trkpt lat="47.27126" lon="-2.28149">
        <ele>22.39999961853</ele>
        <time>2022-01-16T10:55:15.000Z</time>
      </trkpt>
      <trkpt lat="47.27127" lon="-2.28157">
        <ele>22.39999961853</ele>
        <time>2022-01-16T10:55:16.000Z</time>
      </trkpt>
      <trkpt lat="47.27124" lon="-2.28182">
        <ele>22.39999961853</ele>
        <time>2022-01-16T10:55:19.000Z</time>
      </trkpt>
      <trkpt lat="47.27118" lon="-2.28241">
        <ele>22.39999961853</ele>
        <time>2022-01-16T10:55:26.000Z</time>
      </trkpt>
      <trkpt lat="47.27124" lon="-2.28272">
        <ele>22.39999961853</ele>
        <time>2022-01-16T10:55:30.000Z</time>
      </trkpt>
      <trkpt lat="47.2714" lon="-2.28326">
        <ele>22.39999961853</ele>
        <time>2022-01-16T10:55:37.000Z</time>
      </trkpt>
      <trkpt lat="47.27147" lon="-2.28376">
        <ele>22.39999961853</ele>
        <time>2022-01-16T10:55:43.000Z</time>
      </trkpt>
      <trkpt lat="47.27149" lon="-2.28424">
        <ele>22.39999961853</ele>
        <time>2022-01-16T10:55:49.000Z</time>
      </trkpt>
      <trkpt lat="47.27155" lon="-2.28483">
        <ele>22.39999961853</ele>
        <time>2022-01-16T10:55:56.000Z</time>
      </trkpt>
      <trkpt lat="47.27158" lon="-2.28501">
        <ele>22</ele>
        <time>2022-01-16T10:55:58.000Z</time>
      </trkpt>
      <trkpt lat="47.27159" lon="-2.28511">
        <ele>21.60000038147</ele>
        <time>2022-01-16T10:55:59.000Z</time>
      </trkpt>
      <trkpt lat="47.27161" lon="-2.2852">
        <ele>21.200000762939</ele>
        <time>2022-01-16T10:56:00.000Z</time>
      </trkpt>
      <trkpt lat="47.27163" lon="-2.2853">
        <ele>20.799999237061</ele>
        <time>2022-01-16T10:56:01.000Z</time>
      </trkpt>
      <trkpt lat="47.27164" lon="-2.28538">
        <ele>20.39999961853</ele>
        <time>2022-01-16T10:56:02.000Z</time>
      </trkpt>
      <trkpt lat="47.27167" lon="-2.28546">
        <ele>20.39999961853</ele>
        <time>2022-01-16T10:56:03.000Z</time>
      </trkpt>
      <trkpt lat="47.27174" lon="-2.28572">
        <ele>20.39999961853</ele>
        <time>2022-01-16T10:56:06.000Z</time>
      </trkpt>
      <trkpt lat="47.2718" lon="-2.28587">
        <ele>20.39999961853</ele>
        <time>2022-01-16T10:56:08.000Z</time>
      </trkpt>
      <trkpt lat="47.27184" lon="-2.28602">
        <ele>20</ele>
        <time>2022-01-16T10:56:10.000Z</time>
      </trkpt>
      <trkpt lat="47.27184" lon="-2.28611">
        <ele>19.60000038147</ele>
        <time>2022-01-16T10:56:11.000Z</time>
      </trkpt>
      <trkpt lat="47.27184" lon="-2.2862">
        <ele>19</ele>
        <time>2022-01-16T10:56:12.000Z</time>
      </trkpt>
      <trkpt lat="47.27184" lon="-2.2863">
        <ele>18.60000038147</ele>
        <time>2022-01-16T10:56:13.000Z</time>
      </trkpt>
      <trkpt lat="47.27184" lon="-2.2864">
        <ele>18.200000762939</ele>
        <time>2022-01-16T10:56:14.000Z</time>
      </trkpt>
      <trkpt lat="47.2718" lon="-2.28713">
        <ele>18.200000762939</ele>
        <time>2022-01-16T10:56:21.000Z</time>
      </trkpt>
      <trkpt lat="47.27184" lon="-2.28767">
        <ele>18.200000762939</ele>
        <time>2022-01-16T10:56:26.000Z</time>
      </trkpt>
      <trkpt lat="47.27182" lon="-2.28818">
        <ele>17.799999237061</ele>
        <time>2022-01-16T10:56:31.000Z</time>
      </trkpt>
      <trkpt lat="47.27181" lon="-2.28828">
        <ele>17.39999961853</ele>
        <time>2022-01-16T10:56:32.000Z</time>
      </trkpt>
      <trkpt lat="47.27181" lon="-2.28838">
        <ele>17</ele>
        <time>2022-01-16T10:56:33.000Z</time>
      </trkpt>
      <trkpt lat="47.2718" lon="-2.28846">
        <ele>16.60000038147</ele>
        <time>2022-01-16T10:56:34.000Z</time>
      </trkpt>
      <trkpt lat="47.27179" lon="-2.28855">
        <ele>16.200000762939</ele>
        <time>2022-01-16T10:56:35.000Z</time>
      </trkpt>
      <trkpt lat="47.27177" lon="-2.2888">
        <ele>16.200000762939</ele>
        <time>2022-01-16T10:56:38.000Z</time>
      </trkpt>
      <trkpt lat="47.27175" lon="-2.28907">
        <ele>16.200000762939</ele>
        <time>2022-01-16T10:56:41.000Z</time>
      </trkpt>
      <trkpt lat="47.27174" lon="-2.28927">
        <ele>16.200000762939</ele>
        <time>2022-01-16T10:56:43.000Z</time>
      </trkpt>
      <trkpt lat="47.27178" lon="-2.28968">
        <ele>16.200000762939</ele>
        <time>2022-01-16T10:56:47.000Z</time>
      </trkpt>
      <trkpt lat="47.27189" lon="-2.29035">
        <ele>16.200000762939</ele>
        <time>2022-01-16T10:56:54.000Z</time>
      </trkpt>
      <trkpt lat="47.27197" lon="-2.29073">
        <ele>16.200000762939</ele>
        <time>2022-01-16T10:56:59.000Z</time>
      </trkpt>
      <trkpt lat="47.272" lon="-2.29089">
        <ele>16.200000762939</ele>
        <time>2022-01-16T10:57:01.000Z</time>
      </trkpt>
      <trkpt lat="47.272" lon="-2.29105">
        <ele>16.200000762939</ele>
        <time>2022-01-16T10:57:03.000Z</time>
      </trkpt>
      <trkpt lat="47.27186" lon="-2.29131">
        <ele>16.200000762939</ele>
        <time>2022-01-16T10:57:07.000Z</time>
      </trkpt>
      <trkpt lat="47.27177" lon="-2.2914">
        <ele>16.200000762939</ele>
        <time>2022-01-16T10:57:09.000Z</time>
      </trkpt>
      <trkpt lat="47.27169" lon="-2.2915">
        <ele>16.200000762939</ele>
        <time>2022-01-16T10:57:11.000Z</time>
      </trkpt>
      <trkpt lat="47.27163" lon="-2.29158">
        <ele>16.200000762939</ele>
        <time>2022-01-16T10:57:13.000Z</time>
      </trkpt>
      <trkpt lat="47.27157" lon="-2.29169">
        <ele>16.200000762939</ele>
        <time>2022-01-16T10:57:15.000Z</time>
      </trkpt>
      <trkpt lat="47.27157" lon="-2.29182">
        <ele>16.200000762939</ele>
        <time>2022-01-16T10:57:17.000Z</time>
      </trkpt>
      <trkpt lat="47.27163" lon="-2.29201">
        <ele>16.200000762939</ele>
        <time>2022-01-16T10:57:20.000Z</time>
      </trkpt>
      <trkpt lat="47.27165" lon="-2.29206">
        <ele>16.200000762939</ele>
        <time>2022-01-16T10:57:21.000Z</time>
      </trkpt>
      <trkpt lat="47.27176" lon="-2.29234">
        <ele>16.200000762939</ele>
        <time>2022-01-16T10:57:26.000Z</time>
      </trkpt>
      <trkpt lat="47.27179" lon="-2.29247">
        <ele>16.200000762939</ele>
        <time>2022-01-16T10:57:28.000Z</time>
      </trkpt>
      <trkpt lat="47.27175" lon="-2.29274">
        <ele>16.200000762939</ele>
        <time>2022-01-16T10:57:32.000Z</time>
      </trkpt>
      <trkpt lat="47.27169" lon="-2.29288">
        <ele>16.200000762939</ele>
        <time>2022-01-16T10:57:34.000Z</time>
      </trkpt>
      <trkpt lat="47.27161" lon="-2.29306">
        <ele>16.200000762939</ele>
        <time>2022-01-16T10:57:37.000Z</time>
      </trkpt>
      <trkpt lat="47.2716" lon="-2.29312">
        <ele>16.200000762939</ele>
        <time>2022-01-16T10:57:38.000Z</time>
      </trkpt>
      <trkpt lat="47.27162" lon="-2.29327">
        <ele>16.200000762939</ele>
        <time>2022-01-16T10:57:41.000Z</time>
      </trkpt>
      <trkpt lat="47.27168" lon="-2.29337">
        <ele>16.200000762939</ele>
        <time>2022-01-16T10:57:43.000Z</time>
      </trkpt>
      <trkpt lat="47.27172" lon="-2.29342">
        <ele>16.200000762939</ele>
        <time>2022-01-16T10:57:44.000Z</time>
      </trkpt>
      <trkpt lat="47.2718" lon="-2.2935">
        <ele>16.200000762939</ele>
        <time>2022-01-16T10:57:46.000Z</time>
      </trkpt>
      <trkpt lat="47.27191" lon="-2.29366">
        <ele>16.200000762939</ele>
        <time>2022-01-16T10:57:49.000Z</time>
      </trkpt>
      <trkpt lat="47.27197" lon="-2.2938">
        <ele>16.200000762939</ele>
        <time>2022-01-16T10:57:51.000Z</time>
      </trkpt>
      <trkpt lat="47.27202" lon="-2.29394">
        <ele>16.200000762939</ele>
        <time>2022-01-16T10:57:53.000Z</time>
      </trkpt>
      <trkpt lat="47.2721" lon="-2.29423">
        <ele>16.200000762939</ele>
        <time>2022-01-16T10:57:57.000Z</time>
      </trkpt>
      <trkpt lat="47.27221" lon="-2.29456">
        <ele>16.200000762939</ele>
        <time>2022-01-16T10:58:02.000Z</time>
      </trkpt>
      <trkpt lat="47.27235" lon="-2.29505">
        <ele>16.200000762939</ele>
        <time>2022-01-16T10:58:09.000Z</time>
      </trkpt>
      <trkpt lat="47.27244" lon="-2.29529">
        <ele>16.200000762939</ele>
        <time>2022-01-16T10:58:13.000Z</time>
      </trkpt>
      <trkpt lat="47.27246" lon="-2.29535">
        <ele>16.200000762939</ele>
        <time>2022-01-16T10:58:14.000Z</time>
      </trkpt>
      <trkpt lat="47.27254" lon="-2.29562">
        <ele>16.200000762939</ele>
        <time>2022-01-16T10:58:18.000Z</time>
      </trkpt>
      <trkpt lat="47.27256" lon="-2.29577">
        <ele>16.200000762939</ele>
        <time>2022-01-16T10:58:20.000Z</time>
      </trkpt>
      <trkpt lat="47.27257" lon="-2.29583">
        <ele>16.200000762939</ele>
        <time>2022-01-16T10:58:21.000Z</time>
      </trkpt>
      <trkpt lat="47.27263" lon="-2.29614">
        <ele>16.200000762939</ele>
        <time>2022-01-16T10:58:26.000Z</time>
      </trkpt>
      <trkpt lat="47.2727" lon="-2.29648">
        <ele>16.200000762939</ele>
        <time>2022-01-16T10:58:32.000Z</time>
      </trkpt>
      <trkpt lat="47.27271" lon="-2.29655">
        <ele>16.200000762939</ele>
        <time>2022-01-16T10:58:33.000Z</time>
      </trkpt>
      <trkpt lat="47.27274" lon="-2.29682">
        <ele>16.200000762939</ele>
        <time>2022-01-16T10:58:37.000Z</time>
      </trkpt>
      <trkpt lat="47.27277" lon="-2.29697">
        <ele>16.200000762939</ele>
        <time>2022-01-16T10:58:39.000Z</time>
      </trkpt>
      <trkpt lat="47.2729" lon="-2.2974">
        <ele>16.200000762939</ele>
        <time>2022-01-16T10:58:45.000Z</time>
      </trkpt>
      <trkpt lat="47.2731" lon="-2.29804">
        <ele>16.200000762939</ele>
        <time>2022-01-16T10:58:54.000Z</time>
      </trkpt>
      <trkpt lat="47.27326" lon="-2.29834">
        <ele>16.200000762939</ele>
        <time>2022-01-16T10:58:59.000Z</time>
      </trkpt>
      <trkpt lat="47.2735" lon="-2.29875">
        <ele>16.200000762939</ele>
        <time>2022-01-16T10:59:06.000Z</time>
      </trkpt>
      <trkpt lat="47.27374" lon="-2.29929">
        <ele>16.200000762939</ele>
        <time>2022-01-16T10:59:14.000Z</time>
      </trkpt>
      <trkpt lat="47.27382" lon="-2.29949">
        <ele>16.200000762939</ele>
        <time>2022-01-16T10:59:17.000Z</time>
      </trkpt>
      <trkpt lat="47.2739" lon="-2.2997">
        <ele>16.200000762939</ele>
        <time>2022-01-16T10:59:20.000Z</time>
      </trkpt>
      <trkpt lat="47.27412" lon="-2.30024">
        <ele>16.200000762939</ele>
        <time>2022-01-16T10:59:27.000Z</time>
      </trkpt>
      <trkpt lat="47.27433" lon="-2.30078">
        <ele>16.200000762939</ele>
        <time>2022-01-16T10:59:34.000Z</time>
      </trkpt>
      <trkpt lat="47.27444" lon="-2.30124">
        <ele>15.800000190735</ele>
        <time>2022-01-16T10:59:40.000Z</time>
      </trkpt>
      <trkpt lat="47.27446" lon="-2.30131">
        <ele>15.39999961853</ele>
        <time>2022-01-16T10:59:41.000Z</time>
      </trkpt>
      <trkpt lat="47.27447" lon="-2.30139">
        <ele>15</ele>
        <time>2022-01-16T10:59:42.000Z</time>
      </trkpt>
      <trkpt lat="47.27449" lon="-2.30146">
        <ele>14.39999961853</ele>
        <time>2022-01-16T10:59:43.000Z</time>
      </trkpt>
      <trkpt lat="47.27451" lon="-2.30153">
        <ele>14</ele>
        <time>2022-01-16T10:59:44.000Z</time>
      </trkpt>
      <trkpt lat="47.27456" lon="-2.30175">
        <ele>14</ele>
        <time>2022-01-16T10:59:47.000Z</time>
      </trkpt>
      <trkpt lat="47.27459" lon="-2.3019">
        <ele>13.60000038147</ele>
        <time>2022-01-16T10:59:49.000Z</time>
      </trkpt>
      <trkpt lat="47.2746" lon="-2.30196">
        <ele>13.199999809265</ele>
        <time>2022-01-16T10:59:50.000Z</time>
      </trkpt>
      <trkpt lat="47.2746" lon="-2.30201">
        <ele>12.800000190735</ele>
        <time>2022-01-16T10:59:51.000Z</time>
      </trkpt>
      <trkpt lat="47.27459" lon="-2.30205">
        <ele>12.39999961853</ele>
        <time>2022-01-16T10:59:52.000Z</time>
      </trkpt>
      <trkpt lat="47.27456" lon="-2.30207">
        <ele>12</ele>
        <time>2022-01-16T10:59:53.000Z</time>
      </trkpt>
      <trkpt lat="47.27454" lon="-2.3021">
        <ele>12</ele>
        <time>2022-01-16T10:59:54.000Z</time>
      </trkpt>
      <trkpt lat="47.27441" lon="-2.3022">
        <ele>12</ele>
        <time>2022-01-16T10:59:58.000Z</time>
      </trkpt>
      <trkpt lat="47.27415" lon="-2.30236">
        <ele>12</ele>
        <time>2022-01-16T11:00:04.000Z</time>
      </trkpt>
      <trkpt lat="47.27395" lon="-2.30246">
        <ele>12</ele>
        <time>2022-01-16T11:00:08.000Z</time>
      </trkpt>
      <trkpt lat="47.27381" lon="-2.30252">
        <ele>12</ele>
        <time>2022-01-16T11:00:11.000Z</time>
      </trkpt>
      <trkpt lat="47.27349" lon="-2.30256">
        <ele>12</ele>
        <time>2022-01-16T11:00:18.000Z</time>
      </trkpt>
      <trkpt lat="47.27333" lon="-2.30258">
        <ele>12</ele>
        <time>2022-01-16T11:00:23.000Z</time>
      </trkpt>
      <trkpt lat="47.27309" lon="-2.30261">
        <ele>12</ele>
        <time>2022-01-16T11:00:29.000Z</time>
      </trkpt>
      <trkpt lat="47.27282" lon="-2.30262">
        <ele>12</ele>
        <time>2022-01-16T11:00:35.000Z</time>
      </trkpt>
      <trkpt lat="47.27277" lon="-2.30263">
        <ele>11.60000038147</ele>
        <time>2022-01-16T11:00:36.000Z</time>
      </trkpt>
      <trkpt lat="47.27272" lon="-2.30265">
        <ele>11.199999809265</ele>
        <time>2022-01-16T11:00:37.000Z</time>
      </trkpt>
      <trkpt lat="47.27267" lon="-2.30267">
        <ele>10.800000190735</ele>
        <time>2022-01-16T11:00:38.000Z</time>
      </trkpt>
      <trkpt lat="47.27263" lon="-2.30269">
        <ele>10.39999961853</ele>
        <time>2022-01-16T11:00:39.000Z</time>
      </trkpt>
      <trkpt lat="47.27259" lon="-2.30269">
        <ele>10</ele>
        <time>2022-01-16T11:00:40.000Z</time>
      </trkpt>
      <trkpt lat="47.27246" lon="-2.30266">
        <ele>10</ele>
        <time>2022-01-16T11:00:45.000Z</time>
      </trkpt>
      <trkpt lat="47.27227" lon="-2.3026">
        <ele>10</ele>
        <time>2022-01-16T11:00:51.000Z</time>
      </trkpt>
      <trkpt lat="47.27202" lon="-2.30257">
        <ele>10</ele>
        <time>2022-01-16T11:00:56.000Z</time>
      </trkpt>
      <trkpt lat="47.27181" lon="-2.30264">
        <ele>10</ele>
        <time>2022-01-16T11:01:02.000Z</time>
      </trkpt>
      <trkpt lat="47.27168" lon="-2.30255">
        <ele>10</ele>
        <time>2022-01-16T11:01:07.000Z</time>
      </trkpt>
      <trkpt lat="47.27161" lon="-2.30251">
        <ele>10</ele>
        <time>2022-01-16T11:01:09.000Z</time>
      </trkpt>
      <trkpt lat="47.27157" lon="-2.30251">
        <ele>10</ele>
        <time>2022-01-16T11:01:10.000Z</time>
      </trkpt>
      <trkpt lat="47.27136" lon="-2.30262">
        <ele>10</ele>
        <time>2022-01-16T11:01:16.000Z</time>
      </trkpt>
      <trkpt lat="47.27115" lon="-2.30273">
        <ele>10</ele>
        <time>2022-01-16T11:01:22.000Z</time>
      </trkpt>
      <trkpt lat="47.27095" lon="-2.30284">
        <ele>10.39999961853</ele>
        <time>2022-01-16T11:01:27.000Z</time>
      </trkpt>
      <trkpt lat="47.27092" lon="-2.30287">
        <ele>10.800000190735</ele>
        <time>2022-01-16T11:01:28.000Z</time>
      </trkpt>
      <trkpt lat="47.27088" lon="-2.3029">
        <ele>11.199999809265</ele>
        <time>2022-01-16T11:01:29.000Z</time>
      </trkpt>
      <trkpt lat="47.27085" lon="-2.30294">
        <ele>11.60000038147</ele>
        <time>2022-01-16T11:01:30.000Z</time>
      </trkpt>
      <trkpt lat="47.27083" lon="-2.30298">
        <ele>12</ele>
        <time>2022-01-16T11:01:31.000Z</time>
      </trkpt>
      <trkpt lat="47.2708" lon="-2.30303">
        <ele>12</ele>
        <time>2022-01-16T11:01:32.000Z</time>
      </trkpt>
      <trkpt lat="47.27066" lon="-2.30338">
        <ele>12</ele>
        <time>2022-01-16T11:01:38.000Z</time>
      </trkpt>
      <trkpt lat="47.27056" lon="-2.30379">
        <ele>12</ele>
        <time>2022-01-16T11:01:44.000Z</time>
      </trkpt>
      <trkpt lat="47.27055" lon="-2.30386">
        <ele>12</ele>
        <time>2022-01-16T11:01:45.000Z</time>
      </trkpt>
      <trkpt lat="47.27052" lon="-2.30421">
        <ele>12</ele>
        <time>2022-01-16T11:01:50.000Z</time>
      </trkpt>
      <trkpt lat="47.2705" lon="-2.30441">
        <ele>12</ele>
        <time>2022-01-16T11:01:53.000Z</time>
      </trkpt>
      <trkpt lat="47.27046" lon="-2.30468">
        <ele>12</ele>
        <time>2022-01-16T11:01:57.000Z</time>
      </trkpt>
      <trkpt lat="47.27044" lon="-2.30475">
        <ele>12</ele>
        <time>2022-01-16T11:01:58.000Z</time>
      </trkpt>
      <trkpt lat="47.27037" lon="-2.30502">
        <ele>12</ele>
        <time>2022-01-16T11:02:02.000Z</time>
      </trkpt>
      <trkpt lat="47.27025" lon="-2.30543">
        <ele>12</ele>
        <time>2022-01-16T11:02:09.000Z</time>
      </trkpt>
      <trkpt lat="47.27012" lon="-2.30583">
        <ele>12</ele>
        <time>2022-01-16T11:02:15.000Z</time>
      </trkpt>
      <trkpt lat="47.27003" lon="-2.306">
        <ele>12</ele>
        <time>2022-01-16T11:02:18.000Z</time>
      </trkpt>
      <trkpt lat="47.26996" lon="-2.30608">
        <ele>12</ele>
        <time>2022-01-16T11:02:20.000Z</time>
      </trkpt>
      <trkpt lat="47.26969" lon="-2.30623">
        <ele>12</ele>
        <time>2022-01-16T11:02:26.000Z</time>
      </trkpt>
      <trkpt lat="47.26965" lon="-2.30625">
        <ele>12</ele>
        <time>2022-01-16T11:02:27.000Z</time>
      </trkpt>
      <trkpt lat="47.26944" lon="-2.30634">
        <ele>12.60000038147</ele>
        <time>2022-01-16T11:02:32.000Z</time>
      </trkpt>
      <trkpt lat="47.2694" lon="-2.30634">
        <ele>13</ele>
        <time>2022-01-16T11:02:33.000Z</time>
      </trkpt>
      <trkpt lat="47.26936" lon="-2.30635">
        <ele>13.39999961853</ele>
        <time>2022-01-16T11:02:34.000Z</time>
      </trkpt>
      <trkpt lat="47.26931" lon="-2.30635">
        <ele>13.800000190735</ele>
        <time>2022-01-16T11:02:35.000Z</time>
      </trkpt>
      <trkpt lat="47.26928" lon="-2.30635">
        <ele>14.199999809265</ele>
        <time>2022-01-16T11:02:36.000Z</time>
      </trkpt>
      <trkpt lat="47.26917" lon="-2.3064">
        <ele>14.199999809265</ele>
        <time>2022-01-16T11:02:39.000Z</time>
      </trkpt>
      <trkpt lat="47.26899" lon="-2.30658">
        <ele>14.199999809265</ele>
        <time>2022-01-16T11:02:45.000Z</time>
      </trkpt>
      <trkpt lat="47.26896" lon="-2.30665">
        <ele>14.199999809265</ele>
        <time>2022-01-16T11:02:47.000Z</time>
      </trkpt>
      <trkpt lat="47.26896" lon="-2.30673">
        <ele>14.199999809265</ele>
        <time>2022-01-16T11:02:49.000Z</time>
      </trkpt>
      <trkpt lat="47.26908" lon="-2.30684">
        <ele>14.199999809265</ele>
        <time>2022-01-16T11:02:52.000Z</time>
      </trkpt>
      <trkpt lat="47.26915" lon="-2.30693">
        <ele>14.199999809265</ele>
        <time>2022-01-16T11:02:54.000Z</time>
      </trkpt>
      <trkpt lat="47.26933" lon="-2.30716">
        <ele>14.199999809265</ele>
        <time>2022-01-16T11:02:59.000Z</time>
      </trkpt>
      <trkpt lat="47.26953" lon="-2.30744">
        <ele>14.199999809265</ele>
        <time>2022-01-16T11:03:04.000Z</time>
      </trkpt>
      <trkpt lat="47.26982" lon="-2.30784">
        <ele>14.199999809265</ele>
        <time>2022-01-16T11:03:11.000Z</time>
      </trkpt>
      <trkpt lat="47.2699" lon="-2.30796">
        <ele>13.800000190735</ele>
        <time>2022-01-16T11:03:13.000Z</time>
      </trkpt>
      <trkpt lat="47.26994" lon="-2.30802">
        <ele>13.39999961853</ele>
        <time>2022-01-16T11:03:14.000Z</time>
      </trkpt>
      <trkpt lat="47.26998" lon="-2.30808">
        <ele>13</ele>
        <time>2022-01-16T11:03:15.000Z</time>
      </trkpt>
      <trkpt lat="47.27001" lon="-2.30814">
        <ele>12.60000038147</ele>
        <time>2022-01-16T11:03:16.000Z</time>
      </trkpt>
      <trkpt lat="47.27005" lon="-2.30819">
        <ele>12.199999809265</ele>
        <time>2022-01-16T11:03:17.000Z</time>
      </trkpt>
      <trkpt lat="47.27008" lon="-2.30825">
        <ele>12.199999809265</ele>
        <time>2022-01-16T11:03:18.000Z</time>
      </trkpt>
      <trkpt lat="47.27018" lon="-2.3084">
        <ele>11.800000190735</ele>
        <time>2022-01-16T11:03:21.000Z</time>
      </trkpt>
      <trkpt lat="47.27022" lon="-2.30844">
        <ele>10.800000190735</ele>
        <time>2022-01-16T11:03:22.000Z</time>
      </trkpt>
      <trkpt lat="47.27026" lon="-2.30849">
        <ele>10.39999961853</ele>
        <time>2022-01-16T11:03:23.000Z</time>
      </trkpt>
      <trkpt lat="47.27029" lon="-2.30855">
        <ele>10</ele>
        <time>2022-01-16T11:03:24.000Z</time>
      </trkpt>
      <trkpt lat="47.27042" lon="-2.30877">
        <ele>10</ele>
        <time>2022-01-16T11:03:28.000Z</time>
      </trkpt>
      <trkpt lat="47.27044" lon="-2.30883">
        <ele>9.6000003814697</ele>
        <time>2022-01-16T11:03:29.000Z</time>
      </trkpt>
      <trkpt lat="47.27045" lon="-2.30887">
        <ele>9.1999998092651</ele>
        <time>2022-01-16T11:03:30.000Z</time>
      </trkpt>
      <trkpt lat="47.27045" lon="-2.3089">
        <ele>8.6000003814697</ele>
        <time>2022-01-16T11:03:31.000Z</time>
      </trkpt>
      <trkpt lat="47.27045" lon="-2.30891">
        <ele>8.1999998092651</ele>
        <time>2022-01-16T11:03:32.000Z</time>
      </trkpt>
      <trkpt lat="47.27045" lon="-2.30892">
        <ele>7.8000001907349</ele>
        <time>2022-01-16T11:03:33.000Z</time>
      </trkpt>
      <trkpt lat="47.27046" lon="-2.30898">
        <ele>7.8000001907349</ele>
        <time>2022-01-16T11:03:38.000Z</time>
      </trkpt>
      <trkpt lat="47.27048" lon="-2.30906">
        <ele>7.8000001907349</ele>
        <time>2022-01-16T11:03:41.000Z</time>
      </trkpt>
      <trkpt lat="47.27058" lon="-2.30923">
        <ele>7.8000001907349</ele>
        <time>2022-01-16T11:03:46.000Z</time>
      </trkpt>
      <trkpt lat="47.27064" lon="-2.3095">
        <ele>7.8000001907349</ele>
        <time>2022-01-16T11:03:52.000Z</time>
      </trkpt>
      <trkpt lat="47.27066" lon="-2.3098">
        <ele>7.8000001907349</ele>
        <time>2022-01-16T11:03:57.000Z</time>
      </trkpt>
      <trkpt lat="47.27055" lon="-2.31001">
        <ele>7.8000001907349</ele>
        <time>2022-01-16T11:04:02.000Z</time>
      </trkpt>
      <trkpt lat="47.27039" lon="-2.31022">
        <ele>7.8000001907349</ele>
        <time>2022-01-16T11:04:08.000Z</time>
      </trkpt>
      <trkpt lat="47.27025" lon="-2.31036">
        <ele>8.1999998092651</ele>
        <time>2022-01-16T11:04:12.000Z</time>
      </trkpt>
      <trkpt lat="47.27021" lon="-2.31039">
        <ele>8.6000003814697</ele>
        <time>2022-01-16T11:04:13.000Z</time>
      </trkpt>
      <trkpt lat="47.27017" lon="-2.3104">
        <ele>9</ele>
        <time>2022-01-16T11:04:14.000Z</time>
      </trkpt>
      <trkpt lat="47.27013" lon="-2.31044">
        <ele>9.3999996185303</ele>
        <time>2022-01-16T11:04:15.000Z</time>
      </trkpt>
      <trkpt lat="47.2701" lon="-2.31049">
        <ele>9.8000001907349</ele>
        <time>2022-01-16T11:04:16.000Z</time>
      </trkpt>
      <trkpt lat="47.27003" lon="-2.31058">
        <ele>9.8000001907349</ele>
        <time>2022-01-16T11:04:18.000Z</time>
      </trkpt>
      <trkpt lat="47.26999" lon="-2.31075">
        <ele>9.8000001907349</ele>
        <time>2022-01-16T11:04:21.000Z</time>
      </trkpt>
      <trkpt lat="47.26999" lon="-2.31081">
        <ele>9.8000001907349</ele>
        <time>2022-01-16T11:04:22.000Z</time>
      </trkpt>
      <trkpt lat="47.27" lon="-2.31113">
        <ele>10.199999809265</ele>
        <time>2022-01-16T11:04:27.000Z</time>
      </trkpt>
      <trkpt lat="47.27" lon="-2.31119">
        <ele>10.60000038147</ele>
        <time>2022-01-16T11:04:28.000Z</time>
      </trkpt>
      <trkpt lat="47.26999" lon="-2.31125">
        <ele>11</ele>
        <time>2022-01-16T11:04:29.000Z</time>
      </trkpt>
      <trkpt lat="47.26998" lon="-2.31131">
        <ele>11.39999961853</ele>
        <time>2022-01-16T11:04:30.000Z</time>
      </trkpt>
      <trkpt lat="47.26996" lon="-2.31137">
        <ele>11.800000190735</ele>
        <time>2022-01-16T11:04:31.000Z</time>
      </trkpt>
      <trkpt lat="47.26994" lon="-2.31149">
        <ele>11.800000190735</ele>
        <time>2022-01-16T11:04:33.000Z</time>
      </trkpt>
      <trkpt lat="47.26988" lon="-2.31187">
        <ele>12.199999809265</ele>
        <time>2022-01-16T11:04:40.000Z</time>
      </trkpt>
      <trkpt lat="47.26986" lon="-2.31192">
        <ele>12.60000038147</ele>
        <time>2022-01-16T11:04:41.000Z</time>
      </trkpt>
      <trkpt lat="47.26985" lon="-2.31198">
        <ele>13</ele>
        <time>2022-01-16T11:04:42.000Z</time>
      </trkpt>
      <trkpt lat="47.26985" lon="-2.31204">
        <ele>13.39999961853</ele>
        <time>2022-01-16T11:04:43.000Z</time>
      </trkpt>
      <trkpt lat="47.26984" lon="-2.31209">
        <ele>14</ele>
        <time>2022-01-16T11:04:44.000Z</time>
      </trkpt>
      <trkpt lat="47.26982" lon="-2.31231">
        <ele>14</ele>
        <time>2022-01-16T11:04:48.000Z</time>
      </trkpt>
      <trkpt lat="47.26982" lon="-2.31261">
        <ele>14</ele>
        <time>2022-01-16T11:04:54.000Z</time>
      </trkpt>
      <trkpt lat="47.2698" lon="-2.31278">
        <ele>14</ele>
        <time>2022-01-16T11:05:00.000Z</time>
      </trkpt>
      <trkpt lat="47.2698" lon="-2.31279">
        <ele>14</ele>
        <time>2022-01-16T11:05:01.000Z</time>
      </trkpt>
      <trkpt lat="47.26978" lon="-2.31285">
        <ele>14</ele>
        <time>2022-01-16T11:09:07.000Z</time>
      </trkpt>
      <trkpt lat="47.26977" lon="-2.31291">
        <ele>14</ele>
        <time>2022-01-16T11:09:09.000Z</time>
      </trkpt>
      <trkpt lat="47.2698" lon="-2.31309">
        <ele>14</ele>
        <time>2022-01-16T11:09:16.000Z</time>
      </trkpt>
      <trkpt lat="47.26985" lon="-2.3134">
        <ele>14</ele>
        <time>2022-01-16T11:09:23.000Z</time>
      </trkpt>
      <trkpt lat="47.26988" lon="-2.31366">
        <ele>14</ele>
        <time>2022-01-16T11:09:29.000Z</time>
      </trkpt>
      <trkpt lat="47.2699" lon="-2.31404">
        <ele>14</ele>
        <time>2022-01-16T11:09:34.000Z</time>
      </trkpt>
      <trkpt lat="47.26991" lon="-2.31427">
        <ele>14</ele>
        <time>2022-01-16T11:09:37.000Z</time>
      </trkpt>
      <trkpt lat="47.26992" lon="-2.31448">
        <ele>14</ele>
        <time>2022-01-16T11:09:40.000Z</time>
      </trkpt>
      <trkpt lat="47.26992" lon="-2.31454">
        <ele>13.39999961853</ele>
        <time>2022-01-16T11:09:41.000Z</time>
      </trkpt>
      <trkpt lat="47.26993" lon="-2.3146">
        <ele>13</ele>
        <time>2022-01-16T11:09:42.000Z</time>
      </trkpt>
      <trkpt lat="47.26994" lon="-2.31466">
        <ele>12.60000038147</ele>
        <time>2022-01-16T11:09:43.000Z</time>
      </trkpt>
      <trkpt lat="47.26995" lon="-2.31471">
        <ele>12.199999809265</ele>
        <time>2022-01-16T11:09:44.000Z</time>
      </trkpt>
      <trkpt lat="47.26997" lon="-2.31477">
        <ele>11.800000190735</ele>
        <time>2022-01-16T11:09:45.000Z</time>
      </trkpt>
      <trkpt lat="47.27006" lon="-2.31512">
        <ele>11.800000190735</ele>
        <time>2022-01-16T11:09:50.000Z</time>
      </trkpt>
      <trkpt lat="47.27007" lon="-2.31521">
        <ele>11.39999961853</ele>
        <time>2022-01-16T11:09:51.000Z</time>
      </trkpt>
      <trkpt lat="47.27009" lon="-2.3153">
        <ele>11</ele>
        <time>2022-01-16T11:09:52.000Z</time>
      </trkpt>
      <trkpt lat="47.2701" lon="-2.31539">
        <ele>10.39999961853</ele>
        <time>2022-01-16T11:09:53.000Z</time>
      </trkpt>
      <trkpt lat="47.27012" lon="-2.31548">
        <ele>10</ele>
        <time>2022-01-16T11:09:54.000Z</time>
      </trkpt>
      <trkpt lat="47.27014" lon="-2.31556">
        <ele>9.6000003814697</ele>
        <time>2022-01-16T11:09:55.000Z</time>
      </trkpt>
      <trkpt lat="47.27017" lon="-2.31564">
        <ele>9.6000003814697</ele>
        <time>2022-01-16T11:09:56.000Z</time>
      </trkpt>
      <trkpt lat="47.2702" lon="-2.31571">
        <ele>9.1999998092651</ele>
        <time>2022-01-16T11:09:57.000Z</time>
      </trkpt>
      <trkpt lat="47.27023" lon="-2.31578">
        <ele>8.3999996185303</ele>
        <time>2022-01-16T11:09:58.000Z</time>
      </trkpt>
      <trkpt lat="47.27026" lon="-2.31584">
        <ele>8</ele>
        <time>2022-01-16T11:09:59.000Z</time>
      </trkpt>
      <trkpt lat="47.27027" lon="-2.3159">
        <ele>7.4000000953674</ele>
        <time>2022-01-16T11:10:00.000Z</time>
      </trkpt>
      <trkpt lat="47.27029" lon="-2.31597">
        <ele>7</ele>
        <time>2022-01-16T11:10:01.000Z</time>
      </trkpt>
      <trkpt lat="47.2703" lon="-2.31604">
        <ele>6.4000000953674</ele>
        <time>2022-01-16T11:10:02.000Z</time>
      </trkpt>
      <trkpt lat="47.27032" lon="-2.31611">
        <ele>5.8000001907349</ele>
        <time>2022-01-16T11:10:03.000Z</time>
      </trkpt>
      <trkpt lat="47.27033" lon="-2.31618">
        <ele>5.4000000953674</ele>
        <time>2022-01-16T11:10:04.000Z</time>
      </trkpt>
      <trkpt lat="47.27038" lon="-2.31644">
        <ele>5.4000000953674</ele>
        <time>2022-01-16T11:10:07.000Z</time>
      </trkpt>
      <trkpt lat="47.27038" lon="-2.31653">
        <ele>5</ele>
        <time>2022-01-16T11:10:08.000Z</time>
      </trkpt>
      <trkpt lat="47.27038" lon="-2.31663">
        <ele>4.4000000953674</ele>
        <time>2022-01-16T11:10:09.000Z</time>
      </trkpt>
      <trkpt lat="47.27037" lon="-2.31673">
        <ele>4</ele>
        <time>2022-01-16T11:10:10.000Z</time>
      </trkpt>
      <trkpt lat="47.27036" lon="-2.31681">
        <ele>3.5999999046326</ele>
        <time>2022-01-16T11:10:11.000Z</time>
      </trkpt>
      <trkpt lat="47.27035" lon="-2.31688">
        <ele>3.2000000476837</ele>
        <time>2022-01-16T11:10:12.000Z</time>
      </trkpt>
      <trkpt lat="47.27033" lon="-2.31694">
        <ele>2.7999999523163</ele>
        <time>2022-01-16T11:10:13.000Z</time>
      </trkpt>
      <trkpt lat="47.27033" lon="-2.31699">
        <ele>2.4000000953674</ele>
        <time>2022-01-16T11:10:14.000Z</time>
      </trkpt>
      <trkpt lat="47.27034" lon="-2.31705">
        <ele>2</ele>
        <time>2022-01-16T11:10:15.000Z</time>
      </trkpt>
      <trkpt lat="47.27037" lon="-2.31709">
        <ele>1.6000000238419</ele>
        <time>2022-01-16T11:10:16.000Z</time>
      </trkpt>
      <trkpt lat="47.27039" lon="-2.31713">
        <ele>1.2000000476837</ele>
        <time>2022-01-16T11:10:17.000Z</time>
      </trkpt>
      <trkpt lat="47.27047" lon="-2.3172">
        <ele>1.2000000476837</ele>
        <time>2022-01-16T11:10:19.000Z</time>
      </trkpt>
      <trkpt lat="47.2705" lon="-2.31723">
        <ele>1.2000000476837</ele>
        <time>2022-01-16T11:10:20.000Z</time>
      </trkpt>
      <trkpt lat="47.27053" lon="-2.31727">
        <ele>1.2000000476837</ele>
        <time>2022-01-16T11:10:21.000Z</time>
      </trkpt>
      <trkpt lat="47.27055" lon="-2.31737">
        <ele>1.2000000476837</ele>
        <time>2022-01-16T11:10:23.000Z</time>
      </trkpt>
      <trkpt lat="47.27054" lon="-2.31749">
        <ele>1.2000000476837</ele>
        <time>2022-01-16T11:10:25.000Z</time>
      </trkpt>
      <trkpt lat="47.27056" lon="-2.31763">
        <ele>1.2000000476837</ele>
        <time>2022-01-16T11:10:27.000Z</time>
      </trkpt>
      <trkpt lat="47.27059" lon="-2.31793">
        <ele>0.60000002384186</ele>
        <time>2022-01-16T11:10:31.000Z</time>
      </trkpt>
      <trkpt lat="47.2706" lon="-2.31801">
        <ele>0.20000000298023</ele>
        <time>2022-01-16T11:10:32.000Z</time>
      </trkpt>
      <trkpt lat="47.27061" lon="-2.31809">
        <ele>-0.20000000298023</ele>
        <time>2022-01-16T11:10:33.000Z</time>
      </trkpt>
      <trkpt lat="47.27062" lon="-2.31817">
        <ele>-0.60000002384186</ele>
        <time>2022-01-16T11:10:34.000Z</time>
      </trkpt>
      <trkpt lat="47.27063" lon="-2.31824">
        <ele>-1</ele>
        <time>2022-01-16T11:10:35.000Z</time>
      </trkpt>
      <trkpt lat="47.27065" lon="-2.31837">
        <ele>-1</ele>
        <time>2022-01-16T11:10:37.000Z</time>
      </trkpt>
      <trkpt lat="47.27066" lon="-2.31843">
        <ele>-1</ele>
        <time>2022-01-16T11:10:38.000Z</time>
      </trkpt>
      <trkpt lat="47.27071" lon="-2.3185">
        <ele>-1.3999999761581</ele>
        <time>2022-01-16T11:10:40.000Z</time>
      </trkpt>
      <trkpt lat="47.27073" lon="-2.31851">
        <ele>-1.7999999523163</ele>
        <time>2022-01-16T11:10:41.000Z</time>
      </trkpt>
      <trkpt lat="47.27075" lon="-2.31852">
        <ele>-2.4000000953674</ele>
        <time>2022-01-16T11:10:42.000Z</time>
      </trkpt>
      <trkpt lat="47.27077" lon="-2.31851">
        <ele>-2.7999999523163</ele>
        <time>2022-01-16T11:10:43.000Z</time>
      </trkpt>
      <trkpt lat="47.27079" lon="-2.31852">
        <ele>-3.2000000476837</ele>
        <time>2022-01-16T11:10:44.000Z</time>
      </trkpt>
      <trkpt lat="47.2708" lon="-2.31853">
        <ele>-3.2000000476837</ele>
        <time>2022-01-16T11:10:45.000Z</time>
      </trkpt>
      <trkpt lat="47.27082" lon="-2.3186">
        <ele>-3.2000000476837</ele>
        <time>2022-01-16T11:10:49.000Z</time>
      </trkpt>
      <trkpt lat="47.27082" lon="-2.31862">
        <ele>-3.2000000476837</ele>
        <time>2022-01-16T11:10:50.000Z</time>
      </trkpt>
      <trkpt lat="47.2708" lon="-2.31867">
        <ele>-3.2000000476837</ele>
        <time>2022-01-16T11:10:53.000Z</time>
      </trkpt>
      <trkpt lat="47.27077" lon="-2.31874">
        <ele>-3.2000000476837</ele>
        <time>2022-01-16T11:10:55.000Z</time>
      </trkpt>
      <trkpt lat="47.27075" lon="-2.31881">
        <ele>-3.2000000476837</ele>
        <time>2022-01-16T11:10:57.000Z</time>
      </trkpt>
      <trkpt lat="47.27075" lon="-2.31896">
        <ele>-3.2000000476837</ele>
        <time>2022-01-16T11:11:00.000Z</time>
      </trkpt>
      <trkpt lat="47.27076" lon="-2.3192">
        <ele>-3.5999999046326</ele>
        <time>2022-01-16T11:11:04.000Z</time>
      </trkpt>
      <trkpt lat="47.27076" lon="-2.31926">
        <ele>-4</ele>
        <time>2022-01-16T11:11:05.000Z</time>
      </trkpt>
      <trkpt lat="47.27076" lon="-2.31931">
        <ele>-4.4000000953674</ele>
        <time>2022-01-16T11:11:06.000Z</time>
      </trkpt>
      <trkpt lat="47.27076" lon="-2.31936">
        <ele>-4.8000001907349</ele>
        <time>2022-01-16T11:11:07.000Z</time>
      </trkpt>
      <trkpt lat="47.27076" lon="-2.3194">
        <ele>-5.1999998092651</ele>
        <time>2022-01-16T11:11:08.000Z</time>
      </trkpt>
      <trkpt lat="47.27074" lon="-2.31943">
        <ele>-5.1999998092651</ele>
        <time>2022-01-16T11:11:09.000Z</time>
      </trkpt>
      <trkpt lat="47.27064" lon="-2.31948">
        <ele>-5.1999998092651</ele>
        <time>2022-01-16T11:11:13.000Z</time>
      </trkpt>
      <trkpt lat="47.27061" lon="-2.31947">
        <ele>-5.1999998092651</ele>
        <time>2022-01-16T11:11:14.000Z</time>
      </trkpt>
      <trkpt lat="47.27048" lon="-2.31947">
        <ele>-5.1999998092651</ele>
        <time>2022-01-16T11:11:18.000Z</time>
      </trkpt>
      <trkpt lat="47.27046" lon="-2.31949">
        <ele>-5.1999998092651</ele>
        <time>2022-01-16T11:11:19.000Z</time>
      </trkpt>
      <trkpt lat="47.27034" lon="-2.31958">
        <ele>-5.1999998092651</ele>
        <time>2022-01-16T11:11:23.000Z</time>
      </trkpt>
      <trkpt lat="47.27014" lon="-2.31969">
        <ele>-5.1999998092651</ele>
        <time>2022-01-16T11:11:28.000Z</time>
      </trkpt>
      <trkpt lat="47.27002" lon="-2.31982">
        <ele>-5.1999998092651</ele>
        <time>2022-01-16T11:11:32.000Z</time>
      </trkpt>
      <trkpt lat="47.26981" lon="-2.31992">
        <ele>-5.1999998092651</ele>
        <time>2022-01-16T11:11:38.000Z</time>
      </trkpt>
      <trkpt lat="47.26954" lon="-2.31998">
        <ele>-5.1999998092651</ele>
        <time>2022-01-16T11:11:45.000Z</time>
      </trkpt>
      <trkpt lat="47.26939" lon="-2.31984">
        <ele>-4.8000001907349</ele>
        <time>2022-01-16T11:11:50.000Z</time>
      </trkpt>
      <trkpt lat="47.26936" lon="-2.31981">
        <ele>-4.4000000953674</ele>
        <time>2022-01-16T11:11:51.000Z</time>
      </trkpt>
      <trkpt lat="47.26934" lon="-2.31978">
        <ele>-4</ele>
        <time>2022-01-16T11:11:52.000Z</time>
      </trkpt>
      <trkpt lat="47.26933" lon="-2.31975">
        <ele>-3.5999999046326</ele>
        <time>2022-01-16T11:11:53.000Z</time>
      </trkpt>
      <trkpt lat="47.26931" lon="-2.31972">
        <ele>-3.2000000476837</ele>
        <time>2022-01-16T11:11:54.000Z</time>
      </trkpt>
      <trkpt lat="47.26927" lon="-2.31964">
        <ele>-3.2000000476837</ele>
        <time>2022-01-16T11:11:56.000Z</time>
      </trkpt>
      <trkpt lat="47.26909" lon="-2.31947">
        <ele>-2.7999999523163</ele>
        <time>2022-01-16T11:12:02.000Z</time>
      </trkpt>
      <trkpt lat="47.26906" lon="-2.31944">
        <ele>-2.4000000953674</ele>
        <time>2022-01-16T11:12:03.000Z</time>
      </trkpt>
      <trkpt lat="47.26904" lon="-2.3194">
        <ele>-2</ele>
        <time>2022-01-16T11:12:04.000Z</time>
      </trkpt>
      <trkpt lat="47.26902" lon="-2.31937">
        <ele>-1.6000000238419</ele>
        <time>2022-01-16T11:12:05.000Z</time>
      </trkpt>
      <trkpt lat="47.269" lon="-2.31933">
        <ele>-1.2000000476837</ele>
        <time>2022-01-16T11:12:06.000Z</time>
      </trkpt>
      <trkpt lat="47.26898" lon="-2.31929">
        <ele>-1.2000000476837</ele>
        <time>2022-01-16T11:12:07.000Z</time>
      </trkpt>
      <trkpt lat="47.26888" lon="-2.3191">
        <ele>-0.80000001192093</ele>
        <time>2022-01-16T11:12:12.000Z</time>
      </trkpt>
      <trkpt lat="47.26886" lon="-2.31907">
        <ele>-0.40000000596046</ele>
        <time>2022-01-16T11:12:13.000Z</time>
      </trkpt>
      <trkpt lat="47.26884" lon="-2.31904">
        <ele>0.20000000298023</ele>
        <time>2022-01-16T11:12:14.000Z</time>
      </trkpt>
      <trkpt lat="47.26881" lon="-2.31902">
        <ele>0.60000002384186</ele>
        <time>2022-01-16T11:12:15.000Z</time>
      </trkpt>
      <trkpt lat="47.26877" lon="-2.31899">
        <ele>1</ele>
        <time>2022-01-16T11:12:16.000Z</time>
      </trkpt>
      <trkpt lat="47.26874" lon="-2.31896">
        <ele>1</ele>
        <time>2022-01-16T11:12:17.000Z</time>
      </trkpt>
      <trkpt lat="47.26857" lon="-2.3189">
        <ele>1</ele>
        <time>2022-01-16T11:12:22.000Z</time>
      </trkpt>
      <trkpt lat="47.26847" lon="-2.31886">
        <ele>1.3999999761581</ele>
        <time>2022-01-16T11:12:26.000Z</time>
      </trkpt>
      <trkpt lat="47.26844" lon="-2.31883">
        <ele>1.7999999523163</ele>
        <time>2022-01-16T11:12:27.000Z</time>
      </trkpt>
      <trkpt lat="47.26842" lon="-2.31881">
        <ele>2.2000000476837</ele>
        <time>2022-01-16T11:12:28.000Z</time>
      </trkpt>
      <trkpt lat="47.2684" lon="-2.31878">
        <ele>2.5999999046326</ele>
        <time>2022-01-16T11:12:29.000Z</time>
      </trkpt>
      <trkpt lat="47.26838" lon="-2.31875">
        <ele>3</ele>
        <time>2022-01-16T11:12:30.000Z</time>
      </trkpt>
      <trkpt lat="47.26834" lon="-2.31862">
        <ele>3</ele>
        <time>2022-01-16T11:12:34.000Z</time>
      </trkpt>
      <trkpt lat="47.26829" lon="-2.31848">
        <ele>3.4000000953674</ele>
        <time>2022-01-16T11:12:38.000Z</time>
      </trkpt>
      <trkpt lat="47.26827" lon="-2.31844">
        <ele>3.7999999523163</ele>
        <time>2022-01-16T11:12:39.000Z</time>
      </trkpt>
      <trkpt lat="47.26826" lon="-2.31841">
        <ele>4.1999998092651</ele>
        <time>2022-01-16T11:12:40.000Z</time>
      </trkpt>
      <trkpt lat="47.26825" lon="-2.31836">
        <ele>4.8000001907349</ele>
        <time>2022-01-16T11:12:41.000Z</time>
      </trkpt>
      <trkpt lat="47.26824" lon="-2.31833">
        <ele>5.1999998092651</ele>
        <time>2022-01-16T11:12:42.000Z</time>
      </trkpt>
      <trkpt lat="47.26818" lon="-2.31813">
        <ele>5.1999998092651</ele>
        <time>2022-01-16T11:12:48.000Z</time>
      </trkpt>
      <trkpt lat="47.26814" lon="-2.31811">
        <ele>5.5999999046326</ele>
        <time>2022-01-16T11:12:50.000Z</time>
      </trkpt>
      <trkpt lat="47.2681" lon="-2.31812">
        <ele>6</ele>
        <time>2022-01-16T11:12:51.000Z</time>
      </trkpt>
      <trkpt lat="47.26807" lon="-2.31814">
        <ele>6.4000000953674</ele>
        <time>2022-01-16T11:12:52.000Z</time>
      </trkpt>
      <trkpt lat="47.26804" lon="-2.31815">
        <ele>6.8000001907349</ele>
        <time>2022-01-16T11:12:53.000Z</time>
      </trkpt>
      <trkpt lat="47.268" lon="-2.31817">
        <ele>7.4000000953674</ele>
        <time>2022-01-16T11:12:54.000Z</time>
      </trkpt>
      <trkpt lat="47.26785" lon="-2.31825">
        <ele>7.4000000953674</ele>
        <time>2022-01-16T11:12:58.000Z</time>
      </trkpt>
      <trkpt lat="47.26755" lon="-2.31848">
        <ele>7.4000000953674</ele>
        <time>2022-01-16T11:13:06.000Z</time>
      </trkpt>
      <trkpt lat="47.2674" lon="-2.31861">
        <ele>7.4000000953674</ele>
        <time>2022-01-16T11:13:10.000Z</time>
      </trkpt>
      <trkpt lat="47.26729" lon="-2.3187">
        <ele>7.4000000953674</ele>
        <time>2022-01-16T11:13:13.000Z</time>
      </trkpt>
      <trkpt lat="47.267" lon="-2.31897">
        <ele>7.4000000953674</ele>
        <time>2022-01-16T11:13:21.000Z</time>
      </trkpt>
      <trkpt lat="47.26665" lon="-2.31933">
        <ele>7.4000000953674</ele>
        <time>2022-01-16T11:13:30.000Z</time>
      </trkpt>
      <trkpt lat="47.26654" lon="-2.31946">
        <ele>7.4000000953674</ele>
        <time>2022-01-16T11:13:33.000Z</time>
      </trkpt>
      <trkpt lat="47.26646" lon="-2.31963">
        <ele>7.4000000953674</ele>
        <time>2022-01-16T11:13:36.000Z</time>
      </trkpt>
      <trkpt lat="47.26643" lon="-2.31991">
        <ele>7.4000000953674</ele>
        <time>2022-01-16T11:13:40.000Z</time>
      </trkpt>
      <trkpt lat="47.26642" lon="-2.31998">
        <ele>7.4000000953674</ele>
        <time>2022-01-16T11:13:41.000Z</time>
      </trkpt>
      <trkpt lat="47.2664" lon="-2.32003">
        <ele>7.4000000953674</ele>
        <time>2022-01-16T11:13:42.000Z</time>
      </trkpt>
      <trkpt lat="47.26634" lon="-2.3201">
        <ele>7.4000000953674</ele>
        <time>2022-01-16T11:13:44.000Z</time>
      </trkpt>
      <trkpt lat="47.26622" lon="-2.32015">
        <ele>7.4000000953674</ele>
        <time>2022-01-16T11:13:47.000Z</time>
      </trkpt>
      <trkpt lat="47.26617" lon="-2.32016">
        <ele>7.4000000953674</ele>
        <time>2022-01-16T11:13:48.000Z</time>
      </trkpt>
      <trkpt lat="47.26582" lon="-2.32027">
        <ele>7.4000000953674</ele>
        <time>2022-01-16T11:13:54.000Z</time>
      </trkpt>
      <trkpt lat="47.26559" lon="-2.32036">
        <ele>7.4000000953674</ele>
        <time>2022-01-16T11:13:58.000Z</time>
      </trkpt>
      <trkpt lat="47.26549" lon="-2.32038">
        <ele>7.4000000953674</ele>
        <time>2022-01-16T11:14:00.000Z</time>
      </trkpt>
      <trkpt lat="47.26544" lon="-2.32036">
        <ele>6.8000001907349</ele>
        <time>2022-01-16T11:14:02.000Z</time>
      </trkpt>
      <trkpt lat="47.26542" lon="-2.32034">
        <ele>6</ele>
        <time>2022-01-16T11:14:03.000Z</time>
      </trkpt>
      <trkpt lat="47.26541" lon="-2.32032">
        <ele>5.5999999046326</ele>
        <time>2022-01-16T11:14:04.000Z</time>
      </trkpt>
      <trkpt lat="47.26541" lon="-2.32027">
        <ele>5</ele>
        <time>2022-01-16T11:14:05.000Z</time>
      </trkpt>
      <trkpt lat="47.26539" lon="-2.32019">
        <ele>5</ele>
        <time>2022-01-16T11:14:07.000Z</time>
      </trkpt>
      <trkpt lat="47.26529" lon="-2.32007">
        <ele>5</ele>
        <time>2022-01-16T11:14:11.000Z</time>
      </trkpt>
      <trkpt lat="47.26526" lon="-2.32005">
        <ele>4.5999999046326</ele>
        <time>2022-01-16T11:14:12.000Z</time>
      </trkpt>
      <trkpt lat="47.26522" lon="-2.32003">
        <ele>4.1999998092651</ele>
        <time>2022-01-16T11:14:13.000Z</time>
      </trkpt>
      <trkpt lat="47.26519" lon="-2.32003">
        <ele>3.7999999523163</ele>
        <time>2022-01-16T11:14:14.000Z</time>
      </trkpt>
      <trkpt lat="47.26517" lon="-2.32005">
        <ele>3.2000000476837</ele>
        <time>2022-01-16T11:14:15.000Z</time>
      </trkpt>
      <trkpt lat="47.26513" lon="-2.32006">
        <ele>2.7999999523163</ele>
        <time>2022-01-16T11:14:16.000Z</time>
      </trkpt>
      <trkpt lat="47.26507" lon="-2.32007">
        <ele>2.4000000953674</ele>
        <time>2022-01-16T11:14:18.000Z</time>
      </trkpt>
      <trkpt lat="47.26504" lon="-2.32007">
        <ele>1.7999999523163</ele>
        <time>2022-01-16T11:14:19.000Z</time>
      </trkpt>
      <trkpt lat="47.26501" lon="-2.32006">
        <ele>1.3999999761581</ele>
        <time>2022-01-16T11:14:20.000Z</time>
      </trkpt>
      <trkpt lat="47.26499" lon="-2.32004">
        <ele>1</ele>
        <time>2022-01-16T11:14:21.000Z</time>
      </trkpt>
      <trkpt lat="47.26496" lon="-2.32003">
        <ele>0.60000002384186</ele>
        <time>2022-01-16T11:14:22.000Z</time>
      </trkpt>
      <trkpt lat="47.26486" lon="-2.32003">
        <ele>0.60000002384186</ele>
        <time>2022-01-16T11:14:25.000Z</time>
      </trkpt>
      <trkpt lat="47.26478" lon="-2.32003">
        <ele>13.6</ele>
        <time>2022-01-16T11:14:27.000Z</time>
      </trkpt>
      <trkpt lat="47.26475" lon="-2.32004">
        <ele>-0.80000001192093</ele>
        <time>2022-01-16T11:14:28.000Z</time>
      </trkpt>
      <trkpt lat="47.26471" lon="-2.32005">
        <ele>-1.2000000476837</ele>
        <time>2022-01-16T11:14:29.000Z</time>
      </trkpt>
      <trkpt lat="47.26466" lon="-2.32005">
        <ele>-1.6000000238419</ele>
        <time>2022-01-16T11:14:30.000Z</time>
      </trkpt>
      <trkpt lat="47.26462" lon="-2.32003">
        <ele>-1.6000000238419</ele>
        <time>2022-01-16T11:14:31.000Z</time>
      </trkpt>
      <trkpt lat="47.26452" lon="-2.32003">
        <ele>-2</ele>
        <time>2022-01-16T11:14:33.000Z</time>
      </trkpt>
      <trkpt lat="47.26447" lon="-2.32003">
        <ele>-2.4000000953674</ele>
        <time>2022-01-16T11:14:34.000Z</time>
      </trkpt>
      <trkpt lat="47.26442" lon="-2.32003">
        <ele>-2.7999999523163</ele>
        <time>2022-01-16T11:14:35.000Z</time>
      </trkpt>
      <trkpt lat="47.26437" lon="-2.32003">
        <ele>-3.2000000476837</ele>
        <time>2022-01-16T11:14:36.000Z</time>
      </trkpt>
      <trkpt lat="47.26432" lon="-2.32002">
        <ele>-3.5999999046326</ele>
        <time>2022-01-16T11:14:37.000Z</time>
      </trkpt>
      <trkpt lat="47.2642" lon="-2.31999">
        <ele>-4</ele>
        <time>2022-01-16T11:14:40.000Z</time>
      </trkpt>
      <trkpt lat="47.26416" lon="-2.31998">
        <ele>-4.4000000953674</ele>
        <time>2022-01-16T11:14:41.000Z</time>
      </trkpt>
      <trkpt lat="47.26413" lon="-2.31997">
        <ele>-5</ele>
        <time>2022-01-16T11:14:42.000Z</time>
      </trkpt>
      <trkpt lat="47.26411" lon="-2.31996">
        <ele>-5.4000000953674</ele>
        <time>2022-01-16T11:14:43.000Z</time>
      </trkpt>
      <trkpt lat="47.26408" lon="-2.31997">
        <ele>-5.8000001907349</ele>
        <time>2022-01-16T11:14:44.000Z</time>
      </trkpt>
      <trkpt lat="47.26404" lon="-2.31997">
        <ele>-5.8000001907349</ele>
        <time>2022-01-16T11:14:46.000Z</time>
      </trkpt>
      <trkpt lat="47.26392" lon="-2.31998">
        <ele>-6.1999998092651</ele>
        <time>2022-01-16T11:14:50.000Z</time>
      </trkpt>
      <trkpt lat="47.26387" lon="-2.31999">
        <ele>-6.5999999046326</ele>
        <time>2022-01-16T11:14:51.000Z</time>
      </trkpt>
      <trkpt lat="47.26384" lon="-2.31999">
        <ele>-7</ele>
        <time>2022-01-16T11:14:52.000Z</time>
      </trkpt>
      <trkpt lat="47.26378" lon="-2.31997">
        <ele>-7.8000001907349</ele>
        <time>2022-01-16T11:14:53.000Z</time>
      </trkpt>
      <trkpt lat="47.26366" lon="-2.31988">
        <ele>-7.8000001907349</ele>
        <time>2022-01-16T11:14:57.000Z</time>
      </trkpt>
      <trkpt lat="47.26355" lon="-2.31957">
        <ele>-7.8000001907349</ele>
        <time>2022-01-16T11:15:02.000Z</time>
      </trkpt>
      <trkpt lat="47.26353" lon="-2.31951">
        <ele>-8.1999998092651</ele>
        <time>2022-01-16T11:15:03.000Z</time>
      </trkpt>
      <trkpt lat="47.26351" lon="-2.31945">
        <ele>-8.8000001907349</ele>
        <time>2022-01-16T11:15:04.000Z</time>
      </trkpt>
      <trkpt lat="47.26347" lon="-2.31941">
        <ele>-9.1999998092651</ele>
        <time>2022-01-16T11:15:05.000Z</time>
      </trkpt>
      <trkpt lat="47.26343" lon="-2.3194">
        <ele>-9.6000003814697</ele>
        <time>2022-01-16T11:15:06.000Z</time>
      </trkpt>
      <trkpt lat="47.26341" lon="-2.31938">
        <ele>-10</ele>
        <time>2022-01-16T11:15:07.000Z</time>
      </trkpt>
      <trkpt lat="47.26323" lon="-2.31938">
        <ele>-10</ele>
        <time>2022-01-16T11:15:12.000Z</time>
      </trkpt>
      <trkpt lat="47.26314" lon="-2.31935">
        <ele>-10</ele>
        <time>2022-01-16T11:15:14.000Z</time>
      </trkpt>
      <trkpt lat="47.26307" lon="-2.31928">
        <ele>-10</ele>
        <time>2022-01-16T11:15:16.000Z</time>
      </trkpt>
      <trkpt lat="47.26303" lon="-2.31909">
        <ele>-10</ele>
        <time>2022-01-16T11:15:20.000Z</time>
      </trkpt>
      <trkpt lat="47.26297" lon="-2.31899">
        <ele>-10</ele>
        <time>2022-01-16T11:15:24.000Z</time>
      </trkpt>
      <trkpt lat="47.26289" lon="-2.31905">
        <ele>-10</ele>
        <time>2022-01-16T11:15:27.000Z</time>
      </trkpt>
      <trkpt lat="47.26279" lon="-2.31918">
        <ele>-10</ele>
        <time>2022-01-16T11:15:30.000Z</time>
      </trkpt>
      <trkpt lat="47.26272" lon="-2.31926">
        <ele>-10</ele>
        <time>2022-01-16T11:15:32.000Z</time>
      </trkpt>
      <trkpt lat="47.26269" lon="-2.31931">
        <ele>-10</ele>
        <time>2022-01-16T11:15:33.000Z</time>
      </trkpt>
      <trkpt lat="47.26252" lon="-2.31955">
        <ele>-10</ele>
        <time>2022-01-16T11:15:38.000Z</time>
      </trkpt>
      <trkpt lat="47.26248" lon="-2.31959">
        <ele>-10</ele>
        <time>2022-01-16T11:15:39.000Z</time>
      </trkpt>
      <trkpt lat="47.26234" lon="-2.31974">
        <ele>-10.800000190735</ele>
        <time>2022-01-16T11:15:43.000Z</time>
      </trkpt>
      <trkpt lat="47.26231" lon="-2.31976">
        <ele>-11.199999809265</ele>
        <time>2022-01-16T11:15:44.000Z</time>
      </trkpt>
      <trkpt lat="47.2623" lon="-2.3198">
        <ele>-11.60000038147</ele>
        <time>2022-01-16T11:15:45.000Z</time>
      </trkpt>
      <trkpt lat="47.26228" lon="-2.31982">
        <ele>-12</ele>
        <time>2022-01-16T11:15:46.000Z</time>
      </trkpt>
      <trkpt lat="47.26226" lon="-2.31985">
        <ele>-12</ele>
        <time>2022-01-16T11:15:47.000Z</time>
      </trkpt>
      <trkpt lat="47.26209" lon="-2.31999">
        <ele>-12</ele>
        <time>2022-01-16T11:15:52.000Z</time>
      </trkpt>
      <trkpt lat="47.26204" lon="-2.32006">
        <ele>-12</ele>
        <time>2022-01-16T11:15:54.000Z</time>
      </trkpt>
      <trkpt lat="47.26204" lon="-2.32011">
        <ele>-12</ele>
        <time>2022-01-16T11:15:55.000Z</time>
      </trkpt>
      <trkpt lat="47.262" lon="-2.32019">
        <ele>-12</ele>
        <time>2022-01-16T11:15:58.000Z</time>
      </trkpt>
      <trkpt lat="47.26198" lon="-2.32021">
        <ele>-12</ele>
        <time>2022-01-16T11:15:59.000Z</time>
      </trkpt>
      <trkpt lat="47.26184" lon="-2.32021">
        <ele>-12</ele>
        <time>2022-01-16T11:16:04.000Z</time>
      </trkpt>
      <trkpt lat="47.26176" lon="-2.32019">
        <ele>-12</ele>
        <time>2022-01-16T11:16:08.000Z</time>
      </trkpt>
      <trkpt lat="47.26175" lon="-2.32019">
        <ele>-12</ele>
        <time>2022-01-16T11:16:09.000Z</time>
      </trkpt>
      <trkpt lat="47.26175" lon="-2.32019">
        <ele>-12</ele>
        <time>2022-01-16T11:16:10.000Z</time>
      </trkpt>
      <trkpt lat="47.26172" lon="-2.32019">
        <ele>-12</ele>
        <time>2022-01-16T11:16:28.000Z</time>
      </trkpt>
      <trkpt lat="47.2617" lon="-2.32021">
        <ele>-12</ele>
        <time>2022-01-16T11:16:29.000Z</time>
      </trkpt>
      <trkpt lat="47.26168" lon="-2.32024">
        <ele>-12</ele>
        <time>2022-01-16T11:16:30.000Z</time>
      </trkpt>
      <trkpt lat="47.26157" lon="-2.32038">
        <ele>-12</ele>
        <time>2022-01-16T11:16:34.000Z</time>
      </trkpt>
      <trkpt lat="47.26153" lon="-2.32049">
        <ele>-12</ele>
        <time>2022-01-16T11:16:36.000Z</time>
      </trkpt>
      <trkpt lat="47.26147" lon="-2.32069">
        <ele>-12</ele>
        <time>2022-01-16T11:16:39.000Z</time>
      </trkpt>
      <trkpt lat="47.26133" lon="-2.32114">
        <ele>-12</ele>
        <time>2022-01-16T11:16:46.000Z</time>
      </trkpt>
      <trkpt lat="47.26118" lon="-2.32164">
        <ele>-12</ele>
        <time>2022-01-16T11:16:53.000Z</time>
      </trkpt>
      <trkpt lat="47.26109" lon="-2.32183">
        <ele>-12</ele>
        <time>2022-01-16T11:16:56.000Z</time>
      </trkpt>
      <trkpt lat="47.261" lon="-2.32204">
        <ele>-12</ele>
        <time>2022-01-16T11:16:59.000Z</time>
      </trkpt>
      <trkpt lat="47.26081" lon="-2.32235">
        <ele>-12</ele>
        <time>2022-01-16T11:17:04.000Z</time>
      </trkpt>
      <trkpt lat="47.26077" lon="-2.32241">
        <ele>-12</ele>
        <time>2022-01-16T11:17:05.000Z</time>
      </trkpt>
      <trkpt lat="47.26051" lon="-2.3227">
        <ele>-12</ele>
        <time>2022-01-16T11:17:11.000Z</time>
      </trkpt>
      <trkpt lat="47.26023" lon="-2.32302">
        <ele>-12</ele>
        <time>2022-01-16T11:17:17.000Z</time>
      </trkpt>
      <trkpt lat="47.25985" lon="-2.3235">
        <ele>-12</ele>
        <time>2022-01-16T11:17:25.000Z</time>
      </trkpt>
      <trkpt lat="47.25958" lon="-2.32385">
        <ele>-12</ele>
        <time>2022-01-16T11:17:31.000Z</time>
      </trkpt>
      <trkpt lat="47.25929" lon="-2.32423">
        <ele>-12</ele>
        <time>2022-01-16T11:17:38.000Z</time>
      </trkpt>
      <trkpt lat="47.25916" lon="-2.32441">
        <ele>-12</ele>
        <time>2022-01-16T11:17:42.000Z</time>
      </trkpt>
      <trkpt lat="47.25909" lon="-2.32449">
        <ele>-12</ele>
        <time>2022-01-16T11:17:44.000Z</time>
      </trkpt>
      <trkpt lat="47.25889" lon="-2.3247">
        <ele>-12</ele>
        <time>2022-01-16T11:17:49.000Z</time>
      </trkpt>
      <trkpt lat="47.25884" lon="-2.32472">
        <ele>-12</ele>
        <time>2022-01-16T11:17:50.000Z</time>
      </trkpt>
      <trkpt lat="47.25858" lon="-2.32476">
        <ele>-12</ele>
        <time>2022-01-16T11:17:55.000Z</time>
      </trkpt>
      <trkpt lat="47.25831" lon="-2.3247">
        <ele>-12</ele>
        <time>2022-01-16T11:18:00.000Z</time>
      </trkpt>
      <trkpt lat="47.25826" lon="-2.32468">
        <ele>-12</ele>
        <time>2022-01-16T11:18:01.000Z</time>
      </trkpt>
      <trkpt lat="47.25802" lon="-2.32457">
        <ele>-12</ele>
        <time>2022-01-16T11:18:07.000Z</time>
      </trkpt>
      <trkpt lat="47.25793" lon="-2.32457">
        <ele>-12</ele>
        <time>2022-01-16T11:18:12.000Z</time>
      </trkpt>
      <trkpt lat="47.25782" lon="-2.32455">
        <ele>-12</ele>
        <time>2022-01-16T11:18:15.000Z</time>
      </trkpt>
      <trkpt lat="47.25778" lon="-2.32451">
        <ele>-12</ele>
        <time>2022-01-16T11:18:16.000Z</time>
      </trkpt>
      <trkpt lat="47.25775" lon="-2.32445">
        <ele>-11.60000038147</ele>
        <time>2022-01-16T11:18:17.000Z</time>
      </trkpt>
      <trkpt lat="47.25772" lon="-2.3244">
        <ele>-11.199999809265</ele>
        <time>2022-01-16T11:18:18.000Z</time>
      </trkpt>
      <trkpt lat="47.25769" lon="-2.32434">
        <ele>-10.60000038147</ele>
        <time>2022-01-16T11:18:19.000Z</time>
      </trkpt>
      <trkpt lat="47.25765" lon="-2.32429">
        <ele>-10.199999809265</ele>
        <time>2022-01-16T11:18:20.000Z</time>
      </trkpt>
      <trkpt lat="47.2576" lon="-2.32426">
        <ele>-9.8000001907349</ele>
        <time>2022-01-16T11:18:21.000Z</time>
      </trkpt>
      <trkpt lat="47.25748" lon="-2.32425">
        <ele>-9.8000001907349</ele>
        <time>2022-01-16T11:18:23.000Z</time>
      </trkpt>
      <trkpt lat="47.25742" lon="-2.32425">
        <ele>-9.8000001907349</ele>
        <time>2022-01-16T11:18:24.000Z</time>
      </trkpt>
      <trkpt lat="47.25709" lon="-2.32425">
        <ele>-9.8000001907349</ele>
        <time>2022-01-16T11:18:30.000Z</time>
      </trkpt>
      <trkpt lat="47.25666" lon="-2.32422">
        <ele>-9.8000001907349</ele>
        <time>2022-01-16T11:18:38.000Z</time>
      </trkpt>
      <trkpt lat="47.25662" lon="-2.32426">
        <ele>-9.8000001907349</ele>
        <time>2022-01-16T11:18:39.000Z</time>
      </trkpt>
      <trkpt lat="47.25658" lon="-2.3244">
        <ele>-9.8000001907349</ele>
        <time>2022-01-16T11:18:41.000Z</time>
      </trkpt>
      <trkpt lat="47.25662" lon="-2.32462">
        <ele>-9.8000001907349</ele>
        <time>2022-01-16T11:18:44.000Z</time>
      </trkpt>
      <trkpt lat="47.25669" lon="-2.32482">
        <ele>-9.8000001907349</ele>
        <time>2022-01-16T11:18:47.000Z</time>
      </trkpt>
      <trkpt lat="47.25675" lon="-2.32501">
        <ele>-9.8000001907349</ele>
        <time>2022-01-16T11:18:50.000Z</time>
      </trkpt>
      <trkpt lat="47.25685" lon="-2.32526">
        <ele>-9.8000001907349</ele>
        <time>2022-01-16T11:18:54.000Z</time>
      </trkpt>
      <trkpt lat="47.25687" lon="-2.32533">
        <ele>-9.3999996185303</ele>
        <time>2022-01-16T11:18:55.000Z</time>
      </trkpt>
      <trkpt lat="47.25689" lon="-2.32539">
        <ele>-9</ele>
        <time>2022-01-16T11:18:56.000Z</time>
      </trkpt>
      <trkpt lat="47.25691" lon="-2.32545">
        <ele>-8.3999996185303</ele>
        <time>2022-01-16T11:18:57.000Z</time>
      </trkpt>
      <trkpt lat="47.25693" lon="-2.32551">
        <ele>-8</ele>
        <time>2022-01-16T11:18:58.000Z</time>
      </trkpt>
      <trkpt lat="47.25696" lon="-2.32557">
        <ele>-7.5999999046326</ele>
        <time>2022-01-16T11:18:59.000Z</time>
      </trkpt>
      <trkpt lat="47.25705" lon="-2.32587">
        <ele>-7.5999999046326</ele>
        <time>2022-01-16T11:19:04.000Z</time>
      </trkpt>
      <trkpt lat="47.25709" lon="-2.32614">
        <ele>-7.5999999046326</ele>
        <time>2022-01-16T11:19:08.000Z</time>
      </trkpt>
      <trkpt lat="47.25707" lon="-2.3262">
        <ele>-7.1999998092651</ele>
        <time>2022-01-16T11:19:09.000Z</time>
      </trkpt>
      <trkpt lat="47.25703" lon="-2.32625">
        <ele>-6.8000001907349</ele>
        <time>2022-01-16T11:19:10.000Z</time>
      </trkpt>
      <trkpt lat="47.25699" lon="-2.32628">
        <ele>-6.4000000953674</ele>
        <time>2022-01-16T11:19:11.000Z</time>
      </trkpt>
      <trkpt lat="47.25694" lon="-2.32629">
        <ele>-6</ele>
        <time>2022-01-16T11:19:12.000Z</time>
      </trkpt>
      <trkpt lat="47.2569" lon="-2.32631">
        <ele>-5.5999999046326</ele>
        <time>2022-01-16T11:19:13.000Z</time>
      </trkpt>
      <trkpt lat="47.25685" lon="-2.32632">
        <ele>-5.5999999046326</ele>
        <time>2022-01-16T11:19:14.000Z</time>
      </trkpt>
      <trkpt lat="47.25667" lon="-2.32641">
        <ele>-5.5999999046326</ele>
        <time>2022-01-16T11:19:18.000Z</time>
      </trkpt>
      <trkpt lat="47.25659" lon="-2.32647">
        <ele>-5.1999998092651</ele>
        <time>2022-01-16T11:19:20.000Z</time>
      </trkpt>
      <trkpt lat="47.25655" lon="-2.32649">
        <ele>-4.8000001907349</ele>
        <time>2022-01-16T11:19:21.000Z</time>
      </trkpt>
      <trkpt lat="47.2565" lon="-2.32651">
        <ele>-4.4000000953674</ele>
        <time>2022-01-16T11:19:22.000Z</time>
      </trkpt>
      <trkpt lat="47.25646" lon="-2.32654">
        <ele>-4</ele>
        <time>2022-01-16T11:19:23.000Z</time>
      </trkpt>
      <trkpt lat="47.25642" lon="-2.32656">
        <ele>-3.5999999046326</ele>
        <time>2022-01-16T11:19:24.000Z</time>
      </trkpt>
      <trkpt lat="47.25638" lon="-2.32657">
        <ele>-3.5999999046326</ele>
        <time>2022-01-16T11:19:25.000Z</time>
      </trkpt>
      <trkpt lat="47.25629" lon="-2.32661">
        <ele>-3.5999999046326</ele>
        <time>2022-01-16T11:19:27.000Z</time>
      </trkpt>
      <trkpt lat="47.25607" lon="-2.32675">
        <ele>-3.5999999046326</ele>
        <time>2022-01-16T11:19:33.000Z</time>
      </trkpt>
      <trkpt lat="47.25605" lon="-2.32681">
        <ele>-3.5999999046326</ele>
        <time>2022-01-16T11:19:34.000Z</time>
      </trkpt>
      <trkpt lat="47.25602" lon="-2.32713">
        <ele>-3.5999999046326</ele>
        <time>2022-01-16T11:19:39.000Z</time>
      </trkpt>
      <trkpt lat="47.25602" lon="-2.32744">
        <ele>-3.2000000476837</ele>
        <time>2022-01-16T11:19:44.000Z</time>
      </trkpt>
      <trkpt lat="47.25602" lon="-2.3275">
        <ele>-2.7999999523163</ele>
        <time>2022-01-16T11:19:45.000Z</time>
      </trkpt>
      <trkpt lat="47.25602" lon="-2.32757">
        <ele>-2.2000000476837</ele>
        <time>2022-01-16T11:19:46.000Z</time>
      </trkpt>
      <trkpt lat="47.25601" lon="-2.32764">
        <ele>-1.7999999523163</ele>
        <time>2022-01-16T11:19:47.000Z</time>
      </trkpt>
      <trkpt lat="47.25602" lon="-2.32771">
        <ele>-1.3999999761581</ele>
        <time>2022-01-16T11:19:48.000Z</time>
      </trkpt>
      <trkpt lat="47.25601" lon="-2.32785">
        <ele>-1.3999999761581</ele>
        <time>2022-01-16T11:19:50.000Z</time>
      </trkpt>
      <trkpt lat="47.25601" lon="-2.32798">
        <ele>-1.3999999761581</ele>
        <time>2022-01-16T11:19:52.000Z</time>
      </trkpt>
      <trkpt lat="47.25594" lon="-2.32824">
        <ele>-1.3999999761581</ele>
        <time>2022-01-16T11:19:56.000Z</time>
      </trkpt>
      <trkpt lat="47.25593" lon="-2.32831">
        <ele>-1.3999999761581</ele>
        <time>2022-01-16T11:19:57.000Z</time>
      </trkpt>
      <trkpt lat="47.25596" lon="-2.3286">
        <ele>-1.3999999761581</ele>
        <time>2022-01-16T11:20:01.000Z</time>
      </trkpt>
      <trkpt lat="47.25604" lon="-2.32916">
        <ele>-1.3999999761581</ele>
        <time>2022-01-16T11:20:09.000Z</time>
      </trkpt>
      <trkpt lat="47.25614" lon="-2.32972">
        <ele>-1.3999999761581</ele>
        <time>2022-01-16T11:20:17.000Z</time>
      </trkpt>
      <trkpt lat="47.25623" lon="-2.33015">
        <ele>-1.3999999761581</ele>
        <time>2022-01-16T11:20:23.000Z</time>
      </trkpt>
      <trkpt lat="47.25625" lon="-2.33022">
        <ele>-1.3999999761581</ele>
        <time>2022-01-16T11:20:24.000Z</time>
      </trkpt>
      <trkpt lat="47.25623" lon="-2.33028">
        <ele>-1.3999999761581</ele>
        <time>2022-01-16T11:20:25.000Z</time>
      </trkpt>
      <trkpt lat="47.25619" lon="-2.33032">
        <ele>-1.3999999761581</ele>
        <time>2022-01-16T11:20:26.000Z</time>
      </trkpt>
      <trkpt lat="47.25604" lon="-2.33031">
        <ele>-1.3999999761581</ele>
        <time>2022-01-16T11:20:29.000Z</time>
      </trkpt>
      <trkpt lat="47.25593" lon="-2.33032">
        <ele>-1.7999999523163</ele>
        <time>2022-01-16T11:20:31.000Z</time>
      </trkpt>
      <trkpt lat="47.25588" lon="-2.33033">
        <ele>-2.2000000476837</ele>
        <time>2022-01-16T11:20:32.000Z</time>
      </trkpt>
      <trkpt lat="47.25583" lon="-2.33034">
        <ele>-2.5999999046326</ele>
        <time>2022-01-16T11:20:33.000Z</time>
      </trkpt>
      <trkpt lat="47.25577" lon="-2.33035">
        <ele>-3</ele>
        <time>2022-01-16T11:20:34.000Z</time>
      </trkpt>
      <trkpt lat="47.25572" lon="-2.33037">
        <ele>-3.4000000953674</ele>
        <time>2022-01-16T11:20:35.000Z</time>
      </trkpt>
      <trkpt lat="47.25567" lon="-2.33038">
        <ele>-3.4000000953674</ele>
        <time>2022-01-16T11:20:36.000Z</time>
      </trkpt>
      <trkpt lat="47.25526" lon="-2.33049">
        <ele>-3.7999999523163</ele>
        <time>2022-01-16T11:20:43.000Z</time>
      </trkpt>
      <trkpt lat="47.2552" lon="-2.33052">
        <ele>-4.1999998092651</ele>
        <time>2022-01-16T11:20:44.000Z</time>
      </trkpt>
      <trkpt lat="47.25515" lon="-2.33056">
        <ele>-4.5999999046326</ele>
        <time>2022-01-16T11:20:45.000Z</time>
      </trkpt>
      <trkpt lat="47.25511" lon="-2.33062">
        <ele>-5</ele>
        <time>2022-01-16T11:20:46.000Z</time>
      </trkpt>
      <trkpt lat="47.25506" lon="-2.33068">
        <ele>-5.4000000953674</ele>
        <time>2022-01-16T11:20:47.000Z</time>
      </trkpt>
      <trkpt lat="47.25495" lon="-2.33085">
        <ele>-5.4000000953674</ele>
        <time>2022-01-16T11:20:50.000Z</time>
      </trkpt>
      <trkpt lat="47.25485" lon="-2.33096">
        <ele>-5.4000000953674</ele>
        <time>2022-01-16T11:20:53.000Z</time>
      </trkpt>
      <trkpt lat="47.25461" lon="-2.33104">
        <ele>-5.4000000953674</ele>
        <time>2022-01-16T11:20:58.000Z</time>
      </trkpt>
      <trkpt lat="47.25424" lon="-2.3312">
        <ele>-5.4000000953674</ele>
        <time>2022-01-16T11:21:06.000Z</time>
      </trkpt>
      <trkpt lat="47.25392" lon="-2.33134">
        <ele>-5.4000000953674</ele>
        <time>2022-01-16T11:21:14.000Z</time>
      </trkpt>
      <trkpt lat="47.25382" lon="-2.3314">
        <ele>-5.4000000953674</ele>
        <time>2022-01-16T11:21:17.000Z</time>
      </trkpt>
      <trkpt lat="47.25379" lon="-2.33138">
        <ele>-5.4000000953674</ele>
        <time>2022-01-16T11:21:18.000Z</time>
      </trkpt>
      <trkpt lat="47.25375" lon="-2.33127">
        <ele>-5.4000000953674</ele>
        <time>2022-01-16T11:21:21.000Z</time>
      </trkpt>
      <trkpt lat="47.2537" lon="-2.33118">
        <ele>-5.4000000953674</ele>
        <time>2022-01-16T11:21:25.000Z</time>
      </trkpt>
      <trkpt lat="47.2537" lon="-2.33118">
        <ele>-5.4000000953674</ele>
        <time>2022-01-16T11:21:26.000Z</time>
      </trkpt>
      <trkpt lat="47.25371" lon="-2.33102">
        <ele>-3.4000000953674</ele>
        <time>2022-01-16T11:43:23.000Z</time>
      </trkpt>
      <trkpt lat="47.25369" lon="-2.33095">
        <ele>-3.4000000953674</ele>
        <time>2022-01-16T11:43:25.000Z</time>
      </trkpt>
      <trkpt lat="47.25365" lon="-2.33088">
        <ele>-3.4000000953674</ele>
        <time>2022-01-16T11:43:27.000Z</time>
      </trkpt>
      <trkpt lat="47.25358" lon="-2.3307">
        <ele>-3.4000000953674</ele>
        <time>2022-01-16T11:43:31.000Z</time>
      </trkpt>
      <trkpt lat="47.25343" lon="-2.33031">
        <ele>-3.4000000953674</ele>
        <time>2022-01-16T11:43:39.000Z</time>
      </trkpt>
      <trkpt lat="47.25342" lon="-2.33027">
        <ele>-3.4000000953674</ele>
        <time>2022-01-16T11:43:40.000Z</time>
      </trkpt>
      <trkpt lat="47.25333" lon="-2.33003">
        <ele>-3.4000000953674</ele>
        <time>2022-01-16T11:43:46.000Z</time>
      </trkpt>
      <trkpt lat="47.25319" lon="-2.32971">
        <ele>-3.4000000953674</ele>
        <time>2022-01-16T11:43:53.000Z</time>
      </trkpt>
      <trkpt lat="47.25307" lon="-2.32936">
        <ele>-3.4000000953674</ele>
        <time>2022-01-16T11:44:00.000Z</time>
      </trkpt>
      <trkpt lat="47.25312" lon="-2.32916">
        <ele>-3.4000000953674</ele>
        <time>2022-01-16T11:44:04.000Z</time>
      </trkpt>
      <trkpt lat="47.25332" lon="-2.32895">
        <ele>-3.4000000953674</ele>
        <time>2022-01-16T11:44:10.000Z</time>
      </trkpt>
      <trkpt lat="47.2536" lon="-2.32868">
        <ele>-3.4000000953674</ele>
        <time>2022-01-16T11:44:18.000Z</time>
      </trkpt>
      <trkpt lat="47.25387" lon="-2.32839">
        <ele>-3.4000000953674</ele>
        <time>2022-01-16T11:44:25.000Z</time>
      </trkpt>
      <trkpt lat="47.25416" lon="-2.32801">
        <ele>-3.4000000953674</ele>
        <time>2022-01-16T11:44:33.000Z</time>
      </trkpt>
      <trkpt lat="47.25424" lon="-2.32788">
        <ele>-3</ele>
        <time>2022-01-16T11:44:36.000Z</time>
      </trkpt>
      <trkpt lat="47.25426" lon="-2.32784">
        <ele>-2.5999999046326</ele>
        <time>2022-01-16T11:44:37.000Z</time>
      </trkpt>
      <trkpt lat="47.25427" lon="-2.32779">
        <ele>-2.2000000476837</ele>
        <time>2022-01-16T11:44:38.000Z</time>
      </trkpt>
      <trkpt lat="47.25427" lon="-2.32775">
        <ele>-1.7999999523163</ele>
        <time>2022-01-16T11:44:39.000Z</time>
      </trkpt>
      <trkpt lat="47.25429" lon="-2.3277">
        <ele>-1.3999999761581</ele>
        <time>2022-01-16T11:44:40.000Z</time>
      </trkpt>
      <trkpt lat="47.25436" lon="-2.32762">
        <ele>-1.3999999761581</ele>
        <time>2022-01-16T11:44:42.000Z</time>
      </trkpt>
      <trkpt lat="47.2545" lon="-2.32744">
        <ele>-1.3999999761581</ele>
        <time>2022-01-16T11:44:46.000Z</time>
      </trkpt>
      <trkpt lat="47.25454" lon="-2.32739">
        <ele>-1.3999999761581</ele>
        <time>2022-01-16T11:44:47.000Z</time>
      </trkpt>
      <trkpt lat="47.25478" lon="-2.32705">
        <ele>-1.3999999761581</ele>
        <time>2022-01-16T11:44:54.000Z</time>
      </trkpt>
      <trkpt lat="47.25483" lon="-2.32695">
        <ele>-1.3999999761581</ele>
        <time>2022-01-16T11:44:56.000Z</time>
      </trkpt>
      <trkpt lat="47.25488" lon="-2.32675">
        <ele>-1.3999999761581</ele>
        <time>2022-01-16T11:44:59.000Z</time>
      </trkpt>
      <trkpt lat="47.25488" lon="-2.32668">
        <ele>-1</ele>
        <time>2022-01-16T11:45:00.000Z</time>
      </trkpt>
      <trkpt lat="47.25487" lon="-2.32661">
        <ele>-0.60000002384186</ele>
        <time>2022-01-16T11:45:01.000Z</time>
      </trkpt>
      <trkpt lat="47.25486" lon="-2.32655">
        <ele>-0.20000000298023</ele>
        <time>2022-01-16T11:45:02.000Z</time>
      </trkpt>
      <trkpt lat="47.25485" lon="-2.32648">
        <ele>0.20000000298023</ele>
        <time>2022-01-16T11:45:03.000Z</time>
      </trkpt>
      <trkpt lat="47.25484" lon="-2.32641">
        <ele>0.60000002384186</ele>
        <time>2022-01-16T11:45:04.000Z</time>
      </trkpt>
      <trkpt lat="47.25481" lon="-2.32615">
        <ele>0.60000002384186</ele>
        <time>2022-01-16T11:45:08.000Z</time>
      </trkpt>
      <trkpt lat="47.25481" lon="-2.32602">
        <ele>0.60000002384186</ele>
        <time>2022-01-16T11:45:10.000Z</time>
      </trkpt>
      <trkpt lat="47.25481" lon="-2.32578">
        <ele>0.60000002384186</ele>
        <time>2022-01-16T11:45:14.000Z</time>
      </trkpt>
      <trkpt lat="47.25491" lon="-2.32556">
        <ele>0.60000002384186</ele>
        <time>2022-01-16T11:45:18.000Z</time>
      </trkpt>
      <trkpt lat="47.25498" lon="-2.32546">
        <ele>0.60000002384186</ele>
        <time>2022-01-16T11:45:20.000Z</time>
      </trkpt>
      <trkpt lat="47.25515" lon="-2.32527">
        <ele>0.60000002384186</ele>
        <time>2022-01-16T11:45:24.000Z</time>
      </trkpt>
      <trkpt lat="47.2555" lon="-2.32496">
        <ele>0.60000002384186</ele>
        <time>2022-01-16T11:45:31.000Z</time>
      </trkpt>
      <trkpt lat="47.25561" lon="-2.32487">
        <ele>0.20000000298023</ele>
        <time>2022-01-16T11:45:33.000Z</time>
      </trkpt>
      <trkpt lat="47.25567" lon="-2.32481">
        <ele>-0.20000000298023</ele>
        <time>2022-01-16T11:45:34.000Z</time>
      </trkpt>
      <trkpt lat="47.25573" lon="-2.32475">
        <ele>-0.80000001192093</ele>
        <time>2022-01-16T11:45:35.000Z</time>
      </trkpt>
      <trkpt lat="47.25578" lon="-2.3247">
        <ele>-1.2000000476837</ele>
        <time>2022-01-16T11:45:36.000Z</time>
      </trkpt>
      <trkpt lat="47.25584" lon="-2.32463">
        <ele>-1.7999999523163</ele>
        <time>2022-01-16T11:45:37.000Z</time>
      </trkpt>
      <trkpt lat="47.2559" lon="-2.32457">
        <ele>-1.7999999523163</ele>
        <time>2022-01-16T11:45:38.000Z</time>
      </trkpt>
      <trkpt lat="47.25596" lon="-2.32451">
        <ele>-2.2000000476837</ele>
        <time>2022-01-16T11:45:39.000Z</time>
      </trkpt>
      <trkpt lat="47.25602" lon="-2.32444">
        <ele>-2.5999999046326</ele>
        <time>2022-01-16T11:45:40.000Z</time>
      </trkpt>
      <trkpt lat="47.25608" lon="-2.32437">
        <ele>-3</ele>
        <time>2022-01-16T11:45:41.000Z</time>
      </trkpt>
      <trkpt lat="47.25614" lon="-2.32431">
        <ele>-3.4000000953674</ele>
        <time>2022-01-16T11:45:42.000Z</time>
      </trkpt>
      <trkpt lat="47.2562" lon="-2.32425">
        <ele>-3.7999999523163</ele>
        <time>2022-01-16T11:45:43.000Z</time>
      </trkpt>
      <trkpt lat="47.25627" lon="-2.32418">
        <ele>-3.7999999523163</ele>
        <time>2022-01-16T11:45:44.000Z</time>
      </trkpt>
      <trkpt lat="47.25639" lon="-2.32406">
        <ele>-4.1999998092651</ele>
        <time>2022-01-16T11:45:46.000Z</time>
      </trkpt>
      <trkpt lat="47.25644" lon="-2.32402">
        <ele>-5</ele>
        <time>2022-01-16T11:45:47.000Z</time>
      </trkpt>
      <trkpt lat="47.2565" lon="-2.32401">
        <ele>-5.4000000953674</ele>
        <time>2022-01-16T11:45:48.000Z</time>
      </trkpt>
      <trkpt lat="47.25655" lon="-2.32401">
        <ele>-5.8000001907349</ele>
        <time>2022-01-16T11:45:49.000Z</time>
      </trkpt>
      <trkpt lat="47.25666" lon="-2.32405">
        <ele>-5.8000001907349</ele>
        <time>2022-01-16T11:45:51.000Z</time>
      </trkpt>
      <trkpt lat="47.2567" lon="-2.3241">
        <ele>-5.8000001907349</ele>
        <time>2022-01-16T11:45:52.000Z</time>
      </trkpt>
      <trkpt lat="47.25691" lon="-2.32419">
        <ele>-5.8000001907349</ele>
        <time>2022-01-16T11:45:56.000Z</time>
      </trkpt>
      <trkpt lat="47.25697" lon="-2.32421">
        <ele>-5.8000001907349</ele>
        <time>2022-01-16T11:45:57.000Z</time>
      </trkpt>
      <trkpt lat="47.2571" lon="-2.32421">
        <ele>-5.8000001907349</ele>
        <time>2022-01-16T11:45:59.000Z</time>
      </trkpt>
      <trkpt lat="47.25723" lon="-2.32422">
        <ele>-5.8000001907349</ele>
        <time>2022-01-16T11:46:01.000Z</time>
      </trkpt>
      <trkpt lat="47.25759" lon="-2.32421">
        <ele>-5.8000001907349</ele>
        <time>2022-01-16T11:46:07.000Z</time>
      </trkpt>
      <trkpt lat="47.25764" lon="-2.32419">
        <ele>-5.8000001907349</ele>
        <time>2022-01-16T11:46:08.000Z</time>
      </trkpt>
      <trkpt lat="47.25777" lon="-2.32412">
        <ele>-5.8000001907349</ele>
        <time>2022-01-16T11:46:11.000Z</time>
      </trkpt>
      <trkpt lat="47.2579" lon="-2.32426">
        <ele>-5.8000001907349</ele>
        <time>2022-01-16T11:46:14.000Z</time>
      </trkpt>
      <trkpt lat="47.25806" lon="-2.32452">
        <ele>-5.8000001907349</ele>
        <time>2022-01-16T11:46:18.000Z</time>
      </trkpt>
      <trkpt lat="47.25825" lon="-2.32463">
        <ele>-5.8000001907349</ele>
        <time>2022-01-16T11:46:21.000Z</time>
      </trkpt>
      <trkpt lat="47.2585" lon="-2.32473">
        <ele>-5.8000001907349</ele>
        <time>2022-01-16T11:46:25.000Z</time>
      </trkpt>
      <trkpt lat="47.25856" lon="-2.32475">
        <ele>-5.8000001907349</ele>
        <time>2022-01-16T11:46:26.000Z</time>
      </trkpt>
      <trkpt lat="47.25885" lon="-2.32472">
        <ele>-5.8000001907349</ele>
        <time>2022-01-16T11:46:31.000Z</time>
      </trkpt>
      <trkpt lat="47.2589" lon="-2.3247">
        <ele>-5.8000001907349</ele>
        <time>2022-01-16T11:46:32.000Z</time>
      </trkpt>
      <trkpt lat="47.25911" lon="-2.32451">
        <ele>-5.8000001907349</ele>
        <time>2022-01-16T11:46:36.000Z</time>
      </trkpt>
      <trkpt lat="47.2592" lon="-2.32438">
        <ele>-5.8000001907349</ele>
        <time>2022-01-16T11:46:38.000Z</time>
      </trkpt>
      <trkpt lat="47.25925" lon="-2.32432">
        <ele>-6.1999998092651</ele>
        <time>2022-01-16T11:46:39.000Z</time>
      </trkpt>
      <trkpt lat="47.25929" lon="-2.32425">
        <ele>-6.5999999046326</ele>
        <time>2022-01-16T11:46:40.000Z</time>
      </trkpt>
      <trkpt lat="47.25933" lon="-2.32418">
        <ele>-7</ele>
        <time>2022-01-16T11:46:41.000Z</time>
      </trkpt>
      <trkpt lat="47.25937" lon="-2.32412">
        <ele>-7.5999999046326</ele>
        <time>2022-01-16T11:46:42.000Z</time>
      </trkpt>
      <trkpt lat="47.25942" lon="-2.32405">
        <ele>-8</ele>
        <time>2022-01-16T11:46:43.000Z</time>
      </trkpt>
      <trkpt lat="47.25969" lon="-2.32367">
        <ele>-8</ele>
        <time>2022-01-16T11:46:49.000Z</time>
      </trkpt>
      <trkpt lat="47.26012" lon="-2.32312">
        <ele>-8</ele>
        <time>2022-01-16T11:46:58.000Z</time>
      </trkpt>
      <trkpt lat="47.26041" lon="-2.32278">
        <ele>-8</ele>
        <time>2022-01-16T11:47:04.000Z</time>
      </trkpt>
      <trkpt lat="47.26075" lon="-2.32239">
        <ele>-8</ele>
        <time>2022-01-16T11:47:11.000Z</time>
      </trkpt>
      <trkpt lat="47.26092" lon="-2.32215">
        <ele>-8</ele>
        <time>2022-01-16T11:47:15.000Z</time>
      </trkpt>
      <trkpt lat="47.26103" lon="-2.32194">
        <ele>-8</ele>
        <time>2022-01-16T11:47:18.000Z</time>
      </trkpt>
      <trkpt lat="47.26124" lon="-2.32141">
        <ele>-8</ele>
        <time>2022-01-16T11:47:25.000Z</time>
      </trkpt>
      <trkpt lat="47.26139" lon="-2.32092">
        <ele>-8</ele>
        <time>2022-01-16T11:47:31.000Z</time>
      </trkpt>
      <trkpt lat="47.26152" lon="-2.32048">
        <ele>-8</ele>
        <time>2022-01-16T11:47:37.000Z</time>
      </trkpt>
      <trkpt lat="47.26159" lon="-2.32029">
        <ele>-8</ele>
        <time>2022-01-16T11:47:40.000Z</time>
      </trkpt>
      <trkpt lat="47.26166" lon="-2.3202">
        <ele>-8</ele>
        <time>2022-01-16T11:47:42.000Z</time>
      </trkpt>
      <trkpt lat="47.2618" lon="-2.32019">
        <ele>-8</ele>
        <time>2022-01-16T11:47:46.000Z</time>
      </trkpt>
      <trkpt lat="47.26184" lon="-2.32021">
        <ele>-8</ele>
        <time>2022-01-16T11:47:47.000Z</time>
      </trkpt>
      <trkpt lat="47.26195" lon="-2.32024">
        <ele>-8</ele>
        <time>2022-01-16T11:47:51.000Z</time>
      </trkpt>
      <trkpt lat="47.26196" lon="-2.32023">
        <ele>-8</ele>
        <time>2022-01-16T11:47:52.000Z</time>
      </trkpt>
      <trkpt lat="47.26198" lon="-2.32018">
        <ele>-8</ele>
        <time>2022-01-16T11:47:54.000Z</time>
      </trkpt>
      <trkpt lat="47.26199" lon="-2.3201">
        <ele>-8</ele>
        <time>2022-01-16T11:47:56.000Z</time>
      </trkpt>
      <trkpt lat="47.26202" lon="-2.32007">
        <ele>-8</ele>
        <time>2022-01-16T11:47:57.000Z</time>
      </trkpt>
      <trkpt lat="47.26204" lon="-2.32006">
        <ele>-8</ele>
        <time>2022-01-16T11:47:58.000Z</time>
      </trkpt>
      <trkpt lat="47.26213" lon="-2.31996">
        <ele>-8</ele>
        <time>2022-01-16T11:48:02.000Z</time>
      </trkpt>
      <trkpt lat="47.26216" lon="-2.31993">
        <ele>-8</ele>
        <time>2022-01-16T11:48:03.000Z</time>
      </trkpt>
      <trkpt lat="47.26227" lon="-2.31978">
        <ele>-8</ele>
        <time>2022-01-16T11:48:07.000Z</time>
      </trkpt>
      <trkpt lat="47.2623" lon="-2.31974">
        <ele>-8</ele>
        <time>2022-01-16T11:48:08.000Z</time>
      </trkpt>
      <trkpt lat="47.26245" lon="-2.31961">
        <ele>-8</ele>
        <time>2022-01-16T11:48:12.000Z</time>
      </trkpt>
      <trkpt lat="47.26251" lon="-2.31945">
        <ele>-8</ele>
        <time>2022-01-16T11:48:16.000Z</time>
      </trkpt>
      <trkpt lat="47.2626" lon="-2.31925">
        <ele>-8</ele>
        <time>2022-01-16T11:48:21.000Z</time>
      </trkpt>
      <trkpt lat="47.26274" lon="-2.31906">
        <ele>-8</ele>
        <time>2022-01-16T11:48:26.000Z</time>
      </trkpt>
      <trkpt lat="47.26288" lon="-2.3189">
        <ele>-8</ele>
        <time>2022-01-16T11:48:31.000Z</time>
      </trkpt>
      <trkpt lat="47.26291" lon="-2.31866">
        <ele>-8</ele>
        <time>2022-01-16T11:48:35.000Z</time>
      </trkpt>
      <trkpt lat="47.26295" lon="-2.31823">
        <ele>-8</ele>
        <time>2022-01-16T11:48:42.000Z</time>
      </trkpt>
      <trkpt lat="47.26302" lon="-2.31775">
        <ele>-8</ele>
        <time>2022-01-16T11:48:49.000Z</time>
      </trkpt>
      <trkpt lat="47.263" lon="-2.31737">
        <ele>-8</ele>
        <time>2022-01-16T11:48:55.000Z</time>
      </trkpt>
      <trkpt lat="47.26301" lon="-2.31724">
        <ele>-8</ele>
        <time>2022-01-16T11:48:57.000Z</time>
      </trkpt>
      <trkpt lat="47.26306" lon="-2.31715">
        <ele>-8</ele>
        <time>2022-01-16T11:48:59.000Z</time>
      </trkpt>
      <trkpt lat="47.26319" lon="-2.3171">
        <ele>-8</ele>
        <time>2022-01-16T11:49:02.000Z</time>
      </trkpt>
      <trkpt lat="47.26323" lon="-2.31708">
        <ele>-8</ele>
        <time>2022-01-16T11:49:03.000Z</time>
      </trkpt>
      <trkpt lat="47.26332" lon="-2.31698">
        <ele>-8</ele>
        <time>2022-01-16T11:49:06.000Z</time>
      </trkpt>
      <trkpt lat="47.26333" lon="-2.31693">
        <ele>-8</ele>
        <time>2022-01-16T11:49:07.000Z</time>
      </trkpt>
      <trkpt lat="47.26335" lon="-2.31689">
        <ele>-7.5999999046326</ele>
        <time>2022-01-16T11:49:08.000Z</time>
      </trkpt>
      <trkpt lat="47.26338" lon="-2.31687">
        <ele>-7</ele>
        <time>2022-01-16T11:49:09.000Z</time>
      </trkpt>
      <trkpt lat="47.26341" lon="-2.31685">
        <ele>-6.5999999046326</ele>
        <time>2022-01-16T11:49:10.000Z</time>
      </trkpt>
      <trkpt lat="47.26344" lon="-2.31684">
        <ele>-6.1999998092651</ele>
        <time>2022-01-16T11:49:11.000Z</time>
      </trkpt>
      <trkpt lat="47.26347" lon="-2.31683">
        <ele>-5.8000001907349</ele>
        <time>2022-01-16T11:49:12.000Z</time>
      </trkpt>
      <trkpt lat="47.26354" lon="-2.31682">
        <ele>-5.8000001907349</ele>
        <time>2022-01-16T11:49:14.000Z</time>
      </trkpt>
      <trkpt lat="47.26363" lon="-2.31677">
        <ele>-5.8000001907349</ele>
        <time>2022-01-16T11:49:17.000Z</time>
      </trkpt>
      <trkpt lat="47.26379" lon="-2.31668">
        <ele>-5.4000000953674</ele>
        <time>2022-01-16T11:49:22.000Z</time>
      </trkpt>
      <trkpt lat="47.26383" lon="-2.31666">
        <ele>-5</ele>
        <time>2022-01-16T11:49:23.000Z</time>
      </trkpt>
      <trkpt lat="47.26385" lon="-2.31664">
        <ele>-4.4000000953674</ele>
        <time>2022-01-16T11:49:24.000Z</time>
      </trkpt>
      <trkpt lat="47.26389" lon="-2.31662">
        <ele>-4</ele>
        <time>2022-01-16T11:49:25.000Z</time>
      </trkpt>
      <trkpt lat="47.26392" lon="-2.31661">
        <ele>-3.5999999046326</ele>
        <time>2022-01-16T11:49:26.000Z</time>
      </trkpt>
      <trkpt lat="47.26404" lon="-2.31656">
        <ele>-3.5999999046326</ele>
        <time>2022-01-16T11:49:30.000Z</time>
      </trkpt>
      <trkpt lat="47.26412" lon="-2.31644">
        <ele>-3.5999999046326</ele>
        <time>2022-01-16T11:49:34.000Z</time>
      </trkpt>
      <trkpt lat="47.26412" lon="-2.3164">
        <ele>-3.5999999046326</ele>
        <time>2022-01-16T11:49:35.000Z</time>
      </trkpt>
      <trkpt lat="47.26412" lon="-2.31628">
        <ele>-3.5999999046326</ele>
        <time>2022-01-16T11:49:38.000Z</time>
      </trkpt>
      <trkpt lat="47.26412" lon="-2.31618">
        <ele>-3.5999999046326</ele>
        <time>2022-01-16T11:49:40.000Z</time>
      </trkpt>
      <trkpt lat="47.26412" lon="-2.3158">
        <ele>-3.5999999046326</ele>
        <time>2022-01-16T11:49:48.000Z</time>
      </trkpt>
      <trkpt lat="47.26412" lon="-2.31554">
        <ele>-3.5999999046326</ele>
        <time>2022-01-16T11:49:54.000Z</time>
      </trkpt>
      <trkpt lat="47.26414" lon="-2.31551">
        <ele>-3.5999999046326</ele>
        <time>2022-01-16T11:49:55.000Z</time>
      </trkpt>
      <trkpt lat="47.26418" lon="-2.31551">
        <ele>-3.5999999046326</ele>
        <time>2022-01-16T11:49:57.000Z</time>
      </trkpt>
      <trkpt lat="47.26419" lon="-2.31552">
        <ele>-3.2000000476837</ele>
        <time>2022-01-16T11:49:59.000Z</time>
      </trkpt>
      <trkpt lat="47.26419" lon="-2.31552">
        <ele>-2.7999999523163</ele>
        <time>2022-01-16T11:50:00.000Z</time>
      </trkpt>
    </trkseg>
  </trk>
</gpx>